Wetterdaten: Mittwoch, 27.12.2017
Datum Zeit Temp. A. Pool Temp. Feuchte A. Luftdruck Regen Wind Richtung Richtung Sonnenschein ET UV Solar Taupunkt Windchill Windben Empfang
27.12.2017 00:00 -2,2 C 4,4 C 97 % 1005,9 hPa 0,0 l/m 0,0 km/h (0 Bft) S 180 0 min 0,000 mm 0,0 UV-I 0 W/m -2,6 C -2,2 C 1,6 km/h (1 Bft) 100,00 %
27.12.2017 00:01 -2,2 C 4,4 C 97 % 1005,8 hPa 0,0 l/m 0,0 km/h (0 Bft) S 180 0 min 0,000 mm 0,0 UV-I 0 W/m -2,6 C -2,2 C 3,2 km/h (1 Bft) 95,65 %
27.12.2017 00:02 -2,2 C 4,4 C 97 % 1005,8 hPa 0,0 l/m 1,6 km/h (1 Bft) S 180 0 min 0,000 mm 0,0 UV-I 0 W/m -2,6 C -2,2 C 3,2 km/h (1 Bft) 100,00 %
27.12.2017 00:03 -2,2 C 4,4 C 97 % 1005,6 hPa 0,0 l/m 1,6 km/h (1 Bft) S 180 0 min 0,000 mm 0,0 UV-I 0 W/m -2,6 C -2,2 C 3,2 km/h (1 Bft) 95,65 %
27.12.2017 00:04 -2,2 C 4,4 C 97 % 1005,6 hPa 0,0 l/m 1,6 km/h (1 Bft) S 180 0 min 0,000 mm 0,0 UV-I 0 W/m -2,6 C -2,2 C 3,2 km/h (1 Bft) 100,00 %
27.12.2017 00:05 -2,3 C 4,4 C 97 % 1005,5 hPa 0,0 l/m 1,6 km/h (1 Bft) S 180 0 min 0,000 mm 0,0 UV-I 0 W/m -2,7 C -2,3 C 3,2 km/h (1 Bft) 95,65 %
27.12.2017 00:06 -2,3 C 4,4 C 97 % 1005,5 hPa 0,0 l/m 3,2 km/h (1 Bft) S 180 0 min 0,000 mm 0,0 UV-I 0 W/m -2,7 C -2,3 C 6,4 km/h (2 Bft) 95,65 %
27.12.2017 00:07 -2,2 C 4,4 C 97 % 1005,4 hPa 0,0 l/m 3,2 km/h (1 Bft) O-NO 67 0 min 0,000 mm 0,0 UV-I 0 W/m -2,6 C -2,2 C 4,8 km/h (1 Bft) 95,65 %
27.12.2017 00:08 -2,3 C 4,4 C 97 % 1005,4 hPa 0,0 l/m 3,2 km/h (1 Bft) NO 45 0 min 0,000 mm 0,0 UV-I 0 W/m -2,7 C -2,3 C 4,8 km/h (1 Bft) 100,00 %
27.12.2017 00:09 -2,3 C 4,4 C 97 % 1005,4 hPa 0,0 l/m 1,6 km/h (1 Bft) NO 45 0 min 0,000 mm 0,0 UV-I 0 W/m -2,7 C -2,3 C 4,8 km/h (1 Bft) 95,65 %
27.12.2017 00:10 -2,3 C 4,4 C 97 % 1005,4 hPa 0,0 l/m 1,6 km/h (1 Bft) NO 45 0 min 0,000 mm 0,0 UV-I 0 W/m -2,7 C -2,3 C 3,2 km/h (1 Bft) 95,65 %
27.12.2017 00:11 -2,3 C 4,4 C 97 % 1005,4 hPa 0,0 l/m 1,6 km/h (1 Bft) NO 45 0 min 0,000 mm 0,0 UV-I 0 W/m -2,7 C -2,3 C 3,2 km/h (1 Bft) 100,00 %
27.12.2017 00:12 -2,3 C 4,4 C 97 % 1005,3 hPa 0,0 l/m 1,6 km/h (1 Bft) NO 45 0 min 0,000 mm 0,0 UV-I 0 W/m -2,7 C -2,3 C 3,2 km/h (1 Bft) 100,00 %
27.12.2017 00:13 -2,3 C 4,4 C 97 % 1005,3 hPa 0,0 l/m 0,0 km/h (0 Bft) N 0 0 min 0,000 mm 0,0 UV-I 0 W/m -2,7 C -2,3 C 0,0 km/h (0 Bft) 100,00 %
27.12.2017 00:14 -2,3 C 4,4 C 97 % 1005,2 hPa 0,0 l/m 1,6 km/h (1 Bft) NO 45 0 min 0,000 mm 0,0 UV-I 0 W/m -2,7 C -2,3 C 3,2 km/h (1 Bft) 95,65 %
27.12.2017 00:15 -2,3 C 4,4 C 97 % 1005,2 hPa 0,0 l/m 1,6 km/h (1 Bft) NO 45 0 min 0,000 mm 0,0 UV-I 0 W/m -2,7 C -2,3 C 3,2 km/h (1 Bft) 100,00 %
27.12.2017 00:16 -2,3 C 4,4 C 97 % 1005,1 hPa 0,0 l/m 1,6 km/h (1 Bft) NO 45 0 min 0,000 mm 0,0 UV-I 0 W/m -2,7 C -2,3 C 3,2 km/h (1 Bft) 95,65 %
27.12.2017 00:17 -2,3 C 4,4 C 97 % 1005,1 hPa 0,0 l/m 4,8 km/h (1 Bft) O 90 0 min 0,000 mm 0,0 UV-I 0 W/m -2,7 C -2,3 C 6,4 km/h (2 Bft) 95,65 %
27.12.2017 00:18 -2,3 C 4,4 C 97 % 1005,1 hPa 0,0 l/m 6,4 km/h (2 Bft) O-SO 112 0 min 0,000 mm 0,0 UV-I 0 W/m -2,7 C -2,3 C 11,3 km/h (2 Bft) 95,65 %
27.12.2017 00:19 -2,3 C 4,4 C 97 % 1005,0 hPa 0,0 l/m 6,4 km/h (2 Bft) O 90 0 min 0,000 mm 0,0 UV-I 0 W/m -2,7 C -2,3 C 11,3 km/h (2 Bft) 100,00 %
27.12.2017 00:20 -2,3 C 4,4 C 97 % 1005,1 hPa 0,0 l/m 6,4 km/h (2 Bft) O-SO 112 0 min 0,000 mm 0,0 UV-I 0 W/m -2,7 C -2,3 C 9,7 km/h (2 Bft) 95,65 %
27.12.2017 00:21 -2,3 C 4,4 C 97 % 1005,0 hPa 0,0 l/m 3,2 km/h (1 Bft) O-SO 112 0 min 0,000 mm 0,0 UV-I 0 W/m -2,7 C -2,3 C 6,4 km/h (2 Bft) 100,00 %
27.12.2017 00:22 -2,3 C 4,4 C 97 % 1005,1 hPa 0,0 l/m 0,0 km/h (0 Bft) N 0 0 min 0,000 mm 0,0 UV-I 0 W/m -2,7 C -2,3 C 0,0 km/h (0 Bft) 95,65 %
27.12.2017 00:23 -2,3 C 4,4 C 97 % 1005,1 hPa 0,0 l/m 0,0 km/h (0 Bft) N 0 0 min 0,000 mm 0,0 UV-I 0 W/m -2,7 C -2,3 C 0,0 km/h (0 Bft) 100,00 %
27.12.2017 00:24 -2,3 C 4,4 C 97 % 1005,1 hPa 0,0 l/m 0,0 km/h (0 Bft) O-SO 112 0 min 0,000 mm 0,0 UV-I 0 W/m -2,7 C -2,3 C 1,6 km/h (1 Bft) 91,30 %
27.12.2017 00:25 -2,3 C 4,4 C 97 % 1005,0 hPa 0,0 l/m 1,6 km/h (1 Bft) O-SO 112 0 min 0,000 mm 0,0 UV-I 0 W/m -2,7 C -2,3 C 3,2 km/h (1 Bft) 100,00 %
27.12.2017 00:26 -2,3 C 4,4 C 97 % 1005,0 hPa 0,0 l/m 3,2 km/h (1 Bft) O-NO 67 0 min 0,000 mm 0,0 UV-I 0 W/m -2,7 C -2,3 C 4,8 km/h (1 Bft) 95,65 %
27.12.2017 00:27 -2,3 C 4,4 C 97 % 1005,0 hPa 0,0 l/m 4,8 km/h (1 Bft) NO 45 0 min 0,000 mm 0,0 UV-I 0 W/m -2,7 C -2,3 C 4,8 km/h (1 Bft) 91,30 %
27.12.2017 00:28 -2,3 C 4,4 C 97 % 1004,9 hPa 0,0 l/m 4,8 km/h (1 Bft) O-NO 67 0 min 0,000 mm 0,0 UV-I 0 W/m -2,7 C -2,3 C 8,0 km/h (2 Bft) 95,65 %
27.12.2017 00:29 -2,3 C 4,4 C 97 % 1004,9 hPa 0,0 l/m 6,4 km/h (2 Bft) O-NO 67 0 min 0,000 mm 0,0 UV-I 0 W/m -2,7 C -2,3 C 9,7 km/h (2 Bft) 95,65 %
27.12.2017 00:30 -2,3 C 4,4 C 97 % 1004,9 hPa 0,0 l/m 6,4 km/h (2 Bft) O-NO 67 0 min 0,000 mm 0,0 UV-I 0 W/m -2,7 C -2,3 C 8,0 km/h (2 Bft) 100,00 %
27.12.2017 00:31 -2,3 C 4,4 C 97 % 1004,9 hPa 0,0 l/m 6,4 km/h (2 Bft) O-NO 67 0 min 0,000 mm 0,0 UV-I 0 W/m -2,7 C -2,3 C 11,3 km/h (2 Bft) 91,30 %
27.12.2017 00:32 -2,4 C 4,4 C 97 % 1004,9 hPa 0,0 l/m 6,4 km/h (2 Bft) O-NO 67 0 min 0,000 mm 0,0 UV-I 0 W/m -2,8 C -2,4 C 8,0 km/h (2 Bft) 100,00 %
27.12.2017 00:33 -2,4 C 4,4 C 97 % 1004,8 hPa 0,0 l/m 6,4 km/h (2 Bft) NO 45 0 min 0,000 mm 0,0 UV-I 0 W/m -2,8 C -2,4 C 8,0 km/h (2 Bft) 95,65 %
27.12.2017 00:34 -2,4 C 4,4 C 97 % 1004,7 hPa 0,0 l/m 6,4 km/h (2 Bft) O-NO 67 0 min 0,000 mm 0,0 UV-I 0 W/m -2,8 C -2,4 C 8,0 km/h (2 Bft) 100,00 %
27.12.2017 00:35 -2,4 C 4,4 C 97 % 1004,7 hPa 0,0 l/m 6,4 km/h (2 Bft) O-NO 67 0 min 0,000 mm 0,0 UV-I 0 W/m -2,8 C -2,4 C 9,7 km/h (2 Bft) 95,65 %
27.12.2017 00:36 -2,4 C 4,4 C 97 % 1004,7 hPa 0,0 l/m 8,0 km/h (2 Bft) O-NO 67 0 min 0,000 mm 0,0 UV-I 0 W/m -2,8 C -4,2 C 9,7 km/h (2 Bft) 95,65 %
27.12.2017 00:37 -2,4 C 4,4 C 97 % 1004,6 hPa 0,0 l/m 4,8 km/h (1 Bft) O-NO 67 0 min 0,000 mm 0,0 UV-I 0 W/m -2,8 C -2,4 C 6,4 km/h (2 Bft) 95,65 %
27.12.2017 00:38 -2,4 C 4,4 C 97 % 1004,6 hPa 0,0 l/m 4,8 km/h (1 Bft) O-NO 67 0 min 0,000 mm 0,0 UV-I 0 W/m -2,8 C -2,4 C 4,8 km/h (1 Bft) 95,65 %
27.12.2017 00:39 -2,4 C 4,4 C 97 % 1004,5 hPa 0,0 l/m 6,4 km/h (2 Bft) O-NO 67 0 min 0,000 mm 0,0 UV-I 0 W/m -2,8 C -2,4 C 8,0 km/h (2 Bft) 100,00 %
27.12.2017 00:40 -2,4 C 4,4 C 97 % 1004,5 hPa 0,0 l/m 6,4 km/h (2 Bft) O-NO 67 0 min 0,000 mm 0,0 UV-I 0 W/m -2,8 C -2,4 C 9,7 km/h (2 Bft) 100,00 %
27.12.2017 00:41 -2,4 C 4,4 C 97 % 1004,5 hPa 0,0 l/m 4,8 km/h (1 Bft) O-NO 67 0 min 0,000 mm 0,0 UV-I 0 W/m -2,8 C -2,4 C 4,8 km/h (1 Bft) 95,65 %
27.12.2017 00:42 -2,4 C 4,4 C 97 % 1004,5 hPa 0,0 l/m 6,4 km/h (2 Bft) NO 45 0 min 0,000 mm 0,0 UV-I 0 W/m -2,8 C -2,4 C 9,7 km/h (2 Bft) 100,00 %
27.12.2017 00:43 -2,4 C 4,4 C 97 % 1004,4 hPa 0,0 l/m 6,4 km/h (2 Bft) O-NO 67 0 min 0,000 mm 0,0 UV-I 0 W/m -2,8 C -2,4 C 6,4 km/h (2 Bft) 100,00 %
27.12.2017 00:44 -2,4 C 4,4 C 97 % 1004,3 hPa 0,0 l/m 3,2 km/h (1 Bft) O-NO 67 0 min 0,000 mm 0,0 UV-I 0 W/m -2,8 C -2,4 C 4,8 km/h (1 Bft) 100,00 %
27.12.2017 00:45 -2,4 C 4,4 C 97 % 1004,3 hPa 0,0 l/m 6,4 km/h (2 Bft) O-NO 67 0 min 0,000 mm 0,0 UV-I 0 W/m -2,8 C -2,4 C 6,4 km/h (2 Bft) 95,65 %
27.12.2017 00:46 -2,4 C 4,4 C 97 % 1004,3 hPa 0,0 l/m 4,8 km/h (1 Bft) O-NO 67 0 min 0,000 mm 0,0 UV-I 0 W/m -2,8 C -2,4 C 6,4 km/h (2 Bft) 100,00 %
27.12.2017 00:47 -2,4 C 4,4 C 97 % 1004,2 hPa 0,0 l/m 6,4 km/h (2 Bft) NO 45 0 min 0,000 mm 0,0 UV-I 0 W/m -2,8 C -2,4 C 8,0 km/h (2 Bft) 95,65 %
27.12.2017 00:48 -2,4 C 4,4 C 97 % 1004,2 hPa 0,0 l/m 8,0 km/h (2 Bft) NO 45 0 min 0,000 mm 0,0 UV-I 0 W/m -2,8 C -4,2 C 9,7 km/h (2 Bft) 95,65 %
27.12.2017 00:49 -2,4 C 4,4 C 97 % 1004,1 hPa 0,0 l/m 8,0 km/h (2 Bft) NO 45 0 min 0,000 mm 0,0 UV-I 0 W/m -2,8 C -4,2 C 11,3 km/h (2 Bft) 100,00 %
27.12.2017 00:50 -2,4 C 4,4 C 97 % 1004,1 hPa 0,0 l/m 6,4 km/h (2 Bft) NO 45 0 min 0,000 mm 0,0 UV-I 0 W/m -2,8 C -2,4 C 8,0 km/h (2 Bft) 100,00 %
27.12.2017 00:51 -2,4 C 4,4 C 97 % 1004,1 hPa 0,0 l/m 4,8 km/h (1 Bft) NO 45 0 min 0,000 mm 0,0 UV-I 0 W/m -2,8 C -2,4 C 8,0 km/h (2 Bft) 100,00 %
27.12.2017 00:52 -2,4 C 4,4 C 97 % 1004,1 hPa 0,0 l/m 8,0 km/h (2 Bft) NO 45 0 min 0,000 mm 0,0 UV-I 0 W/m -2,8 C -4,2 C 9,7 km/h (2 Bft) 100,00 %
27.12.2017 00:53 -2,4 C 4,4 C 97 % 1004,1 hPa 0,0 l/m 6,4 km/h (2 Bft) NO 45 0 min 0,000 mm 0,0 UV-I 0 W/m -2,8 C -2,4 C 8,0 km/h (2 Bft) 95,65 %
27.12.2017 00:54 -2,4 C 4,4 C 97 % 1004,1 hPa 0,0 l/m 9,7 km/h (2 Bft) O-NO 67 0 min 0,000 mm 0,0 UV-I 0 W/m -2,8 C -5,8 C 11,3 km/h (2 Bft) 95,65 %
27.12.2017 00:55 -2,4 C 4,4 C 97 % 1004,1 hPa 0,0 l/m 8,0 km/h (2 Bft) O-NO 67 0 min 0,000 mm 0,0 UV-I 0 W/m -2,8 C -4,2 C 12,9 km/h (3 Bft) 100,00 %
27.12.2017 00:56 -2,4 C 4,4 C 97 % 1004,1 hPa 0,0 l/m 6,4 km/h (2 Bft) NO 45 0 min 0,000 mm 0,0 UV-I 0 W/m -2,8 C -2,4 C 9,7 km/h (2 Bft) 95,65 %
27.12.2017 00:57 -2,4 C 4,4 C 97 % 1004,1 hPa 0,0 l/m 4,8 km/h (1 Bft) NO 45 0 min 0,000 mm 0,0 UV-I 0 W/m -2,8 C -2,4 C 6,4 km/h (2 Bft) 100,00 %
27.12.2017 00:58 -2,4 C 4,4 C 97 % 1004,2 hPa 0,0 l/m 4,8 km/h (1 Bft) O-NO 67 0 min 0,000 mm 0,0 UV-I 0 W/m -2,8 C -2,4 C 6,4 km/h (2 Bft) 95,65 %
27.12.2017 00:59 -2,4 C 4,4 C 97 % 1004,1 hPa 0,0 l/m 4,8 km/h (1 Bft) O-NO 67 0 min 0,000 mm 0,0 UV-I 0 W/m -2,8 C -2,4 C 4,8 km/h (1 Bft) 100,00 %
27.12.2017 01:00 -2,4 C 4,4 C 97 % 1004,2 hPa 0,0 l/m 3,2 km/h (1 Bft) O-NO 67 0 min 0,000 mm 0,0 UV-I 0 W/m -2,8 C -2,4 C 4,8 km/h (1 Bft) 91,30 %
27.12.2017 01:01 -2,4 C 4,4 C 97 % 1004,2 hPa 0,0 l/m 3,2 km/h (1 Bft) O-NO 67 0 min 0,000 mm 0,0 UV-I 0 W/m -2,8 C -2,4 C 4,8 km/h (1 Bft) 95,65 %
27.12.2017 01:02 -2,4 C 4,4 C 97 % 1004,2 hPa 0,0 l/m 3,2 km/h (1 Bft) O-NO 67 0 min 0,000 mm 0,0 UV-I 0 W/m -2,8 C -2,4 C 4,8 km/h (1 Bft) 100,00 %
27.12.2017 01:03 -2,4 C 4,4 C 97 % 1004,2 hPa 0,0 l/m 3,2 km/h (1 Bft) O-NO 67 0 min 0,000 mm 0,0 UV-I 0 W/m -2,8 C -2,4 C 4,8 km/h (1 Bft) 95,65 %
27.12.2017 01:04 -2,4 C 4,4 C 97 % 1004,2 hPa 0,0 l/m 3,2 km/h (1 Bft) O-NO 67 0 min 0,000 mm 0,0 UV-I 0 W/m -2,8 C -2,4 C 4,8 km/h (1 Bft) 100,00 %
27.12.2017 01:05 -2,4 C 4,4 C 97 % 1004,1 hPa 0,0 l/m 4,8 km/h (1 Bft) NO 45 0 min 0,000 mm 0,0 UV-I 0 W/m -2,8 C -2,4 C 6,4 km/h (2 Bft) 95,65 %
27.12.2017 01:06 -2,4 C 4,4 C 97 % 1004,1 hPa 0,0 l/m 4,8 km/h (1 Bft) NO 45 0 min 0,000 mm 0,0 UV-I 0 W/m -2,8 C -2,4 C 6,4 km/h (2 Bft) 100,00 %
27.12.2017 01:07 -2,4 C 4,4 C 97 % 1003,9 hPa 0,0 l/m 3,2 km/h (1 Bft) NO 45 0 min 0,000 mm 0,0 UV-I 0 W/m -2,8 C -2,4 C 4,8 km/h (1 Bft) 91,30 %
27.12.2017 01:08 -2,4 C 4,4 C 97 % 1003,9 hPa 0,0 l/m 3,2 km/h (1 Bft) NO 45 0 min 0,000 mm 0,0 UV-I 0 W/m -2,8 C -2,4 C 4,8 km/h (1 Bft) 100,00 %
27.12.2017 01:09 -2,4 C 4,4 C 97 % 1003,9 hPa 0,0 l/m 4,8 km/h (1 Bft) NO 45 0 min 0,000 mm 0,0 UV-I 0 W/m -2,8 C -2,4 C 4,8 km/h (1 Bft) 95,65 %
27.12.2017 01:10 -2,4 C 4,4 C 97 % 1003,8 hPa 0,0 l/m 1,6 km/h (1 Bft) NO 45 0 min 0,000 mm 0,0 UV-I 0 W/m -2,8 C -2,4 C 3,2 km/h (1 Bft) 95,65 %
27.12.2017 01:11 -2,3 C 4,4 C 97 % 1003,8 hPa 0,0 l/m 4,8 km/h (1 Bft) N-NO 22 0 min 0,000 mm 0,0 UV-I 0 W/m -2,7 C -2,3 C 8,0 km/h (2 Bft) 100,00 %
27.12.2017 01:12 -2,3 C 4,4 C 97 % 1003,7 hPa 0,0 l/m 4,8 km/h (1 Bft) N-NO 22 0 min 0,000 mm 0,0 UV-I 0 W/m -2,7 C -2,3 C 8,0 km/h (2 Bft) 95,65 %
27.12.2017 01:13 -2,3 C 4,4 C 97 % 1003,7 hPa 0,0 l/m 6,4 km/h (2 Bft) N-NO 22 0 min 0,000 mm 0,0 UV-I 0 W/m -2,7 C -2,3 C 9,7 km/h (2 Bft) 100,00 %
27.12.2017 01:14 -2,3 C 4,4 C 97 % 1003,7 hPa 0,0 l/m 6,4 km/h (2 Bft) N-NO 22 0 min 0,000 mm 0,0 UV-I 0 W/m -2,7 C -2,3 C 9,7 km/h (2 Bft) 91,30 %
27.12.2017 01:15 -2,3 C 4,4 C 97 % 1003,7 hPa 0,0 l/m 6,4 km/h (2 Bft) N-NO 22 0 min 0,000 mm 0,0 UV-I 0 W/m -2,7 C -2,3 C 9,7 km/h (2 Bft) 95,65 %
27.12.2017 01:16 -2,3 C 4,4 C 97 % 1003,7 hPa 0,0 l/m 6,4 km/h (2 Bft) N-NO 22 0 min 0,000 mm 0,0 UV-I 0 W/m -2,7 C -2,3 C 8,0 km/h (2 Bft) 95,65 %
27.12.2017 01:17 -2,3 C 4,4 C 97 % 1003,7 hPa 0,0 l/m 6,4 km/h (2 Bft) N-NO 22 0 min 0,000 mm 0,0 UV-I 0 W/m -2,7 C -2,3 C 9,7 km/h (2 Bft) 100,00 %
27.12.2017 01:18 -2,3 C 4,4 C 97 % 1003,6 hPa 0,0 l/m 6,4 km/h (2 Bft) NO 45 0 min 0,000 mm 0,0 UV-I 0 W/m -2,7 C -2,3 C 8,0 km/h (2 Bft) 95,65 %
27.12.2017 01:19 -2,2 C 4,4 C 97 % 1003,6 hPa 0,0 l/m 8,0 km/h (2 Bft) NO 45 0 min 0,000 mm 0,0 UV-I 0 W/m -2,6 C -4,0 C 9,7 km/h (2 Bft) 95,65 %
27.12.2017 01:20 -2,2 C 4,4 C 97 % 1003,6 hPa 0,0 l/m 8,0 km/h (2 Bft) NO 45 0 min 0,000 mm 0,0 UV-I 0 W/m -2,6 C -4,0 C 9,7 km/h (2 Bft) 100,00 %
27.12.2017 01:21 -2,2 C 4,4 C 97 % 1003,5 hPa 0,0 l/m 6,4 km/h (2 Bft) NO 45 0 min 0,000 mm 0,0 UV-I 0 W/m -2,6 C -2,2 C 8,0 km/h (2 Bft) 91,30 %
27.12.2017 01:22 -2,2 C 4,4 C 97 % 1003,5 hPa 0,0 l/m 4,8 km/h (1 Bft) O-NO 67 0 min 0,000 mm 0,0 UV-I 0 W/m -2,6 C -2,2 C 8,0 km/h (2 Bft) 95,65 %
27.12.2017 01:23 -2,2 C 4,4 C 97 % 1003,5 hPa 0,0 l/m 4,8 km/h (1 Bft) O-NO 67 0 min 0,000 mm 0,0 UV-I 0 W/m -2,6 C -2,2 C 6,4 km/h (2 Bft) 95,65 %
27.12.2017 01:24 -2,2 C 4,4 C 97 % 1003,4 hPa 0,0 l/m 4,8 km/h (1 Bft) NO 45 0 min 0,000 mm 0,0 UV-I 0 W/m -2,6 C -2,2 C 8,0 km/h (2 Bft) 100,00 %
27.12.2017 01:25 -2,2 C 4,4 C 97 % 1003,4 hPa 0,0 l/m 6,4 km/h (2 Bft) N-NO 22 0 min 0,000 mm 0,0 UV-I 0 W/m -2,6 C -2,2 C 8,0 km/h (2 Bft) 95,65 %
27.12.2017 01:26 -2,2 C 4,4 C 97 % 1003,4 hPa 0,0 l/m 8,0 km/h (2 Bft) N-NO 22 0 min 0,000 mm 0,0 UV-I 0 W/m -2,6 C -4,0 C 11,3 km/h (2 Bft) 100,00 %
27.12.2017 01:27 -2,2 C 4,4 C 97 % 1003,4 hPa 0,0 l/m 4,8 km/h (1 Bft) N-NO 22 0 min 0,000 mm 0,0 UV-I 0 W/m -2,6 C -2,2 C 11,3 km/h (2 Bft) 95,65 %
27.12.2017 01:28 -2,2 C 4,4 C 97 % 1003,4 hPa 0,0 l/m 9,7 km/h (2 Bft) N-NO 22 0 min 0,000 mm 0,0 UV-I 0 W/m -2,6 C -5,6 C 12,9 km/h (3 Bft) 86,96 %
27.12.2017 01:29 -2,2 C 4,4 C 97 % 1003,4 hPa 0,0 l/m 6,4 km/h (2 Bft) N-NO 22 0 min 0,000 mm 0,0 UV-I 0 W/m -2,6 C -2,2 C 12,9 km/h (3 Bft) 100,00 %
27.12.2017 01:30 -2,2 C 4,4 C 97 % 1003,4 hPa 0,0 l/m 6,4 km/h (2 Bft) NO 45 0 min 0,000 mm 0,0 UV-I 0 W/m -2,6 C -2,2 C 6,4 km/h (2 Bft) 100,00 %
27.12.2017 01:31 -2,2 C 4,4 C 97 % 1003,4 hPa 0,0 l/m 6,4 km/h (2 Bft) NO 45 0 min 0,000 mm 0,0 UV-I 0 W/m -2,6 C -2,2 C 8,0 km/h (2 Bft) 95,65 %
27.12.2017 01:32 -2,2 C 4,4 C 97 % 1003,3 hPa 0,0 l/m 4,8 km/h (1 Bft) N-NO 22 0 min 0,000 mm 0,0 UV-I 0 W/m -2,6 C -2,2 C 6,4 km/h (2 Bft) 100,00 %
27.12.2017 01:33 -2,2 C 4,4 C 97 % 1003,3 hPa 0,0 l/m 4,8 km/h (1 Bft) N-NO 22 0 min 0,000 mm 0,0 UV-I 0 W/m -2,6 C -2,2 C 6,4 km/h (2 Bft) 100,00 %
27.12.2017 01:34 -2,2 C 4,4 C 97 % 1003,3 hPa 0,0 l/m 4,8 km/h (1 Bft) NO 45 0 min 0,000 mm 0,0 UV-I 0 W/m -2,6 C -2,2 C 6,4 km/h (2 Bft) 95,65 %
27.12.2017 01:35 -2,2 C 4,4 C 97 % 1003,3 hPa 0,0 l/m 3,2 km/h (1 Bft) NO 45 0 min 0,000 mm 0,0 UV-I 0 W/m -2,6 C -2,2 C 4,8 km/h (1 Bft) 91,30 %
27.12.2017 01:36 -2,2 C 4,4 C 97 % 1003,2 hPa 0,0 l/m 4,8 km/h (1 Bft) NO 45 0 min 0,000 mm 0,0 UV-I 0 W/m -2,6 C -2,2 C 6,4 km/h (2 Bft) 100,00 %
27.12.2017 01:37 -2,2 C 4,4 C 97 % 1003,3 hPa 0,0 l/m 4,8 km/h (1 Bft) NO 45 0 min 0,000 mm 0,0 UV-I 0 W/m -2,6 C -2,2 C 4,8 km/h (1 Bft) 95,65 %
27.12.2017 01:38 -2,2 C 4,4 C 97 % 1003,2 hPa 0,0 l/m 4,8 km/h (1 Bft) NO 45 0 min 0,000 mm 0,0 UV-I 0 W/m -2,6 C -2,2 C 6,4 km/h (2 Bft) 100,00 %
27.12.2017 01:39 -2,2 C 4,4 C 97 % 1003,1 hPa 0,0 l/m 4,8 km/h (1 Bft) NO 45 0 min 0,000 mm 0,0 UV-I 0 W/m -2,6 C -2,2 C 6,4 km/h (2 Bft) 95,65 %
27.12.2017 01:40 -2,2 C 4,4 C 97 % 1003,1 hPa 0,0 l/m 3,2 km/h (1 Bft) N-NO 22 0 min 0,000 mm 0,0 UV-I 0 W/m -2,6 C -2,2 C 6,4 km/h (2 Bft) 100,00 %
27.12.2017 01:41 -2,2 C 4,4 C 97 % 1003,0 hPa 0,0 l/m 4,8 km/h (1 Bft) N-NO 22 0 min 0,000 mm 0,0 UV-I 0 W/m -2,6 C -2,2 C 8,0 km/h (2 Bft) 95,65 %
27.12.2017 01:42 -2,2 C 4,4 C 97 % 1003,0 hPa 0,0 l/m 4,8 km/h (1 Bft) N-NO 22 0 min 0,000 mm 0,0 UV-I 0 W/m -2,6 C -2,2 C 6,4 km/h (2 Bft) 91,30 %
27.12.2017 01:43 -2,2 C 4,4 C 97 % 1003,0 hPa 0,0 l/m 6,4 km/h (2 Bft) N-NO 22 0 min 0,000 mm 0,0 UV-I 0 W/m -2,6 C -2,2 C 9,7 km/h (2 Bft) 100,00 %
27.12.2017 01:44 -2,2 C 4,4 C 97 % 1002,9 hPa 0,0 l/m 3,2 km/h (1 Bft) N-NO 22 0 min 0,000 mm 0,0 UV-I 0 W/m -2,6 C -2,2 C 4,8 km/h (1 Bft) 100,00 %
27.12.2017 01:45 -2,2 C 4,4 C 97 % 1002,9 hPa 0,0 l/m 4,8 km/h (1 Bft) N-NO 22 0 min 0,000 mm 0,0 UV-I 0 W/m -2,6 C -2,2 C 8,0 km/h (2 Bft) 91,30 %
27.12.2017 01:46 -2,2 C 4,4 C 97 % 1002,8 hPa 0,0 l/m 6,4 km/h (2 Bft) N-NO 22 0 min 0,000 mm 0,0 UV-I 0 W/m -2,6 C -2,2 C 8,0 km/h (2 Bft) 95,65 %
27.12.2017 01:47 -2,2 C 4,4 C 97 % 1002,8 hPa 0,0 l/m 9,7 km/h (2 Bft) N-NO 22 0 min 0,000 mm 0,0 UV-I 0 W/m -2,6 C -5,6 C 14,5 km/h (3 Bft) 100,00 %
27.12.2017 01:48 -2,2 C 4,4 C 97 % 1002,8 hPa 0,0 l/m 8,0 km/h (2 Bft) N 360 0 min 0,000 mm 0,0 UV-I 0 W/m -2,6 C -4,0 C 11,3 km/h (2 Bft) 95,65 %
27.12.2017 01:49 -2,2 C 4,4 C 97 % 1002,8 hPa 0,0 l/m 4,8 km/h (1 Bft) N 360 0 min 0,000 mm 0,0 UV-I 0 W/m -2,6 C -2,2 C 14,5 km/h (3 Bft) 95,65 %
27.12.2017 01:50 -2,2 C 4,4 C 97 % 1002,8 hPa 0,0 l/m 8,0 km/h (2 Bft) NO 45 0 min 0,000 mm 0,0 UV-I 0 W/m -2,6 C -4,0 C 9,7 km/h (2 Bft) 95,65 %
27.12.2017 01:51 -2,2 C 4,4 C 97 % 1002,8 hPa 0,0 l/m 8,0 km/h (2 Bft) O-NO 67 0 min 0,000 mm 0,0 UV-I 0 W/m -2,6 C -4,0 C 9,7 km/h (2 Bft) 100,00 %
27.12.2017 01:52 -2,2 C 4,4 C 97 % 1002,8 hPa 0,0 l/m 6,4 km/h (2 Bft) O-NO 67 0 min 0,000 mm 0,0 UV-I 0 W/m -2,6 C -2,2 C 9,7 km/h (2 Bft) 95,65 %
27.12.2017 01:53 -2,2 C 4,4 C 97 % 1002,8 hPa 0,0 l/m 6,4 km/h (2 Bft) O-NO 67 0 min 0,000 mm 0,0 UV-I 0 W/m -2,6 C -2,2 C 8,0 km/h (2 Bft) 100,00 %
27.12.2017 01:54 -2,2 C 4,4 C 97 % 1002,9 hPa 0,0 l/m 6,4 km/h (2 Bft) NO 45 0 min 0,000 mm 0,0 UV-I 0 W/m -2,6 C -2,2 C 8,0 km/h (2 Bft) 95,65 %
27.12.2017 01:55 -2,2 C 4,4 C 97 % 1002,9 hPa 0,0 l/m 6,4 km/h (2 Bft) NO 45 0 min 0,000 mm 0,0 UV-I 0 W/m -2,6 C -2,2 C 8,0 km/h (2 Bft) 100,00 %
27.12.2017 01:56 -2,2 C 4,4 C 97 % 1002,9 hPa 0,0 l/m 3,2 km/h (1 Bft) NO 45 0 min 0,000 mm 0,0 UV-I 0 W/m -2,6 C -2,2 C 4,8 km/h (1 Bft) 91,30 %
27.12.2017 01:57 -2,2 C 4,4 C 97 % 1002,8 hPa 0,0 l/m 3,2 km/h (1 Bft) N-NO 22 0 min 0,000 mm 0,0 UV-I 0 W/m -2,6 C -2,2 C 4,8 km/h (1 Bft) 100,00 %
27.12.2017 01:58 -2,2 C 4,4 C 97 % 1002,8 hPa 0,0 l/m 6,4 km/h (2 Bft) NO 45 0 min 0,000 mm 0,0 UV-I 0 W/m -2,6 C -2,2 C 8,0 km/h (2 Bft) 95,65 %
27.12.2017 01:59 -2,2 C 4,4 C 97 % 1002,7 hPa 0,0 l/m 4,8 km/h (1 Bft) N-NO 22 0 min 0,000 mm 0,0 UV-I 0 W/m -2,6 C -2,2 C 8,0 km/h (2 Bft) 95,65 %
27.12.2017 02:00 -2,2 C 4,4 C 97 % 1002,7 hPa 0,0 l/m 4,8 km/h (1 Bft) NO 45 0 min 0,000 mm 0,0 UV-I 0 W/m -2,6 C -2,2 C 6,4 km/h (2 Bft) 100,00 %
27.12.2017 02:01 -2,3 C 4,4 C 97 % 1002,7 hPa 0,0 l/m 6,4 km/h (2 Bft) NO 45 0 min 0,000 mm 0,0 UV-I 0 W/m -2,7 C -2,3 C 8,0 km/h (2 Bft) 100,00 %
27.12.2017 02:02 -2,2 C 4,4 C 97 % 1002,7 hPa 0,0 l/m 4,8 km/h (1 Bft) NO 45 0 min 0,000 mm 0,0 UV-I 0 W/m -2,6 C -2,2 C 6,4 km/h (2 Bft) 95,65 %
27.12.2017 02:03 -2,2 C 4,4 C 97 % 1002,8 hPa 0,0 l/m 1,6 km/h (1 Bft) NO 45 0 min 0,000 mm 0,0 UV-I 0 W/m -2,6 C -2,2 C 4,8 km/h (1 Bft) 95,65 %
27.12.2017 02:04 -2,2 C 4,4 C 97 % 1002,7 hPa 0,0 l/m 1,6 km/h (1 Bft) NO 45 0 min 0,000 mm 0,0 UV-I 0 W/m -2,6 C -2,2 C 3,2 km/h (1 Bft) 100,00 %
27.12.2017 02:05 -2,2 C 4,4 C 97 % 1002,8 hPa 0,0 l/m 1,6 km/h (1 Bft) NO 45 0 min 0,000 mm 0,0 UV-I 0 W/m -2,6 C -2,2 C 3,2 km/h (1 Bft) 100,00 %
27.12.2017 02:06 -2,2 C 4,4 C 97 % 1002,7 hPa 0,0 l/m 1,6 km/h (1 Bft) NO 45 0 min 0,000 mm 0,0 UV-I 0 W/m -2,6 C -2,2 C 3,2 km/h (1 Bft) 100,00 %
27.12.2017 02:07 -2,2 C 4,4 C 97 % 1002,7 hPa 0,0 l/m 3,2 km/h (1 Bft) NO 45 0 min 0,000 mm 0,0 UV-I 0 W/m -2,6 C -2,2 C 4,8 km/h (1 Bft) 100,00 %
27.12.2017 02:08 -2,2 C 4,4 C 97 % 1002,7 hPa 0,0 l/m 1,6 km/h (1 Bft) NO 45 0 min 0,000 mm 0,0 UV-I 0 W/m -2,6 C -2,2 C 3,2 km/h (1 Bft) 100,00 %
27.12.2017 02:09 -2,2 C 4,4 C 97 % 1002,7 hPa 0,0 l/m 1,6 km/h (1 Bft) NO 45 0 min 0,000 mm 0,0 UV-I 0 W/m -2,6 C -2,2 C 4,8 km/h (1 Bft) 100,00 %
27.12.2017 02:10 -2,2 C 4,4 C 97 % 1002,7 hPa 0,0 l/m 1,6 km/h (1 Bft) NO 45 0 min 0,000 mm 0,0 UV-I 0 W/m -2,6 C -2,2 C 4,8 km/h (1 Bft) 95,65 %
27.12.2017 02:11 -2,2 C 4,4 C 97 % 1002,7 hPa 0,0 l/m 4,8 km/h (1 Bft) NO 45 0 min 0,000 mm 0,0 UV-I 0 W/m -2,6 C -2,2 C 4,8 km/h (1 Bft) 100,00 %
27.12.2017 02:12 -2,2 C 4,4 C 97 % 1002,7 hPa 0,0 l/m 3,2 km/h (1 Bft) NO 45 0 min 0,000 mm 0,0 UV-I 0 W/m -2,6 C -2,2 C 4,8 km/h (1 Bft) 100,00 %
27.12.2017 02:13 -2,2 C 4,4 C 97 % 1002,7 hPa 0,0 l/m 3,2 km/h (1 Bft) NO 45 0 min 0,000 mm 0,0 UV-I 0 W/m -2,6 C -2,2 C 3,2 km/h (1 Bft) 100,00 %
27.12.2017 02:14 -2,2 C 4,4 C 97 % 1002,7 hPa 0,0 l/m 1,6 km/h (1 Bft) NO 45 0 min 0,000 mm 0,0 UV-I 0 W/m -2,6 C -2,2 C 3,2 km/h (1 Bft) 100,00 %
27.12.2017 02:15 -2,2 C 4,4 C 97 % 1002,7 hPa 0,0 l/m 1,6 km/h (1 Bft) NO 45 0 min 0,000 mm 0,0 UV-I 0 W/m -2,6 C -2,2 C 3,2 km/h (1 Bft) 100,00 %
27.12.2017 02:16 -2,2 C 4,4 C 97 % 1002,7 hPa 0,0 l/m 1,6 km/h (1 Bft) NO 45 0 min 0,000 mm 0,0 UV-I 0 W/m -2,6 C -2,2 C 3,2 km/h (1 Bft) 100,00 %
27.12.2017 02:17 -2,2 C 4,4 C 97 % 1002,6 hPa 0,0 l/m 1,6 km/h (1 Bft) NO 45 0 min 0,000 mm 0,0 UV-I 0 W/m -2,6 C -2,2 C 3,2 km/h (1 Bft) 95,65 %
27.12.2017 02:18 -2,2 C 4,4 C 97 % 1002,6 hPa 0,0 l/m 3,2 km/h (1 Bft) NO 45 0 min 0,000 mm 0,0 UV-I 0 W/m -2,6 C -2,2 C 4,8 km/h (1 Bft) 100,00 %
27.12.2017 02:19 -2,2 C 4,4 C 97 % 1002,6 hPa 0,0 l/m 3,2 km/h (1 Bft) NO 45 0 min 0,000 mm 0,0 UV-I 0 W/m -2,6 C -2,2 C 3,2 km/h (1 Bft) 100,00 %
27.12.2017 02:20 -2,2 C 4,4 C 97 % 1002,6 hPa 0,0 l/m 1,6 km/h (1 Bft) NO 45 0 min 0,000 mm 0,0 UV-I 0 W/m -2,6 C -2,2 C 3,2 km/h (1 Bft) 100,00 %
27.12.2017 02:21 -2,2 C 4,4 C 97 % 1002,5 hPa 0,0 l/m 3,2 km/h (1 Bft) NO 45 0 min 0,000 mm 0,0 UV-I 0 W/m -2,6 C -2,2 C 4,8 km/h (1 Bft) 100,00 %
27.12.2017 02:22 -2,2 C 4,4 C 97 % 1002,4 hPa 0,0 l/m 1,6 km/h (1 Bft) NO 45 0 min 0,000 mm 0,0 UV-I 0 W/m -2,6 C -2,2 C 4,8 km/h (1 Bft) 100,00 %
27.12.2017 02:23 -2,2 C 4,4 C 97 % 1002,4 hPa 0,0 l/m 3,2 km/h (1 Bft) NO 45 0 min 0,000 mm 0,0 UV-I 0 W/m -2,6 C -2,2 C 4,8 km/h (1 Bft) 95,65 %
27.12.2017 02:24 -2,2 C 4,4 C 97 % 1002,4 hPa 0,0 l/m 3,2 km/h (1 Bft) NO 45 0 min 0,000 mm 0,0 UV-I 0 W/m -2,6 C -2,2 C 4,8 km/h (1 Bft) 91,30 %
27.12.2017 02:25 -2,2 C 4,4 C 97 % 1002,4 hPa 0,0 l/m 3,2 km/h (1 Bft) NO 45 0 min 0,000 mm 0,0 UV-I 0 W/m -2,6 C -2,2 C 4,8 km/h (1 Bft) 100,00 %
27.12.2017 02:26 -2,2 C 4,4 C 97 % 1002,4 hPa 0,0 l/m 3,2 km/h (1 Bft) NO 45 0 min 0,000 mm 0,0 UV-I 0 W/m -2,6 C -2,2 C 3,2 km/h (1 Bft) 100,00 %
27.12.2017 02:27 -2,2 C 4,4 C 97 % 1002,4 hPa 0,0 l/m 3,2 km/h (1 Bft) NO 45 0 min 0,000 mm 0,0 UV-I 0 W/m -2,6 C -2,2 C 4,8 km/h (1 Bft) 95,65 %
27.12.2017 02:28 -2,2 C 4,4 C 97 % 1002,4 hPa 0,0 l/m 3,2 km/h (1 Bft) NO 45 0 min 0,000 mm 0,0 UV-I 0 W/m -2,6 C -2,2 C 4,8 km/h (1 Bft) 100,00 %
27.12.2017 02:29 -2,2 C 4,4 C 97 % 1002,4 hPa 0,0 l/m 1,6 km/h (1 Bft) NO 45 0 min 0,000 mm 0,0 UV-I 0 W/m -2,6 C -2,2 C 3,2 km/h (1 Bft) 95,65 %
27.12.2017 02:30 -2,2 C 4,4 C 97 % 1002,3 hPa 0,0 l/m 1,6 km/h (1 Bft) NO 45 0 min 0,000 mm 0,0 UV-I 0 W/m -2,6 C -2,2 C 1,6 km/h (1 Bft) 100,00 %
27.12.2017 02:31 -2,2 C 4,4 C 97 % 1002,4 hPa 0,0 l/m 1,6 km/h (1 Bft) NO 45 0 min 0,000 mm 0,0 UV-I 0 W/m -2,6 C -2,2 C 1,6 km/h (1 Bft) 95,65 %
27.12.2017 02:32 -2,2 C 4,4 C 97 % 1002,4 hPa 0,0 l/m 1,6 km/h (1 Bft) NO 45 0 min 0,000 mm 0,0 UV-I 0 W/m -2,6 C -2,2 C 3,2 km/h (1 Bft) 100,00 %
27.12.2017 02:33 -2,2 C 4,4 C 97 % 1002,4 hPa 0,0 l/m 0,0 km/h (0 Bft) NO 45 0 min 0,000 mm 0,0 UV-I 0 W/m -2,6 C -2,2 C 1,6 km/h (1 Bft) 100,00 %
27.12.2017 02:34 -2,2 C 4,4 C 97 % 1002,3 hPa 0,0 l/m 0,0 km/h (0 Bft) N 0 0 min 0,000 mm 0,0 UV-I 0 W/m -2,6 C -2,2 C 0,0 km/h (0 Bft) 100,00 %
27.12.2017 02:35 -2,2 C 4,4 C 97 % 1002,3 hPa 0,0 l/m 1,6 km/h (1 Bft) NO 45 0 min 0,000 mm 0,0 UV-I 0 W/m -2,6 C -2,2 C 3,2 km/h (1 Bft) 95,65 %
27.12.2017 02:36 -2,2 C 4,4 C 97 % 1002,3 hPa 0,0 l/m 0,0 km/h (0 Bft) NO 45 0 min 0,000 mm 0,0 UV-I 0 W/m -2,6 C -2,2 C 1,6 km/h (1 Bft) 100,00 %
27.12.2017 02:37 -2,2 C 4,4 C 97 % 1002,3 hPa 0,0 l/m 4,8 km/h (1 Bft) NO 45 0 min 0,000 mm 0,0 UV-I 0 W/m -2,6 C -2,2 C 6,4 km/h (2 Bft) 100,00 %
27.12.2017 02:38 -2,2 C 4,4 C 97 % 1002,3 hPa 0,0 l/m 3,2 km/h (1 Bft) NO 45 0 min 0,000 mm 0,0 UV-I 0 W/m -2,6 C -2,2 C 4,8 km/h (1 Bft) 95,65 %
27.12.2017 02:39 -2,2 C 4,4 C 97 % 1002,3 hPa 0,0 l/m 3,2 km/h (1 Bft) NO 45 0 min 0,000 mm 0,0 UV-I 0 W/m -2,6 C -2,2 C 4,8 km/h (1 Bft) 100,00 %
27.12.2017 02:40 -2,2 C 4,4 C 97 % 1002,3 hPa 0,0 l/m 3,2 km/h (1 Bft) NO 45 0 min 0,000 mm 0,0 UV-I 0 W/m -2,6 C -2,2 C 6,4 km/h (2 Bft) 100,00 %
27.12.2017 02:41 -2,2 C 4,4 C 97 % 1002,3 hPa 0,0 l/m 4,8 km/h (1 Bft) NO 45 0 min 0,000 mm 0,0 UV-I 0 W/m -2,6 C -2,2 C 6,4 km/h (2 Bft) 100,00 %
27.12.2017 02:42 -2,2 C 4,4 C 97 % 1002,2 hPa 0,0 l/m 3,2 km/h (1 Bft) NO 45 0 min 0,000 mm 0,0 UV-I 0 W/m -2,6 C -2,2 C 4,8 km/h (1 Bft) 100,00 %
27.12.2017 02:43 -2,2 C 4,4 C 97 % 1002,2 hPa 0,0 l/m 1,6 km/h (1 Bft) NO 45 0 min 0,000 mm 0,0 UV-I 0 W/m -2,6 C -2,2 C 3,2 km/h (1 Bft) 100,00 %
27.12.2017 02:44 -2,2 C 4,4 C 97 % 1002,2 hPa 0,0 l/m 3,2 km/h (1 Bft) NO 45 0 min 0,000 mm 0,0 UV-I 0 W/m -2,6 C -2,2 C 4,8 km/h (1 Bft) 100,00 %
27.12.2017 02:45 -2,2 C 4,4 C 97 % 1002,2 hPa 0,0 l/m 4,8 km/h (1 Bft) NO 45 0 min 0,000 mm 0,0 UV-I 0 W/m -2,6 C -2,2 C 4,8 km/h (1 Bft) 95,65 %
27.12.2017 02:46 -2,2 C 4,4 C 97 % 1002,2 hPa 0,0 l/m 4,8 km/h (1 Bft) O-NO 67 0 min 0,000 mm 0,0 UV-I 0 W/m -2,6 C -2,2 C 6,4 km/h (2 Bft) 100,00 %
27.12.2017 02:47 -2,2 C 4,4 C 97 % 1002,1 hPa 0,0 l/m 4,8 km/h (1 Bft) O-NO 67 0 min 0,000 mm 0,0 UV-I 0 W/m -2,6 C -2,2 C 6,4 km/h (2 Bft) 100,00 %
27.12.2017 02:48 -2,2 C 4,4 C 97 % 1002,1 hPa 0,0 l/m 4,8 km/h (1 Bft) NO 45 0 min 0,000 mm 0,0 UV-I 0 W/m -2,6 C -2,2 C 6,4 km/h (2 Bft) 100,00 %
27.12.2017 02:49 -2,2 C 4,4 C 97 % 1002,0 hPa 0,0 l/m 4,8 km/h (1 Bft) NO 45 0 min 0,000 mm 0,0 UV-I 0 W/m -2,6 C -2,2 C 6,4 km/h (2 Bft) 100,00 %
27.12.2017 02:50 -2,2 C 4,4 C 97 % 1001,9 hPa 0,0 l/m 3,2 km/h (1 Bft) NO 45 0 min 0,000 mm 0,0 UV-I 0 W/m -2,6 C -2,2 C 4,8 km/h (1 Bft) 100,00 %
27.12.2017 02:51 -2,2 C 4,4 C 97 % 1001,9 hPa 0,0 l/m 3,2 km/h (1 Bft) NO 45 0 min 0,000 mm 0,0 UV-I 0 W/m -2,6 C -2,2 C 4,8 km/h (1 Bft) 100,00 %
27.12.2017 02:52 -2,2 C 4,4 C 97 % 1001,9 hPa 0,0 l/m 4,8 km/h (1 Bft) NO 45 0 min 0,000 mm 0,0 UV-I 0 W/m -2,6 C -2,2 C 8,0 km/h (2 Bft) 95,65 %
27.12.2017 02:53 -2,2 C 4,4 C 97 % 1001,9 hPa 0,0 l/m 6,4 km/h (2 Bft) NO 45 0 min 0,000 mm 0,0 UV-I 0 W/m -2,6 C -2,2 C 8,0 km/h (2 Bft) 100,00 %
27.12.2017 02:54 -2,2 C 4,4 C 97 % 1001,8 hPa 0,0 l/m 6,4 km/h (2 Bft) O-NO 67 0 min 0,000 mm 0,0 UV-I 0 W/m -2,6 C -2,2 C 8,0 km/h (2 Bft) 95,65 %
27.12.2017 02:55 -2,2 C 4,4 C 97 % 1001,7 hPa 0,0 l/m 6,4 km/h (2 Bft) NO 45 0 min 0,000 mm 0,0 UV-I 0 W/m -2,6 C -2,2 C 8,0 km/h (2 Bft) 100,00 %
27.12.2017 02:56 -2,2 C 4,4 C 97 % 1001,6 hPa 0,0 l/m 6,4 km/h (2 Bft) O-NO 67 0 min 0,000 mm 0,0 UV-I 0 W/m -2,6 C -2,2 C 8,0 km/h (2 Bft) 91,30 %
27.12.2017 02:57 -2,2 C 4,4 C 97 % 1001,6 hPa 0,0 l/m 6,4 km/h (2 Bft) NO 45 0 min 0,000 mm 0,0 UV-I 0 W/m -2,6 C -2,2 C 8,0 km/h (2 Bft) 100,00 %
27.12.2017 02:58 -2,2 C 4,4 C 97 % 1001,6 hPa 0,0 l/m 4,8 km/h (1 Bft) O-NO 67 0 min 0,000 mm 0,0 UV-I 0 W/m -2,6 C -2,2 C 6,4 km/h (2 Bft) 95,65 %
27.12.2017 02:59 -2,2 C 4,4 C 97 % 1001,6 hPa 0,0 l/m 6,4 km/h (2 Bft) NO 45 0 min 0,000 mm 0,0 UV-I 0 W/m -2,6 C -2,2 C 8,0 km/h (2 Bft) 91,30 %
27.12.2017 03:00 -2,2 C 4,4 C 97 % 1001,5 hPa 0,0 l/m 8,0 km/h (2 Bft) NO 45 0 min 0,000 mm 0,0 UV-I 0 W/m -2,6 C -4,0 C 9,7 km/h (2 Bft) 91,30 %
27.12.2017 03:01 -2,3 C 4,4 C 97 % 1001,4 hPa 0,0 l/m 6,4 km/h (2 Bft) NO 45 0 min 0,000 mm 0,0 UV-I 0 W/m -2,7 C -2,3 C 8,0 km/h (2 Bft) 100,00 %
27.12.2017 03:02 -2,3 C 4,4 C 97 % 1001,4 hPa 0,0 l/m 6,4 km/h (2 Bft) NO 45 0 min 0,000 mm 0,0 UV-I 0 W/m -2,7 C -2,3 C 8,0 km/h (2 Bft) 91,30 %
27.12.2017 03:03 -2,3 C 4,4 C 97 % 1001,4 hPa 0,0 l/m 4,8 km/h (1 Bft) O-NO 67 0 min 0,000 mm 0,0 UV-I 0 W/m -2,7 C -2,3 C 8,0 km/h (2 Bft) 95,65 %
27.12.2017 03:04 -2,3 C 4,4 C 97 % 1001,4 hPa 0,0 l/m 6,4 km/h (2 Bft) O-NO 67 0 min 0,000 mm 0,0 UV-I 0 W/m -2,7 C -2,3 C 8,0 km/h (2 Bft) 95,65 %
27.12.2017 03:05 -2,3 C 4,4 C 97 % 1001,4 hPa 0,0 l/m 8,0 km/h (2 Bft) NO 45 0 min 0,000 mm 0,0 UV-I 0 W/m -2,7 C -4,1 C 8,0 km/h (2 Bft) 86,96 %
27.12.2017 03:06 -2,3 C 4,4 C 97 % 1001,4 hPa 0,0 l/m 6,4 km/h (2 Bft) NO 45 0 min 0,000 mm 0,0 UV-I 0 W/m -2,7 C -2,3 C 9,7 km/h (2 Bft) 95,65 %
27.12.2017 03:07 -2,3 C 4,4 C 97 % 1001,3 hPa 0,0 l/m 6,4 km/h (2 Bft) O-NO 67 0 min 0,000 mm 0,0 UV-I 0 W/m -2,7 C -2,3 C 8,0 km/h (2 Bft) 91,30 %
27.12.2017 03:08 -2,3 C 4,4 C 97 % 1001,3 hPa 0,0 l/m 6,4 km/h (2 Bft) O-NO 67 0 min 0,000 mm 0,0 UV-I 0 W/m -2,7 C -2,3 C 8,0 km/h (2 Bft) 95,65 %
27.12.2017 03:09 -2,4 C 4,4 C 97 % 1001,3 hPa 0,0 l/m 6,4 km/h (2 Bft) O-NO 67 0 min 0,000 mm 0,0 UV-I 0 W/m -2,8 C -2,4 C 8,0 km/h (2 Bft) 91,30 %
27.12.2017 03:10 -2,4 C 4,4 C 97 % 1001,2 hPa 0,0 l/m 8,0 km/h (2 Bft) O-NO 67 0 min 0,000 mm 0,0 UV-I 0 W/m -2,8 C -4,2 C 11,3 km/h (2 Bft) 100,00 %
27.12.2017 03:11 -2,4 C 4,4 C 97 % 1001,2 hPa 0,0 l/m 8,0 km/h (2 Bft) O-NO 67 0 min 0,000 mm 0,0 UV-I 0 W/m -2,8 C -4,2 C 9,7 km/h (2 Bft) 91,30 %
27.12.2017 03:12 -2,4 C 4,4 C 97 % 1001,1 hPa 0,0 l/m 6,4 km/h (2 Bft) O-NO 67 0 min 0,000 mm 0,0 UV-I 0 W/m -2,8 C -2,4 C 9,7 km/h (2 Bft) 95,65 %
27.12.2017 03:13 -2,4 C 4,4 C 97 % 1001,1 hPa 0,0 l/m 6,4 km/h (2 Bft) O-NO 67 0 min 0,000 mm 0,0 UV-I 0 W/m -2,8 C -2,4 C 8,0 km/h (2 Bft) 91,30 %
27.12.2017 03:14 -2,4 C 4,4 C 97 % 1001,1 hPa 0,0 l/m 8,0 km/h (2 Bft) O-NO 67 0 min 0,000 mm 0,0 UV-I 0 W/m -2,8 C -4,2 C 11,3 km/h (2 Bft) 95,65 %
27.12.2017 03:15 -2,4 C 4,4 C 97 % 1001,0 hPa 0,0 l/m 8,0 km/h (2 Bft) O-NO 67 0 min 0,000 mm 0,0 UV-I 0 W/m -2,8 C -4,2 C 9,7 km/h (2 Bft) 95,65 %
27.12.2017 03:16 -2,4 C 4,4 C 97 % 1001,0 hPa 0,0 l/m 4,8 km/h (1 Bft) NO 45 0 min 0,000 mm 0,0 UV-I 0 W/m -2,8 C -2,4 C 6,4 km/h (2 Bft) 95,65 %
27.12.2017 03:17 -2,4 C 4,4 C 97 % 1000,9 hPa 0,0 l/m 6,4 km/h (2 Bft) O-NO 67 0 min 0,000 mm 0,0 UV-I 0 W/m -2,8 C -2,4 C 8,0 km/h (2 Bft) 100,00 %
27.12.2017 03:18 -2,4 C 4,4 C 97 % 1000,8 hPa 0,0 l/m 6,4 km/h (2 Bft) O-NO 67 0 min 0,000 mm 0,0 UV-I 0 W/m -2,8 C -2,4 C 9,7 km/h (2 Bft) 95,65 %
27.12.2017 03:19 -2,4 C 4,4 C 97 % 1000,8 hPa 0,0 l/m 6,4 km/h (2 Bft) O-NO 67 0 min 0,000 mm 0,0 UV-I 0 W/m -2,8 C -2,4 C 8,0 km/h (2 Bft) 95,65 %
27.12.2017 03:20 -2,4 C 4,4 C 97 % 1000,8 hPa 0,0 l/m 4,8 km/h (1 Bft) O-NO 67 0 min 0,000 mm 0,0 UV-I 0 W/m -2,8 C -2,4 C 8,0 km/h (2 Bft) 95,65 %
27.12.2017 03:21 -2,4 C 4,4 C 97 % 1000,8 hPa 0,0 l/m 4,8 km/h (1 Bft) O 90 0 min 0,000 mm 0,0 UV-I 0 W/m -2,8 C -2,4 C 6,4 km/h (2 Bft) 95,65 %
27.12.2017 03:22 -2,4 C 4,4 C 97 % 1000,9 hPa 0,0 l/m 4,8 km/h (1 Bft) NO 45 0 min 0,000 mm 0,0 UV-I 0 W/m -2,8 C -2,4 C 4,8 km/h (1 Bft) 100,00 %
27.12.2017 03:23 -2,4 C 4,4 C 97 % 1000,8 hPa 0,0 l/m 8,0 km/h (2 Bft) O-NO 67 0 min 0,000 mm 0,0 UV-I 0 W/m -2,8 C -4,2 C 12,9 km/h (3 Bft) 95,65 %
27.12.2017 03:24 -2,4 C 4,4 C 97 % 1000,8 hPa 0,0 l/m 8,0 km/h (2 Bft) NO 45 0 min 0,000 mm 0,0 UV-I 0 W/m -2,8 C -4,2 C 9,7 km/h (2 Bft) 100,00 %
27.12.2017 03:25 -2,4 C 4,4 C 97 % 1000,8 hPa 0,0 l/m 8,0 km/h (2 Bft) O-NO 67 0 min 0,000 mm 0,0 UV-I 0 W/m -2,8 C -4,2 C 8,0 km/h (2 Bft) 95,65 %
27.12.2017 03:26 -2,4 C 4,4 C 97 % 1000,8 hPa 0,0 l/m 6,4 km/h (2 Bft) NO 45 0 min 0,000 mm 0,0 UV-I 0 W/m -2,8 C -2,4 C 9,7 km/h (2 Bft) 100,00 %
27.12.2017 03:27 -2,4 C 4,4 C 97 % 1000,8 hPa 0,0 l/m 4,8 km/h (1 Bft) NO 45 0 min 0,000 mm 0,0 UV-I 0 W/m -2,8 C -2,4 C 9,7 km/h (2 Bft) 91,30 %
27.12.2017 03:28 -2,4 C 4,4 C 97 % 1000,7 hPa 0,0 l/m 8,0 km/h (2 Bft) O-NO 67 0 min 0,000 mm 0,0 UV-I 0 W/m -2,8 C -4,2 C 12,9 km/h (3 Bft) 95,65 %
27.12.2017 03:29 -2,4 C 4,4 C 97 % 1000,7 hPa 0,0 l/m 9,7 km/h (2 Bft) O-NO 67 0 min 0,000 mm 0,0 UV-I 0 W/m -2,8 C -5,8 C 11,3 km/h (2 Bft) 100,00 %
27.12.2017 03:30 -2,4 C 4,4 C 97 % 1000,7 hPa 0,0 l/m 6,4 km/h (2 Bft) O-NO 67 0 min 0,000 mm 0,0 UV-I 0 W/m -2,8 C -2,4 C 9,7 km/h (2 Bft) 95,65 %
27.12.2017 03:31 -2,4 C 4,4 C 97 % 1000,6 hPa 0,0 l/m 6,4 km/h (2 Bft) O-NO 67 0 min 0,000 mm 0,0 UV-I 0 W/m -2,8 C -2,4 C 9,7 km/h (2 Bft) 100,00 %
27.12.2017 03:32 -2,4 C 4,4 C 97 % 1000,6 hPa 0,0 l/m 8,0 km/h (2 Bft) O-NO 67 0 min 0,000 mm 0,0 UV-I 0 W/m -2,8 C -4,2 C 11,3 km/h (2 Bft) 95,65 %
27.12.2017 03:33 -2,4 C 4,4 C 97 % 1000,6 hPa 0,0 l/m 8,0 km/h (2 Bft) NO 45 0 min 0,000 mm 0,0 UV-I 0 W/m -2,8 C -4,2 C 9,7 km/h (2 Bft) 100,00 %
27.12.2017 03:34 -2,4 C 4,4 C 97 % 1000,5 hPa 0,0 l/m 8,0 km/h (2 Bft) O-NO 67 0 min 0,000 mm 0,0 UV-I 0 W/m -2,8 C -4,2 C 9,7 km/h (2 Bft) 95,65 %
27.12.2017 03:35 -2,4 C 4,4 C 97 % 1000,5 hPa 0,0 l/m 8,0 km/h (2 Bft) O-NO 67 0 min 0,000 mm 0,0 UV-I 0 W/m -2,8 C -4,2 C 9,7 km/h (2 Bft) 100,00 %
27.12.2017 03:36 -2,4 C 4,4 C 97 % 1000,4 hPa 0,0 l/m 8,0 km/h (2 Bft) NO 45 0 min 0,000 mm 0,0 UV-I 0 W/m -2,8 C -4,2 C 12,9 km/h (3 Bft) 100,00 %
27.12.2017 03:37 -2,4 C 4,4 C 97 % 1000,4 hPa 0,0 l/m 8,0 km/h (2 Bft) O-NO 67 0 min 0,000 mm 0,0 UV-I 0 W/m -2,8 C -4,2 C 12,9 km/h (3 Bft) 100,00 %
27.12.2017 03:38 -2,4 C 4,4 C 97 % 1000,4 hPa 0,0 l/m 8,0 km/h (2 Bft) O-NO 67 0 min 0,000 mm 0,0 UV-I 0 W/m -2,8 C -4,2 C 11,3 km/h (2 Bft) 100,00 %
27.12.2017 03:39 -2,4 C 4,4 C 97 % 1000,3 hPa 0,0 l/m 8,0 km/h (2 Bft) NO 45 0 min 0,000 mm 0,0 UV-I 0 W/m -2,8 C -4,2 C 11,3 km/h (2 Bft) 100,00 %
27.12.2017 03:40 -2,4 C 4,4 C 97 % 1000,2 hPa 0,0 l/m 9,7 km/h (2 Bft) NO 45 0 min 0,000 mm 0,0 UV-I 0 W/m -2,8 C -5,8 C 12,9 km/h (3 Bft) 100,00 %
27.12.2017 03:41 -2,4 C 4,4 C 97 % 1000,2 hPa 0,0 l/m 8,0 km/h (2 Bft) O-NO 67 0 min 0,000 mm 0,0 UV-I 0 W/m -2,8 C -4,2 C 12,9 km/h (3 Bft) 95,65 %
27.12.2017 03:42 -2,4 C 4,4 C 97 % 1000,2 hPa 0,0 l/m 6,4 km/h (2 Bft) O-NO 67 0 min 0,000 mm 0,0 UV-I 0 W/m -2,8 C -2,4 C 14,5 km/h (3 Bft) 100,00 %
27.12.2017 03:43 -2,4 C 4,4 C 97 % 1000,2 hPa 0,0 l/m 8,0 km/h (2 Bft) O-NO 67 0 min 0,000 mm 0,0 UV-I 0 W/m -2,8 C -4,2 C 14,5 km/h (3 Bft) 100,00 %
27.12.2017 03:44 -2,4 C 4,4 C 97 % 1000,1 hPa 0,0 l/m 8,0 km/h (2 Bft) O-NO 67 0 min 0,000 mm 0,0 UV-I 0 W/m -2,8 C -4,2 C 11,3 km/h (2 Bft) 100,00 %
27.12.2017 03:45 -2,4 C 4,4 C 97 % 1000,1 hPa 0,0 l/m 8,0 km/h (2 Bft) NO 45 0 min 0,000 mm 0,0 UV-I 0 W/m -2,8 C -4,2 C 11,3 km/h (2 Bft) 100,00 %
27.12.2017 03:46 -2,4 C 4,4 C 97 % 1000,1 hPa 0,0 l/m 8,0 km/h (2 Bft) O-NO 67 0 min 0,000 mm 0,0 UV-I 0 W/m -2,8 C -4,2 C 11,3 km/h (2 Bft) 95,65 %
27.12.2017 03:47 -2,4 C 4,4 C 97 % 1000,1 hPa 0,0 l/m 11,3 km/h (2 Bft) O-NO 67 0 min 0,000 mm 0,0 UV-I 0 W/m -2,8 C -7,2 C 16,1 km/h (3 Bft) 100,00 %
27.12.2017 03:48 -2,4 C 4,4 C 97 % 1000,1 hPa 0,0 l/m 9,7 km/h (2 Bft) O-NO 67 0 min 0,000 mm 0,0 UV-I 0 W/m -2,8 C -5,8 C 12,9 km/h (3 Bft) 95,65 %
27.12.2017 03:49 -2,4 C 4,4 C 97 % 1000,0 hPa 0,0 l/m 9,7 km/h (2 Bft) O-NO 67 0 min 0,000 mm 0,0 UV-I 0 W/m -2,8 C -5,8 C 16,1 km/h (3 Bft) 100,00 %
27.12.2017 03:50 -2,4 C 4,4 C 97 % 1000,0 hPa 0,0 l/m 8,0 km/h (2 Bft) O-NO 67 0 min 0,000 mm 0,0 UV-I 0 W/m -2,8 C -4,2 C 11,3 km/h (2 Bft) 100,00 %
27.12.2017 03:51 -2,4 C 4,4 C 97 % 1000,0 hPa 0,0 l/m 11,3 km/h (2 Bft) O-NO 67 0 min 0,000 mm 0,0 UV-I 0 W/m -2,8 C -7,2 C 14,5 km/h (3 Bft) 100,00 %
27.12.2017 03:52 -2,4 C 4,4 C 97 % 1000,0 hPa 0,0 l/m 9,7 km/h (2 Bft) O-NO 67 0 min 0,000 mm 0,0 UV-I 0 W/m -2,8 C -5,8 C 14,5 km/h (3 Bft) 100,00 %
27.12.2017 03:53 -2,4 C 4,4 C 97 % 1000,0 hPa 0,0 l/m 9,7 km/h (2 Bft) NO 45 0 min 0,000 mm 0,0 UV-I 0 W/m -2,8 C -5,8 C 14,5 km/h (3 Bft) 100,00 %
27.12.2017 03:54 -2,4 C 4,4 C 97 % 1000,0 hPa 0,0 l/m 11,3 km/h (2 Bft) O-NO 67 0 min 0,000 mm 0,0 UV-I 0 W/m -2,8 C -7,2 C 16,1 km/h (3 Bft) 100,00 %
27.12.2017 03:55 -2,4 C 4,4 C 97 % 999,9 hPa 0,0 l/m 9,7 km/h (2 Bft) NO 45 0 min 0,000 mm 0,0 UV-I 0 W/m -2,8 C -5,8 C 12,9 km/h (3 Bft) 95,65 %
27.12.2017 03:56 -2,4 C 4,4 C 97 % 999,9 hPa 0,0 l/m 6,4 km/h (2 Bft) O-NO 67 0 min 0,000 mm 0,0 UV-I 0 W/m -2,8 C -2,4 C 9,7 km/h (2 Bft) 95,65 %
27.12.2017 03:57 -2,4 C 4,4 C 97 % 999,9 hPa 0,0 l/m 8,0 km/h (2 Bft) NO 45 0 min 0,000 mm 0,0 UV-I 0 W/m -2,8 C -4,2 C 11,3 km/h (2 Bft) 100,00 %
27.12.2017 03:58 -2,4 C 4,4 C 97 % 999,8 hPa 0,0 l/m 6,4 km/h (2 Bft) O-NO 67 0 min 0,000 mm 0,0 UV-I 0 W/m -2,8 C -2,4 C 12,9 km/h (3 Bft) 100,00 %
27.12.2017 03:59 -2,4 C 4,4 C 97 % 999,8 hPa 0,0 l/m 8,0 km/h (2 Bft) O-NO 67 0 min 0,000 mm 0,0 UV-I 0 W/m -2,8 C -4,2 C 11,3 km/h (2 Bft) 100,00 %
27.12.2017 04:00 -2,4 C 4,4 C 97 % 999,7 hPa 0,0 l/m 9,7 km/h (2 Bft) O-NO 67 0 min 0,000 mm 0,0 UV-I 0 W/m -2,8 C -5,8 C 12,9 km/h (3 Bft) 100,00 %
27.12.2017 04:01 -2,4 C 4,4 C 97 % 999,8 hPa 0,0 l/m 11,3 km/h (2 Bft) O-NO 67 0 min 0,000 mm 0,0 UV-I 0 W/m -2,8 C -7,2 C 16,1 km/h (3 Bft) 100,00 %
27.12.2017 04:02 -2,4 C 4,4 C 97 % 999,7 hPa 0,0 l/m 12,9 km/h (3 Bft) NO 45 0 min 0,000 mm 0,0 UV-I 0 W/m -2,8 C -8,4 C 16,1 km/h (3 Bft) 95,65 %
27.12.2017 04:03 -2,4 C 4,4 C 97 % 999,7 hPa 0,0 l/m 11,3 km/h (2 Bft) O-NO 67 0 min 0,000 mm 0,0 UV-I 0 W/m -2,8 C -7,2 C 17,7 km/h (3 Bft) 100,00 %
27.12.2017 04:04 -2,4 C 4,4 C 97 % 999,7 hPa 0,0 l/m 9,7 km/h (2 Bft) NO 45 0 min 0,000 mm 0,0 UV-I 0 W/m -2,8 C -5,8 C 17,7 km/h (3 Bft) 100,00 %
27.12.2017 04:05 -2,4 C 4,4 C 97 % 999,7 hPa 0,0 l/m 11,3 km/h (2 Bft) O-NO 67 0 min 0,000 mm 0,0 UV-I 0 W/m -2,8 C -7,2 C 14,5 km/h (3 Bft) 100,00 %
27.12.2017 04:06 -2,3 C 4,4 C 97 % 999,7 hPa 0,0 l/m 8,0 km/h (2 Bft) NO 45 0 min 0,000 mm 0,0 UV-I 0 W/m -2,7 C -4,1 C 12,9 km/h (3 Bft) 100,00 %
27.12.2017 04:07 -2,3 C 4,4 C 97 % 999,7 hPa 0,0 l/m 8,0 km/h (2 Bft) O-NO 67 0 min 0,000 mm 0,0 UV-I 0 W/m -2,7 C -4,1 C 12,9 km/h (3 Bft) 100,00 %
27.12.2017 04:08 -2,3 C 4,4 C 97 % 999,7 hPa 0,0 l/m 8,0 km/h (2 Bft) O-NO 67 0 min 0,000 mm 0,0 UV-I 0 W/m -2,7 C -4,1 C 9,7 km/h (2 Bft) 100,00 %
27.12.2017 04:09 -2,3 C 4,4 C 97 % 999,6 hPa 0,0 l/m 9,7 km/h (2 Bft) O-NO 67 0 min 0,000 mm 0,0 UV-I 0 W/m -2,7 C -5,7 C 12,9 km/h (3 Bft) 91,30 %
27.12.2017 04:10 -2,3 C 4,4 C 97 % 999,6 hPa 0,0 l/m 8,0 km/h (2 Bft) O-NO 67 0 min 0,000 mm 0,0 UV-I 0 W/m -2,7 C -4,1 C 12,9 km/h (3 Bft) 100,00 %
27.12.2017 04:11 -2,3 C 4,4 C 97 % 999,6 hPa 0,0 l/m 11,3 km/h (2 Bft) O-NO 67 0 min 0,000 mm 0,0 UV-I 0 W/m -2,7 C -7,1 C 14,5 km/h (3 Bft) 100,00 %
27.12.2017 04:12 -2,3 C 4,4 C 97 % 999,6 hPa 0,0 l/m 11,3 km/h (2 Bft) NO 45 0 min 0,000 mm 0,0 UV-I 0 W/m -2,7 C -7,1 C 14,5 km/h (3 Bft) 100,00 %
27.12.2017 04:13 -2,3 C 4,4 C 97 % 999,5 hPa 0,0 l/m 9,7 km/h (2 Bft) O-NO 67 0 min 0,000 mm 0,0 UV-I 0 W/m -2,7 C -5,7 C 14,5 km/h (3 Bft) 100,00 %
27.12.2017 04:14 -2,3 C 4,4 C 97 % 999,6 hPa 0,0 l/m 8,0 km/h (2 Bft) O-NO 67 0 min 0,000 mm 0,0 UV-I 0 W/m -2,7 C -4,1 C 14,5 km/h (3 Bft) 100,00 %
27.12.2017 04:15 -2,3 C 4,4 C 97 % 999,6 hPa 0,0 l/m 11,3 km/h (2 Bft) O-NO 67 0 min 0,000 mm 0,0 UV-I 0 W/m -2,7 C -7,1 C 14,5 km/h (3 Bft) 95,65 %
27.12.2017 04:16 -2,3 C 4,4 C 97 % 999,5 hPa 0,0 l/m 9,7 km/h (2 Bft) O-NO 67 0 min 0,000 mm 0,0 UV-I 0 W/m -2,7 C -5,7 C 12,9 km/h (3 Bft) 95,65 %
27.12.2017 04:17 -2,3 C 4,4 C 97 % 999,5 hPa 0,0 l/m 11,3 km/h (2 Bft) O-NO 67 0 min 0,000 mm 0,0 UV-I 0 W/m -2,7 C -7,1 C 14,5 km/h (3 Bft) 95,65 %
27.12.2017 04:18 -2,3 C 4,4 C 97 % 999,4 hPa 0,0 l/m 11,3 km/h (2 Bft) O-NO 67 0 min 0,000 mm 0,0 UV-I 0 W/m -2,7 C -7,1 C 14,5 km/h (3 Bft) 95,65 %
27.12.2017 04:19 -2,3 C 4,4 C 97 % 999,4 hPa 0,0 l/m 9,7 km/h (2 Bft) O-NO 67 0 min 0,000 mm 0,0 UV-I 0 W/m -2,7 C -5,7 C 14,5 km/h (3 Bft) 95,65 %
27.12.2017 04:20 -2,3 C 4,4 C 97 % 999,4 hPa 0,0 l/m 12,9 km/h (3 Bft) O-NO 67 0 min 0,000 mm 0,0 UV-I 0 W/m -2,7 C -8,3 C 17,7 km/h (3 Bft) 100,00 %
27.12.2017 04:21 -2,3 C 4,4 C 97 % 999,4 hPa 0,0 l/m 11,3 km/h (2 Bft) O 90 0 min 0,000 mm 0,0 UV-I 0 W/m -2,7 C -7,1 C 14,5 km/h (3 Bft) 91,30 %
27.12.2017 04:22 -2,3 C 4,4 C 97 % 999,4 hPa 0,0 l/m 14,5 km/h (3 Bft) O-NO 67 0 min 0,000 mm 0,0 UV-I 0 W/m -2,7 C -9,4 C 17,7 km/h (3 Bft) 95,65 %
27.12.2017 04:23 -2,3 C 4,4 C 97 % 999,3 hPa 0,0 l/m 14,5 km/h (3 Bft) O-NO 67 0 min 0,000 mm 0,0 UV-I 0 W/m -2,7 C -9,4 C 17,7 km/h (3 Bft) 91,30 %
27.12.2017 04:24 -2,3 C 4,4 C 97 % 999,3 hPa 0,0 l/m 11,3 km/h (2 Bft) O-NO 67 0 min 0,000 mm 0,0 UV-I 0 W/m -2,7 C -7,1 C 19,3 km/h (3 Bft) 100,00 %
27.12.2017 04:25 -2,3 C 4,4 C 97 % 999,3 hPa 0,0 l/m 12,9 km/h (3 Bft) O-NO 67 0 min 0,000 mm 0,0 UV-I 0 W/m -2,7 C -8,3 C 19,3 km/h (3 Bft) 91,30 %
27.12.2017 04:26 -2,3 C 4,4 C 97 % 999,3 hPa 0,0 l/m 9,7 km/h (2 Bft) O-NO 67 0 min 0,000 mm 0,0 UV-I 0 W/m -2,7 C -5,7 C 14,5 km/h (3 Bft) 91,30 %
27.12.2017 04:27 -2,3 C 4,4 C 97 % 999,2 hPa 0,0 l/m 12,9 km/h (3 Bft) O-NO 67 0 min 0,000 mm 0,0 UV-I 0 W/m -2,7 C -8,3 C 17,7 km/h (3 Bft) 100,00 %
27.12.2017 04:28 -2,3 C 4,4 C 97 % 999,2 hPa 0,0 l/m 9,7 km/h (2 Bft) O-NO 67 0 min 0,000 mm 0,0 UV-I 0 W/m -2,7 C -5,7 C 14,5 km/h (3 Bft) 91,30 %
27.12.2017 04:29 -2,3 C 4,4 C 97 % 999,2 hPa 0,0 l/m 12,9 km/h (3 Bft) O-NO 67 0 min 0,000 mm 0,0 UV-I 0 W/m -2,7 C -8,3 C 17,7 km/h (3 Bft) 100,00 %
27.12.2017 04:30 -2,3 C 4,4 C 97 % 999,2 hPa 0,0 l/m 12,9 km/h (3 Bft) O-NO 67 0 min 0,000 mm 0,0 UV-I 0 W/m -2,7 C -8,3 C 17,7 km/h (3 Bft) 91,30 %
27.12.2017 04:31 -2,3 C 4,4 C 97 % 999,1 hPa 0,0 l/m 11,3 km/h (2 Bft) O-NO 67 0 min 0,000 mm 0,0 UV-I 0 W/m -2,7 C -7,1 C 17,7 km/h (3 Bft) 100,00 %
27.12.2017 04:32 -2,3 C 4,4 C 97 % 999,1 hPa 0,0 l/m 11,3 km/h (2 Bft) O-NO 67 0 min 0,000 mm 0,0 UV-I 0 W/m -2,7 C -7,1 C 14,5 km/h (3 Bft) 91,30 %
27.12.2017 04:33 -2,3 C 4,4 C 97 % 999,1 hPa 0,0 l/m 9,7 km/h (2 Bft) O-NO 67 0 min 0,000 mm 0,0 UV-I 0 W/m -2,7 C -5,7 C 14,5 km/h (3 Bft) 100,00 %
27.12.2017 04:34 -2,3 C 4,4 C 97 % 999,0 hPa 0,0 l/m 11,3 km/h (2 Bft) O-NO 67 0 min 0,000 mm 0,0 UV-I 0 W/m -2,7 C -7,1 C 16,1 km/h (3 Bft) 95,65 %
27.12.2017 04:35 -2,3 C 4,4 C 97 % 999,0 hPa 0,0 l/m 14,5 km/h (3 Bft) O-NO 67 0 min 0,000 mm 0,0 UV-I 0 W/m -2,7 C -9,4 C 17,7 km/h (3 Bft) 100,00 %
27.12.2017 04:36 -2,3 C 4,4 C 97 % 999,0 hPa 0,0 l/m 11,3 km/h (2 Bft) O-NO 67 0 min 0,000 mm 0,0 UV-I 0 W/m -2,7 C -7,1 C 16,1 km/h (3 Bft) 95,65 %
27.12.2017 04:37 -2,3 C 4,4 C 97 % 999,0 hPa 0,0 l/m 9,7 km/h (2 Bft) O-NO 67 0 min 0,000 mm 0,0 UV-I 0 W/m -2,7 C -5,7 C 16,1 km/h (3 Bft) 95,65 %
27.12.2017 04:38 -2,3 C 4,4 C 97 % 999,0 hPa 0,0 l/m 11,3 km/h (2 Bft) O-NO 67 0 min 0,000 mm 0,0 UV-I 0 W/m -2,7 C -7,1 C 16,1 km/h (3 Bft) 100,00 %
27.12.2017 04:39 -2,3 C 4,4 C 97 % 998,9 hPa 0,0 l/m 9,7 km/h (2 Bft) O-NO 67 0 min 0,000 mm 0,0 UV-I 0 W/m -2,7 C -5,7 C 14,5 km/h (3 Bft) 100,00 %
27.12.2017 04:40 -2,3 C 4,4 C 97 % 998,9 hPa 0,0 l/m 9,7 km/h (2 Bft) O-NO 67 0 min 0,000 mm 0,0 UV-I 0 W/m -2,7 C -5,7 C 14,5 km/h (3 Bft) 100,00 %
27.12.2017 04:41 -2,3 C 4,4 C 97 % 998,9 hPa 0,0 l/m 9,7 km/h (2 Bft) O-NO 67 0 min 0,000 mm 0,0 UV-I 0 W/m -2,7 C -5,7 C 14,5 km/h (3 Bft) 100,00 %
27.12.2017 04:42 -2,3 C 4,4 C 97 % 998,8 hPa 0,0 l/m 9,7 km/h (2 Bft) O-NO 67 0 min 0,000 mm 0,0 UV-I 0 W/m -2,7 C -5,7 C 12,9 km/h (3 Bft) 100,00 %
27.12.2017 04:43 -2,3 C 4,4 C 97 % 998,7 hPa 0,0 l/m 11,3 km/h (2 Bft) O-NO 67 0 min 0,000 mm 0,0 UV-I 0 W/m -2,7 C -7,1 C 14,5 km/h (3 Bft) 100,00 %
27.12.2017 04:44 -2,3 C 4,4 C 97 % 998,8 hPa 0,0 l/m 9,7 km/h (2 Bft) O-NO 67 0 min 0,000 mm 0,0 UV-I 0 W/m -2,7 C -5,7 C 14,5 km/h (3 Bft) 95,65 %
27.12.2017 04:45 -2,3 C 4,4 C 97 % 998,7 hPa 0,0 l/m 9,7 km/h (2 Bft) O-NO 67 0 min 0,000 mm 0,0 UV-I 0 W/m -2,7 C -5,7 C 12,9 km/h (3 Bft) 100,00 %
27.12.2017 04:46 -2,2 C 4,4 C 97 % 998,7 hPa 0,0 l/m 9,7 km/h (2 Bft) O-NO 67 0 min 0,000 mm 0,0 UV-I 0 W/m -2,6 C -5,6 C 12,9 km/h (3 Bft) 100,00 %
27.12.2017 04:47 -2,2 C 4,4 C 97 % 998,6 hPa 0,0 l/m 8,0 km/h (2 Bft) O-NO 67 0 min 0,000 mm 0,0 UV-I 0 W/m -2,6 C -4,0 C 11,3 km/h (2 Bft) 95,65 %
27.12.2017 04:48 -2,2 C 4,4 C 97 % 998,6 hPa 0,0 l/m 12,9 km/h (3 Bft) O-NO 67 0 min 0,000 mm 0,0 UV-I 0 W/m -2,6 C -8,2 C 16,1 km/h (3 Bft) 100,00 %
27.12.2017 04:49 -2,2 C 4,4 C 97 % 998,6 hPa 0,0 l/m 8,0 km/h (2 Bft) O-NO 67 0 min 0,000 mm 0,0 UV-I 0 W/m -2,6 C -4,0 C 12,9 km/h (3 Bft) 100,00 %
27.12.2017 04:50 -2,2 C 4,4 C 97 % 998,6 hPa 0,0 l/m 11,3 km/h (2 Bft) O-NO 67 0 min 0,000 mm 0,0 UV-I 0 W/m -2,6 C -7,0 C 17,7 km/h (3 Bft) 100,00 %
27.12.2017 04:51 -2,2 C 4,4 C 97 % 998,6 hPa 0,0 l/m 11,3 km/h (2 Bft) O-NO 67 0 min 0,000 mm 0,0 UV-I 0 W/m -2,6 C -7,0 C 16,1 km/h (3 Bft) 95,65 %
27.12.2017 04:52 -2,2 C 4,4 C 97 % 998,6 hPa 0,0 l/m 11,3 km/h (2 Bft) O-NO 67 0 min 0,000 mm 0,0 UV-I 0 W/m -2,6 C -7,0 C 16,1 km/h (3 Bft) 100,00 %
27.12.2017 04:53 -2,2 C 4,4 C 97 % 998,5 hPa 0,0 l/m 11,3 km/h (2 Bft) O-NO 67 0 min 0,000 mm 0,0 UV-I 0 W/m -2,6 C -7,0 C 16,1 km/h (3 Bft) 100,00 %
27.12.2017 04:54 -2,2 C 4,4 C 97 % 998,5 hPa 0,0 l/m 9,7 km/h (2 Bft) O-NO 67 0 min 0,000 mm 0,0 UV-I 0 W/m -2,6 C -5,6 C 12,9 km/h (3 Bft) 100,00 %
27.12.2017 04:55 -2,2 C 4,4 C 97 % 998,5 hPa 0,0 l/m 9,7 km/h (2 Bft) O-NO 67 0 min 0,000 mm 0,0 UV-I 0 W/m -2,6 C -5,6 C 12,9 km/h (3 Bft) 100,00 %
27.12.2017 04:56 -2,2 C 4,4 C 97 % 998,6 hPa 0,0 l/m 9,7 km/h (2 Bft) O-NO 67 0 min 0,000 mm 0,0 UV-I 0 W/m -2,6 C -5,6 C 12,9 km/h (3 Bft) 100,00 %
27.12.2017 04:57 -2,1 C 4,4 C 97 % 998,6 hPa 0,0 l/m 9,7 km/h (2 Bft) O-NO 67 0 min 0,000 mm 0,0 UV-I 0 W/m -2,5 C -5,5 C 14,5 km/h (3 Bft) 100,00 %
27.12.2017 04:58 -2,1 C 4,4 C 97 % 998,6 hPa 0,0 l/m 6,4 km/h (2 Bft) O-NO 67 0 min 0,000 mm 0,0 UV-I 0 W/m -2,5 C -2,1 C 12,9 km/h (3 Bft) 95,65 %
27.12.2017 04:59 -2,1 C 4,4 C 97 % 998,5 hPa 0,0 l/m 9,7 km/h (2 Bft) O-NO 67 0 min 0,000 mm 0,0 UV-I 0 W/m -2,5 C -5,5 C 12,9 km/h (3 Bft) 100,00 %
27.12.2017 05:00 -2,1 C 4,4 C 97 % 998,5 hPa 0,0 l/m 9,7 km/h (2 Bft) O-NO 67 0 min 0,000 mm 0,0 UV-I 0 W/m -2,5 C -5,5 C 14,5 km/h (3 Bft) 100,00 %
27.12.2017 05:01 -2,1 C 4,4 C 97 % 998,5 hPa 0,0 l/m 8,0 km/h (2 Bft) O 90 0 min 0,000 mm 0,0 UV-I 0 W/m -2,5 C -3,9 C 14,5 km/h (3 Bft) 100,00 %
27.12.2017 05:02 -2,1 C 4,4 C 97 % 998,4 hPa 0,0 l/m 8,0 km/h (2 Bft) O-NO 67 0 min 0,000 mm 0,0 UV-I 0 W/m -2,5 C -3,9 C 14,5 km/h (3 Bft) 95,65 %
27.12.2017 05:03 -2,1 C 4,4 C 97 % 998,4 hPa 0,0 l/m 9,7 km/h (2 Bft) O-NO 67 0 min 0,000 mm 0,0 UV-I 0 W/m -2,5 C -5,5 C 16,1 km/h (3 Bft) 95,65 %
27.12.2017 05:04 -2,1 C 4,4 C 97 % 998,4 hPa 0,0 l/m 8,0 km/h (2 Bft) O-NO 67 0 min 0,000 mm 0,0 UV-I 0 W/m -2,5 C -3,9 C 14,5 km/h (3 Bft) 100,00 %
27.12.2017 05:05 -2,0 C 4,4 C 97 % 998,4 hPa 0,0 l/m 9,7 km/h (2 Bft) O-NO 67 0 min 0,000 mm 0,0 UV-I 0 W/m -2,4 C -5,4 C 14,5 km/h (3 Bft) 91,30 %
27.12.2017 05:06 -2,0 C 4,4 C 97 % 998,4 hPa 0,0 l/m 9,7 km/h (2 Bft) O-NO 67 0 min 0,000 mm 0,0 UV-I 0 W/m -2,4 C -5,4 C 12,9 km/h (3 Bft) 100,00 %
27.12.2017 05:07 -2,0 C 4,4 C 97 % 998,3 hPa 0,0 l/m 9,7 km/h (2 Bft) NO 45 0 min 0,000 mm 0,0 UV-I 0 W/m -2,4 C -5,4 C 12,9 km/h (3 Bft) 91,30 %
27.12.2017 05:08 -2,0 C 4,4 C 97 % 998,3 hPa 0,0 l/m 8,0 km/h (2 Bft) O-NO 67 0 min 0,000 mm 0,0 UV-I 0 W/m -2,4 C -3,7 C 12,9 km/h (3 Bft) 100,00 %
27.12.2017 05:09 -2,0 C 4,4 C 97 % 998,3 hPa 0,0 l/m 6,4 km/h (2 Bft) O-NO 67 0 min 0,000 mm 0,0 UV-I 0 W/m -2,4 C -2,0 C 9,7 km/h (2 Bft) 95,65 %
27.12.2017 05:10 -1,9 C 4,4 C 97 % 998,4 hPa 0,0 l/m 4,8 km/h (1 Bft) O-NO 67 0 min 0,000 mm 0,0 UV-I 0 W/m -2,3 C -1,9 C 8,0 km/h (2 Bft) 95,65 %
27.12.2017 05:11 -1,9 C 4,4 C 97 % 998,3 hPa 0,0 l/m 6,4 km/h (2 Bft) NO 45 0 min 0,000 mm 0,0 UV-I 0 W/m -2,3 C -1,9 C 9,7 km/h (2 Bft) 95,65 %
27.12.2017 05:12 -1,9 C 4,4 C 97 % 998,2 hPa 0,0 l/m 8,0 km/h (2 Bft) O-NO 67 0 min 0,000 mm 0,0 UV-I 0 W/m -2,3 C -3,6 C 14,5 km/h (3 Bft) 91,30 %
27.12.2017 05:13 -1,9 C 4,4 C 97 % 998,2 hPa 0,0 l/m 9,7 km/h (2 Bft) O-NO 67 0 min 0,000 mm 0,0 UV-I 0 W/m -2,3 C -5,3 C 14,5 km/h (3 Bft) 100,00 %
27.12.2017 05:14 -1,9 C 4,4 C 97 % 998,2 hPa 0,0 l/m 9,7 km/h (2 Bft) O-NO 67 0 min 0,000 mm 0,0 UV-I 0 W/m -2,3 C -5,3 C 12,9 km/h (3 Bft) 95,65 %
27.12.2017 05:15 -1,9 C 4,4 C 97 % 998,2 hPa 0,0 l/m 6,4 km/h (2 Bft) O-NO 67 0 min 0,000 mm 0,0 UV-I 0 W/m -2,3 C -1,9 C 9,7 km/h (2 Bft) 100,00 %
27.12.2017 05:16 -1,9 C 4,4 C 97 % 998,2 hPa 0,0 l/m 6,4 km/h (2 Bft) O-NO 67 0 min 0,000 mm 0,0 UV-I 0 W/m -2,3 C -1,9 C 8,0 km/h (2 Bft) 91,30 %
27.12.2017 05:17 -1,9 C 4,4 C 97 % 998,3 hPa 0,0 l/m 8,0 km/h (2 Bft) O-NO 67 0 min 0,000 mm 0,0 UV-I 0 W/m -2,3 C -3,6 C 12,9 km/h (3 Bft) 100,00 %
27.12.2017 05:18 -1,9 C 4,4 C 97 % 998,2 hPa 0,0 l/m 6,4 km/h (2 Bft) O-NO 67 0 min 0,000 mm 0,0 UV-I 0 W/m -2,3 C -1,9 C 9,7 km/h (2 Bft) 95,65 %
27.12.2017 05:19 -1,9 C 4,4 C 97 % 998,1 hPa 0,0 l/m 9,7 km/h (2 Bft) NO 45 0 min 0,000 mm 0,0 UV-I 0 W/m -2,3 C -5,3 C 12,9 km/h (3 Bft) 95,65 %
27.12.2017 05:20 -1,9 C 4,4 C 97 % 998,0 hPa 0,0 l/m 8,0 km/h (2 Bft) O-NO 67 0 min 0,000 mm 0,0 UV-I 0 W/m -2,3 C -3,6 C 12,9 km/h (3 Bft) 95,65 %
27.12.2017 05:21 -1,9 C 4,4 C 97 % 998,0 hPa 0,0 l/m 8,0 km/h (2 Bft) O-NO 67 0 min 0,000 mm 0,0 UV-I 0 W/m -2,3 C -3,6 C 11,3 km/h (2 Bft) 95,65 %
27.12.2017 05:22 -1,8 C 4,4 C 97 % 998,0 hPa 0,0 l/m 8,0 km/h (2 Bft) O-NO 67 0 min 0,000 mm 0,0 UV-I 0 W/m -2,2 C -3,5 C 11,3 km/h (2 Bft) 100,00 %
27.12.2017 05:23 -1,8 C 4,4 C 97 % 997,9 hPa 0,0 l/m 6,4 km/h (2 Bft) O-NO 67 0 min 0,000 mm 0,0 UV-I 0 W/m -2,2 C -1,8 C 8,0 km/h (2 Bft) 95,65 %
27.12.2017 05:24 -1,8 C 4,4 C 97 % 997,9 hPa 0,0 l/m 8,0 km/h (2 Bft) NO 45 0 min 0,000 mm 0,0 UV-I 0 W/m -2,2 C -3,5 C 9,7 km/h (2 Bft) 100,00 %
27.12.2017 05:25 -1,8 C 4,4 C 97 % 997,8 hPa 0,0 l/m 9,7 km/h (2 Bft) O-NO 67 0 min 0,000 mm 0,0 UV-I 0 W/m -2,2 C -5,2 C 12,9 km/h (3 Bft) 95,65 %
27.12.2017 05:26 -1,8 C 4,4 C 97 % 997,8 hPa 0,0 l/m 9,7 km/h (2 Bft) O-NO 67 0 min 0,000 mm 0,0 UV-I 0 W/m -2,2 C -5,2 C 16,1 km/h (3 Bft) 95,65 %
27.12.2017 05:27 -1,8 C 4,4 C 97 % 997,8 hPa 0,0 l/m 8,0 km/h (2 Bft) O-NO 67 0 min 0,000 mm 0,0 UV-I 0 W/m -2,2 C -3,5 C 9,7 km/h (2 Bft) 95,65 %
27.12.2017 05:28 -1,8 C 4,4 C 97 % 997,7 hPa 0,0 l/m 4,8 km/h (1 Bft) NO 45 0 min 0,000 mm 0,0 UV-I 0 W/m -2,2 C -1,8 C 8,0 km/h (2 Bft) 95,65 %
27.12.2017 05:29 -1,8 C 4,4 C 97 % 997,8 hPa 0,0 l/m 6,4 km/h (2 Bft) NO 45 0 min 0,000 mm 0,0 UV-I 0 W/m -2,2 C -1,8 C 8,0 km/h (2 Bft) 95,65 %
27.12.2017 05:30 -1,8 C 4,4 C 97 % 997,8 hPa 0,0 l/m 8,0 km/h (2 Bft) NO 45 0 min 0,000 mm 0,0 UV-I 0 W/m -2,2 C -3,5 C 12,9 km/h (3 Bft) 95,65 %
27.12.2017 05:31 -1,8 C 4,4 C 97 % 997,8 hPa 0,0 l/m 11,3 km/h (2 Bft) O-NO 67 0 min 0,000 mm 0,0 UV-I 0 W/m -2,2 C -6,5 C 14,5 km/h (3 Bft) 100,00 %
27.12.2017 05:32 -1,8 C 4,4 C 97 % 997,8 hPa 0,0 l/m 8,0 km/h (2 Bft) O-NO 67 0 min 0,000 mm 0,0 UV-I 0 W/m -2,2 C -3,5 C 12,9 km/h (3 Bft) 95,65 %
27.12.2017 05:33 -1,8 C 4,4 C 97 % 997,8 hPa 0,0 l/m 8,0 km/h (2 Bft) NO 45 0 min 0,000 mm 0,0 UV-I 0 W/m -2,2 C -3,5 C 9,7 km/h (2 Bft) 95,65 %
27.12.2017 05:34 -1,8 C 4,4 C 97 % 997,7 hPa 0,0 l/m 6,4 km/h (2 Bft) NO 45 0 min 0,000 mm 0,0 UV-I 0 W/m -2,2 C -1,8 C 6,4 km/h (2 Bft) 91,30 %
27.12.2017 05:35 -1,8 C 4,4 C 97 % 997,8 hPa 0,0 l/m 8,0 km/h (2 Bft) O-NO 67 0 min 0,000 mm 0,0 UV-I 0 W/m -2,2 C -3,5 C 14,5 km/h (3 Bft) 100,00 %
27.12.2017 05:36 -1,8 C 4,4 C 97 % 997,8 hPa 0,0 l/m 8,0 km/h (2 Bft) O-NO 67 0 min 0,000 mm 0,0 UV-I 0 W/m -2,2 C -3,5 C 12,9 km/h (3 Bft) 95,65 %
27.12.2017 05:37 -1,8 C 4,4 C 97 % 997,8 hPa 0,0 l/m 8,0 km/h (2 Bft) O-NO 67 0 min 0,000 mm 0,0 UV-I 0 W/m -2,2 C -3,5 C 11,3 km/h (2 Bft) 100,00 %
27.12.2017 05:38 -1,8 C 4,4 C 97 % 997,8 hPa 0,0 l/m 8,0 km/h (2 Bft) O-NO 67 0 min 0,000 mm 0,0 UV-I 0 W/m -2,2 C -3,5 C 11,3 km/h (2 Bft) 86,96 %
27.12.2017 05:39 -1,8 C 4,4 C 97 % 997,7 hPa 0,0 l/m 6,4 km/h (2 Bft) O-NO 67 0 min 0,000 mm 0,0 UV-I 0 W/m -2,2 C -1,8 C 8,0 km/h (2 Bft) 100,00 %
27.12.2017 05:40 -1,8 C 4,4 C 97 % 997,7 hPa 0,0 l/m 4,8 km/h (1 Bft) NO 45 0 min 0,000 mm 0,0 UV-I 0 W/m -2,2 C -1,8 C 6,4 km/h (2 Bft) 86,96 %
27.12.2017 05:41 -1,8 C 4,4 C 97 % 997,7 hPa 0,0 l/m 6,4 km/h (2 Bft) O-NO 67 0 min 0,000 mm 0,0 UV-I 0 W/m -2,2 C -1,8 C 9,7 km/h (2 Bft) 100,00 %
27.12.2017 05:42 -1,8 C 4,4 C 97 % 997,7 hPa 0,0 l/m 6,4 km/h (2 Bft) NO 45 0 min 0,000 mm 0,0 UV-I 0 W/m -2,2 C -1,8 C 8,0 km/h (2 Bft) 95,65 %
27.12.2017 05:43 -1,8 C 4,4 C 97 % 997,6 hPa 0,0 l/m 6,4 km/h (2 Bft) O-NO 67 0 min 0,000 mm 0,0 UV-I 0 W/m -2,2 C -1,8 C 8,0 km/h (2 Bft) 100,00 %
27.12.2017 05:44 -1,8 C 4,4 C 97 % 997,6 hPa 0,0 l/m 8,0 km/h (2 Bft) O-NO 67 0 min 0,000 mm 0,0 UV-I 0 W/m -2,2 C -3,5 C 12,9 km/h (3 Bft) 95,65 %
27.12.2017 05:45 -1,8 C 4,4 C 97 % 997,6 hPa 0,0 l/m 9,7 km/h (2 Bft) O-NO 67 0 min 0,000 mm 0,0 UV-I 0 W/m -2,2 C -5,2 C 12,9 km/h (3 Bft) 95,65 %
27.12.2017 05:46 -1,8 C 4,4 C 97 % 997,4 hPa 0,0 l/m 8,0 km/h (2 Bft) O-NO 67 0 min 0,000 mm 0,0 UV-I 0 W/m -2,2 C -3,5 C 9,7 km/h (2 Bft) 100,00 %
27.12.2017 05:47 -1,7 C 4,4 C 97 % 997,4 hPa 0,0 l/m 9,7 km/h (2 Bft) O-NO 67 0 min 0,000 mm 0,0 UV-I 0 W/m -2,1 C -5,1 C 14,5 km/h (3 Bft) 91,30 %
27.12.2017 05:48 -1,7 C 4,4 C 97 % 997,3 hPa 0,0 l/m 11,3 km/h (2 Bft) O-NO 67 0 min 0,000 mm 0,0 UV-I 0 W/m -2,1 C -6,4 C 16,1 km/h (3 Bft) 100,00 %
27.12.2017 05:49 -1,8 C 4,4 C 97 % 997,3 hPa 0,0 l/m 11,3 km/h (2 Bft) NO 45 0 min 0,000 mm 0,0 UV-I 0 W/m -2,2 C -6,5 C 19,3 km/h (3 Bft) 91,30 %
27.12.2017 05:50 -1,7 C 4,4 C 97 % 997,3 hPa 0,0 l/m 12,9 km/h (3 Bft) O-NO 67 0 min 0,000 mm 0,0 UV-I 0 W/m -2,1 C -7,6 C 16,1 km/h (3 Bft) 100,00 %
27.12.2017 05:51 -1,7 C 4,4 C 97 % 997,3 hPa 0,0 l/m 12,9 km/h (3 Bft) O-NO 67 0 min 0,000 mm 0,0 UV-I 0 W/m -2,1 C -7,6 C 19,3 km/h (3 Bft) 95,65 %
27.12.2017 05:52 -1,7 C 4,4 C 97 % 997,3 hPa 0,0 l/m 14,5 km/h (3 Bft) O-NO 67 0 min 0,000 mm 0,0 UV-I 0 W/m -2,1 C -8,7 C 17,7 km/h (3 Bft) 100,00 %
27.12.2017 05:53 -1,7 C 4,4 C 97 % 997,3 hPa 0,0 l/m 12,9 km/h (3 Bft) O-NO 67 0 min 0,000 mm 0,0 UV-I 0 W/m -2,1 C -7,6 C 14,5 km/h (3 Bft) 95,65 %
27.12.2017 05:54 -1,7 C 4,4 C 97 % 997,3 hPa 0,0 l/m 9,7 km/h (2 Bft) O-NO 67 0 min 0,000 mm 0,0 UV-I 0 W/m -2,1 C -5,1 C 16,1 km/h (3 Bft) 95,65 %
27.12.2017 05:55 -1,7 C 4,4 C 97 % 997,4 hPa 0,0 l/m 11,3 km/h (2 Bft) O-NO 67 0 min 0,000 mm 0,0 UV-I 0 W/m -2,1 C -6,4 C 16,1 km/h (3 Bft) 95,65 %
27.12.2017 05:56 -1,7 C 4,4 C 97 % 997,3 hPa 0,0 l/m 11,3 km/h (2 Bft) O-NO 67 0 min 0,000 mm 0,0 UV-I 0 W/m -2,1 C -6,4 C 14,5 km/h (3 Bft) 100,00 %
27.12.2017 05:57 -1,7 C 4,4 C 97 % 997,2 hPa 0,0 l/m 16,1 km/h (3 Bft) O-NO 67 0 min 0,000 mm 0,0 UV-I 0 W/m -2,1 C -9,7 C 19,3 km/h (3 Bft) 95,65 %
27.12.2017 05:58 -1,7 C 4,4 C 97 % 997,2 hPa 0,0 l/m 14,5 km/h (3 Bft) O-NO 67 0 min 0,000 mm 0,0 UV-I 0 W/m -2,1 C -8,7 C 19,3 km/h (3 Bft) 100,00 %
27.12.2017 05:59 -1,7 C 4,4 C 97 % 997,2 hPa 0,0 l/m 12,9 km/h (3 Bft) O-NO 67 0 min 0,000 mm 0,0 UV-I 0 W/m -2,1 C -7,6 C 16,1 km/h (3 Bft) 95,65 %
27.12.2017 06:00 -1,7 C 4,4 C 97 % 997,2 hPa 0,0 l/m 9,7 km/h (2 Bft) O-NO 67 0 min 0,000 mm 0,0 UV-I 0 W/m -2,1 C -5,1 C 12,9 km/h (3 Bft) 100,00 %
27.12.2017 06:01 -1,7 C 4,4 C 97 % 997,2 hPa 0,0 l/m 11,3 km/h (2 Bft) O-NO 67 0 min 0,000 mm 0,0 UV-I 0 W/m -2,1 C -6,4 C 16,1 km/h (3 Bft) 91,30 %
27.12.2017 06:02 -1,7 C 4,4 C 97 % 997,2 hPa 0,0 l/m 14,5 km/h (3 Bft) O-NO 67 0 min 0,000 mm 0,0 UV-I 0 W/m -2,1 C -8,7 C 17,7 km/h (3 Bft) 95,65 %
27.12.2017 06:03 -1,7 C 4,4 C 97 % 997,2 hPa 0,0 l/m 11,3 km/h (2 Bft) O 90 0 min 0,000 mm 0,0 UV-I 0 W/m -2,1 C -6,4 C 16,1 km/h (3 Bft) 100,00 %
27.12.2017 06:04 -1,7 C 4,4 C 97 % 997,2 hPa 0,0 l/m 9,7 km/h (2 Bft) O-NO 67 0 min 0,000 mm 0,0 UV-I 0 W/m -2,1 C -5,1 C 14,5 km/h (3 Bft) 95,65 %
27.12.2017 06:05 -1,7 C 4,4 C 97 % 997,2 hPa 0,0 l/m 11,3 km/h (2 Bft) O-NO 67 0 min 0,000 mm 0,0 UV-I 0 W/m -2,1 C -6,4 C 17,7 km/h (3 Bft) 95,65 %
27.12.2017 06:06 -1,7 C 4,4 C 97 % 997,2 hPa 0,0 l/m 12,9 km/h (3 Bft) O-NO 67 0 min 0,000 mm 0,0 UV-I 0 W/m -2,1 C -7,6 C 17,7 km/h (3 Bft) 100,00 %
27.12.2017 06:07 -1,7 C 4,4 C 97 % 997,2 hPa 0,0 l/m 9,7 km/h (2 Bft) O-NO 67 0 min 0,000 mm 0,0 UV-I 0 W/m -2,1 C -5,1 C 12,9 km/h (3 Bft) 100,00 %
27.12.2017 06:08 -1,7 C 4,4 C 97 % 997,2 hPa 0,0 l/m 11,3 km/h (2 Bft) NO 45 0 min 0,000 mm 0,0 UV-I 0 W/m -2,1 C -6,4 C 14,5 km/h (3 Bft) 95,65 %
27.12.2017 06:09 -1,7 C 4,4 C 97 % 997,2 hPa 0,0 l/m 17,7 km/h (3 Bft) O-NO 67 0 min 0,000 mm 0,0 UV-I 0 W/m -2,1 C -10,6 C 22,5 km/h (4 Bft) 100,00 %
27.12.2017 06:10 -1,7 C 4,4 C 97 % 997,1 hPa 0,0 l/m 19,3 km/h (3 Bft) O-NO 67 0 min 0,000 mm 0,0 UV-I 0 W/m -2,1 C -11,5 C 22,5 km/h (4 Bft) 100,00 %
27.12.2017 06:11 -1,7 C 4,4 C 97 % 997,2 hPa 0,0 l/m 17,7 km/h (3 Bft) O-NO 67 0 min 0,000 mm 0,0 UV-I 0 W/m -2,1 C -10,6 C 22,5 km/h (4 Bft) 100,00 %
27.12.2017 06:12 -1,7 C 4,4 C 97 % 997,1 hPa 0,0 l/m 12,9 km/h (3 Bft) O-NO 67 0 min 0,000 mm 0,0 UV-I 0 W/m -2,1 C -7,6 C 20,9 km/h (4 Bft) 100,00 %
27.12.2017 06:13 -1,7 C 4,4 C 97 % 997,1 hPa 0,0 l/m 14,5 km/h (3 Bft) O-NO 67 0 min 0,000 mm 0,0 UV-I 0 W/m -2,1 C -8,7 C 24,1 km/h (4 Bft) 100,00 %
27.12.2017 06:14 -1,7 C 4,4 C 97 % 997,1 hPa 0,0 l/m 14,5 km/h (3 Bft) O 90 0 min 0,000 mm 0,0 UV-I 0 W/m -2,1 C -8,7 C 24,1 km/h (4 Bft) 100,00 %
27.12.2017 06:15 -1,7 C 4,4 C 97 % 997,0 hPa 0,0 l/m 16,1 km/h (3 Bft) O-NO 67 0 min 0,000 mm 0,0 UV-I 0 W/m -2,1 C -9,7 C 19,3 km/h (3 Bft) 95,65 %
27.12.2017 06:16 -1,7 C 4,4 C 97 % 997,0 hPa 0,0 l/m 12,9 km/h (3 Bft) O-NO 67 0 min 0,000 mm 0,0 UV-I 0 W/m -2,1 C -7,6 C 17,7 km/h (3 Bft) 100,00 %
27.12.2017 06:17 -1,7 C 4,4 C 97 % 997,0 hPa 0,0 l/m 11,3 km/h (2 Bft) O-NO 67 0 min 0,000 mm 0,0 UV-I 0 W/m -2,1 C -6,4 C 16,1 km/h (3 Bft) 100,00 %
27.12.2017 06:18 -1,7 C 4,4 C 97 % 997,0 hPa 0,0 l/m 12,9 km/h (3 Bft) O-NO 67 0 min 0,000 mm 0,0 UV-I 0 W/m -2,1 C -7,6 C 17,7 km/h (3 Bft) 100,00 %
27.12.2017 06:19 -1,7 C 4,4 C 97 % 997,0 hPa 0,0 l/m 12,9 km/h (3 Bft) O-NO 67 0 min 0,000 mm 0,0 UV-I 0 W/m -2,1 C -7,6 C 14,5 km/h (3 Bft) 100,00 %
27.12.2017 06:20 -1,7 C 4,4 C 97 % 997,0 hPa 0,0 l/m 9,7 km/h (2 Bft) O-NO 67 0 min 0,000 mm 0,0 UV-I 0 W/m -2,1 C -5,1 C 12,9 km/h (3 Bft) 95,65 %
27.12.2017 06:21 -1,7 C 4,4 C 97 % 997,0 hPa 0,0 l/m 9,7 km/h (2 Bft) O-NO 67 0 min 0,000 mm 0,0 UV-I 0 W/m -2,1 C -5,1 C 14,5 km/h (3 Bft) 100,00 %
27.12.2017 06:22 -1,7 C 4,4 C 97 % 996,9 hPa 0,0 l/m 9,7 km/h (2 Bft) O-NO 67 0 min 0,000 mm 0,0 UV-I 0 W/m -2,1 C -5,1 C 14,5 km/h (3 Bft) 95,65 %
27.12.2017 06:23 -1,7 C 4,4 C 97 % 996,9 hPa 0,0 l/m 11,3 km/h (2 Bft) O-NO 67 0 min 0,000 mm 0,0 UV-I 0 W/m -2,1 C -6,4 C 16,1 km/h (3 Bft) 100,00 %
27.12.2017 06:24 -1,7 C 4,4 C 97 % 996,9 hPa 0,0 l/m 9,7 km/h (2 Bft) O-NO 67 0 min 0,000 mm 0,0 UV-I 0 W/m -2,1 C -5,1 C 12,9 km/h (3 Bft) 95,65 %
27.12.2017 06:25 -1,7 C 4,4 C 97 % 996,8 hPa 0,0 l/m 9,7 km/h (2 Bft) NO 45 0 min 0,000 mm 0,0 UV-I 0 W/m -2,1 C -5,1 C 12,9 km/h (3 Bft) 95,65 %
27.12.2017 06:26 -1,7 C 4,4 C 97 % 996,8 hPa 0,0 l/m 11,3 km/h (2 Bft) O-NO 67 0 min 0,000 mm 0,0 UV-I 0 W/m -2,1 C -6,4 C 14,5 km/h (3 Bft) 100,00 %
27.12.2017 06:27 -1,7 C 4,4 C 97 % 996,7 hPa 0,0 l/m 12,9 km/h (3 Bft) O-NO 67 0 min 0,000 mm 0,0 UV-I 0 W/m -2,1 C -7,6 C 17,7 km/h (3 Bft) 100,00 %
27.12.2017 06:28 -1,7 C 4,4 C 97 % 996,7 hPa 0,0 l/m 12,9 km/h (3 Bft) O-NO 67 0 min 0,000 mm 0,0 UV-I 0 W/m -2,1 C -7,6 C 16,1 km/h (3 Bft) 100,00 %
27.12.2017 06:29 -1,7 C 4,4 C 97 % 996,7 hPa 0,0 l/m 14,5 km/h (3 Bft) O-NO 67 0 min 0,000 mm 0,0 UV-I 0 W/m -2,1 C -8,7 C 19,3 km/h (3 Bft) 95,65 %
27.12.2017 06:30 -1,7 C 4,4 C 97 % 996,6 hPa 0,0 l/m 11,3 km/h (2 Bft) O-NO 67 0 min 0,000 mm 0,0 UV-I 0 W/m -2,1 C -6,4 C 17,7 km/h (3 Bft) 100,00 %
27.12.2017 06:31 -1,7 C 4,4 C 97 % 996,6 hPa 0,0 l/m 12,9 km/h (3 Bft) O-NO 67 0 min 0,000 mm 0,0 UV-I 0 W/m -2,1 C -7,6 C 20,9 km/h (4 Bft) 100,00 %
27.12.2017 06:32 -1,7 C 3,9 C 97 % 996,7 hPa 0,0 l/m 16,1 km/h (3 Bft) O-NO 67 0 min 0,000 mm 0,0 UV-I 0 W/m -2,1 C -9,7 C 19,3 km/h (3 Bft) 95,65 %
27.12.2017 06:33 -1,7 C 3,9 C 97 % 996,7 hPa 0,0 l/m 14,5 km/h (3 Bft) O-NO 67 0 min 0,000 mm 0,0 UV-I 0 W/m -2,1 C -8,7 C 19,3 km/h (3 Bft) 100,00 %
27.12.2017 06:34 -1,7 C 4,4 C 97 % 996,7 hPa 0,0 l/m 16,1 km/h (3 Bft) O-NO 67 0 min 0,000 mm 0,0 UV-I 0 W/m -2,1 C -9,7 C 20,9 km/h (4 Bft) 100,00 %
27.12.2017 06:35 -1,7 C 4,4 C 97 % 996,7 hPa 0,0 l/m 14,5 km/h (3 Bft) NO 45 0 min 0,000 mm 0,0 UV-I 0 W/m -2,1 C -8,7 C 19,3 km/h (3 Bft) 100,00 %
27.12.2017 06:36 -1,7 C 4,4 C 97 % 996,6 hPa 0,0 l/m 16,1 km/h (3 Bft) O-NO 67 0 min 0,000 mm 0,0 UV-I 0 W/m -2,1 C -9,7 C 20,9 km/h (4 Bft) 95,65 %
27.12.2017 06:37 -1,7 C 4,4 C 97 % 996,6 hPa 0,0 l/m 16,1 km/h (3 Bft) O-NO 67 0 min 0,000 mm 0,0 UV-I 0 W/m -2,1 C -9,7 C 20,9 km/h (4 Bft) 100,00 %
27.12.2017 06:38 -1,7 C 4,4 C 97 % 996,6 hPa 0,0 l/m 16,1 km/h (3 Bft) O-NO 67 0 min 0,000 mm 0,0 UV-I 0 W/m -2,1 C -9,7 C 17,7 km/h (3 Bft) 100,00 %
27.12.2017 06:39 -1,7 C 4,4 C 97 % 996,6 hPa 0,0 l/m 14,5 km/h (3 Bft) O-NO 67 0 min 0,000 mm 0,0 UV-I 0 W/m -2,1 C -8,7 C 17,7 km/h (3 Bft) 100,00 %
27.12.2017 06:40 -1,7 C 4,4 C 97 % 996,6 hPa 0,0 l/m 12,9 km/h (3 Bft) O-NO 67 0 min 0,000 mm 0,0 UV-I 0 W/m -2,1 C -7,6 C 17,7 km/h (3 Bft) 100,00 %
27.12.2017 06:41 -1,8 C 4,4 C 97 % 996,6 hPa 0,0 l/m 14,5 km/h (3 Bft) O-NO 67 0 min 0,000 mm 0,0 UV-I 0 W/m -2,2 C -8,8 C 17,7 km/h (3 Bft) 100,00 %
27.12.2017 06:42 -1,8 C 4,4 C 97 % 996,6 hPa 0,0 l/m 16,1 km/h (3 Bft) O-NO 67 0 min 0,000 mm 0,0 UV-I 0 W/m -2,2 C -9,8 C 20,9 km/h (4 Bft) 100,00 %
27.12.2017 06:43 -1,7 C 4,4 C 97 % 996,5 hPa 0,0 l/m 12,9 km/h (3 Bft) O-NO 67 0 min 0,000 mm 0,0 UV-I 0 W/m -2,1 C -7,6 C 16,1 km/h (3 Bft) 95,65 %
27.12.2017 06:44 -1,7 C 4,4 C 97 % 996,5 hPa 0,0 l/m 9,7 km/h (2 Bft) O-NO 67 0 min 0,000 mm 0,0 UV-I 0 W/m -2,1 C -5,1 C 16,1 km/h (3 Bft) 100,00 %
27.12.2017 06:45 -1,8 C 4,4 C 97 % 996,4 hPa 0,0 l/m 11,3 km/h (2 Bft) O-NO 67 0 min 0,000 mm 0,0 UV-I 0 W/m -2,2 C -6,5 C 14,5 km/h (3 Bft) 100,00 %
27.12.2017 06:46 -1,8 C 4,4 C 97 % 996,4 hPa 0,0 l/m 11,3 km/h (2 Bft) O-NO 67 0 min 0,000 mm 0,0 UV-I 0 W/m -2,2 C -6,5 C 14,5 km/h (3 Bft) 100,00 %
27.12.2017 06:47 -1,7 C 4,4 C 97 % 996,4 hPa 0,0 l/m 11,3 km/h (2 Bft) O-NO 67 0 min 0,000 mm 0,0 UV-I 0 W/m -2,1 C -6,4 C 16,1 km/h (3 Bft) 100,00 %
27.12.2017 06:48 -1,7 C 4,4 C 97 % 996,4 hPa 0,0 l/m 9,7 km/h (2 Bft) O-NO 67 0 min 0,000 mm 0,0 UV-I 0 W/m -2,1 C -5,1 C 12,9 km/h (3 Bft) 100,00 %
27.12.2017 06:49 -1,7 C 4,4 C 97 % 996,3 hPa 0,0 l/m 9,7 km/h (2 Bft) NO 45 0 min 0,000 mm 0,0 UV-I 0 W/m -2,1 C -5,1 C 14,5 km/h (3 Bft) 100,00 %
27.12.2017 06:50 -1,7 C 4,4 C 97 % 996,3 hPa 0,0 l/m 8,0 km/h (2 Bft) O-NO 67 0 min 0,000 mm 0,0 UV-I 0 W/m -2,1 C -3,4 C 11,3 km/h (2 Bft) 95,65 %
27.12.2017 06:51 -1,7 C 4,4 C 97 % 996,3 hPa 0,0 l/m 8,0 km/h (2 Bft) O-NO 67 0 min 0,000 mm 0,0 UV-I 0 W/m -2,1 C -3,4 C 11,3 km/h (2 Bft) 95,65 %
27.12.2017 06:52 -1,7 C 4,4 C 97 % 996,3 hPa 0,0 l/m 8,0 km/h (2 Bft) O-NO 67 0 min 0,000 mm 0,0 UV-I 0 W/m -2,1 C -3,4 C 12,9 km/h (3 Bft) 100,00 %
27.12.2017 06:53 -1,7 C 4,4 C 97 % 996,3 hPa 0,0 l/m 14,5 km/h (3 Bft) O-NO 67 0 min 0,000 mm 0,0 UV-I 0 W/m -2,1 C -8,7 C 19,3 km/h (3 Bft) 100,00 %
27.12.2017 06:54 -1,7 C 4,4 C 97 % 996,3 hPa 0,0 l/m 14,5 km/h (3 Bft) O-NO 67 0 min 0,000 mm 0,0 UV-I 0 W/m -2,1 C -8,7 C 17,7 km/h (3 Bft) 91,30 %
27.12.2017 06:55 -1,7 C 4,4 C 97 % 996,2 hPa 0,0 l/m 14,5 km/h (3 Bft) O 90 0 min 0,000 mm 0,0 UV-I 0 W/m -2,1 C -8,7 C 19,3 km/h (3 Bft) 100,00 %
27.12.2017 06:56 -1,7 C 4,4 C 97 % 996,2 hPa 0,0 l/m 11,3 km/h (2 Bft) O-NO 67 0 min 0,000 mm 0,0 UV-I 0 W/m -2,1 C -6,4 C 16,1 km/h (3 Bft) 95,65 %
27.12.2017 06:57 -1,7 C 4,4 C 97 % 996,2 hPa 0,0 l/m 9,7 km/h (2 Bft) O-NO 67 0 min 0,000 mm 0,0 UV-I 0 W/m -2,1 C -5,1 C 14,5 km/h (3 Bft) 95,65 %
27.12.2017 06:58 -1,7 C 4,4 C 97 % 996,3 hPa 0,0 l/m 8,0 km/h (2 Bft) O-NO 67 0 min 0,000 mm 0,0 UV-I 0 W/m -2,1 C -3,4 C 14,5 km/h (3 Bft) 100,00 %
27.12.2017 06:59 -1,7 C 4,4 C 97 % 996,3 hPa 0,0 l/m 11,3 km/h (2 Bft) O-NO 67 0 min 0,000 mm 0,0 UV-I 0 W/m -2,1 C -6,4 C 16,1 km/h (3 Bft) 95,65 %
27.12.2017 07:00 -1,7 C 4,4 C 97 % 996,3 hPa 0,0 l/m 17,7 km/h (3 Bft) O-NO 67 0 min 0,000 mm 0,0 UV-I 0 W/m -2,1 C -10,6 C 22,5 km/h (4 Bft) 95,65 %
27.12.2017 07:01 -1,7 C 4,4 C 97 % 996,3 hPa 0,0 l/m 17,7 km/h (3 Bft) O-NO 67 0 min 0,000 mm 0,0 UV-I 0 W/m -2,1 C -10,6 C 20,9 km/h (4 Bft) 95,65 %
27.12.2017 07:02 -1,7 C 4,4 C 97 % 996,3 hPa 0,0 l/m 14,5 km/h (3 Bft) O-NO 67 0 min 0,000 mm 0,0 UV-I 0 W/m -2,1 C -8,7 C 20,9 km/h (4 Bft) 100,00 %
27.12.2017 07:03 -1,7 C 4,4 C 97 % 996,3 hPa 0,0 l/m 14,5 km/h (3 Bft) O-NO 67 0 min 0,000 mm 0,0 UV-I 0 W/m -2,1 C -8,7 C 17,7 km/h (3 Bft) 95,65 %
27.12.2017 07:04 -1,8 C 4,4 C 97 % 996,2 hPa 0,0 l/m 9,7 km/h (2 Bft) O-NO 67 0 min 0,000 mm 0,0 UV-I 0 W/m -2,2 C -5,2 C 14,5 km/h (3 Bft) 95,65 %
27.12.2017 07:05 -1,8 C 4,4 C 97 % 996,3 hPa 0,0 l/m 11,3 km/h (2 Bft) O-NO 67 0 min 0,000 mm 0,0 UV-I 0 W/m -2,2 C -6,5 C 14,5 km/h (3 Bft) 95,65 %
27.12.2017 07:06 -1,8 C 4,4 C 97 % 996,3 hPa 0,0 l/m 11,3 km/h (2 Bft) O-NO 67 0 min 0,000 mm 0,0 UV-I 0 W/m -2,2 C -6,5 C 16,1 km/h (3 Bft) 95,65 %
27.12.2017 07:07 -1,8 C 4,4 C 97 % 996,3 hPa 0,0 l/m 14,5 km/h (3 Bft) O-NO 67 0 min 0,000 mm 0,0 UV-I 0 W/m -2,2 C -8,8 C 24,1 km/h (4 Bft) 95,65 %
27.12.2017 07:08 -1,8 C 4,4 C 97 % 996,3 hPa 0,0 l/m 17,7 km/h (3 Bft) O-NO 67 0 min 0,000 mm 0,0 UV-I 0 W/m -2,2 C -10,8 C 22,5 km/h (4 Bft) 95,65 %
27.12.2017 07:09 -1,8 C 4,4 C 97 % 996,3 hPa 0,0 l/m 12,9 km/h (3 Bft) O-NO 67 0 min 0,000 mm 0,0 UV-I 0 W/m -2,2 C -7,7 C 16,1 km/h (3 Bft) 95,65 %
27.12.2017 07:10 -1,8 C 4,4 C 97 % 996,3 hPa 0,0 l/m 14,5 km/h (3 Bft) O-NO 67 0 min 0,000 mm 0,0 UV-I 0 W/m -2,2 C -8,8 C 20,9 km/h (4 Bft) 95,65 %
27.12.2017 07:11 -1,8 C 4,4 C 97 % 996,3 hPa 0,0 l/m 11,3 km/h (2 Bft) O 90 0 min 0,000 mm 0,0 UV-I 0 W/m -2,2 C -6,5 C 14,5 km/h (3 Bft) 86,96 %
27.12.2017 07:12 -1,8 C 4,4 C 97 % 996,2 hPa 0,0 l/m 11,3 km/h (2 Bft) NO 45 0 min 0,000 mm 0,0 UV-I 0 W/m -2,2 C -6,5 C 14,5 km/h (3 Bft) 95,65 %
27.12.2017 07:13 -1,8 C 4,4 C 97 % 996,2 hPa 0,0 l/m 11,3 km/h (2 Bft) O-NO 67 0 min 0,000 mm 0,0 UV-I 0 W/m -2,2 C -6,5 C 17,7 km/h (3 Bft) 95,65 %
27.12.2017 07:14 -1,8 C 4,4 C 97 % 996,2 hPa 0,0 l/m 17,7 km/h (3 Bft) O-NO 67 0 min 0,000 mm 0,0 UV-I 0 W/m -2,2 C -10,8 C 22,5 km/h (4 Bft) 91,30 %
27.12.2017 07:15 -1,8 C 4,4 C 97 % 996,2 hPa 0,0 l/m 14,5 km/h (3 Bft) O 90 0 min 0,000 mm 0,0 UV-I 0 W/m -2,2 C -8,8 C 22,5 km/h (4 Bft) 100,00 %
27.12.2017 07:16 -1,8 C 4,4 C 97 % 996,2 hPa 0,0 l/m 16,1 km/h (3 Bft) O-NO 67 0 min 0,000 mm 0,0 UV-I 0 W/m -2,2 C -9,8 C 22,5 km/h (4 Bft) 91,30 %
27.12.2017 07:17 -1,8 C 4,4 C 97 % 996,2 hPa 0,0 l/m 17,7 km/h (3 Bft) O-NO 67 0 min 0,000 mm 0,0 UV-I 0 W/m -2,2 C -10,8 C 20,9 km/h (4 Bft) 95,65 %
27.12.2017 07:18 -1,8 C 4,4 C 97 % 996,1 hPa 0,0 l/m 17,7 km/h (3 Bft) O-NO 67 0 min 0,000 mm 0,0 UV-I 0 W/m -2,2 C -10,8 C 22,5 km/h (4 Bft) 86,96 %
27.12.2017 07:19 -1,8 C 4,4 C 97 % 996,1 hPa 0,0 l/m 16,1 km/h (3 Bft) O-NO 67 0 min 0,000 mm 0,0 UV-I 0 W/m -2,2 C -9,8 C 17,7 km/h (3 Bft) 95,65 %
27.12.2017 07:20 -1,9 C 4,4 C 97 % 996,0 hPa 0,0 l/m 16,1 km/h (3 Bft) O-NO 67 0 min 0,000 mm 0,0 UV-I 0 W/m -2,3 C -10,0 C 22,5 km/h (4 Bft) 91,30 %
27.12.2017 07:21 -1,9 C 4,4 C 97 % 996,1 hPa 0,0 l/m 14,5 km/h (3 Bft) O-NO 67 0 min 0,000 mm 0,0 UV-I 0 W/m -2,3 C -9,0 C 16,1 km/h (3 Bft) 95,65 %
27.12.2017 07:22 -1,9 C 4,4 C 97 % 996,0 hPa 0,0 l/m 14,5 km/h (3 Bft) O-NO 67 0 min 0,000 mm 0,0 UV-I 0 W/m -2,3 C -9,0 C 19,3 km/h (3 Bft) 95,65 %
27.12.2017 07:23 -1,9 C 4,4 C 97 % 996,0 hPa 0,0 l/m 12,9 km/h (3 Bft) O-NO 67 0 min 0,000 mm 0,0 UV-I 0 W/m -2,3 C -7,9 C 16,1 km/h (3 Bft) 100,00 %
27.12.2017 07:24 -1,9 C 4,4 C 97 % 996,0 hPa 0,0 l/m 14,5 km/h (3 Bft) O-NO 67 0 min 0,000 mm 0,0 UV-I 0 W/m -2,3 C -9,0 C 17,7 km/h (3 Bft) 100,00 %
27.12.2017 07:25 -1,9 C 4,4 C 97 % 996,0 hPa 0,0 l/m 14,5 km/h (3 Bft) O-NO 67 0 min 0,000 mm 0,0 UV-I 0 W/m -2,3 C -9,0 C 19,3 km/h (3 Bft) 91,30 %
27.12.2017 07:26 -1,9 C 4,4 C 97 % 996,0 hPa 0,0 l/m 14,5 km/h (3 Bft) O-NO 67 0 min 0,000 mm 0,0 UV-I 0 W/m -2,3 C -9,0 C 20,9 km/h (4 Bft) 95,65 %
27.12.2017 07:27 -1,9 C 4,4 C 97 % 995,9 hPa 0,0 l/m 14,5 km/h (3 Bft) O-NO 67 0 min 0,000 mm 0,0 UV-I 0 W/m -2,3 C -9,0 C 19,3 km/h (3 Bft) 95,65 %
27.12.2017 07:28 -1,9 C 4,4 C 97 % 995,8 hPa 0,0 l/m 16,1 km/h (3 Bft) O-NO 67 0 min 0,000 mm 0,0 UV-I 0 W/m -2,3 C -10,0 C 20,9 km/h (4 Bft) 100,00 %
27.12.2017 07:29 -1,9 C 4,4 C 97 % 995,8 hPa 0,0 l/m 19,3 km/h (3 Bft) O-NO 67 0 min 0,000 mm 0,0 UV-I 0 W/m -2,3 C -11,7 C 24,1 km/h (4 Bft) 91,30 %
27.12.2017 07:30 -1,9 C 4,4 C 97 % 995,8 hPa 0,0 l/m 17,7 km/h (3 Bft) O-NO 67 0 min 0,000 mm 0,0 UV-I 0 W/m -2,3 C -10,9 C 22,5 km/h (4 Bft) 100,00 %
27.12.2017 07:31 -1,9 C 4,4 C 97 % 995,8 hPa 0,0 l/m 17,7 km/h (3 Bft) O-NO 67 0 min 0,000 mm 0,0 UV-I 0 W/m -2,3 C -10,9 C 22,5 km/h (4 Bft) 95,65 %
27.12.2017 07:32 -1,9 C 4,4 C 97 % 995,8 hPa 0,0 l/m 17,7 km/h (3 Bft) O-NO 67 0 min 0,000 mm 0,0 UV-I 0 W/m -2,3 C -10,9 C 22,5 km/h (4 Bft) 91,30 %
27.12.2017 07:33 -1,9 C 4,4 C 97 % 995,8 hPa 0,0 l/m 16,1 km/h (3 Bft) O-NO 67 0 min 0,000 mm 0,0 UV-I 0 W/m -2,3 C -10,0 C 19,3 km/h (3 Bft) 100,00 %
27.12.2017 07:34 -1,9 C 4,4 C 97 % 995,8 hPa 0,0 l/m 14,5 km/h (3 Bft) O-NO 67 0 min 0,000 mm 0,0 UV-I 0 W/m -2,3 C -9,0 C 17,7 km/h (3 Bft) 95,65 %
27.12.2017 07:35 -1,9 C 4,4 C 97 % 995,7 hPa 0,0 l/m 11,3 km/h (2 Bft) O-NO 67 0 min 0,000 mm 0,0 UV-I 0 W/m -2,3 C -6,6 C 17,7 km/h (3 Bft) 100,00 %
27.12.2017 07:36 -1,9 C 4,4 C 97 % 995,7 hPa 0,0 l/m 14,5 km/h (3 Bft) O-NO 67 0 min 0,000 mm 0,0 UV-I 0 W/m -2,3 C -9,0 C 19,3 km/h (3 Bft) 95,65 %
27.12.2017 07:37 -1,9 C 4,4 C 97 % 995,7 hPa 0,0 l/m 12,9 km/h (3 Bft) O-NO 67 0 min 0,000 mm 0,0 UV-I 0 W/m -2,3 C -7,9 C 17,7 km/h (3 Bft) 100,00 %
27.12.2017 07:38 -1,9 C 4,4 C 97 % 995,7 hPa 0,0 l/m 17,7 km/h (3 Bft) O-NO 67 0 min 0,000 mm 0,0 UV-I 0 W/m -2,3 C -10,9 C 22,5 km/h (4 Bft) 95,65 %
27.12.2017 07:39 -1,9 C 4,4 C 97 % 995,8 hPa 0,0 l/m 14,5 km/h (3 Bft) O-NO 67 0 min 0,000 mm 0,0 UV-I 0 W/m -2,3 C -9,0 C 19,3 km/h (3 Bft) 95,65 %
27.12.2017 07:40 -1,9 C 4,4 C 97 % 995,7 hPa 0,0 l/m 12,9 km/h (3 Bft) O-NO 67 0 min 0,000 mm 0,0 UV-I 0 W/m -2,3 C -7,9 C 16,1 km/h (3 Bft) 95,65 %
27.12.2017 07:41 -1,9 C 4,4 C 97 % 995,7 hPa 0,0 l/m 14,5 km/h (3 Bft) O-NO 67 0 min 0,000 mm 0,0 UV-I 0 W/m -2,3 C -9,0 C 17,7 km/h (3 Bft) 95,65 %
27.12.2017 07:42 -1,9 C 4,4 C 97 % 995,6 hPa 0,0 l/m 16,1 km/h (3 Bft) O-NO 67 0 min 0,000 mm 0,0 UV-I 0 W/m -2,3 C -10,0 C 19,3 km/h (3 Bft) 100,00 %
27.12.2017 07:43 -1,9 C 4,4 C 97 % 995,6 hPa 0,0 l/m 17,7 km/h (3 Bft) O-NO 67 0 min 0,000 mm 0,0 UV-I 0 W/m -2,3 C -10,9 C 20,9 km/h (4 Bft) 95,65 %
27.12.2017 07:44 -1,9 C 4,4 C 97 % 995,6 hPa 0,0 l/m 14,5 km/h (3 Bft) O-NO 67 0 min 0,000 mm 0,0 UV-I 0 W/m -2,3 C -9,0 C 19,3 km/h (3 Bft) 100,00 %
27.12.2017 07:45 -2,0 C 4,4 C 97 % 995,6 hPa 0,0 l/m 11,3 km/h (2 Bft) O-NO 67 0 min 0,000 mm 0,0 UV-I 5 W/m -2,4 C -6,8 C 17,7 km/h (3 Bft) 100,00 %
27.12.2017 07:46 -2,0 C 4,4 C 97 % 995,6 hPa 0,0 l/m 11,3 km/h (2 Bft) O-NO 67 0 min 0,000 mm 0,0 UV-I 5 W/m -2,4 C -6,8 C 16,1 km/h (3 Bft) 95,65 %
27.12.2017 07:47 -2,0 C 4,4 C 97 % 995,6 hPa 0,0 l/m 11,3 km/h (2 Bft) O-NO 67 0 min 0,000 mm 0,0 UV-I 5 W/m -2,4 C -6,8 C 16,1 km/h (3 Bft) 100,00 %
27.12.2017 07:48 -2,0 C 4,4 C 97 % 995,6 hPa 0,0 l/m 14,5 km/h (3 Bft) O-NO 67 0 min 0,000 mm 0,0 UV-I 5 W/m -2,4 C -9,1 C 22,5 km/h (4 Bft) 100,00 %
27.12.2017 07:49 -2,0 C 4,4 C 97 % 995,5 hPa 0,0 l/m 17,7 km/h (3 Bft) O-NO 67 0 min 0,000 mm 0,0 UV-I 5 W/m -2,4 C -11,0 C 20,9 km/h (4 Bft) 95,65 %
27.12.2017 07:50 -2,0 C 4,4 C 97 % 995,5 hPa 0,0 l/m 14,5 km/h (3 Bft) O-NO 67 0 min 0,000 mm 0,0 UV-I 5 W/m -2,4 C -9,1 C 17,7 km/h (3 Bft) 100,00 %
27.12.2017 07:51 -2,0 C 4,4 C 97 % 995,4 hPa 0,0 l/m 16,1 km/h (3 Bft) O-NO 67 0 min 0,000 mm 0,0 UV-I 5 W/m -2,4 C -10,1 C 20,9 km/h (4 Bft) 100,00 %
27.12.2017 07:52 -2,0 C 4,4 C 97 % 995,4 hPa 0,0 l/m 14,5 km/h (3 Bft) O-NO 67 0 min 0,000 mm 0,0 UV-I 5 W/m -2,4 C -9,1 C 17,7 km/h (3 Bft) 100,00 %
27.12.2017 07:53 -2,0 C 4,4 C 97 % 995,3 hPa 0,0 l/m 11,3 km/h (2 Bft) O-NO 67 0 min 0,000 mm 0,0 UV-I 5 W/m -2,4 C -6,8 C 14,5 km/h (3 Bft) 95,65 %
27.12.2017 07:54 -2,0 C 4,4 C 97 % 995,3 hPa 0,0 l/m 11,3 km/h (2 Bft) NO 45 0 min 0,000 mm 0,0 UV-I 5 W/m -2,4 C -6,8 C 16,1 km/h (3 Bft) 100,00 %
27.12.2017 07:55 -2,0 C 4,4 C 97 % 995,3 hPa 0,0 l/m 12,9 km/h (3 Bft) O-NO 67 0 min 0,000 mm 0,0 UV-I 5 W/m -2,4 C -8,0 C 19,3 km/h (3 Bft) 100,00 %
27.12.2017 07:56 -2,0 C 4,4 C 97 % 995,3 hPa 0,0 l/m 14,5 km/h (3 Bft) O-NO 67 0 min 0,000 mm 0,0 UV-I 5 W/m -2,4 C -9,1 C 19,3 km/h (3 Bft) 100,00 %
27.12.2017 07:57 -1,9 C 4,4 C 97 % 995,3 hPa 0,0 l/m 19,3 km/h (3 Bft) O-NO 67 0 min 0,000 mm 0,0 UV-I 5 W/m -2,3 C -11,7 C 25,7 km/h (4 Bft) 100,00 %
27.12.2017 07:58 -2,0 C 4,4 C 97 % 995,3 hPa 0,0 l/m 14,5 km/h (3 Bft) O-NO 67 0 min 0,000 mm 0,0 UV-I 5 W/m -2,4 C -9,1 C 17,7 km/h (3 Bft) 100,00 %
27.12.2017 07:59 -2,0 C 4,4 C 97 % 995,2 hPa 0,0 l/m 14,5 km/h (3 Bft) O-NO 67 0 min 0,000 mm 0,0 UV-I 7 W/m -2,4 C -9,1 C 25,7 km/h (4 Bft) 95,65 %
27.12.2017 08:00 -2,0 C 4,4 C 97 % 995,1 hPa 0,0 l/m 9,7 km/h (2 Bft) O-NO 67 0 min 0,000 mm 0,0 UV-I 7 W/m -2,4 C -5,4 C 14,5 km/h (3 Bft) 95,65 %
27.12.2017 08:01 -2,0 C 4,4 C 97 % 995,0 hPa 0,0 l/m 14,5 km/h (3 Bft) NO 45 0 min 0,000 mm 0,0 UV-I 7 W/m -2,4 C -9,1 C 20,9 km/h (4 Bft) 100,00 %
27.12.2017 08:02 -2,0 C 4,4 C 97 % 995,0 hPa 0,0 l/m 20,9 km/h (4 Bft) O-NO 67 0 min 0,000 mm 0,0 UV-I 7 W/m -2,4 C -12,7 C 25,7 km/h (4 Bft) 100,00 %
27.12.2017 08:03 -2,0 C 4,4 C 97 % 995,0 hPa 0,0 l/m 17,7 km/h (3 Bft) O-NO 67 0 min 0,000 mm 0,0 UV-I 9 W/m -2,4 C -11,0 C 24,1 km/h (4 Bft) 100,00 %
27.12.2017 08:04 -2,0 C 4,4 C 97 % 995,0 hPa 0,0 l/m 16,1 km/h (3 Bft) O-NO 67 0 min 0,000 mm 0,0 UV-I 7 W/m -2,4 C -10,1 C 22,5 km/h (4 Bft) 100,00 %
27.12.2017 08:05 -2,0 C 4,4 C 97 % 995,1 hPa 0,0 l/m 12,9 km/h (3 Bft) O-NO 67 0 min 0,000 mm 0,0 UV-I 7 W/m -2,4 C -8,0 C 17,7 km/h (3 Bft) 100,00 %
27.12.2017 08:06 -2,0 C 4,4 C 97 % 995,2 hPa 0,0 l/m 19,3 km/h (3 Bft) O-NO 67 1 min 0,000 mm 0,0 UV-I 9 W/m -2,4 C -11,9 C 22,5 km/h (4 Bft) 100,00 %
27.12.2017 08:07 -2,0 C 4,4 C 97 % 995,2 hPa 0,0 l/m 16,1 km/h (3 Bft) O-NO 67 1 min 0,000 mm 0,0 UV-I 10 W/m -2,4 C -10,1 C 19,3 km/h (3 Bft) 95,65 %
27.12.2017 08:08 -2,0 C 4,4 C 97 % 995,1 hPa 0,0 l/m 16,1 km/h (3 Bft) O-NO 67 0 min 0,000 mm 0,0 UV-I 11 W/m -2,4 C -10,1 C 20,9 km/h (4 Bft) 100,00 %
27.12.2017 08:09 -2,0 C 4,4 C 97 % 995,1 hPa 0,0 l/m 14,5 km/h (3 Bft) O-NO 67 0 min 0,000 mm 0,0 UV-I 11 W/m -2,4 C -9,1 C 20,9 km/h (4 Bft) 100,00 %
27.12.2017 08:10 -2,1 C 3,9 C 97 % 995,1 hPa 0,0 l/m 14,5 km/h (3 Bft) O-NO 67 0 min 0,000 mm 0,0 UV-I 9 W/m -2,5 C -9,2 C 17,7 km/h (3 Bft) 95,65 %
27.12.2017 08:11 -2,0 C 3,9 C 97 % 995,1 hPa 0,0 l/m 11,3 km/h (2 Bft) O-NO 67 0 min 0,000 mm 0,0 UV-I 9 W/m -2,4 C -6,8 C 16,1 km/h (3 Bft) 100,00 %
27.12.2017 08:12 -2,1 C 4,4 C 97 % 995,1 hPa 0,0 l/m 9,7 km/h (2 Bft) O-NO 67 0 min 0,000 mm 0,0 UV-I 9 W/m -2,5 C -5,5 C 12,9 km/h (3 Bft) 95,65 %
27.12.2017 08:13 -2,0 C 4,4 C 97 % 995,2 hPa 0,0 l/m 11,3 km/h (2 Bft) O-NO 67 0 min 0,000 mm 0,0 UV-I 9 W/m -2,4 C -6,8 C 16,1 km/h (3 Bft) 100,00 %
27.12.2017 08:14 -2,0 C 4,4 C 97 % 995,2 hPa 0,0 l/m 14,5 km/h (3 Bft) O-NO 67 0 min 0,000 mm 0,0 UV-I 9 W/m -2,4 C -9,1 C 22,5 km/h (4 Bft) 95,65 %
27.12.2017 08:15 -2,0 C 4,4 C 97 % 995,1 hPa 0,0 l/m 14,5 km/h (3 Bft) O-NO 67 0 min 0,000 mm 0,0 UV-I 11 W/m -2,4 C -9,1 C 19,3 km/h (3 Bft) 100,00 %
27.12.2017 08:16 -2,0 C 4,4 C 97 % 995,1 hPa 0,0 l/m 14,5 km/h (3 Bft) O-NO 67 0 min 0,000 mm 0,0 UV-I 11 W/m -2,4 C -9,1 C 19,3 km/h (3 Bft) 100,00 %
27.12.2017 08:17 -2,0 C 4,4 C 97 % 995,1 hPa 0,0 l/m 14,5 km/h (3 Bft) O-NO 67 0 min 0,000 mm 0,0 UV-I 11 W/m -2,4 C -9,1 C 17,7 km/h (3 Bft) 100,00 %
27.12.2017 08:18 -2,0 C 4,4 C 97 % 995,1 hPa 0,0 l/m 12,9 km/h (3 Bft) O-NO 67 0 min 0,000 mm 0,0 UV-I 11 W/m -2,4 C -8,0 C 17,7 km/h (3 Bft) 100,00 %
27.12.2017 08:19 -2,0 C 4,4 C 97 % 995,1 hPa 0,0 l/m 16,1 km/h (3 Bft) O-NO 67 0 min 0,000 mm 0,0 UV-I 11 W/m -2,4 C -10,1 C 20,9 km/h (4 Bft) 100,00 %
27.12.2017 08:20 -2,0 C 4,4 C 97 % 995,1 hPa 0,0 l/m 16,1 km/h (3 Bft) O-NO 67 0 min 0,000 mm 0,0 UV-I 11 W/m -2,4 C -10,1 C 17,7 km/h (3 Bft) 100,00 %
27.12.2017 08:21 -2,0 C 4,4 C 97 % 995,0 hPa 0,0 l/m 16,1 km/h (3 Bft) O-NO 67 0 min 0,000 mm 0,0 UV-I 11 W/m -2,4 C -10,1 C 20,9 km/h (4 Bft) 95,65 %
27.12.2017 08:22 -2,0 C 4,4 C 97 % 995,1 hPa 0,0 l/m 16,1 km/h (3 Bft) O-NO 67 0 min 0,000 mm 0,0 UV-I 12 W/m -2,4 C -10,1 C 19,3 km/h (3 Bft) 95,65 %
27.12.2017 08:23 -2,0 C 4,4 C 97 % 995,0 hPa 0,0 l/m 14,5 km/h (3 Bft) O-NO 67 0 min 0,000 mm 0,0 UV-I 12 W/m -2,4 C -9,1 C 17,7 km/h (3 Bft) 100,00 %
27.12.2017 08:24 -2,0 C 4,4 C 97 % 995,0 hPa 0,0 l/m 12,9 km/h (3 Bft) O-NO 67 0 min 0,000 mm 0,0 UV-I 12 W/m -2,4 C -8,0 C 17,7 km/h (3 Bft) 91,30 %
27.12.2017 08:25 -2,0 C 4,4 C 97 % 995,0 hPa 0,0 l/m 12,9 km/h (3 Bft) O 90 0 min 0,000 mm 0,0 UV-I 12 W/m -2,4 C -8,0 C 19,3 km/h (3 Bft) 91,30 %
27.12.2017 08:26 -2,0 C 4,4 C 97 % 995,0 hPa 0,0 l/m 14,5 km/h (3 Bft) O-NO 67 0 min 0,000 mm 0,0 UV-I 12 W/m -2,4 C -9,1 C 20,9 km/h (4 Bft) 100,00 %
27.12.2017 08:27 -1,9 C 4,4 C 97 % 995,0 hPa 0,0 l/m 12,9 km/h (3 Bft) O 90 0 min 0,000 mm 0,0 UV-I 12 W/m -2,3 C -7,9 C 16,1 km/h (3 Bft) 95,65 %
27.12.2017 08:28 -1,9 C 4,4 C 97 % 995,0 hPa 0,0 l/m 9,7 km/h (2 Bft) O-NO 67 0 min 0,000 mm 0,0 UV-I 14 W/m -2,3 C -5,3 C 16,1 km/h (3 Bft) 91,30 %
27.12.2017 08:29 -1,9 C 4,4 C 97 % 995,0 hPa 0,0 l/m 11,3 km/h (2 Bft) O-NO 67 0 min 0,000 mm 0,0 UV-I 14 W/m -2,3 C -6,6 C 17,7 km/h (3 Bft) 95,65 %
27.12.2017 08:30 -1,9 C 4,4 C 97 % 994,9 hPa 0,0 l/m 9,7 km/h (2 Bft) O-NO 67 0 min 0,000 mm 0,0 UV-I 14 W/m -2,3 C -5,3 C 16,1 km/h (3 Bft) 100,00 %
27.12.2017 08:31 -1,9 C 4,4 C 97 % 995,0 hPa 0,0 l/m 9,7 km/h (2 Bft) O 90 0 min 0,000 mm 0,0 UV-I 14 W/m -2,3 C -5,3 C 14,5 km/h (3 Bft) 95,65 %
27.12.2017 08:32 -1,9 C 4,4 C 97 % 995,0 hPa 0,0 l/m 4,8 km/h (1 Bft) O 90 0 min 0,000 mm 0,0 UV-I 16 W/m -2,3 C -1,9 C 4,8 km/h (1 Bft) 100,00 %
27.12.2017 08:33 -1,9 C 4,4 C 97 % 995,0 hPa 0,0 l/m 8,0 km/h (2 Bft) O-NO 67 0 min 0,000 mm 0,0 UV-I 18 W/m -2,3 C -3,6 C 12,9 km/h (3 Bft) 95,65 %
27.12.2017 08:34 -1,9 C 4,4 C 97 % 995,0 hPa 0,0 l/m 8,0 km/h (2 Bft) NO 45 0 min 0,000 mm 0,0 UV-I 18 W/m -2,3 C -3,6 C 14,5 km/h (3 Bft) 100,00 %
27.12.2017 08:35 -1,9 C 4,4 C 97 % 994,9 hPa 0,0 l/m 11,3 km/h (2 Bft) O-NO 67 0 min 0,000 mm 0,0 UV-I 21 W/m -2,3 C -6,6 C 16,1 km/h (3 Bft) 91,30 %
27.12.2017 08:36 -1,9 C 4,4 C 97 % 994,8 hPa 0,0 l/m 11,3 km/h (2 Bft) O-NO 67 0 min 0,000 mm 0,0 UV-I 22 W/m -2,3 C -6,6 C 16,1 km/h (3 Bft) 95,65 %
27.12.2017 08:37 -1,9 C 4,4 C 97 % 994,8 hPa 0,0 l/m 12,9 km/h (3 Bft) O-NO 67 0 min 0,000 mm 0,0 UV-I 21 W/m -2,3 C -7,9 C 17,7 km/h (3 Bft) 95,65 %
27.12.2017 08:38 -1,9 C 4,4 C 97 % 994,9 hPa 0,0 l/m 11,3 km/h (2 Bft) O-NO 67 0 min 0,000 mm 0,0 UV-I 23 W/m -2,3 C -6,6 C 19,3 km/h (3 Bft) 100,00 %
27.12.2017 08:39 -1,9 C 4,4 C 97 % 994,9 hPa 0,0 l/m 14,5 km/h (3 Bft) O-NO 67 0 min 0,000 mm 0,0 UV-I 21 W/m -2,3 C -9,0 C 19,3 km/h (3 Bft) 95,65 %
27.12.2017 08:40 -1,9 C 4,4 C 97 % 994,9 hPa 0,0 l/m 11,3 km/h (2 Bft) O-NO 67 0 min 0,000 mm 0,0 UV-I 21 W/m -2,3 C -6,6 C 16,1 km/h (3 Bft) 100,00 %
27.12.2017 08:41 -1,9 C 4,4 C 97 % 994,9 hPa 0,0 l/m 16,1 km/h (3 Bft) O-NO 67 0 min 0,000 mm 0,0 UV-I 21 W/m -2,3 C -10,0 C 19,3 km/h (3 Bft) 95,65 %
27.12.2017 08:42 -1,9 C 4,4 C 97 % 994,8 hPa 0,0 l/m 12,9 km/h (3 Bft) O-NO 67 0 min 0,000 mm 0,0 UV-I 21 W/m -2,3 C -7,9 C 17,7 km/h (3 Bft) 91,30 %
27.12.2017 08:43 -1,9 C 4,4 C 97 % 994,7 hPa 0,0 l/m 14,5 km/h (3 Bft) O-NO 67 0 min 0,000 mm 0,0 UV-I 25 W/m -2,3 C -9,0 C 17,7 km/h (3 Bft) 95,65 %
27.12.2017 08:44 -1,9 C 4,4 C 97 % 994,7 hPa 0,0 l/m 14,5 km/h (3 Bft) O-NO 67 0 min 0,000 mm 0,0 UV-I 26 W/m -2,3 C -9,0 C 17,7 km/h (3 Bft) 91,30 %
27.12.2017 08:45 -1,9 C 4,4 C 97 % 994,6 hPa 0,0 l/m 12,9 km/h (3 Bft) O-NO 67 0 min 0,000 mm 0,0 UV-I 30 W/m -2,3 C -7,9 C 17,7 km/h (3 Bft) 100,00 %
27.12.2017 08:46 -1,9 C 4,4 C 97 % 994,6 hPa 0,0 l/m 11,3 km/h (2 Bft) O-NO 67 0 min 0,000 mm 0,0 UV-I 28 W/m -2,3 C -6,6 C 16,1 km/h (3 Bft) 100,00 %
27.12.2017 08:47 -1,9 C 4,4 C 97 % 994,6 hPa 0,0 l/m 12,9 km/h (3 Bft) O-NO 67 0 min 0,000 mm 0,0 UV-I 30 W/m -2,3 C -7,9 C 14,5 km/h (3 Bft) 95,65 %
27.12.2017 08:48 -1,9 C 4,4 C 97 % 994,6 hPa 0,0 l/m 11,3 km/h (2 Bft) O-NO 67 0 min 0,000 mm 0,0 UV-I 34 W/m -2,3 C -6,6 C 16,1 km/h (3 Bft) 100,00 %
27.12.2017 08:49 -1,9 C 4,4 C 97 % 994,5 hPa 0,0 l/m 12,9 km/h (3 Bft) O-NO 67 0 min 0,000 mm 0,0 UV-I 37 W/m -2,3 C -7,9 C 16,1 km/h (3 Bft) 95,65 %
27.12.2017 08:50 -1,9 C 4,4 C 97 % 994,4 hPa 0,0 l/m 14,5 km/h (3 Bft) O-NO 67 0 min 0,000 mm 0,0 UV-I 39 W/m -2,3 C -9,0 C 17,7 km/h (3 Bft) 100,00 %
27.12.2017 08:51 -1,9 C 4,4 C 97 % 994,4 hPa 0,0 l/m 9,7 km/h (2 Bft) O-NO 67 0 min 0,000 mm 0,0 UV-I 39 W/m -2,3 C -5,3 C 14,5 km/h (3 Bft) 100,00 %
27.12.2017 08:52 -1,8 C 4,4 C 98 % 994,4 hPa 0,0 l/m 8,0 km/h (2 Bft) N-NO 22 0 min 0,000 mm 0,0 UV-I 42 W/m -2,1 C -3,5 C 11,3 km/h (2 Bft) 100,00 %
27.12.2017 08:53 -1,8 C 4,4 C 98 % 994,4 hPa 0,0 l/m 12,9 km/h (3 Bft) O-NO 67 0 min 0,000 mm 0,0 UV-I 42 W/m -2,1 C -7,7 C 19,3 km/h (3 Bft) 95,65 %
27.12.2017 08:54 -1,8 C 4,4 C 98 % 994,5 hPa 0,0 l/m 16,1 km/h (3 Bft) NO 45 0 min 0,000 mm 0,0 UV-I 47 W/m -2,1 C -9,8 C 19,3 km/h (3 Bft) 100,00 %
27.12.2017 08:55 -1,8 C 4,4 C 98 % 994,5 hPa 0,0 l/m 14,5 km/h (3 Bft) NO 45 0 min 0,000 mm 0,0 UV-I 49 W/m -2,1 C -8,8 C 17,7 km/h (3 Bft) 100,00 %
27.12.2017 08:56 -1,8 C 4,4 C 98 % 994,5 hPa 0,0 l/m 14,5 km/h (3 Bft) NO 45 0 min 0,000 mm 0,0 UV-I 47 W/m -2,1 C -8,8 C 19,3 km/h (3 Bft) 95,65 %
27.12.2017 08:57 -1,8 C 4,4 C 98 % 994,5 hPa 0,0 l/m 14,5 km/h (3 Bft) O-NO 67 0 min 0,000 mm 0,0 UV-I 47 W/m -2,1 C -8,8 C 17,7 km/h (3 Bft) 100,00 %
27.12.2017 08:58 -1,8 C 4,4 C 98 % 994,5 hPa 0,0 l/m 12,9 km/h (3 Bft) O-NO 67 0 min 0,000 mm 0,0 UV-I 47 W/m -2,1 C -7,7 C 16,1 km/h (3 Bft) 100,00 %
27.12.2017 08:59 -1,8 C 4,4 C 98 % 994,5 hPa 0,0 l/m 12,9 km/h (3 Bft) O-NO 67 0 min 0,000 mm 0,0 UV-I 44 W/m -2,1 C -7,7 C 17,7 km/h (3 Bft) 100,00 %
27.12.2017 09:00 -1,8 C 4,4 C 97 % 994,5 hPa 0,0 l/m 9,7 km/h (2 Bft) O 90 0 min 0,000 mm 0,0 UV-I 49 W/m -2,2 C -5,2 C 14,5 km/h (3 Bft) 100,00 %
27.12.2017 09:01 -1,8 C 4,4 C 98 % 994,6 hPa 0,0 l/m 12,9 km/h (3 Bft) O-NO 67 0 min 0,000 mm 0,0 UV-I 53 W/m -2,1 C -7,7 C 17,7 km/h (3 Bft) 95,65 %
27.12.2017 09:02 -1,8 C 4,4 C 98 % 994,5 hPa 0,0 l/m 6,4 km/h (2 Bft) O-NO 67 0 min 0,000 mm 0,0 UV-I 51 W/m -2,1 C -1,8 C 12,9 km/h (3 Bft) 100,00 %
27.12.2017 09:03 -1,8 C 4,4 C 98 % 994,5 hPa 0,0 l/m 12,9 km/h (3 Bft) O-NO 67 0 min 0,000 mm 0,0 UV-I 51 W/m -2,1 C -7,7 C 16,1 km/h (3 Bft) 95,65 %
27.12.2017 09:04 -1,8 C 4,4 C 98 % 994,4 hPa 0,0 l/m 9,7 km/h (2 Bft) O-NO 67 0 min 0,000 mm 0,0 UV-I 53 W/m -2,1 C -5,2 C 16,1 km/h (3 Bft) 100,00 %
27.12.2017 09:05 -1,8 C 4,4 C 98 % 994,4 hPa 0,0 l/m 11,3 km/h (2 Bft) O-NO 67 0 min 0,000 mm 0,0 UV-I 54 W/m -2,1 C -6,5 C 16,1 km/h (3 Bft) 100,00 %
27.12.2017 09:06 -1,8 C 4,4 C 98 % 994,3 hPa 0,0 l/m 12,9 km/h (3 Bft) O-NO 67 0 min 0,000 mm 0,0 UV-I 54 W/m -2,1 C -7,7 C 16,1 km/h (3 Bft) 100,00 %
27.12.2017 09:07 -1,8 C 4,4 C 98 % 994,3 hPa 0,0 l/m 12,9 km/h (3 Bft) O 90 0 min 0,000 mm 0,0 UV-I 53 W/m -2,1 C -7,7 C 14,5 km/h (3 Bft) 100,00 %
27.12.2017 09:08 -1,8 C 4,4 C 98 % 994,4 hPa 0,0 l/m 11,3 km/h (2 Bft) O 90 0 min 0,000 mm 0,0 UV-I 53 W/m -2,1 C -6,5 C 16,1 km/h (3 Bft) 100,00 %
27.12.2017 09:09 -1,8 C 4,4 C 98 % 994,4 hPa 0,0 l/m 8,0 km/h (2 Bft) NO 45 0 min 0,000 mm 0,0 UV-I 49 W/m -2,1 C -3,5 C 12,9 km/h (3 Bft) 100,00 %
27.12.2017 09:10 -1,8 C 4,4 C 98 % 994,4 hPa 0,0 l/m 8,0 km/h (2 Bft) O-NO 67 0 min 0,000 mm 0,0 UV-I 47 W/m -2,1 C -3,5 C 9,7 km/h (2 Bft) 95,65 %
27.12.2017 09:11 -1,7 C 4,4 C 98 % 994,4 hPa 0,0 l/m 8,0 km/h (2 Bft) O-NO 67 0 min 0,000 mm 0,0 UV-I 48 W/m -2,0 C -3,4 C 12,9 km/h (3 Bft) 95,65 %
27.12.2017 09:12 -1,7 C 4,4 C 98 % 994,4 hPa 0,0 l/m 9,7 km/h (2 Bft) O-NO 67 0 min 0,000 mm 0,0 UV-I 47 W/m -2,0 C -5,1 C 16,1 km/h (3 Bft) 100,00 %
27.12.2017 09:13 -1,7 C 4,4 C 98 % 994,3 hPa 0,0 l/m 9,7 km/h (2 Bft) O-NO 67 0 min 0,000 mm 0,0 UV-I 44 W/m -2,0 C -5,1 C 14,5 km/h (3 Bft) 95,65 %
27.12.2017 09:14 -1,7 C 4,4 C 98 % 994,3 hPa 0,0 l/m 12,9 km/h (3 Bft) O-NO 67 0 min 0,000 mm 0,0 UV-I 46 W/m -2,0 C -7,6 C 17,7 km/h (3 Bft) 95,65 %
27.12.2017 09:15 -1,7 C 4,4 C 98 % 994,3 hPa 0,0 l/m 12,9 km/h (3 Bft) NO 45 0 min 0,000 mm 0,0 UV-I 46 W/m -2,0 C -7,6 C 17,7 km/h (3 Bft) 95,65 %
27.12.2017 09:16 -1,7 C 4,4 C 97 % 994,3 hPa 0,0 l/m 11,3 km/h (2 Bft) O-NO 67 0 min 0,000 mm 0,0 UV-I 47 W/m -2,1 C -6,4 C 16,1 km/h (3 Bft) 95,65 %
27.12.2017 09:17 -1,7 C 4,4 C 97 % 994,2 hPa 0,0 l/m 11,3 km/h (2 Bft) O-NO 67 0 min 0,000 mm 0,0 UV-I 49 W/m -2,1 C -6,4 C 16,1 km/h (3 Bft) 95,65 %
27.12.2017 09:18 -1,7 C 4,4 C 97 % 994,2 hPa 0,0 l/m 12,9 km/h (3 Bft) O-NO 67 0 min 0,000 mm 0,0 UV-I 54 W/m -2,1 C -7,6 C 19,3 km/h (3 Bft) 95,65 %
27.12.2017 09:19 -1,7 C 4,4 C 97 % 994,2 hPa 0,0 l/m 11,3 km/h (2 Bft) O-NO 67 0 min 0,000 mm 0,0 UV-I 51 W/m -2,1 C -6,4 C 17,7 km/h (3 Bft) 100,00 %
27.12.2017 09:20 -1,7 C 4,4 C 97 % 994,2 hPa 0,0 l/m 9,7 km/h (2 Bft) NO 45 0 min 0,000 mm 0,0 UV-I 53 W/m -2,1 C -5,1 C 12,9 km/h (3 Bft) 95,65 %
27.12.2017 09:21 -1,7 C 4,4 C 97 % 994,2 hPa 0,0 l/m 9,7 km/h (2 Bft) O-NO 67 0 min 0,000 mm 0,0 UV-I 53 W/m -2,1 C -5,1 C 12,9 km/h (3 Bft) 91,30 %
27.12.2017 09:22 -1,7 C 4,4 C 97 % 994,2 hPa 0,0 l/m 11,3 km/h (2 Bft) O-NO 67 0 min 0,000 mm 0,0 UV-I 54 W/m -2,1 C -6,4 C 16,1 km/h (3 Bft) 95,65 %
27.12.2017 09:23 -1,7 C 4,4 C 97 % 994,1 hPa 0,0 l/m 16,1 km/h (3 Bft) O-NO 67 0 min 0,000 mm 0,0 UV-I 53 W/m -2,1 C -9,7 C 19,3 km/h (3 Bft) 95,65 %
27.12.2017 09:24 -1,7 C 4,4 C 97 % 994,1 hPa 0,0 l/m 16,1 km/h (3 Bft) O-NO 67 0 min 0,000 mm 0,0 UV-I 51 W/m -2,1 C -9,7 C 19,3 km/h (3 Bft) 95,65 %
27.12.2017 09:25 -1,7 C 4,4 C 97 % 994,2 hPa 0,0 l/m 12,9 km/h (3 Bft) O-NO 67 0 min 0,000 mm 0,0 UV-I 51 W/m -2,1 C -7,6 C 19,3 km/h (3 Bft) 95,65 %
27.12.2017 09:26 -1,7 C 4,4 C 97 % 994,2 hPa 0,0 l/m 8,0 km/h (2 Bft) O-NO 67 0 min 0,000 mm 0,0 UV-I 53 W/m -2,1 C -3,4 C 11,3 km/h (2 Bft) 100,00 %
27.12.2017 09:27 -1,7 C 4,4 C 97 % 994,1 hPa 0,0 l/m 11,3 km/h (2 Bft) O-NO 67 0 min 0,000 mm 0,0 UV-I 56 W/m -2,1 C -6,4 C 17,7 km/h (3 Bft) 95,65 %
27.12.2017 09:28 -1,7 C 4,4 C 97 % 994,1 hPa 0,0 l/m 14,5 km/h (3 Bft) O-NO 67 0 min 0,000 mm 0,0 UV-I 56 W/m -2,1 C -8,7 C 19,3 km/h (3 Bft) 95,65 %
27.12.2017 09:29 -1,7 C 4,4 C 97 % 994,1 hPa 0,0 l/m 12,9 km/h (3 Bft) O-NO 67 0 min 0,000 mm 0,0 UV-I 59 W/m -2,1 C -7,6 C 17,7 km/h (3 Bft) 95,65 %
27.12.2017 09:30 -1,7 C 4,4 C 97 % 994,1 hPa 0,0 l/m 12,9 km/h (3 Bft) O-NO 67 0 min 0,000 mm 0,0 UV-I 62 W/m -2,1 C -7,6 C 16,1 km/h (3 Bft) 100,00 %
27.12.2017 09:31 -1,7 C 4,4 C 97 % 994,1 hPa 0,0 l/m 9,7 km/h (2 Bft) O-NO 67 0 min 0,000 mm 0,0 UV-I 60 W/m -2,1 C -5,1 C 14,5 km/h (3 Bft) 91,30 %
27.12.2017 09:32 -1,7 C 4,4 C 97 % 994,1 hPa 0,0 l/m 9,7 km/h (2 Bft) O-NO 67 0 min 0,000 mm 0,0 UV-I 60 W/m -2,1 C -5,1 C 16,1 km/h (3 Bft) 95,65 %
27.12.2017 09:33 -1,7 C 4,4 C 97 % 994,1 hPa 0,0 l/m 4,8 km/h (1 Bft) O 90 0 min 0,000 mm 0,0 UV-I 56 W/m -2,1 C -1,7 C 8,0 km/h (2 Bft) 100,00 %
27.12.2017 09:34 -1,7 C 4,4 C 97 % 994,1 hPa 0,0 l/m 11,3 km/h (2 Bft) NO 45 0 min 0,000 mm 0,0 UV-I 54 W/m -2,1 C -6,4 C 14,5 km/h (3 Bft) 95,65 %
27.12.2017 09:35 -1,7 C 4,4 C 97 % 994,1 hPa 0,0 l/m 9,7 km/h (2 Bft) O-NO 67 0 min 0,000 mm 0,0 UV-I 57 W/m -2,1 C -5,1 C 14,5 km/h (3 Bft) 100,00 %
27.12.2017 09:36 -1,7 C 4,4 C 97 % 994,1 hPa 0,0 l/m 11,3 km/h (2 Bft) O-NO 67 0 min 0,000 mm 0,0 UV-I 56 W/m -2,1 C -6,4 C 16,1 km/h (3 Bft) 95,65 %
27.12.2017 09:37 -1,7 C 4,4 C 97 % 994,1 hPa 0,0 l/m 11,3 km/h (2 Bft) O-NO 67 0 min 0,000 mm 0,0 UV-I 54 W/m -2,1 C -6,4 C 16,1 km/h (3 Bft) 100,00 %
27.12.2017 09:38 -1,7 C 4,4 C 97 % 994,3 hPa 0,0 l/m 12,9 km/h (3 Bft) O-NO 67 0 min 0,000 mm 0,0 UV-I 54 W/m -2,1 C -7,6 C 17,7 km/h (3 Bft) 91,30 %
27.12.2017 09:39 -1,7 C 4,4 C 97 % 994,3 hPa 0,0 l/m 8,0 km/h (2 Bft) O 90 0 min 0,000 mm 0,0 UV-I 56 W/m -2,1 C -3,4 C 12,9 km/h (3 Bft) 100,00 %
27.12.2017 09:40 -1,7 C 4,4 C 97 % 994,3 hPa 0,0 l/m 9,7 km/h (2 Bft) O-NO 67 0 min 0,000 mm 0,0 UV-I 60 W/m -2,1 C -5,1 C 14,5 km/h (3 Bft) 95,65 %
27.12.2017 09:41 -1,7 C 4,4 C 97 % 994,2 hPa 0,0 l/m 9,7 km/h (2 Bft) O-NO 67 0 min 0,000 mm 0,0 UV-I 73 W/m -2,1 C -5,1 C 12,9 km/h (3 Bft) 95,65 %
27.12.2017 09:42 -1,7 C 4,4 C 97 % 994,1 hPa 0,0 l/m 11,3 km/h (2 Bft) O-NO 67 0 min 0,000 mm 0,0 UV-I 77 W/m -2,1 C -6,4 C 14,5 km/h (3 Bft) 95,65 %
27.12.2017 09:43 -1,7 C 4,4 C 97 % 994,2 hPa 0,0 l/m 11,3 km/h (2 Bft) O-NO 67 0 min 0,000 mm 0,0 UV-I 81 W/m -2,1 C -6,4 C 14,5 km/h (3 Bft) 95,65 %
27.12.2017 09:44 -1,7 C 4,4 C 97 % 994,2 hPa 0,0 l/m 11,3 km/h (2 Bft) O-NO 67 0 min 0,000 mm 0,0 UV-I 76 W/m -2,1 C -6,4 C 12,9 km/h (3 Bft) 100,00 %
27.12.2017 09:45 -1,7 C 4,4 C 97 % 994,2 hPa 0,0 l/m 11,3 km/h (2 Bft) O-NO 67 0 min 0,000 mm 0,0 UV-I 70 W/m -2,1 C -6,4 C 14,5 km/h (3 Bft) 86,96 %
27.12.2017 09:46 -1,7 C 4,4 C 97 % 994,2 hPa 0,0 l/m 6,4 km/h (2 Bft) O-NO 67 0 min 0,000 mm 0,0 UV-I 77 W/m -2,1 C -1,7 C 8,0 km/h (2 Bft) 95,65 %
27.12.2017 09:47 -1,7 C 4,4 C 97 % 994,1 hPa 0,0 l/m 8,0 km/h (2 Bft) O-NO 67 0 min 0,000 mm 0,0 UV-I 81 W/m -2,1 C -3,4 C 12,9 km/h (3 Bft) 95,65 %
27.12.2017 09:48 -1,6 C 4,4 C 97 % 994,1 hPa 0,0 l/m 9,7 km/h (2 Bft) O-NO 67 0 min 0,000 mm 0,0 UV-I 81 W/m -2,0 C -5,0 C 11,3 km/h (2 Bft) 91,30 %
27.12.2017 09:49 -1,6 C 4,4 C 97 % 994,0 hPa 0,0 l/m 9,7 km/h (2 Bft) NO 45 0 min 0,000 mm 0,0 UV-I 83 W/m -2,0 C -5,0 C 14,5 km/h (3 Bft) 100,00 %
27.12.2017 09:50 -1,6 C 4,4 C 97 % 993,9 hPa 0,0 l/m 14,5 km/h (3 Bft) NO 45 0 min 0,000 mm 0,0 UV-I 84 W/m -2,0 C -8,6 C 16,1 km/h (3 Bft) 91,30 %
27.12.2017 09:51 -1,6 C 4,4 C 97 % 993,9 hPa 0,0 l/m 14,5 km/h (3 Bft) O-NO 67 0 min 0,000 mm 0,0 UV-I 84 W/m -2,0 C -8,6 C 17,7 km/h (3 Bft) 100,00 %
27.12.2017 09:52 -1,6 C 4,4 C 97 % 994,0 hPa 0,0 l/m 12,9 km/h (3 Bft) O-NO 67 0 min 0,000 mm 0,0 UV-I 68 W/m -2,0 C -7,5 C 17,7 km/h (3 Bft) 91,30 %
27.12.2017 09:53 -1,6 C 4,4 C 97 % 994,0 hPa 0,0 l/m 12,9 km/h (3 Bft) O-NO 67 0 min 0,000 mm 0,0 UV-I 84 W/m -2,0 C -7,5 C 16,1 km/h (3 Bft) 95,65 %
27.12.2017 09:54 -1,6 C 4,4 C 97 % 994,0 hPa 0,0 l/m 12,9 km/h (3 Bft) O-NO 67 0 min 0,000 mm 0,0 UV-I 98 W/m -2,0 C -7,5 C 17,7 km/h (3 Bft) 95,65 %
27.12.2017 09:55 -1,6 C 4,4 C 97 % 993,9 hPa 0,0 l/m 9,7 km/h (2 Bft) O-NO 67 0 min 0,000 mm 0,0 UV-I 97 W/m -2,0 C -5,0 C 14,5 km/h (3 Bft) 100,00 %
27.12.2017 09:56 -1,6 C 4,4 C 97 % 993,9 hPa 0,0 l/m 9,7 km/h (2 Bft) O-NO 67 0 min 0,000 mm 0,0 UV-I 91 W/m -2,0 C -5,0 C 16,1 km/h (3 Bft) 95,65 %
27.12.2017 09:57 -1,6 C 4,4 C 97 % 994,0 hPa 0,0 l/m 11,3 km/h (2 Bft) NO 45 0 min 0,000 mm 0,0 UV-I 84 W/m -2,0 C -6,3 C 14,5 km/h (3 Bft) 100,00 %
27.12.2017 09:58 -1,6 C 4,4 C 97 % 994,0 hPa 0,0 l/m 12,9 km/h (3 Bft) NO 45 0 min 0,000 mm 0,0 UV-I 87 W/m -2,0 C -7,5 C 16,1 km/h (3 Bft) 95,65 %
27.12.2017 09:59 -1,6 C 4,4 C 98 % 993,9 hPa 0,0 l/m 9,7 km/h (2 Bft) NO 45 0 min 0,000 mm 0,0 UV-I 93 W/m -1,9 C -5,0 C 12,9 km/h (3 Bft) 95,65 %
27.12.2017 10:00 -1,6 C 4,4 C 98 % 993,9 hPa 0,0 l/m 8,0 km/h (2 Bft) NO 45 0 min 0,025 mm 0,0 UV-I 86 W/m -1,9 C -3,3 C 11,3 km/h (2 Bft) 95,65 %
27.12.2017 10:01 -1,5 C 4,4 C 98 % 993,9 hPa 0,0 l/m 8,0 km/h (2 Bft) O-NO 67 0 min 0,000 mm 0,0 UV-I 83 W/m -1,8 C -3,2 C 12,9 km/h (3 Bft) 91,30 %
27.12.2017 10:02 -1,5 C 4,4 C 98 % 994,1 hPa 0,0 l/m 9,7 km/h (2 Bft) O-NO 67 0 min 0,000 mm 0,0 UV-I 91 W/m -1,8 C -4,8 C 12,9 km/h (3 Bft) 100,00 %
27.12.2017 10:03 -1,5 C 4,4 C 98 % 994,1 hPa 0,0 l/m 11,3 km/h (2 Bft) NO 45 0 min 0,000 mm 0,0 UV-I 91 W/m -1,8 C -6,2 C 14,5 km/h (3 Bft) 95,65 %
27.12.2017 10:04 -1,5 C 4,4 C 98 % 994,0 hPa 0,0 l/m 9,7 km/h (2 Bft) NO 45 0 min 0,000 mm 0,0 UV-I 89 W/m -1,8 C -4,8 C 14,5 km/h (3 Bft) 100,00 %
27.12.2017 10:05 -1,5 C 4,4 C 98 % 994,0 hPa 0,0 l/m 8,0 km/h (2 Bft) O-NO 67 0 min 0,000 mm 0,0 UV-I 98 W/m -1,8 C -3,2 C 11,3 km/h (2 Bft) 95,65 %
27.12.2017 10:06 -1,5 C 4,4 C 98 % 994,0 hPa 0,0 l/m 9,7 km/h (2 Bft) O-NO 67 0 min 0,000 mm 0,0 UV-I 98 W/m -1,8 C -4,8 C 14,5 km/h (3 Bft) 95,65 %
27.12.2017 10:07 -1,5 C 4,4 C 98 % 994,0 hPa 0,0 l/m 9,7 km/h (2 Bft) O-NO 67 0 min 0,000 mm 0,0 UV-I 100 W/m -1,8 C -4,8 C 14,5 km/h (3 Bft) 95,65 %
27.12.2017 10:08 -1,5 C 4,4 C 98 % 994,0 hPa 0,0 l/m 9,7 km/h (2 Bft) NO 45 0 min 0,000 mm 0,0 UV-I 100 W/m -1,8 C -4,8 C 14,5 km/h (3 Bft) 100,00 %
27.12.2017 10:09 -1,4 C 4,4 C 98 % 994,0 hPa 0,0 l/m 8,0 km/h (2 Bft) NO 45 0 min 0,000 mm 0,0 UV-I 88 W/m -1,7 C -3,1 C 12,9 km/h (3 Bft) 100,00 %
27.12.2017 10:10 -1,4 C 4,4 C 98 % 994,1 hPa 0,0 l/m 8,0 km/h (2 Bft) O-NO 67 0 min 0,000 mm 0,0 UV-I 86 W/m -1,7 C -3,1 C 11,3 km/h (2 Bft) 100,00 %
27.12.2017 10:11 -1,4 C 4,4 C 98 % 994,2 hPa 0,0 l/m 11,3 km/h (2 Bft) O-NO 67 0 min 0,000 mm 0,0 UV-I 90 W/m -1,7 C -6,1 C 14,5 km/h (3 Bft) 100,00 %
27.12.2017 10:12 -1,4 C 4,4 C 98 % 994,1 hPa 0,0 l/m 11,3 km/h (2 Bft) O-NO 67 0 min 0,000 mm 0,0 UV-I 93 W/m -1,7 C -6,1 C 14,5 km/h (3 Bft) 95,65 %
27.12.2017 10:13 -1,4 C 4,4 C 98 % 994,1 hPa 0,0 l/m 11,3 km/h (2 Bft) O-NO 67 0 min 0,000 mm 0,0 UV-I 95 W/m -1,7 C -6,1 C 14,5 km/h (3 Bft) 95,65 %
27.12.2017 10:14 -1,4 C 4,4 C 98 % 994,1 hPa 0,0 l/m 9,7 km/h (2 Bft) NO 45 0 min 0,000 mm 0,0 UV-I 86 W/m -1,7 C -4,7 C 12,9 km/h (3 Bft) 100,00 %
27.12.2017 10:15 -1,4 C 4,4 C 98 % 994,1 hPa 0,0 l/m 8,0 km/h (2 Bft) O-NO 67 0 min 0,000 mm 0,0 UV-I 93 W/m -1,7 C -3,1 C 11,3 km/h (2 Bft) 100,00 %
27.12.2017 10:16 -1,4 C 4,4 C 98 % 994,1 hPa 0,0 l/m 12,9 km/h (3 Bft) O-NO 67 0 min 0,000 mm 0,0 UV-I 84 W/m -1,7 C -7,3 C 16,1 km/h (3 Bft) 100,00 %
27.12.2017 10:17 -1,4 C 4,4 C 98 % 994,1 hPa 0,0 l/m 11,3 km/h (2 Bft) O-NO 67 0 min 0,000 mm 0,0 UV-I 86 W/m -1,7 C -6,1 C 16,1 km/h (3 Bft) 100,00 %
27.12.2017 10:18 -1,4 C 4,4 C 98 % 994,0 hPa 0,0 l/m 8,0 km/h (2 Bft) O-NO 67 0 min 0,000 mm 0,0 UV-I 93 W/m -1,7 C -3,1 C 12,9 km/h (3 Bft) 100,00 %
27.12.2017 10:19 -1,4 C 4,4 C 98 % 994,0 hPa 0,0 l/m 6,4 km/h (2 Bft) O-NO 67 0 min 0,000 mm 0,0 UV-I 84 W/m -1,7 C -1,4 C 9,7 km/h (2 Bft) 100,00 %
27.12.2017 10:20 -1,4 C 4,4 C 98 % 993,9 hPa 0,0 l/m 8,0 km/h (2 Bft) O-NO 67 0 min 0,000 mm 0,0 UV-I 84 W/m -1,7 C -3,1 C 11,3 km/h (2 Bft) 95,65 %
27.12.2017 10:21 -1,4 C 4,4 C 98 % 993,9 hPa 0,0 l/m 11,3 km/h (2 Bft) O-NO 67 0 min 0,000 mm 0,0 UV-I 76 W/m -1,7 C -6,1 C 14,5 km/h (3 Bft) 100,00 %
27.12.2017 10:22 -1,4 C 4,4 C 98 % 993,9 hPa 0,0 l/m 8,0 km/h (2 Bft) O-NO 67 0 min 0,000 mm 0,0 UV-I 70 W/m -1,7 C -3,1 C 12,9 km/h (3 Bft) 100,00 %
27.12.2017 10:23 -1,4 C 4,4 C 98 % 994,0 hPa 0,0 l/m 11,3 km/h (2 Bft) O-NO 67 0 min 0,000 mm 0,0 UV-I 67 W/m -1,7 C -6,1 C 14,5 km/h (3 Bft) 95,65 %
27.12.2017 10:24 -1,4 C 4,4 C 98 % 993,9 hPa 0,0 l/m 11,3 km/h (2 Bft) O-NO 67 0 min 0,000 mm 0,0 UV-I 67 W/m -1,7 C -6,1 C 16,1 km/h (3 Bft) 100,00 %
27.12.2017 10:25 -1,4 C 4,4 C 98 % 993,9 hPa 0,0 l/m 9,7 km/h (2 Bft) O-NO 67 0 min 0,000 mm 0,0 UV-I 67 W/m -1,7 C -4,7 C 14,5 km/h (3 Bft) 100,00 %
27.12.2017 10:26 -1,4 C 4,4 C 98 % 993,9 hPa 0,0 l/m 12,9 km/h (3 Bft) O 90 0 min 0,000 mm 0,0 UV-I 65 W/m -1,7 C -7,3 C 19,3 km/h (3 Bft) 100,00 %
27.12.2017 10:27 -1,4 C 4,4 C 98 % 994,0 hPa 0,0 l/m 11,3 km/h (2 Bft) O 90 0 min 0,000 mm 0,0 UV-I 65 W/m -1,7 C -6,1 C 14,5 km/h (3 Bft) 95,65 %
27.12.2017 10:28 -1,4 C 4,4 C 98 % 993,9 hPa 0,0 l/m 8,0 km/h (2 Bft) O-SO 112 0 min 0,000 mm 0,0 UV-I 63 W/m -1,7 C -3,1 C 12,9 km/h (3 Bft) 100,00 %
27.12.2017 10:29 -1,4 C 4,4 C 98 % 993,9 hPa 0,0 l/m 6,4 km/h (2 Bft) O-NO 67 0 min 0,000 mm 0,0 UV-I 63 W/m -1,7 C -1,4 C 9,7 km/h (2 Bft) 95,65 %
27.12.2017 10:30 -1,4 C 4,4 C 98 % 993,8 hPa 0,0 l/m 9,7 km/h (2 Bft) O 90 0 min 0,000 mm 0,0 UV-I 67 W/m -1,7 C -4,7 C 12,9 km/h (3 Bft) 100,00 %
27.12.2017 10:31 -1,3 C 4,4 C 98 % 993,8 hPa 0,0 l/m 9,7 km/h (2 Bft) O 90 0 min 0,000 mm 0,0 UV-I 63 W/m -1,6 C -4,6 C 11,3 km/h (2 Bft) 100,00 %
27.12.2017 10:32 -1,3 C 4,4 C 98 % 994,0 hPa 0,0 l/m 8,0 km/h (2 Bft) O-SO 112 0 min 0,000 mm 0,0 UV-I 60 W/m -1,6 C -3,0 C 11,3 km/h (2 Bft) 100,00 %
27.12.2017 10:33 -1,3 C 4,4 C 98 % 993,8 hPa 0,0 l/m 4,8 km/h (1 Bft) O-SO 112 0 min 0,000 mm 0,0 UV-I 69 W/m -1,6 C -1,3 C 8,0 km/h (2 Bft) 95,65 %
27.12.2017 10:34 -1,3 C 4,4 C 98 % 993,7 hPa 0,0 l/m 6,4 km/h (2 Bft) NO 45 0 min 0,000 mm 0,0 UV-I 67 W/m -1,6 C -1,3 C 9,7 km/h (2 Bft) 95,65 %
27.12.2017 10:35 -1,3 C 4,4 C 98 % 993,7 hPa 0,0 l/m 6,4 km/h (2 Bft) O-NO 67 0 min 0,000 mm 0,0 UV-I 62 W/m -1,6 C -1,3 C 11,3 km/h (2 Bft) 100,00 %
27.12.2017 10:36 -1,3 C 4,4 C 98 % 993,8 hPa 0,0 l/m 4,8 km/h (1 Bft) O-NO 67 0 min 0,000 mm 0,0 UV-I 58 W/m -1,6 C -1,3 C 6,4 km/h (2 Bft) 100,00 %
27.12.2017 10:37 -1,3 C 4,4 C 98 % 993,9 hPa 0,0 l/m 4,8 km/h (1 Bft) O-SO 112 0 min 0,000 mm 0,0 UV-I 56 W/m -1,6 C -1,3 C 6,4 km/h (2 Bft) 100,00 %
27.12.2017 10:38 -1,3 C 4,4 C 98 % 993,9 hPa 0,0 l/m 4,8 km/h (1 Bft) O-SO 112 0 min 0,000 mm 0,0 UV-I 56 W/m -1,6 C -1,3 C 6,4 km/h (2 Bft) 100,00 %
27.12.2017 10:39 -1,3 C 4,4 C 98 % 993,8 hPa 0,0 l/m 4,8 km/h (1 Bft) O-SO 112 0 min 0,000 mm 0,0 UV-I 60 W/m -1,6 C -1,3 C 9,7 km/h (2 Bft) 100,00 %
27.12.2017 10:40 -1,3 C 4,4 C 98 % 993,7 hPa 0,0 l/m 6,4 km/h (2 Bft) O-SO 112 0 min 0,000 mm 0,0 UV-I 62 W/m -1,6 C -1,3 C 9,7 km/h (2 Bft) 100,00 %
27.12.2017 10:41 -1,3 C 4,4 C 98 % 993,7 hPa 0,0 l/m 8,0 km/h (2 Bft) O-SO 112 0 min 0,000 mm 0,0 UV-I 58 W/m -1,6 C -3,0 C 11,3 km/h (2 Bft) 100,00 %
27.12.2017 10:42 -1,3 C 4,4 C 98 % 993,7 hPa 0,0 l/m 9,7 km/h (2 Bft) O-SO 112 0 min 0,000 mm 0,0 UV-I 58 W/m -1,6 C -4,6 C 14,5 km/h (3 Bft) 95,65 %
27.12.2017 10:43 -1,3 C 4,4 C 98 % 993,7 hPa 0,0 l/m 6,4 km/h (2 Bft) O-NO 67 0 min 0,000 mm 0,0 UV-I 54 W/m -1,6 C -1,3 C 8,0 km/h (2 Bft) 100,00 %
27.12.2017 10:44 -1,2 C 4,4 C 98 % 993,7 hPa 0,0 l/m 1,6 km/h (1 Bft) O 90 0 min 0,000 mm 0,0 UV-I 53 W/m -1,5 C -1,2 C 4,8 km/h (1 Bft) 100,00 %
27.12.2017 10:45 -1,2 C 4,4 C 98 % 993,6 hPa 0,0 l/m 1,6 km/h (1 Bft) O 90 0 min 0,000 mm 0,0 UV-I 54 W/m -1,5 C -1,2 C 3,2 km/h (1 Bft) 100,00 %
27.12.2017 10:46 -1,2 C 4,4 C 98 % 993,7 hPa 0,0 l/m 6,4 km/h (2 Bft) O-SO 112 0 min 0,000 mm 0,0 UV-I 53 W/m -1,5 C -1,2 C 9,7 km/h (2 Bft) 100,00 %
27.12.2017 10:47 -1,2 C 4,4 C 98 % 993,6 hPa 0,0 l/m 4,8 km/h (1 Bft) O-SO 112 0 min 0,000 mm 0,0 UV-I 56 W/m -1,5 C -1,2 C 9,7 km/h (2 Bft) 100,00 %
27.12.2017 10:48 -1,2 C 4,4 C 98 % 993,5 hPa 0,0 l/m 6,4 km/h (2 Bft) NO 45 0 min 0,000 mm 0,0 UV-I 56 W/m -1,5 C -1,2 C 8,0 km/h (2 Bft) 95,65 %
27.12.2017 10:49 -1,2 C 4,4 C 98 % 993,6 hPa 0,0 l/m 6,4 km/h (2 Bft) NO 45 0 min 0,000 mm 0,0 UV-I 54 W/m -1,5 C -1,2 C 6,4 km/h (2 Bft) 100,00 %
27.12.2017 10:50 -1,2 C 4,4 C 98 % 993,6 hPa 0,0 l/m 4,8 km/h (1 Bft) O-NO 67 0 min 0,000 mm 0,0 UV-I 53 W/m -1,5 C -1,2 C 6,4 km/h (2 Bft) 100,00 %
27.12.2017 10:51 -1,2 C 4,4 C 98 % 993,6 hPa 0,0 l/m 4,8 km/h (1 Bft) O 90 0 min 0,000 mm 0,0 UV-I 52 W/m -1,5 C -1,2 C 6,4 km/h (2 Bft) 100,00 %
27.12.2017 10:52 -1,2 C 4,4 C 98 % 993,4 hPa 0,0 l/m 4,8 km/h (1 Bft) O-NO 67 0 min 0,000 mm 0,0 UV-I 54 W/m -1,5 C -1,2 C 6,4 km/h (2 Bft) 100,00 %
27.12.2017 10:53 -1,2 C 4,4 C 98 % 993,4 hPa 0,0 l/m 4,8 km/h (1 Bft) O-NO 67 0 min 0,000 mm 0,0 UV-I 54 W/m -1,5 C -1,2 C 6,4 km/h (2 Bft) 100,00 %
27.12.2017 10:54 -1,2 C 4,4 C 98 % 993,4 hPa 0,0 l/m 6,4 km/h (2 Bft) O-NO 67 0 min 0,000 mm 0,0 UV-I 58 W/m -1,5 C -1,2 C 8,0 km/h (2 Bft) 100,00 %
27.12.2017 10:55 -1,2 C 4,4 C 98 % 993,3 hPa 0,0 l/m 4,8 km/h (1 Bft) O-NO 67 0 min 0,000 mm 0,0 UV-I 56 W/m -1,5 C -1,2 C 6,4 km/h (2 Bft) 95,65 %
27.12.2017 10:56 -1,1 C 4,4 C 98 % 993,3 hPa 0,0 l/m 6,4 km/h (2 Bft) O-NO 67 0 min 0,000 mm 0,0 UV-I 56 W/m -1,4 C -1,1 C 9,7 km/h (2 Bft) 100,00 %
27.12.2017 10:57 -1,1 C 4,4 C 98 % 993,3 hPa 0,0 l/m 8,0 km/h (2 Bft) O-NO 67 0 min 0,000 mm 0,0 UV-I 59 W/m -1,4 C -2,8 C 12,9 km/h (3 Bft) 100,00 %
27.12.2017 10:58 -1,1 C 4,4 C 98 % 993,3 hPa 0,0 l/m 8,0 km/h (2 Bft) O-NO 67 0 min 0,000 mm 0,0 UV-I 58 W/m -1,4 C -2,8 C 11,3 km/h (2 Bft) 100,00 %
27.12.2017 10:59 -1,2 C 4,4 C 98 % 993,3 hPa 0,0 l/m 4,8 km/h (1 Bft) O-NO 67 0 min 0,000 mm 0,0 UV-I 58 W/m -1,5 C -1,2 C 8,0 km/h (2 Bft) 100,00 %
27.12.2017 11:00 -1,1 C 4,4 C 98 % 993,3 hPa 0,0 l/m 4,8 km/h (1 Bft) NO 45 0 min 0,025 mm 0,0 UV-I 54 W/m -1,4 C -1,1 C 8,0 km/h (2 Bft) 100,00 %
27.12.2017 11:01 -1,2 C 4,4 C 98 % 993,2 hPa 0,0 l/m 8,0 km/h (2 Bft) NO 45 0 min 0,000 mm 0,0 UV-I 54 W/m -1,5 C -2,9 C 9,7 km/h (2 Bft) 100,00 %
27.12.2017 11:02 -1,2 C 4,4 C 98 % 993,2 hPa 0,0 l/m 9,7 km/h (2 Bft) O-NO 67 0 min 0,000 mm 0,0 UV-I 54 W/m -1,5 C -4,5 C 12,9 km/h (3 Bft) 95,65 %
27.12.2017 11:03 -1,2 C 4,4 C 98 % 993,1 hPa 0,0 l/m 11,3 km/h (2 Bft) O-NO 67 0 min 0,000 mm 0,0 UV-I 55 W/m -1,5 C -5,8 C 12,9 km/h (3 Bft) 100,00 %
27.12.2017 11:04 -1,2 C 4,4 C 98 % 993,1 hPa 0,0 l/m 9,7 km/h (2 Bft) O-NO 67 0 min 0,000 mm 0,0 UV-I 56 W/m -1,5 C -4,5 C 12,9 km/h (3 Bft) 95,65 %
27.12.2017 11:05 -1,2 C 4,4 C 98 % 993,1 hPa 0,0 l/m 8,0 km/h (2 Bft) O-NO 67 0 min 0,000 mm 0,0 UV-I 56 W/m -1,5 C -2,9 C 12,9 km/h (3 Bft) 100,00 %
27.12.2017 11:06 -1,2 C 4,4 C 98 % 993,0 hPa 0,0 l/m 9,7 km/h (2 Bft) O-NO 67 0 min 0,000 mm 0,0 UV-I 56 W/m -1,5 C -4,5 C 12,9 km/h (3 Bft) 100,00 %
27.12.2017 11:07 -1,2 C 4,4 C 98 % 993,1 hPa 0,0 l/m 11,3 km/h (2 Bft) O-NO 67 0 min 0,000 mm 0,0 UV-I 56 W/m -1,5 C -5,8 C 14,5 km/h (3 Bft) 95,65 %
27.12.2017 11:08 -1,2 C 4,4 C 98 % 993,0 hPa 0,0 l/m 8,0 km/h (2 Bft) O 90 0 min 0,000 mm 0,0 UV-I 58 W/m -1,5 C -2,9 C 11,3 km/h (2 Bft) 100,00 %
27.12.2017 11:09 -1,2 C 4,4 C 98 % 992,9 hPa 0,0 l/m 9,7 km/h (2 Bft) O-NO 67 0 min 0,000 mm 0,0 UV-I 60 W/m -1,5 C -4,5 C 14,5 km/h (3 Bft) 91,30 %
27.12.2017 11:10 -1,2 C 4,4 C 98 % 992,9 hPa 0,0 l/m 9,7 km/h (2 Bft) NO 45 0 min 0,000 mm 0,0 UV-I 62 W/m -1,5 C -4,5 C 11,3 km/h (2 Bft) 95,65 %
27.12.2017 11:11 -1,2 C 4,4 C 98 % 992,9 hPa 0,0 l/m 8,0 km/h (2 Bft) O-NO 67 0 min 0,000 mm 0,0 UV-I 62 W/m -1,5 C -2,9 C 14,5 km/h (3 Bft) 95,65 %
27.12.2017 11:12 -1,2 C 4,4 C 98 % 993,0 hPa 0,0 l/m 4,8 km/h (1 Bft) O 90 0 min 0,000 mm 0,0 UV-I 54 W/m -1,5 C -1,2 C 8,0 km/h (2 Bft) 100,00 %
27.12.2017 11:13 -1,2 C 4,4 C 98 % 993,1 hPa 0,0 l/m 4,8 km/h (1 Bft) O 90 0 min 0,000 mm 0,0 UV-I 53 W/m -1,5 C -1,2 C 8,0 km/h (2 Bft) 95,65 %
27.12.2017 11:14 -1,2 C 4,4 C 98 % 992,9 hPa 0,0 l/m 6,4 km/h (2 Bft) O-NO 67 0 min 0,000 mm 0,0 UV-I 63 W/m -1,5 C -1,2 C 8,0 km/h (2 Bft) 95,65 %
27.12.2017 11:15 -1,2 C 4,4 C 98 % 992,8 hPa 0,0 l/m 6,4 km/h (2 Bft) O-NO 67 0 min 0,000 mm 0,0 UV-I 65 W/m -1,5 C -1,2 C 11,3 km/h (2 Bft) 91,30 %
27.12.2017 11:16 -1,2 C 4,4 C 98 % 992,7 hPa 0,0 l/m 8,0 km/h (2 Bft) O-NO 67 0 min 0,000 mm 0,0 UV-I 67 W/m -1,5 C -2,9 C 12,9 km/h (3 Bft) 91,30 %
27.12.2017 11:17 -1,2 C 4,4 C 98 % 992,7 hPa 0,0 l/m 6,4 km/h (2 Bft) O-NO 67 0 min 0,000 mm 0,0 UV-I 63 W/m -1,5 C -1,2 C 9,7 km/h (2 Bft) 95,65 %
27.12.2017 11:18 -1,2 C 4,4 C 98 % 992,8 hPa 0,0 l/m 6,4 km/h (2 Bft) O 90 0 min 0,000 mm 0,0 UV-I 60 W/m -1,5 C -1,2 C 11,3 km/h (2 Bft) 95,65 %
27.12.2017 11:19 -1,2 C 4,4 C 98 % 992,8 hPa 0,0 l/m 3,2 km/h (1 Bft) O-NO 67 0 min 0,000 mm 0,0 UV-I 58 W/m -1,5 C -1,2 C 4,8 km/h (1 Bft) 95,65 %
27.12.2017 11:20 -1,2 C 4,4 C 98 % 992,8 hPa 0,0 l/m 6,4 km/h (2 Bft) O 90 0 min 0,000 mm 0,0 UV-I 59 W/m -1,5 C -1,2 C 9,7 km/h (2 Bft) 95,65 %
27.12.2017 11:21 -1,1 C 4,4 C 98 % 992,8 hPa 0,0 l/m 4,8 km/h (1 Bft) O-SO 112 0 min 0,000 mm 0,0 UV-I 58 W/m -1,4 C -1,1 C 8,0 km/h (2 Bft) 95,65 %
27.12.2017 11:22 -1,2 C 4,4 C 98 % 992,7 hPa 0,0 l/m 4,8 km/h (1 Bft) O-SO 112 0 min 0,000 mm 0,0 UV-I 60 W/m -1,5 C -1,2 C 8,0 km/h (2 Bft) 91,30 %
27.12.2017 11:23 -1,2 C 4,4 C 98 % 992,6 hPa 0,0 l/m 6,4 km/h (2 Bft) O-NO 67 0 min 0,000 mm 0,0 UV-I 60 W/m -1,5 C -1,2 C 8,0 km/h (2 Bft) 95,65 %
27.12.2017 11:24 -1,1 C 4,4 C 98 % 992,4 hPa 0,0 l/m 8,0 km/h (2 Bft) O-NO 67 0 min 0,000 mm 0,0 UV-I 63 W/m -1,4 C -2,8 C 9,7 km/h (2 Bft) 91,30 %
27.12.2017 11:25 -1,1 C 4,4 C 98 % 992,4 hPa 0,0 l/m 8,0 km/h (2 Bft) O-NO 67 0 min 0,000 mm 0,0 UV-I 63 W/m -1,4 C -2,8 C 12,9 km/h (3 Bft) 95,65 %
27.12.2017 11:26 -1,1 C 4,4 C 98 % 992,3 hPa 0,0 l/m 9,7 km/h (2 Bft) O-NO 67 0 min 0,000 mm 0,0 UV-I 65 W/m -1,4 C -4,4 C 12,9 km/h (3 Bft) 95,65 %
27.12.2017 11:27 -1,1 C 4,4 C 98 % 992,3 hPa 0,0 l/m 9,7 km/h (2 Bft) O-NO 67 0 min 0,000 mm 0,0 UV-I 63 W/m -1,4 C -4,4 C 14,5 km/h (3 Bft) 95,65 %
27.12.2017 11:28 -1,1 C 4,4 C 98 % 992,3 hPa 0,0 l/m 6,4 km/h (2 Bft) NO 45 0 min 0,000 mm 0,0 UV-I 62 W/m -1,4 C -1,1 C 8,0 km/h (2 Bft) 95,65 %
27.12.2017 11:29 -1,1 C 4,4 C 98 % 992,3 hPa 0,0 l/m 6,4 km/h (2 Bft) O-NO 67 0 min 0,000 mm 0,0 UV-I 58 W/m -1,4 C -1,1 C 8,0 km/h (2 Bft) 95,65 %
27.12.2017 11:30 -1,1 C 4,4 C 98 % 992,3 hPa 0,0 l/m 4,8 km/h (1 Bft) O-NO 67 0 min 0,000 mm 0,0 UV-I 60 W/m -1,4 C -1,1 C 8,0 km/h (2 Bft) 95,65 %
27.12.2017 11:31 -1,1 C 4,4 C 98 % 992,2 hPa 0,0 l/m 6,4 km/h (2 Bft) O 90 0 min 0,000 mm 0,0 UV-I 65 W/m -1,4 C -1,1 C 11,3 km/h (2 Bft) 95,65 %
27.12.2017 11:32 -1,1 C 4,4 C 98 % 992,1 hPa 0,0 l/m 9,7 km/h (2 Bft) O-NO 67 0 min 0,000 mm 0,0 UV-I 64 W/m -1,4 C -4,4 C 12,9 km/h (3 Bft) 100,00 %
27.12.2017 11:33 -1,1 C 4,4 C 98 % 992,1 hPa 0,0 l/m 8,0 km/h (2 Bft) O-NO 67 0 min 0,000 mm 0,0 UV-I 62 W/m -1,4 C -2,8 C 12,9 km/h (3 Bft) 95,65 %
27.12.2017 11:34 -1,1 C 4,4 C 98 % 992,0 hPa 0,0 l/m 6,4 km/h (2 Bft) O-NO 67 0 min 0,000 mm 0,0 UV-I 58 W/m -1,4 C -1,1 C 8,0 km/h (2 Bft) 95,65 %
27.12.2017 11:35 -1,1 C 4,4 C 98 % 992,0 hPa 0,0 l/m 9,7 km/h (2 Bft) O-NO 67 0 min 0,000 mm 0,0 UV-I 56 W/m -1,4 C -4,4 C 16,1 km/h (3 Bft) 100,00 %
27.12.2017 11:36 -1,1 C 4,4 C 98 % 992,0 hPa 0,0 l/m 11,3 km/h (2 Bft) O-NO 67 0 min 0,000 mm 0,0 UV-I 58 W/m -1,4 C -5,7 C 16,1 km/h (3 Bft) 95,65 %
27.12.2017 11:37 -1,1 C 4,4 C 98 % 991,9 hPa 0,0 l/m 11,3 km/h (2 Bft) NO 45 0 min 0,000 mm 0,0 UV-I 60 W/m -1,4 C -5,7 C 16,1 km/h (3 Bft) 95,65 %
27.12.2017 11:38 -1,0 C 4,4 C 98 % 991,8 hPa 0,0 l/m 12,9 km/h (3 Bft) O-NO 67 0 min 0,000 mm 0,0 UV-I 60 W/m -1,3 C -6,8 C 16,1 km/h (3 Bft) 95,65 %
27.12.2017 11:39 -1,0 C 4,4 C 98 % 991,8 hPa 0,0 l/m 12,9 km/h (3 Bft) NO 45 0 min 0,000 mm 0,0 UV-I 58 W/m -1,3 C -6,8 C 16,1 km/h (3 Bft) 100,00 %
27.12.2017 11:40 -1,1 C 4,4 C 98 % 991,8 hPa 0,0 l/m 12,9 km/h (3 Bft) NO 45 0 min 0,000 mm 0,0 UV-I 60 W/m -1,4 C -6,9 C 17,7 km/h (3 Bft) 95,65 %
27.12.2017 11:41 -1,1 C 4,4 C 98 % 991,6 hPa 0,0 l/m 11,3 km/h (2 Bft) O-NO 67 0 min 0,000 mm 0,0 UV-I 60 W/m -1,4 C -5,7 C 16,1 km/h (3 Bft) 95,65 %
27.12.2017 11:42 -1,0 C 4,4 C 98 % 991,6 hPa 0,0 l/m 11,3 km/h (2 Bft) O-NO 67 0 min 0,000 mm 0,0 UV-I 60 W/m -1,3 C -5,6 C 16,1 km/h (3 Bft) 95,65 %
27.12.2017 11:43 -1,0 C 4,4 C 98 % 991,6 hPa 0,0 l/m 12,9 km/h (3 Bft) O-NO 67 0 min 0,000 mm 0,0 UV-I 62 W/m -1,3 C -6,8 C 16,1 km/h (3 Bft) 91,30 %
27.12.2017 11:44 -1,0 C 4,4 C 98 % 991,7 hPa 0,0 l/m 12,9 km/h (3 Bft) O-NO 67 0 min 0,000 mm 0,0 UV-I 58 W/m -1,3 C -6,8 C 17,7 km/h (3 Bft) 95,65 %
27.12.2017 11:45 -1,0 C 4,4 C 98 % 991,6 hPa 0,0 l/m 14,5 km/h (3 Bft) O-NO 67 0 min 0,000 mm 0,0 UV-I 60 W/m -1,3 C -7,9 C 17,7 km/h (3 Bft) 91,30 %
27.12.2017 11:46 -1,0 C 4,4 C 98 % 991,6 hPa 0,0 l/m 14,5 km/h (3 Bft) O-NO 67 0 min 0,000 mm 0,0 UV-I 60 W/m -1,3 C -7,9 C 17,7 km/h (3 Bft) 100,00 %
27.12.2017 11:47 -1,0 C 4,4 C 98 % 991,6 hPa 0,0 l/m 12,9 km/h (3 Bft) O 90 0 min 0,000 mm 0,0 UV-I 58 W/m -1,3 C -6,8 C 16,1 km/h (3 Bft) 91,30 %
27.12.2017 11:48 -1,0 C 4,4 C 98 % 991,6 hPa 0,0 l/m 12,9 km/h (3 Bft) O-NO 67 0 min 0,000 mm 0,0 UV-I 58 W/m -1,3 C -6,8 C 17,7 km/h (3 Bft) 100,00 %
27.12.2017 11:49 -1,0 C 4,4 C 98 % 991,6 hPa 0,0 l/m 12,9 km/h (3 Bft) O-NO 67 0 min 0,000 mm 0,0 UV-I 58 W/m -1,3 C -6,8 C 16,1 km/h (3 Bft) 95,65 %
27.12.2017 11:50 -1,0 C 4,4 C 98 % 991,6 hPa 0,0 l/m 11,3 km/h (2 Bft) O-NO 67 0 min 0,000 mm 0,0 UV-I 57 W/m -1,3 C -5,6 C 17,7 km/h (3 Bft) 100,00 %
27.12.2017 11:51 -1,0 C 4,4 C 98 % 991,6 hPa 0,0 l/m 9,7 km/h (2 Bft) NO 45 0 min 0,000 mm 0,0 UV-I 56 W/m -1,3 C -4,3 C 12,9 km/h (3 Bft) 95,65 %
27.12.2017 11:52 -1,0 C 4,4 C 98 % 991,6 hPa 0,0 l/m 11,3 km/h (2 Bft) O-NO 67 0 min 0,000 mm 0,0 UV-I 58 W/m -1,3 C -5,6 C 16,1 km/h (3 Bft) 95,65 %
27.12.2017 11:53 -1,0 C 4,4 C 98 % 991,6 hPa 0,0 l/m 9,7 km/h (2 Bft) O-NO 67 0 min 0,000 mm 0,0 UV-I 58 W/m -1,3 C -4,3 C 11,3 km/h (2 Bft) 21,74 %
27.12.2017 11:54 -1,0 C 4,4 C 98 % 991,6 hPa 0,0 l/m 8,0 km/h (2 Bft) O-NO 67 0 min 0,000 mm 0,0 UV-I 58 W/m -1,3 C -2,7 C 12,9 km/h (3 Bft) 52,17 %
27.12.2017 11:55 -1,0 C 4,4 C 98 % 991,7 hPa 0,0 l/m 6,4 km/h (2 Bft) O-NO 67 0 min 0,000 mm 0,0 UV-I 51 W/m -1,3 C -1,0 C 9,7 km/h (2 Bft) 95,65 %
27.12.2017 11:56 -1,0 C 4,4 C 98 % 991,7 hPa 0,0 l/m 9,7 km/h (2 Bft) NO 45 0 min 0,000 mm 0,0 UV-I 51 W/m -1,3 C -4,3 C 11,3 km/h (2 Bft) 100,00 %
27.12.2017 11:57 -1,0 C 4,4 C 98 % 991,6 hPa 0,0 l/m 8,0 km/h (2 Bft) O-NO 67 0 min 0,000 mm 0,0 UV-I 51 W/m -1,3 C -2,7 C 9,7 km/h (2 Bft) 100,00 %
27.12.2017 11:58 -0,9 C 4,4 C 98 % 991,5 hPa 0,0 l/m 6,4 km/h (2 Bft) NO 45 0 min 0,000 mm 0,0 UV-I 51 W/m -1,2 C -0,9 C 8,0 km/h (2 Bft) 95,65 %
27.12.2017 11:59 -0,9 C 4,4 C 98 % 991,6 hPa 0,0 l/m 8,0 km/h (2 Bft) NO 45 0 min 0,000 mm 0,0 UV-I 53 W/m -1,2 C -2,6 C 9,7 km/h (2 Bft) 100,00 %
27.12.2017 12:00 -0,9 C 4,4 C 98 % 991,6 hPa 0,0 l/m 6,4 km/h (2 Bft) O-NO 67 0 min 0,025 mm 0,0 UV-I 53 W/m -1,2 C -0,9 C 9,7 km/h (2 Bft) 100,00 %
27.12.2017 12:01 -0,9 C 4,4 C 98 % 991,6 hPa 0,0 l/m 8,0 km/h (2 Bft) NO 45 0 min 0,000 mm 0,0 UV-I 55 W/m -1,2 C -2,6 C 9,7 km/h (2 Bft) 100,00 %
27.12.2017 12:02 -0,9 C 4,4 C 98 % 991,6 hPa 0,0 l/m 4,8 km/h (1 Bft) NO 45 0 min 0,000 mm 0,0 UV-I 51 W/m -1,2 C -0,9 C 6,4 km/h (2 Bft) 100,00 %
27.12.2017 12:03 -0,9 C 4,4 C 98 % 991,6 hPa 0,0 l/m 3,2 km/h (1 Bft) NO 45 0 min 0,000 mm 0,0 UV-I 49 W/m -1,2 C -0,9 C 4,8 km/h (1 Bft) 100,00 %
27.12.2017 12:04 -0,9 C 4,4 C 98 % 991,7 hPa 0,0 l/m 4,8 km/h (1 Bft) N-NO 22 0 min 0,000 mm 0,0 UV-I 49 W/m -1,2 C -0,9 C 8,0 km/h (2 Bft) 95,65 %
27.12.2017 12:05 -0,9 C 4,4 C 98 % 991,7 hPa 0,0 l/m 8,0 km/h (2 Bft) O-NO 67 0 min 0,000 mm 0,0 UV-I 51 W/m -1,2 C -2,6 C 11,3 km/h (2 Bft) 100,00 %
27.12.2017 12:06 -0,8 C 4,4 C 98 % 991,6 hPa 0,0 l/m 8,0 km/h (2 Bft) O-NO 67 0 min 0,000 mm 0,0 UV-I 54 W/m -1,1 C -2,5 C 11,3 km/h (2 Bft) 91,30 %
27.12.2017 12:07 -0,8 C 4,4 C 98 % 991,4 hPa 0,0 l/m 9,7 km/h (2 Bft) NO 45 0 min 0,000 mm 0,0 UV-I 59 W/m -1,1 C -4,1 C 11,3 km/h (2 Bft) 100,00 %
27.12.2017 12:08 -0,8 C 4,4 C 98 % 991,4 hPa 0,0 l/m 8,0 km/h (2 Bft) O-NO 67 0 min 0,000 mm 0,0 UV-I 62 W/m -1,1 C -2,5 C 9,7 km/h (2 Bft) 100,00 %
27.12.2017 12:09 -0,8 C 4,4 C 98 % 991,4 hPa 0,0 l/m 6,4 km/h (2 Bft) O-NO 67 0 min 0,000 mm 0,0 UV-I 62 W/m -1,1 C -0,8 C 9,7 km/h (2 Bft) 100,00 %
27.12.2017 12:10 -0,8 C 4,4 C 98 % 991,5 hPa 0,0 l/m 6,4 km/h (2 Bft) NO 45 0 min 0,000 mm 0,0 UV-I 60 W/m -1,1 C -0,8 C 9,7 km/h (2 Bft) 100,00 %
27.12.2017 12:11 -0,8 C 4,4 C 98 % 991,5 hPa 0,0 l/m 6,4 km/h (2 Bft) NO 45 0 min 0,000 mm 0,0 UV-I 56 W/m -1,1 C -0,8 C 8,0 km/h (2 Bft) 100,00 %
27.12.2017 12:12 -0,8 C 4,4 C 98 % 991,6 hPa 0,0 l/m 4,8 km/h (1 Bft) N-NO 22 0 min 0,000 mm 0,0 UV-I 53 W/m -1,1 C -0,8 C 6,4 km/h (2 Bft) 95,65 %
27.12.2017 12:13 -0,8 C 4,4 C 98 % 991,7 hPa 0,0 l/m 3,2 km/h (1 Bft) N-NO 22 0 min 0,000 mm 0,0 UV-I 48 W/m -1,1 C -0,8 C 4,8 km/h (1 Bft) 100,00 %
27.12.2017 12:14 -0,8 C 4,4 C 98 % 991,7 hPa 0,0 l/m 3,2 km/h (1 Bft) N-NO 22 0 min 0,000 mm 0,0 UV-I 47 W/m -1,1 C -0,8 C 4,8 km/h (1 Bft) 95,65 %
27.12.2017 12:15 -0,8 C 4,4 C 98 % 991,7 hPa 0,0 l/m 3,2 km/h (1 Bft) N-NO 22 0 min 0,000 mm 0,0 UV-I 47 W/m -1,1 C -0,8 C 4,8 km/h (1 Bft) 100,00 %
27.12.2017 12:16 -0,8 C 4,4 C 98 % 991,6 hPa 0,0 l/m 3,2 km/h (1 Bft) N-NO 22 0 min 0,000 mm 0,0 UV-I 51 W/m -1,1 C -0,8 C 4,8 km/h (1 Bft) 100,00 %
27.12.2017 12:17 -0,8 C 4,4 C 98 % 991,6 hPa 0,0 l/m 4,8 km/h (1 Bft) N-NO 22 0 min 0,000 mm 0,0 UV-I 53 W/m -1,1 C -0,8 C 6,4 km/h (2 Bft) 100,00 %
27.12.2017 12:18 -0,8 C 4,4 C 98 % 991,6 hPa 0,0 l/m 3,2 km/h (1 Bft) N-NO 22 0 min 0,000 mm 0,0 UV-I 58 W/m -1,1 C -0,8 C 6,4 km/h (2 Bft) 100,00 %
27.12.2017 12:19 -0,8 C 4,4 C 98 % 991,5 hPa 0,0 l/m 4,8 km/h (1 Bft) N-NO 22 0 min 0,000 mm 0,0 UV-I 65 W/m -1,1 C -0,8 C 6,4 km/h (2 Bft) 91,30 %
27.12.2017 12:20 -0,7 C 4,4 C 98 % 991,4 hPa 0,0 l/m 4,8 km/h (1 Bft) N-NO 22 0 min 0,000 mm 0,0 UV-I 65 W/m -1,0 C -0,7 C 6,4 km/h (2 Bft) 100,00 %
27.12.2017 12:21 -0,7 C 4,4 C 98 % 991,4 hPa 0,0 l/m 3,2 km/h (1 Bft) N-NO 22 0 min 0,000 mm 0,0 UV-I 60 W/m -1,0 C -0,7 C 6,4 km/h (2 Bft) 100,00 %
27.12.2017 12:22 -0,7 C 4,4 C 98 % 991,4 hPa 0,0 l/m 3,2 km/h (1 Bft) N-NO 22 0 min 0,000 mm 0,0 UV-I 58 W/m -1,0 C -0,7 C 4,8 km/h (1 Bft) 100,00 %
27.12.2017 12:23 -0,7 C 4,4 C 98 % 991,4 hPa 0,0 l/m 3,2 km/h (1 Bft) N-NO 22 0 min 0,000 mm 0,0 UV-I 56 W/m -1,0 C -0,7 C 4,8 km/h (1 Bft) 100,00 %
27.12.2017 12:24 -0,7 C 4,4 C 98 % 991,4 hPa 0,0 l/m 4,8 km/h (1 Bft) N-NO 22 0 min 0,000 mm 0,0 UV-I 54 W/m -1,0 C -0,7 C 6,4 km/h (2 Bft) 100,00 %
27.12.2017 12:25 -0,7 C 4,4 C 98 % 991,3 hPa 0,0 l/m 6,4 km/h (2 Bft) N-NO 22 0 min 0,000 mm 0,0 UV-I 55 W/m -1,0 C -0,7 C 8,0 km/h (2 Bft) 100,00 %
27.12.2017 12:26 -0,7 C 4,4 C 98 % 991,2 hPa 0,0 l/m 8,0 km/h (2 Bft) O-NO 67 0 min 0,000 mm 0,0 UV-I 56 W/m -1,0 C -2,4 C 11,3 km/h (2 Bft) 91,30 %
27.12.2017 12:27 -0,6 C 4,4 C 98 % 991,2 hPa 0,0 l/m 6,4 km/h (2 Bft) O-NO 67 0 min 0,000 mm 0,0 UV-I 58 W/m -0,9 C -0,6 C 8,0 km/h (2 Bft) 95,65 %
27.12.2017 12:28 -0,6 C 4,4 C 98 % 991,1 hPa 0,0 l/m 6,4 km/h (2 Bft) O-NO 67 0 min 0,000 mm 0,0 UV-I 60 W/m -0,9 C -0,6 C 8,0 km/h (2 Bft) 100,00 %
27.12.2017 12:29 -0,6 C 4,4 C 98 % 991,0 hPa 0,0 l/m 6,4 km/h (2 Bft) O-NO 67 0 min 0,000 mm 0,0 UV-I 62 W/m -0,9 C -0,6 C 9,7 km/h (2 Bft) 100,00 %
27.12.2017 12:30 -0,6 C 4,4 C 98 % 991,0 hPa 0,0 l/m 6,4 km/h (2 Bft) O-NO 67 0 min 0,000 mm 0,0 UV-I 60 W/m -0,9 C -0,6 C 8,0 km/h (2 Bft) 95,65 %
27.12.2017 12:31 -0,6 C 4,4 C 98 % 991,1 hPa 0,0 l/m 6,4 km/h (2 Bft) NO 45 0 min 0,000 mm 0,0 UV-I 56 W/m -0,9 C -0,6 C 9,7 km/h (2 Bft) 95,65 %
27.12.2017 12:32 -0,6 C 4,4 C 98 % 991,0 hPa 0,0 l/m 4,8 km/h (1 Bft) O-NO 67 0 min 0,000 mm 0,0 UV-I 51 W/m -0,9 C -0,6 C 6,4 km/h (2 Bft) 95,65 %
27.12.2017 12:33 -0,6 C 4,4 C 98 % 991,0 hPa 0,0 l/m 3,2 km/h (1 Bft) O 90 0 min 0,000 mm 0,0 UV-I 51 W/m -0,9 C -0,6 C 4,8 km/h (1 Bft) 91,30 %
27.12.2017 12:34 -0,6 C 4,4 C 98 % 991,2 hPa 0,0 l/m 4,8 km/h (1 Bft) NO 45 0 min 0,000 mm 0,0 UV-I 51 W/m -0,9 C -0,6 C 8,0 km/h (2 Bft) 95,65 %
27.12.2017 12:35 -0,6 C 4,4 C 98 % 991,1 hPa 0,0 l/m 4,8 km/h (1 Bft) NO 45 0 min 0,000 mm 0,0 UV-I 51 W/m -0,9 C -0,6 C 6,4 km/h (2 Bft) 100,00 %
27.12.2017 12:36 -0,6 C 4,4 C 98 % 991,0 hPa 0,0 l/m 4,8 km/h (1 Bft) NO 45 0 min 0,000 mm 0,0 UV-I 49 W/m -0,9 C -0,6 C 4,8 km/h (1 Bft) 95,65 %
27.12.2017 12:37 -0,6 C 4,4 C 98 % 991,0 hPa 0,0 l/m 4,8 km/h (1 Bft) NO 45 0 min 0,000 mm 0,0 UV-I 49 W/m -0,9 C -0,6 C 6,4 km/h (2 Bft) 100,00 %
27.12.2017 12:38 -0,6 C 4,4 C 98 % 991,0 hPa 0,0 l/m 3,2 km/h (1 Bft) N-NO 22 0 min 0,000 mm 0,0 UV-I 49 W/m -0,9 C -0,6 C 4,8 km/h (1 Bft) 95,65 %
27.12.2017 12:39 -0,6 C 4,4 C 98 % 991,0 hPa 0,0 l/m 4,8 km/h (1 Bft) N-NO 22 0 min 0,000 mm 0,0 UV-I 51 W/m -0,9 C -0,6 C 6,4 km/h (2 Bft) 100,00 %
27.12.2017 12:40 -0,6 C 4,4 C 98 % 990,9 hPa 0,0 l/m 4,8 km/h (1 Bft) O-NO 67 0 min 0,000 mm 0,0 UV-I 51 W/m -0,9 C -0,6 C 4,8 km/h (1 Bft) 91,30 %
27.12.2017 12:41 -0,6 C 4,4 C 98 % 990,9 hPa 0,0 l/m 4,8 km/h (1 Bft) NO 45 0 min 0,000 mm 0,0 UV-I 49 W/m -0,9 C -0,6 C 6,4 km/h (2 Bft) 95,65 %
27.12.2017 12:42 -0,6 C 4,4 C 98 % 990,9 hPa 0,0 l/m 3,2 km/h (1 Bft) NO 45 0 min 0,000 mm 0,0 UV-I 47 W/m -0,9 C -0,6 C 4,8 km/h (1 Bft) 100,00 %
27.12.2017 12:43 -0,6 C 4,4 C 98 % 990,9 hPa 0,0 l/m 3,2 km/h (1 Bft) NO 45 0 min 0,000 mm 0,0 UV-I 47 W/m -0,9 C -0,6 C 4,8 km/h (1 Bft) 95,65 %
27.12.2017 12:44 -0,6 C 4,4 C 98 % 990,9 hPa 0,0 l/m 6,4 km/h (2 Bft) NO 45 0 min 0,000 mm 0,0 UV-I 51 W/m -0,9 C -0,6 C 8,0 km/h (2 Bft) 100,00 %
27.12.2017 12:45 -0,6 C 4,4 C 98 % 990,8 hPa 0,0 l/m 8,0 km/h (2 Bft) NO 45 0 min 0,000 mm 0,0 UV-I 53 W/m -0,9 C -2,3 C 14,5 km/h (3 Bft) 95,65 %
27.12.2017 12:46 -0,6 C 4,4 C 98 % 990,7 hPa 0,0 l/m 6,4 km/h (2 Bft) N-NO 22 0 min 0,000 mm 0,0 UV-I 54 W/m -0,9 C -0,6 C 9,7 km/h (2 Bft) 100,00 %
27.12.2017 12:47 -0,6 C 4,4 C 98 % 990,8 hPa 0,0 l/m 4,8 km/h (1 Bft) NO 45 0 min 0,000 mm 0,0 UV-I 51 W/m -0,9 C -0,6 C 6,4 km/h (2 Bft) 86,96 %
27.12.2017 12:48 -0,5 C 4,4 C 98 % 990,8 hPa 0,0 l/m 4,8 km/h (1 Bft) O-NO 67 0 min 0,000 mm 0,0 UV-I 48 W/m -0,8 C -0,5 C 4,8 km/h (1 Bft) 100,00 %
27.12.2017 12:49 -0,5 C 4,4 C 98 % 990,8 hPa 0,0 l/m 4,8 km/h (1 Bft) N-NO 22 0 min 0,000 mm 0,0 UV-I 47 W/m -0,8 C -0,5 C 9,7 km/h (2 Bft) 95,65 %
27.12.2017 12:50 -0,5 C 4,4 C 98 % 990,8 hPa 0,0 l/m 8,0 km/h (2 Bft) N-NO 22 0 min 0,000 mm 0,0 UV-I 51 W/m -0,8 C -2,2 C 9,7 km/h (2 Bft) 95,65 %
27.12.2017 12:51 -0,5 C 4,4 C 98 % 990,8 hPa 0,0 l/m 8,0 km/h (2 Bft) NO 45 0 min 0,000 mm 0,0 UV-I 53 W/m -0,8 C -2,2 C 9,7 km/h (2 Bft) 95,65 %
27.12.2017 12:52 -0,5 C 4,4 C 98 % 990,7 hPa 0,0 l/m 6,4 km/h (2 Bft) N-NO 22 0 min 0,000 mm 0,0 UV-I 54 W/m -0,8 C -0,5 C 8,0 km/h (2 Bft) 100,00 %
27.12.2017 12:53 -0,4 C 4,4 C 98 % 990,8 hPa 0,0 l/m 4,8 km/h (1 Bft) N-NO 22 0 min 0,000 mm 0,0 UV-I 53 W/m -0,7 C -0,4 C 8,0 km/h (2 Bft) 100,00 %
27.12.2017 12:54 -0,4 C 4,4 C 98 % 990,8 hPa 0,0 l/m 4,8 km/h (1 Bft) N-NO 22 0 min 0,000 mm 0,0 UV-I 55 W/m -0,7 C -0,4 C 6,4 km/h (2 Bft) 95,65 %
27.12.2017 12:55 -0,4 C 4,4 C 98 % 990,8 hPa 0,0 l/m 3,2 km/h (1 Bft) N-NO 22 0 min 0,000 mm 0,0 UV-I 56 W/m -0,7 C -0,4 C 4,8 km/h (1 Bft) 100,00 %
27.12.2017 12:56 -0,4 C 4,4 C 98 % 990,8 hPa 0,0 l/m 1,6 km/h (1 Bft) N-NO 22 0 min 0,000 mm 0,0 UV-I 58 W/m -0,7 C -0,4 C 3,2 km/h (1 Bft) 100,00 %
27.12.2017 12:57 -0,4 C 4,4 C 98 % 990,8 hPa 0,0 l/m 1,6 km/h (1 Bft) N-NO 22 0 min 0,000 mm 0,0 UV-I 58 W/m -0,7 C -0,4 C 6,4 km/h (2 Bft) 95,65 %
27.12.2017 12:58 -0,4 C 4,4 C 98 % 990,8 hPa 0,0 l/m 4,8 km/h (1 Bft) N-NO 22 0 min 0,000 mm 0,0 UV-I 60 W/m -0,7 C -0,4 C 6,4 km/h (2 Bft) 95,65 %
27.12.2017 12:59 -0,4 C 4,4 C 98 % 990,8 hPa 0,0 l/m 3,2 km/h (1 Bft) N-NO 22 0 min 0,000 mm 0,0 UV-I 56 W/m -0,7 C -0,4 C 4,8 km/h (1 Bft) 100,00 %
27.12.2017 13:00 -0,4 C 4,4 C 98 % 991,0 hPa 0,0 l/m 1,6 km/h (1 Bft) N-NO 22 0 min 0,025 mm 0,0 UV-I 49 W/m -0,7 C -0,4 C 4,8 km/h (1 Bft) 100,00 %
27.12.2017 13:01 -0,4 C 4,4 C 98 % 991,0 hPa 0,0 l/m 1,6 km/h (1 Bft) SO 135 0 min 0,000 mm 0,0 UV-I 54 W/m -0,7 C -0,4 C 6,4 km/h (2 Bft) 95,65 %
27.12.2017 13:02 -0,4 C 4,4 C 98 % 990,9 hPa 0,0 l/m 3,2 km/h (1 Bft) SO 135 0 min 0,000 mm 0,0 UV-I 60 W/m -0,7 C -0,4 C 4,8 km/h (1 Bft) 100,00 %
27.12.2017 13:03 -0,4 C 4,4 C 98 % 990,7 hPa 0,0 l/m 3,2 km/h (1 Bft) SO 135 0 min 0,000 mm 0,0 UV-I 62 W/m -0,7 C -0,4 C 4,8 km/h (1 Bft) 100,00 %
27.12.2017 13:04 -0,4 C 4,4 C 98 % 990,7 hPa 0,0 l/m 0,0 km/h (0 Bft) SO 135 0 min 0,000 mm 0,0 UV-I 60 W/m -0,7 C -0,4 C 3,2 km/h (1 Bft) 100,00 %
27.12.2017 13:05 -0,4 C 4,4 C 98 % 990,8 hPa 0,0 l/m 0,0 km/h (0 Bft) SO 135 0 min 0,000 mm 0,0 UV-I 58 W/m -0,7 C -0,4 C 3,2 km/h (1 Bft) 95,65 %
27.12.2017 13:06 -0,4 C 4,4 C 98 % 990,8 hPa 0,0 l/m 3,2 km/h (1 Bft) SO 135 0 min 0,000 mm 0,0 UV-I 60 W/m -0,7 C -0,4 C 4,8 km/h (1 Bft) 100,00 %
27.12.2017 13:07 -0,4 C 4,4 C 98 % 990,8 hPa 0,0 l/m 4,8 km/h (1 Bft) SO 135 0 min 0,000 mm 0,0 UV-I 63 W/m -0,7 C -0,4 C 6,4 km/h (2 Bft) 100,00 %
27.12.2017 13:08 -0,4 C 4,4 C 98 % 990,7 hPa 0,0 l/m 4,8 km/h (1 Bft) SO 135 0 min 0,000 mm 0,0 UV-I 63 W/m -0,7 C -0,4 C 6,4 km/h (2 Bft) 95,65 %
27.12.2017 13:09 -0,4 C 4,4 C 98 % 990,6 hPa 0,0 l/m 1,6 km/h (1 Bft) SO 135 0 min 0,000 mm 0,0 UV-I 63 W/m -0,7 C -0,4 C 3,2 km/h (1 Bft) 100,00 %
27.12.2017 13:10 -0,4 C 4,4 C 98 % 990,7 hPa 0,0 l/m 0,0 km/h (0 Bft) N 0 0 min 0,000 mm 0,0 UV-I 60 W/m -0,7 C -0,4 C 0,0 km/h (0 Bft) 100,00 %
27.12.2017 13:11 -0,4 C 4,4 C 98 % 990,6 hPa 0,0 l/m 1,6 km/h (1 Bft) SO 135 0 min 0,000 mm 0,0 UV-I 65 W/m -0,7 C -0,4 C 3,2 km/h (1 Bft) 100,00 %
27.12.2017 13:12 -0,4 C 4,4 C 98 % 990,6 hPa 0,0 l/m 3,2 km/h (1 Bft) SO 135 0 min 0,000 mm 0,0 UV-I 72 W/m -0,7 C -0,4 C 4,8 km/h (1 Bft) 100,00 %
27.12.2017 13:13 -0,4 C 4,4 C 98 % 990,6 hPa 0,0 l/m 4,8 km/h (1 Bft) SO 135 0 min 0,000 mm 0,0 UV-I 72 W/m -0,7 C -0,4 C 6,4 km/h (2 Bft) 100,00 %
27.12.2017 13:14 -0,4 C 4,4 C 98 % 990,6 hPa 0,0 l/m 1,6 km/h (1 Bft) SO 135 0 min 0,000 mm 0,0 UV-I 70 W/m -0,7 C -0,4 C 3,2 km/h (1 Bft) 100,00 %
27.12.2017 13:15 -0,4 C 4,4 C 98 % 990,6 hPa 0,0 l/m 0,0 km/h (0 Bft) SO 135 0 min 0,000 mm 0,0 UV-I 72 W/m -0,7 C -0,4 C 1,6 km/h (1 Bft) 95,65 %
27.12.2017 13:16 -0,4 C 4,4 C 98 % 990,6 hPa 0,0 l/m 3,2 km/h (1 Bft) SO 135 0 min 0,000 mm 0,0 UV-I 83 W/m -0,7 C -0,4 C 4,8 km/h (1 Bft) 100,00 %
27.12.2017 13:17 -0,4 C 4,4 C 98 % 990,5 hPa 0,0 l/m 3,2 km/h (1 Bft) SO 135 0 min 0,000 mm 0,0 UV-I 82 W/m -0,7 C -0,4 C 4,8 km/h (1 Bft) 95,65 %
27.12.2017 13:18 -0,3 C 4,4 C 98 % 990,5 hPa 0,0 l/m 1,6 km/h (1 Bft) SO 135 0 min 0,000 mm 0,0 UV-I 81 W/m -0,6 C -0,3 C 3,2 km/h (1 Bft) 95,65 %
27.12.2017 13:19 -0,4 C 4,4 C 98 % 990,5 hPa 0,0 l/m 1,6 km/h (1 Bft) SO 135 0 min 0,000 mm 0,0 UV-I 81 W/m -0,7 C -0,4 C 3,2 km/h (1 Bft) 100,00 %
27.12.2017 13:20 -0,4 C 4,4 C 98 % 990,5 hPa 0,0 l/m 3,2 km/h (1 Bft) SO 135 0 min 0,000 mm 0,0 UV-I 88 W/m -0,7 C -0,4 C 6,4 km/h (2 Bft) 91,30 %
27.12.2017 13:21 -0,3 C 4,4 C 98 % 990,4 hPa 0,0 l/m 4,8 km/h (1 Bft) SO 135 0 min 0,000 mm 0,0 UV-I 84 W/m -0,6 C -0,3 C 6,4 km/h (2 Bft) 100,00 %
27.12.2017 13:22 -0,3 C 4,4 C 98 % 990,5 hPa 0,0 l/m 3,2 km/h (1 Bft) SO 135 0 min 0,000 mm 0,0 UV-I 83 W/m -0,6 C -0,3 C 4,8 km/h (1 Bft) 86,96 %
27.12.2017 13:23 -0,3 C 4,4 C 98 % 990,4 hPa 0,0 l/m 3,2 km/h (1 Bft) SO 135 0 min 0,000 mm 0,0 UV-I 85 W/m -0,6 C -0,3 C 3,2 km/h (1 Bft) 100,00 %
27.12.2017 13:24 -0,3 C 4,4 C 98 % 990,3 hPa 0,0 l/m 4,8 km/h (1 Bft) SO 135 0 min 0,000 mm 0,0 UV-I 86 W/m -0,6 C -0,3 C 6,4 km/h (2 Bft) 95,65 %
27.12.2017 13:25 -0,3 C 4,4 C 98 % 990,3 hPa 0,0 l/m 4,8 km/h (1 Bft) SO 135 0 min 0,000 mm 0,0 UV-I 88 W/m -0,6 C -0,3 C 6,4 km/h (2 Bft) 100,00 %
27.12.2017 13:26 -0,4 C 4,4 C 98 % 990,3 hPa 0,0 l/m 4,8 km/h (1 Bft) SO 135 0 min 0,000 mm 0,0 UV-I 95 W/m -0,7 C -0,4 C 6,4 km/h (2 Bft) 91,30 %
27.12.2017 13:27 -0,4 C 4,4 C 98 % 990,3 hPa 0,0 l/m 6,4 km/h (2 Bft) SO 135 0 min 0,000 mm 0,0 UV-I 95 W/m -0,7 C -0,4 C 8,0 km/h (2 Bft) 95,65 %
27.12.2017 13:28 -0,3 C 4,4 C 98 % 990,3 hPa 0,0 l/m 4,8 km/h (1 Bft) SO 135 0 min 0,000 mm 0,0 UV-I 95 W/m -0,6 C -0,3 C 6,4 km/h (2 Bft) 100,00 %
27.12.2017 13:29 -0,3 C 4,4 C 98 % 990,3 hPa 0,0 l/m 4,8 km/h (1 Bft) SO 135 0 min 0,000 mm 0,0 UV-I 90 W/m -0,6 C -0,3 C 6,4 km/h (2 Bft) 91,30 %
27.12.2017 13:30 -0,3 C 4,4 C 98 % 990,4 hPa 0,0 l/m 3,2 km/h (1 Bft) SO 135 0 min 0,000 mm 0,0 UV-I 91 W/m -0,6 C -0,3 C 4,8 km/h (1 Bft) 100,00 %
27.12.2017 13:31 -0,4 C 4,4 C 98 % 990,3 hPa 0,0 l/m 4,8 km/h (1 Bft) SO 135 0 min 0,000 mm 0,0 UV-I 91 W/m -0,7 C -0,4 C 6,4 km/h (2 Bft) 91,30 %
27.12.2017 13:32 -0,3 C 4,4 C 98 % 990,2 hPa 0,0 l/m 3,2 km/h (1 Bft) SO 135 0 min 0,000 mm 0,0 UV-I 93 W/m -0,6 C -0,3 C 4,8 km/h (1 Bft) 100,00 %
27.12.2017 13:33 -0,3 C 4,4 C 98 % 990,2 hPa 0,0 l/m 3,2 km/h (1 Bft) SO 135 0 min 0,000 mm 0,0 UV-I 88 W/m -0,6 C -0,3 C 4,8 km/h (1 Bft) 95,65 %
27.12.2017 13:34 -0,3 C 4,4 C 98 % 990,2 hPa 0,0 l/m 1,6 km/h (1 Bft) SO 135 0 min 0,000 mm 0,0 UV-I 83 W/m -0,6 C -0,3 C 4,8 km/h (1 Bft) 100,00 %
27.12.2017 13:35 -0,3 C 4,4 C 98 % 990,1 hPa 0,0 l/m 1,6 km/h (1 Bft) SO 135 0 min 0,000 mm 0,0 UV-I 76 W/m -0,6 C -0,3 C 3,2 km/h (1 Bft) 91,30 %
27.12.2017 13:36 -0,3 C 4,4 C 98 % 990,1 hPa 0,0 l/m 3,2 km/h (1 Bft) SO 135 0 min 0,000 mm 0,0 UV-I 74 W/m -0,6 C -0,3 C 4,8 km/h (1 Bft) 91,30 %
27.12.2017 13:37 -0,3 C 4,4 C 98 % 990,1 hPa 0,0 l/m 3,2 km/h (1 Bft) SO 135 0 min 0,000 mm 0,0 UV-I 72 W/m -0,6 C -0,3 C 4,8 km/h (1 Bft) 95,65 %
27.12.2017 13:38 -0,3 C 4,4 C 98 % 990,0 hPa 0,0 l/m 1,6 km/h (1 Bft) SO 135 0 min 0,000 mm 0,0 UV-I 65 W/m -0,6 C -0,3 C 1,6 km/h (1 Bft) 95,65 %
27.12.2017 13:39 -0,3 C 4,4 C 98 % 990,1 hPa 0,0 l/m 1,6 km/h (1 Bft) SO 135 0 min 0,000 mm 0,0 UV-I 62 W/m -0,6 C -0,3 C 3,2 km/h (1 Bft) 95,65 %
27.12.2017 13:40 -0,3 C 4,4 C 98 % 990,0 hPa 0,0 l/m 1,6 km/h (1 Bft) SO 135 0 min 0,000 mm 0,0 UV-I 60 W/m -0,6 C -0,3 C 3,2 km/h (1 Bft) 95,65 %
27.12.2017 13:41 -0,3 C 4,4 C 98 % 989,9 hPa 0,0 l/m 0,0 km/h (0 Bft) SO 135 0 min 0,000 mm 0,0 UV-I 54 W/m -0,6 C -0,3 C 3,2 km/h (1 Bft) 95,65 %
27.12.2017 13:42 -0,3 C 4,4 C 98 % 989,9 hPa 0,0 l/m 3,2 km/h (1 Bft) SO 135 0 min 0,000 mm 0,0 UV-I 49 W/m -0,6 C -0,3 C 4,8 km/h (1 Bft) 95,65 %
27.12.2017 13:43 -0,3 C 4,4 C 98 % 989,9 hPa 0,0 l/m 1,6 km/h (1 Bft) SO 135 0 min 0,000 mm 0,0 UV-I 47 W/m -0,6 C -0,3 C 3,2 km/h (1 Bft) 95,65 %
27.12.2017 13:44 -0,3 C 4,4 C 98 % 989,9 hPa 0,0 l/m 3,2 km/h (1 Bft) SO 135 0 min 0,000 mm 0,0 UV-I 47 W/m -0,6 C -0,3 C 3,2 km/h (1 Bft) 95,65 %
27.12.2017 13:45 -0,3 C 4,4 C 98 % 989,9 hPa 0,0 l/m 1,6 km/h (1 Bft) SO 135 0 min 0,000 mm 0,0 UV-I 49 W/m -0,6 C -0,3 C 3,2 km/h (1 Bft) 95,65 %
27.12.2017 13:46 -0,3 C 4,4 C 98 % 989,8 hPa 0,0 l/m 1,6 km/h (1 Bft) SO 135 0 min 0,000 mm 0,0 UV-I 47 W/m -0,6 C -0,3 C 1,6 km/h (1 Bft) 100,00 %
27.12.2017 13:47 -0,3 C 4,4 C 98 % 989,9 hPa 0,0 l/m 0,0 km/h (0 Bft) N 0 0 min 0,000 mm 0,0 UV-I 46 W/m -0,6 C -0,3 C 0,0 km/h (0 Bft) 95,65 %
27.12.2017 13:48 -0,3 C 4,4 C 98 % 989,9 hPa 0,0 l/m 3,2 km/h (1 Bft) SO 135 0 min 0,000 mm 0,0 UV-I 47 W/m -0,6 C -0,3 C 4,8 km/h (1 Bft) 100,00 %
27.12.2017 13:49 -0,3 C 4,4 C 98 % 989,8 hPa 0,0 l/m 4,8 km/h (1 Bft) SO 135 0 min 0,000 mm 0,0 UV-I 46 W/m -0,6 C -0,3 C 6,4 km/h (2 Bft) 91,30 %
27.12.2017 13:50 -0,3 C 4,4 C 98 % 989,8 hPa 0,0 l/m 6,4 km/h (2 Bft) SO 135 0 min 0,000 mm 0,0 UV-I 44 W/m -0,6 C -0,3 C 8,0 km/h (2 Bft) 100,00 %
27.12.2017 13:51 -0,3 C 4,4 C 98 % 989,8 hPa 0,0 l/m 6,4 km/h (2 Bft) SO 135 0 min 0,000 mm 0,0 UV-I 46 W/m -0,6 C -0,3 C 8,0 km/h (2 Bft) 91,30 %
27.12.2017 13:52 -0,3 C 4,4 C 98 % 989,7 hPa 0,0 l/m 4,8 km/h (1 Bft) SO 135 0 min 0,000 mm 0,0 UV-I 46 W/m -0,6 C -0,3 C 6,4 km/h (2 Bft) 95,65 %
27.12.2017 13:53 -0,3 C 4,4 C 98 % 989,7 hPa 0,0 l/m 3,2 km/h (1 Bft) SO 135 0 min 0,000 mm 0,0 UV-I 45 W/m -0,6 C -0,3 C 4,8 km/h (1 Bft) 91,30 %
27.12.2017 13:54 -0,3 C 4,4 C 98 % 989,7 hPa 0,0 l/m 1,6 km/h (1 Bft) SO 135 0 min 0,000 mm 0,0 UV-I 46 W/m -0,6 C -0,3 C 3,2 km/h (1 Bft) 100,00 %
27.12.2017 13:55 -0,3 C 4,4 C 98 % 989,7 hPa 0,0 l/m 1,6 km/h (1 Bft) SO 135 0 min 0,000 mm 0,0 UV-I 47 W/m -0,6 C -0,3 C 3,2 km/h (1 Bft) 95,65 %
27.12.2017 13:56 -0,3 C 4,4 C 98 % 989,6 hPa 0,0 l/m 3,2 km/h (1 Bft) SO 135 0 min 0,000 mm 0,0 UV-I 47 W/m -0,6 C -0,3 C 3,2 km/h (1 Bft) 100,00 %
27.12.2017 13:57 -0,3 C 4,4 C 98 % 989,7 hPa 0,0 l/m 3,2 km/h (1 Bft) SO 135 0 min 0,000 mm 0,0 UV-I 47 W/m -0,6 C -0,3 C 4,8 km/h (1 Bft) 91,30 %
27.12.2017 13:58 -0,3 C 4,4 C 98 % 989,7 hPa 0,0 l/m 3,2 km/h (1 Bft) SO 135 0 min 0,000 mm 0,0 UV-I 48 W/m -0,6 C -0,3 C 4,8 km/h (1 Bft) 100,00 %
27.12.2017 13:59 -0,3 C 4,4 C 98 % 989,7 hPa 0,0 l/m 3,2 km/h (1 Bft) SO 135 0 min 0,000 mm 0,0 UV-I 49 W/m -0,6 C -0,3 C 4,8 km/h (1 Bft) 95,65 %
27.12.2017 14:00 -0,3 C 4,4 C 98 % 989,7 hPa 0,0 l/m 1,6 km/h (1 Bft) SO 135 0 min 0,025 mm 0,0 UV-I 53 W/m -0,6 C -0,3 C 3,2 km/h (1 Bft) 100,00 %
27.12.2017 14:01 -0,3 C 4,4 C 98 % 989,7 hPa 0,0 l/m 0,0 km/h (0 Bft) N 0 0 min 0,000 mm 0,0 UV-I 51 W/m -0,6 C -0,3 C 0,0 km/h (0 Bft) 95,65 %
27.12.2017 14:02 -0,3 C 4,4 C 98 % 989,7 hPa 0,0 l/m 0,0 km/h (0 Bft) N 0 0 min 0,000 mm 0,0 UV-I 51 W/m -0,6 C -0,3 C 0,0 km/h (0 Bft) 95,65 %
27.12.2017 14:03 -0,3 C 4,4 C 98 % 989,6 hPa 0,0 l/m 0,0 km/h (0 Bft) SO 135 0 min 0,000 mm 0,0 UV-I 51 W/m -0,6 C -0,3 C 1,6 km/h (1 Bft) 100,00 %
27.12.2017 14:04 -0,2 C 4,4 C 98 % 989,6 hPa 0,0 l/m 1,6 km/h (1 Bft) SO 135 0 min 0,000 mm 0,0 UV-I 51 W/m -0,5 C -0,2 C 3,2 km/h (1 Bft) 91,30 %
27.12.2017 14:05 -0,2 C 4,4 C 98 % 989,6 hPa 0,0 l/m 1,6 km/h (1 Bft) SO 135 0 min 0,000 mm 0,0 UV-I 51 W/m -0,5 C -0,2 C 3,2 km/h (1 Bft) 95,65 %
27.12.2017 14:06 -0,2 C 4,4 C 98 % 989,5 hPa 0,0 l/m 1,6 km/h (1 Bft) SO 135 0 min 0,000 mm 0,0 UV-I 51 W/m -0,5 C -0,2 C 1,6 km/h (1 Bft) 95,65 %
27.12.2017 14:07 -0,2 C 4,4 C 98 % 989,5 hPa 0,0 l/m 1,6 km/h (1 Bft) SO 135 0 min 0,000 mm 0,0 UV-I 53 W/m -0,5 C -0,2 C 1,6 km/h (1 Bft) 95,65 %
27.12.2017 14:08 -0,2 C 4,4 C 98 % 989,4 hPa 0,0 l/m 1,6 km/h (1 Bft) SO 135 0 min 0,000 mm 0,0 UV-I 53 W/m -0,5 C -0,2 C 1,6 km/h (1 Bft) 95,65 %
27.12.2017 14:09 -0,2 C 4,4 C 98 % 989,4 hPa 0,0 l/m 1,6 km/h (1 Bft) SO 135 0 min 0,000 mm 0,0 UV-I 49 W/m -0,5 C -0,2 C 1,6 km/h (1 Bft) 95,65 %
27.12.2017 14:10 -0,2 C 4,4 C 98 % 989,4 hPa 0,0 l/m 0,0 km/h (0 Bft) SO 135 0 min 0,000 mm 0,0 UV-I 49 W/m -0,5 C -0,2 C 1,6 km/h (1 Bft) 95,65 %
27.12.2017 14:11 -0,2 C 4,4 C 98 % 989,4 hPa 0,0 l/m 3,2 km/h (1 Bft) SO 135 0 min 0,000 mm 0,0 UV-I 47 W/m -0,5 C -0,2 C 4,8 km/h (1 Bft) 95,65 %
27.12.2017 14:12 -0,2 C 4,4 C 98 % 989,4 hPa 0,0 l/m 3,2 km/h (1 Bft) SO 135 0 min 0,000 mm 0,0 UV-I 46 W/m -0,5 C -0,2 C 4,8 km/h (1 Bft) 95,65 %
27.12.2017 14:13 -0,2 C 4,4 C 98 % 989,5 hPa 0,0 l/m 1,6 km/h (1 Bft) SO 135 0 min 0,000 mm 0,0 UV-I 46 W/m -0,5 C -0,2 C 3,2 km/h (1 Bft) 100,00 %
27.12.2017 14:14 -0,2 C 4,4 C 98 % 989,4 hPa 0,0 l/m 1,6 km/h (1 Bft) SO 135 0 min 0,000 mm 0,0 UV-I 44 W/m -0,5 C -0,2 C 1,6 km/h (1 Bft) 95,65 %
27.12.2017 14:15 -0,2 C 4,4 C 98 % 989,5 hPa 0,0 l/m 0,0 km/h (0 Bft) SO 135 0 min 0,000 mm 0,0 UV-I 40 W/m -0,5 C -0,2 C 1,6 km/h (1 Bft) 100,00 %
27.12.2017 14:16 -0,2 C 4,4 C 98 % 989,4 hPa 0,0 l/m 0,0 km/h (0 Bft) N 0 0 min 0,000 mm 0,0 UV-I 40 W/m -0,5 C -0,2 C 0,0 km/h (0 Bft) 100,00 %
27.12.2017 14:17 -0,2 C 4,4 C 98 % 989,3 hPa 0,0 l/m 0,0 km/h (0 Bft) N 0 0 min 0,000 mm 0,0 UV-I 37 W/m -0,5 C -0,2 C 0,0 km/h (0 Bft) 100,00 %
27.12.2017 14:18 -0,2 C 4,4 C 98 % 989,5 hPa 0,0 l/m 1,6 km/h (1 Bft) SO 135 0 min 0,000 mm 0,0 UV-I 35 W/m -0,5 C -0,2 C 3,2 km/h (1 Bft) 95,65 %
27.12.2017 14:19 -0,2 C 4,4 C 98 % 989,5 hPa 0,0 l/m 0,0 km/h (0 Bft) SO 135 0 min 0,000 mm 0,0 UV-I 35 W/m -0,5 C -0,2 C 1,6 km/h (1 Bft) 100,00 %
27.12.2017 14:20 -0,2 C 4,4 C 98 % 989,5 hPa 0,0 l/m 0,0 km/h (0 Bft) N 0 0 min 0,000 mm 0,0 UV-I 37 W/m -0,5 C -0,2 C 0,0 km/h (0 Bft) 100,00 %
27.12.2017 14:21 -0,2 C 4,4 C 98 % 989,4 hPa 0,0 l/m 0,0 km/h (0 Bft) SO 135 0 min 0,000 mm 0,0 UV-I 37 W/m -0,5 C -0,2 C 3,2 km/h (1 Bft) 100,00 %
27.12.2017 14:22 -0,2 C 4,4 C 98 % 989,3 hPa 0,0 l/m 4,8 km/h (1 Bft) SO 135 0 min 0,000 mm 0,0 UV-I 37 W/m -0,5 C -0,2 C 4,8 km/h (1 Bft) 100,00 %
27.12.2017 14:23 -0,2 C 4,4 C 98 % 989,4 hPa 0,0 l/m 3,2 km/h (1 Bft) SO 135 0 min 0,000 mm 0,0 UV-I 37 W/m -0,5 C -0,2 C 6,4 km/h (2 Bft) 100,00 %
27.12.2017 14:24 -0,2 C 4,4 C 98 % 989,3 hPa 0,0 l/m 3,2 km/h (1 Bft) SO 135 0 min 0,000 mm 0,0 UV-I 39 W/m -0,5 C -0,2 C 4,8 km/h (1 Bft) 100,00 %
27.12.2017 14:25 -0,2 C 4,4 C 98 % 989,3 hPa 0,0 l/m 1,6 km/h (1 Bft) SO 135 0 min 0,000 mm 0,0 UV-I 39 W/m -0,5 C -0,2 C 3,2 km/h (1 Bft) 95,65 %
27.12.2017 14:26 -0,2 C 4,4 C 98 % 989,2 hPa 0,0 l/m 3,2 km/h (1 Bft) SO 135 0 min 0,000 mm 0,0 UV-I 39 W/m -0,5 C -0,2 C 3,2 km/h (1 Bft) 95,65 %
27.12.2017 14:27 -0,2 C 4,4 C 98 % 989,2 hPa 0,0 l/m 3,2 km/h (1 Bft) SO 135 0 min 0,000 mm 0,0 UV-I 39 W/m -0,5 C -0,2 C 3,2 km/h (1 Bft) 100,00 %
27.12.2017 14:28 -0,2 C 4,4 C 98 % 989,2 hPa 0,0 l/m 0,0 km/h (0 Bft) SO 135 0 min 0,000 mm 0,0 UV-I 35 W/m -0,5 C -0,2 C 1,6 km/h (1 Bft) 100,00 %
27.12.2017 14:29 -0,2 C 4,4 C 98 % 989,2 hPa 0,0 l/m 1,6 km/h (1 Bft) SO 135 0 min 0,000 mm 0,0 UV-I 37 W/m -0,5 C -0,2 C 3,2 km/h (1 Bft) 100,00 %
27.12.2017 14:30 -0,2 C 4,4 C 98 % 989,2 hPa 0,0 l/m 0,0 km/h (0 Bft) N 0 0 min 0,000 mm 0,0 UV-I 35 W/m -0,5 C -0,2 C 0,0 km/h (0 Bft) 100,00 %
27.12.2017 14:31 -0,2 C 4,4 C 98 % 989,2 hPa 0,0 l/m 0,0 km/h (0 Bft) SO 135 0 min 0,000 mm 0,0 UV-I 35 W/m -0,5 C -0,2 C 1,6 km/h (1 Bft) 95,65 %
27.12.2017 14:32 -0,2 C 4,4 C 98 % 989,2 hPa 0,0 l/m 1,6 km/h (1 Bft) SO 135 0 min 0,000 mm 0,0 UV-I 35 W/m -0,5 C -0,2 C 3,2 km/h (1 Bft) 91,30 %
27.12.2017 14:33 -0,2 C 4,4 C 98 % 989,2 hPa 0,0 l/m 0,0 km/h (0 Bft) SO 135 0 min 0,000 mm 0,0 UV-I 35 W/m -0,5 C -0,2 C 1,6 km/h (1 Bft) 100,00 %
27.12.2017 14:34 -0,2 C 4,4 C 98 % 989,1 hPa 0,0 l/m 1,6 km/h (1 Bft) SO 135 0 min 0,000 mm 0,0 UV-I 36 W/m -0,5 C -0,2 C 3,2 km/h (1 Bft) 100,00 %
27.12.2017 14:35 -0,2 C 4,4 C 98 % 989,2 hPa 0,0 l/m 3,2 km/h (1 Bft) SO 135 0 min 0,000 mm 0,0 UV-I 35 W/m -0,5 C -0,2 C 3,2 km/h (1 Bft) 100,00 %
27.12.2017 14:36 -0,2 C 4,4 C 98 % 989,1 hPa 0,0 l/m 3,2 km/h (1 Bft) SO 135 0 min 0,000 mm 0,0 UV-I 35 W/m -0,5 C -0,2 C 3,2 km/h (1 Bft) 100,00 %
27.12.2017 14:37 -0,2 C 4,4 C 98 % 989,2 hPa 0,0 l/m 3,2 km/h (1 Bft) SO 135 0 min 0,000 mm 0,0 UV-I 32 W/m -0,5 C -0,2 C 3,2 km/h (1 Bft) 91,30 %
27.12.2017 14:38 -0,2 C 4,4 C 98 % 989,2 hPa 0,0 l/m 3,2 km/h (1 Bft) SO 135 0 min 0,000 mm 0,0 UV-I 32 W/m -0,5 C -0,2 C 4,8 km/h (1 Bft) 100,00 %
27.12.2017 14:39 -0,2 C 4,4 C 98 % 989,1 hPa 0,0 l/m 3,2 km/h (1 Bft) SO 135 0 min 0,000 mm 0,0 UV-I 32 W/m -0,5 C -0,2 C 4,8 km/h (1 Bft) 95,65 %
27.12.2017 14:40 -0,2 C 4,4 C 98 % 989,2 hPa 0,0 l/m 3,2 km/h (1 Bft) SO 135 0 min 0,000 mm 0,0 UV-I 32 W/m -0,5 C -0,2 C 4,8 km/h (1 Bft) 100,00 %
27.12.2017 14:41 -0,2 C 4,4 C 98 % 989,1 hPa 0,0 l/m 4,8 km/h (1 Bft) SO 135 0 min 0,000 mm 0,0 UV-I 33 W/m -0,5 C -0,2 C 6,4 km/h (2 Bft) 95,65 %
27.12.2017 14:42 -0,2 C 4,4 C 98 % 989,1 hPa 0,0 l/m 3,2 km/h (1 Bft) SO 135 0 min 0,000 mm 0,0 UV-I 28 W/m -0,5 C -0,2 C 4,8 km/h (1 Bft) 100,00 %
27.12.2017 14:43 -0,2 C 4,4 C 98 % 989,2 hPa 0,0 l/m 4,8 km/h (1 Bft) SO 135 0 min 0,000 mm 0,0 UV-I 32 W/m -0,5 C -0,2 C 6,4 km/h (2 Bft) 100,00 %
27.12.2017 14:44 -0,2 C 4,4 C 98 % 989,0 hPa 0,0 l/m 3,2 km/h (1 Bft) SO 135 0 min 0,000 mm 0,0 UV-I 32 W/m -0,5 C -0,2 C 4,8 km/h (1 Bft) 100,00 %
27.12.2017 14:45 -0,2 C 4,4 C 98 % 989,2 hPa 0,0 l/m 1,6 km/h (1 Bft) SO 135 0 min 0,000 mm 0,0 UV-I 30 W/m -0,5 C -0,2 C 3,2 km/h (1 Bft) 100,00 %
27.12.2017 14:46 -0,2 C 4,4 C 98 % 989,1 hPa 0,0 l/m 3,2 km/h (1 Bft) SO 135 0 min 0,000 mm 0,0 UV-I 30 W/m -0,5 C -0,2 C 3,2 km/h (1 Bft) 95,65 %
27.12.2017 14:47 -0,2 C 4,4 C 98 % 989,1 hPa 0,0 l/m 1,6 km/h (1 Bft) SO 135 0 min 0,000 mm 0,0 UV-I 33 W/m -0,5 C -0,2 C 3,2 km/h (1 Bft) 100,00 %
27.12.2017 14:48 -0,2 C 4,4 C 98 % 989,0 hPa 0,0 l/m 0,0 km/h (0 Bft) SO 135 0 min 0,000 mm 0,0 UV-I 33 W/m -0,5 C -0,2 C 1,6 km/h (1 Bft) 100,00 %
27.12.2017 14:49 -0,2 C 4,4 C 98 % 989,1 hPa 0,0 l/m 0,0 km/h (0 Bft) SO 135 0 min 0,000 mm 0,0 UV-I 35 W/m -0,5 C -0,2 C 1,6 km/h (1 Bft) 100,00 %
27.12.2017 14:50 -0,2 C 4,4 C 98 % 989,0 hPa 0,0 l/m 0,0 km/h (0 Bft) SO 135 0 min 0,000 mm 0,0 UV-I 33 W/m -0,5 C -0,2 C 1,6 km/h (1 Bft) 100,00 %
27.12.2017 14:51 -0,2 C 4,4 C 98 % 989,1 hPa 0,0 l/m 3,2 km/h (1 Bft) SO 135 0 min 0,000 mm 0,0 UV-I 35 W/m -0,5 C -0,2 C 4,8 km/h (1 Bft) 100,00 %
27.12.2017 14:52 -0,2 C 4,4 C 98 % 989,0 hPa 0,0 l/m 1,6 km/h (1 Bft) SO 135 0 min 0,000 mm 0,0 UV-I 35 W/m -0,5 C -0,2 C 3,2 km/h (1 Bft) 100,00 %
27.12.2017 14:53 -0,2 C 4,4 C 98 % 989,0 hPa 0,0 l/m 1,6 km/h (1 Bft) SO 135 0 min 0,000 mm 0,0 UV-I 35 W/m -0,5 C -0,2 C 4,8 km/h (1 Bft) 95,65 %
27.12.2017 14:54 -0,2 C 4,4 C 98 % 989,0 hPa 0,0 l/m 1,6 km/h (1 Bft) SO 135 0 min 0,000 mm 0,0 UV-I 33 W/m -0,5 C -0,2 C 3,2 km/h (1 Bft) 100,00 %
27.12.2017 14:55 -0,2 C 4,4 C 98 % 989,0 hPa 0,0 l/m 1,6 km/h (1 Bft) SO 135 0 min 0,000 mm 0,0 UV-I 35 W/m -0,5 C -0,2 C 4,8 km/h (1 Bft) 100,00 %
27.12.2017 14:56 -0,2 C 4,4 C 98 % 989,0 hPa 0,0 l/m 3,2 km/h (1 Bft) SO 135 0 min 0,000 mm 0,0 UV-I 33 W/m -0,5 C -0,2 C 3,2 km/h (1 Bft) 95,65 %
27.12.2017 14:57 -0,2 C 4,4 C 98 % 989,0 hPa 0,0 l/m 3,2 km/h (1 Bft) SO 135 0 min 0,000 mm 0,0 UV-I 30 W/m -0,5 C -0,2 C 4,8 km/h (1 Bft) 100,00 %
27.12.2017 14:58 -0,2 C 4,4 C 98 % 988,9 hPa 0,0 l/m 3,2 km/h (1 Bft) SO 135 0 min 0,000 mm 0,0 UV-I 28 W/m -0,5 C -0,2 C 4,8 km/h (1 Bft) 100,00 %
27.12.2017 14:59 -0,2 C 4,4 C 98 % 989,0 hPa 0,0 l/m 4,8 km/h (1 Bft) SO 135 0 min 0,000 mm 0,0 UV-I 26 W/m -0,5 C -0,2 C 6,4 km/h (2 Bft) 100,00 %
27.12.2017 15:00 -0,2 C 4,4 C 98 % 989,0 hPa 0,0 l/m 3,2 km/h (1 Bft) SO 135 0 min 0,025 mm 0,0 UV-I 26 W/m -0,5 C -0,2 C 4,8 km/h (1 Bft) 95,65 %
27.12.2017 15:01 -0,2 C 4,4 C 98 % 988,9 hPa 0,0 l/m 4,8 km/h (1 Bft) SO 135 0 min 0,000 mm 0,0 UV-I 28 W/m -0,5 C -0,2 C 8,0 km/h (2 Bft) 100,00 %
27.12.2017 15:02 -0,2 C 4,4 C 98 % 988,9 hPa 0,0 l/m 6,4 km/h (2 Bft) SO 135 0 min 0,000 mm 0,0 UV-I 28 W/m -0,5 C -0,2 C 8,0 km/h (2 Bft) 100,00 %
27.12.2017 15:03 -0,2 C 4,4 C 98 % 988,9 hPa 0,0 l/m 8,0 km/h (2 Bft) SO 135 0 min 0,000 mm 0,0 UV-I 28 W/m -0,5 C -1,9 C 11,3 km/h (2 Bft) 100,00 %
27.12.2017 15:04 -0,1 C 4,4 C 98 % 988,9 hPa 0,0 l/m 4,8 km/h (1 Bft) SO 135 0 min 0,000 mm 0,0 UV-I 26 W/m -0,4 C -0,1 C 6,4 km/h (2 Bft) 100,00 %
27.12.2017 15:05 -0,2 C 4,4 C 98 % 988,9 hPa 0,0 l/m 4,8 km/h (1 Bft) SO 135 0 min 0,000 mm 0,0 UV-I 26 W/m -0,5 C -0,2 C 6,4 km/h (2 Bft) 100,00 %
27.12.2017 15:06 -0,2 C 4,4 C 98 % 988,9 hPa 0,0 l/m 4,8 km/h (1 Bft) SO 135 0 min 0,000 mm 0,0 UV-I 26 W/m -0,5 C -0,2 C 6,4 km/h (2 Bft) 100,00 %
27.12.2017 15:07 -0,2 C 4,4 C 98 % 988,9 hPa 0,0 l/m 4,8 km/h (1 Bft) SO 135 0 min 0,000 mm 0,0 UV-I 26 W/m -0,5 C -0,2 C 6,4 km/h (2 Bft) 95,65 %
27.12.2017 15:08 -0,2 C 4,4 C 98 % 988,9 hPa 0,0 l/m 4,8 km/h (1 Bft) SO 135 0 min 0,000 mm 0,0 UV-I 26 W/m -0,5 C -0,2 C 4,8 km/h (1 Bft) 100,00 %
27.12.2017 15:09 -0,2 C 4,4 C 98 % 989,0 hPa 0,0 l/m 3,2 km/h (1 Bft) SO 135 0 min 0,000 mm 0,0 UV-I 26 W/m -0,5 C -0,2 C 4,8 km/h (1 Bft) 95,65 %
27.12.2017 15:10 -0,2 C 4,4 C 98 % 988,9 hPa 0,0 l/m 3,2 km/h (1 Bft) SO 135 0 min 0,000 mm 0,0 UV-I 26 W/m -0,5 C -0,2 C 4,8 km/h (1 Bft) 100,00 %
27.12.2017 15:11 -0,1 C 4,4 C 98 % 988,9 hPa 0,0 l/m 4,8 km/h (1 Bft) SO 135 0 min 0,000 mm 0,0 UV-I 25 W/m -0,4 C -0,1 C 6,4 km/h (2 Bft) 100,00 %
27.12.2017 15:12 -0,2 C 4,4 C 98 % 988,8 hPa 0,0 l/m 4,8 km/h (1 Bft) SO 135 0 min 0,000 mm 0,0 UV-I 25 W/m -0,5 C -0,2 C 6,4 km/h (2 Bft) 100,00 %
27.12.2017 15:13 -0,2 C 4,4 C 98 % 988,8 hPa 0,0 l/m 3,2 km/h (1 Bft) SO 135 0 min 0,000 mm 0,0 UV-I 25 W/m -0,5 C -0,2 C 4,8 km/h (1 Bft) 100,00 %
27.12.2017 15:14 -0,2 C 4,4 C 98 % 988,8 hPa 0,0 l/m 4,8 km/h (1 Bft) SO 135 0 min 0,000 mm 0,0 UV-I 25 W/m -0,5 C -0,2 C 6,4 km/h (2 Bft) 95,65 %
27.12.2017 15:15 -0,2 C 4,4 C 98 % 988,8 hPa 0,0 l/m 4,8 km/h (1 Bft) SO 135 0 min 0,000 mm 0,0 UV-I 25 W/m -0,5 C -0,2 C 6,4 km/h (2 Bft) 95,65 %
27.12.2017 15:16 -0,2 C 4,4 C 98 % 988,8 hPa 0,0 l/m 6,4 km/h (2 Bft) SO 135 0 min 0,000 mm 0,0 UV-I 25 W/m -0,5 C -0,2 C 8,0 km/h (2 Bft) 95,65 %
27.12.2017 15:17 -0,2 C 4,4 C 98 % 988,8 hPa 0,0 l/m 6,4 km/h (2 Bft) SO 135 0 min 0,000 mm 0,0 UV-I 23 W/m -0,5 C -0,2 C 11,3 km/h (2 Bft) 100,00 %
27.12.2017 15:18 -0,2 C 4,4 C 98 % 988,8 hPa 0,0 l/m 6,4 km/h (2 Bft) SO 135 0 min 0,000 mm 0,0 UV-I 23 W/m -0,5 C -0,2 C 8,0 km/h (2 Bft) 95,65 %
27.12.2017 15:19 -0,2 C 4,4 C 98 % 988,8 hPa 0,0 l/m 4,8 km/h (1 Bft) SO 135 0 min 0,000 mm 0,0 UV-I 21 W/m -0,5 C -0,2 C 6,4 km/h (2 Bft) 100,00 %
27.12.2017 15:20 -0,2 C 4,4 C 98 % 988,8 hPa 0,0 l/m 4,8 km/h (1 Bft) SO 135 0 min 0,000 mm 0,0 UV-I 22 W/m -0,5 C -0,2 C 6,4 km/h (2 Bft) 91,30 %
27.12.2017 15:21 -0,2 C 4,4 C 98 % 988,7 hPa 0,0 l/m 6,4 km/h (2 Bft) SO 135 0 min 0,000 mm 0,0 UV-I 21 W/m -0,5 C -0,2 C 8,0 km/h (2 Bft) 91,30 %
27.12.2017 15:22 -0,2 C 4,4 C 98 % 988,7 hPa 0,0 l/m 4,8 km/h (1 Bft) SO 135 0 min 0,000 mm 0,0 UV-I 21 W/m -0,5 C -0,2 C 6,4 km/h (2 Bft) 95,65 %
27.12.2017 15:23 -0,2 C 4,4 C 98 % 988,7 hPa 0,0 l/m 4,8 km/h (1 Bft) SO 135 0 min 0,000 mm 0,0 UV-I 21 W/m -0,5 C -0,2 C 6,4 km/h (2 Bft) 95,65 %
27.12.2017 15:24 -0,2 C 4,4 C 98 % 988,6 hPa 0,0 l/m 4,8 km/h (1 Bft) SO 135 0 min 0,000 mm 0,0 UV-I 21 W/m -0,5 C -0,2 C 8,0 km/h (2 Bft) 95,65 %
27.12.2017 15:25 -0,1 C 4,4 C 98 % 988,7 hPa 0,0 l/m 6,4 km/h (2 Bft) SO 135 0 min 0,000 mm 0,0 UV-I 21 W/m -0,4 C -0,1 C 8,0 km/h (2 Bft) 95,65 %
27.12.2017 15:26 -0,2 C 4,4 C 98 % 988,6 hPa 0,0 l/m 4,8 km/h (1 Bft) SO 135 0 min 0,000 mm 0,0 UV-I 21 W/m -0,5 C -0,2 C 8,0 km/h (2 Bft) 91,30 %
27.12.2017 15:27 -0,2 C 4,4 C 98 % 988,6 hPa 0,0 l/m 6,4 km/h (2 Bft) SO 135 0 min 0,000 mm 0,0 UV-I 21 W/m -0,5 C -0,2 C 11,3 km/h (2 Bft) 86,96 %
27.12.2017 15:28 -0,2 C 4,4 C 98 % 988,6 hPa 0,0 l/m 6,4 km/h (2 Bft) SO 135 0 min 0,000 mm 0,0 UV-I 21 W/m -0,5 C -0,2 C 9,7 km/h (2 Bft) 95,65 %
27.12.2017 15:29 -0,1 C 4,4 C 98 % 988,6 hPa 0,0 l/m 8,0 km/h (2 Bft) O-NO 67 0 min 0,000 mm 0,0 UV-I 21 W/m -0,4 C -1,8 C 12,9 km/h (3 Bft) 91,30 %
27.12.2017 15:30 -0,1 C 4,4 C 98 % 988,5 hPa 0,0 l/m 8,0 km/h (2 Bft) O-NO 67 0 min 0,000 mm 0,0 UV-I 21 W/m -0,4 C -1,8 C 11,3 km/h (2 Bft) 100,00 %
27.12.2017 15:31 -0,2 C 4,4 C 98 % 988,5 hPa 0,0 l/m 8,0 km/h (2 Bft) O-NO 67 0 min 0,000 mm 0,0 UV-I 21 W/m -0,5 C -1,9 C 11,3 km/h (2 Bft) 91,30 %
27.12.2017 15:32 -0,2 C 4,4 C 98 % 988,5 hPa 0,0 l/m 6,4 km/h (2 Bft) O-NO 67 0 min 0,000 mm 0,0 UV-I 20 W/m -0,5 C -0,2 C 8,0 km/h (2 Bft) 100,00 %
27.12.2017 15:33 -0,2 C 4,4 C 98 % 988,4 hPa 0,0 l/m 6,4 km/h (2 Bft) O-NO 67 0 min 0,000 mm 0,0 UV-I 18 W/m -0,5 C -0,2 C 9,7 km/h (2 Bft) 91,30 %
27.12.2017 15:34 -0,2 C 4,4 C 98 % 988,4 hPa 0,0 l/m 8,0 km/h (2 Bft) O-NO 67 0 min 0,000 mm 0,0 UV-I 18 W/m -0,5 C -1,9 C 11,3 km/h (2 Bft) 100,00 %
27.12.2017 15:35 -0,2 C 4,4 C 98 % 988,4 hPa 0,0 l/m 6,4 km/h (2 Bft) NO 45 0 min 0,000 mm 0,0 UV-I 16 W/m -0,5 C -0,2 C 9,7 km/h (2 Bft) 86,96 %
27.12.2017 15:36 -0,2 C 4,4 C 98 % 988,4 hPa 0,0 l/m 4,8 km/h (1 Bft) NO 45 0 min 0,000 mm 0,0 UV-I 16 W/m -0,5 C -0,2 C 6,4 km/h (2 Bft) 95,65 %
27.12.2017 15:37 -0,2 C 4,4 C 98 % 988,4 hPa 0,0 l/m 6,4 km/h (2 Bft) O-NO 67 0 min 0,000 mm 0,0 UV-I 16 W/m -0,5 C -0,2 C 6,4 km/h (2 Bft) 95,65 %
27.12.2017 15:38 -0,2 C 4,4 C 98 % 988,3 hPa 0,0 l/m 6,4 km/h (2 Bft) O-NO 67 0 min 0,000 mm 0,0 UV-I 16 W/m -0,5 C -0,2 C 8,0 km/h (2 Bft) 91,30 %
27.12.2017 15:39 -0,2 C 4,4 C 98 % 988,3 hPa 0,0 l/m 8,0 km/h (2 Bft) O-NO 67 0 min 0,000 mm 0,0 UV-I 16 W/m -0,5 C -1,9 C 11,3 km/h (2 Bft) 100,00 %
27.12.2017 15:40 -0,2 C 4,4 C 98 % 988,4 hPa 0,0 l/m 9,7 km/h (2 Bft) O-NO 67 0 min 0,000 mm 0,0 UV-I 16 W/m -0,5 C -3,4 C 12,9 km/h (3 Bft) 95,65 %
27.12.2017 15:41 -0,2 C 4,4 C 98 % 988,4 hPa 0,0 l/m 6,4 km/h (2 Bft) O-NO 67 0 min 0,000 mm 0,0 UV-I 14 W/m -0,5 C -0,2 C 9,7 km/h (2 Bft) 100,00 %
27.12.2017 15:42 -0,2 C 4,4 C 98 % 988,4 hPa 0,0 l/m 6,4 km/h (2 Bft) O-NO 67 0 min 0,000 mm 0,0 UV-I 14 W/m -0,5 C -0,2 C 8,0 km/h (2 Bft) 86,96 %
27.12.2017 15:43 -0,2 C 4,4 C 98 % 988,3 hPa 0,0 l/m 8,0 km/h (2 Bft) NO 45 0 min 0,000 mm 0,0 UV-I 14 W/m -0,5 C -1,9 C 9,7 km/h (2 Bft) 100,00 %
27.12.2017 15:44 -0,2 C 4,4 C 98 % 988,3 hPa 0,0 l/m 8,0 km/h (2 Bft) O-NO 67 0 min 0,000 mm 0,0 UV-I 14 W/m -0,5 C -1,9 C 11,3 km/h (2 Bft) 95,65 %
27.12.2017 15:45 -0,2 C 4,4 C 98 % 988,2 hPa 0,0 l/m 9,7 km/h (2 Bft) O-NO 67 0 min 0,000 mm 0,0 UV-I 12 W/m -0,5 C -3,4 C 14,5 km/h (3 Bft) 95,65 %
27.12.2017 15:46 -0,2 C 4,4 C 98 % 988,3 hPa 0,0 l/m 9,7 km/h (2 Bft) O-NO 67 0 min 0,000 mm 0,0 UV-I 12 W/m -0,5 C -3,4 C 12,9 km/h (3 Bft) 100,00 %
27.12.2017 15:47 -0,2 C 4,4 C 98 % 988,4 hPa 0,0 l/m 8,0 km/h (2 Bft) O-NO 67 0 min 0,000 mm 0,0 UV-I 12 W/m -0,5 C -1,9 C 11,3 km/h (2 Bft) 95,65 %
27.12.2017 15:48 -0,2 C 4,4 C 98 % 988,3 hPa 0,0 l/m 8,0 km/h (2 Bft) O-NO 67 0 min 0,000 mm 0,0 UV-I 12 W/m -0,5 C -1,9 C 12,9 km/h (3 Bft) 100,00 %
27.12.2017 15:49 -0,2 C 4,4 C 98 % 988,2 hPa 0,0 l/m 6,4 km/h (2 Bft) O-NO 67 0 min 0,000 mm 0,0 UV-I 12 W/m -0,5 C -0,2 C 11,3 km/h (2 Bft) 95,65 %
27.12.2017 15:50 -0,2 C 4,4 C 98 % 988,2 hPa 0,0 l/m 8,0 km/h (2 Bft) O-NO 67 0 min 0,000 mm 0,0 UV-I 12 W/m -0,5 C -1,9 C 12,9 km/h (3 Bft) 95,65 %
27.12.2017 15:51 -0,2 C 4,4 C 98 % 988,2 hPa 0,0 l/m 8,0 km/h (2 Bft) O-NO 67 0 min 0,000 mm 0,0 UV-I 12 W/m -0,5 C -1,9 C 12,9 km/h (3 Bft) 95,65 %
27.12.2017 15:52 -0,2 C 4,4 C 98 % 988,2 hPa 0,0 l/m 9,7 km/h (2 Bft) NO 45 0 min 0,000 mm 0,0 UV-I 12 W/m -0,5 C -3,4 C 12,9 km/h (3 Bft) 100,00 %
27.12.2017 15:53 -0,2 C 4,4 C 98 % 988,1 hPa 0,0 l/m 8,0 km/h (2 Bft) O-NO 67 0 min 0,000 mm 0,0 UV-I 11 W/m -0,5 C -1,9 C 11,3 km/h (2 Bft) 95,65 %
27.12.2017 15:54 -0,2 C 4,4 C 98 % 988,2 hPa 0,0 l/m 9,7 km/h (2 Bft) O-NO 67 0 min 0,000 mm 0,0 UV-I 11 W/m -0,5 C -3,4 C 12,9 km/h (3 Bft) 91,30 %
27.12.2017 15:55 -0,2 C 4,4 C 98 % 988,1 hPa 0,0 l/m 9,7 km/h (2 Bft) O-NO 67 0 min 0,000 mm 0,0 UV-I 11 W/m -0,5 C -3,4 C 12,9 km/h (3 Bft) 100,00 %
27.12.2017 15:56 -0,2 C 4,4 C 98 % 988,1 hPa 0,0 l/m 8,0 km/h (2 Bft) O-NO 67 0 min 0,000 mm 0,0 UV-I 11 W/m -0,5 C -1,9 C 11,3 km/h (2 Bft) 95,65 %
27.12.2017 15:57 -0,2 C 4,4 C 98 % 988,1 hPa 0,0 l/m 8,0 km/h (2 Bft) O-NO 67 0 min 0,000 mm 0,0 UV-I 9 W/m -0,5 C -1,9 C 12,9 km/h (3 Bft) 95,65 %
27.12.2017 15:58 -0,2 C 4,4 C 98 % 988,1 hPa 0,0 l/m 6,4 km/h (2 Bft) O-NO 67 0 min 0,000 mm 0,0 UV-I 9 W/m -0,5 C -0,2 C 11,3 km/h (2 Bft) 100,00 %
27.12.2017 15:59 -0,2 C 4,4 C 98 % 988,0 hPa 0,0 l/m 6,4 km/h (2 Bft) O-NO 67 0 min 0,000 mm 0,0 UV-I 9 W/m -0,5 C -0,2 C 11,3 km/h (2 Bft) 100,00 %
27.12.2017 16:00 -0,2 C 4,4 C 98 % 988,0 hPa 0,0 l/m 9,7 km/h (2 Bft) O-NO 67 0 min 0,000 mm 0,0 UV-I 9 W/m -0,5 C -3,4 C 14,5 km/h (3 Bft) 95,65 %
27.12.2017 16:01 -0,2 C 4,4 C 98 % 988,0 hPa 0,0 l/m 12,9 km/h (3 Bft) O-NO 67 0 min 0,000 mm 0,0 UV-I 9 W/m -0,5 C -5,9 C 14,5 km/h (3 Bft) 100,00 %
27.12.2017 16:02 -0,2 C 4,4 C 98 % 987,9 hPa 0,0 l/m 9,7 km/h (2 Bft) NO 45 0 min 0,000 mm 0,0 UV-I 9 W/m -0,5 C -3,4 C 12,9 km/h (3 Bft) 100,00 %
27.12.2017 16:03 -0,2 C 4,4 C 98 % 987,9 hPa 0,0 l/m 4,8 km/h (1 Bft) O-NO 67 0 min 0,000 mm 0,0 UV-I 7 W/m -0,5 C -0,2 C 8,0 km/h (2 Bft) 100,00 %
27.12.2017 16:04 -0,2 C 4,4 C 98 % 988,0 hPa 0,0 l/m 4,8 km/h (1 Bft) O-NO 67 0 min 0,000 mm 0,0 UV-I 7 W/m -0,5 C -0,2 C 8,0 km/h (2 Bft) 95,65 %
27.12.2017 16:05 -0,2 C 4,4 C 98 % 987,9 hPa 0,0 l/m 6,4 km/h (2 Bft) O 90 0 min 0,000 mm 0,0 UV-I 7 W/m -0,5 C -0,2 C 11,3 km/h (2 Bft) 100,00 %
27.12.2017 16:06 -0,2 C 4,4 C 98 % 988,0 hPa 0,0 l/m 3,2 km/h (1 Bft) O-SO 112 0 min 0,000 mm 0,0 UV-I 7 W/m -0,5 C -0,2 C 4,8 km/h (1 Bft) 95,65 %
27.12.2017 16:07 -0,2 C 4,4 C 98 % 988,0 hPa 0,0 l/m 3,2 km/h (1 Bft) O-SO 112 0 min 0,000 mm 0,0 UV-I 7 W/m -0,5 C -0,2 C 4,8 km/h (1 Bft) 100,00 %
27.12.2017 16:08 -0,2 C 4,4 C 98 % 988,0 hPa 0,0 l/m 4,8 km/h (1 Bft) O-SO 112 0 min 0,000 mm 0,0 UV-I 7 W/m -0,5 C -0,2 C 6,4 km/h (2 Bft) 95,65 %
27.12.2017 16:09 -0,2 C 4,4 C 98 % 987,9 hPa 0,0 l/m 4,8 km/h (1 Bft) O-SO 112 0 min 0,000 mm 0,0 UV-I 7 W/m -0,5 C -0,2 C 9,7 km/h (2 Bft) 100,00 %
27.12.2017 16:10 -0,2 C 4,4 C 98 % 987,8 hPa 0,0 l/m 6,4 km/h (2 Bft) O-SO 112 0 min 0,000 mm 0,0 UV-I 5 W/m -0,5 C -0,2 C 12,9 km/h (3 Bft) 100,00 %
27.12.2017 16:11 -0,2 C 4,4 C 98 % 987,8 hPa 0,0 l/m 11,3 km/h (2 Bft) O-NO 67 0 min 0,000 mm 0,0 UV-I 5 W/m -0,5 C -4,7 C 14,5 km/h (3 Bft) 95,65 %
27.12.2017 16:12 -0,2 C 4,4 C 98 % 988,0 hPa 0,0 l/m 8,0 km/h (2 Bft) O-NO 67 0 min 0,000 mm 0,0 UV-I 5 W/m -0,5 C -1,9 C 12,9 km/h (3 Bft) 100,00 %
27.12.2017 16:13 -0,2 C 4,4 C 98 % 987,9 hPa 0,0 l/m 8,0 km/h (2 Bft) O-NO 67 0 min 0,000 mm 0,0 UV-I 5 W/m -0,5 C -1,9 C 12,9 km/h (3 Bft) 100,00 %
27.12.2017 16:14 -0,2 C 4,4 C 98 % 987,9 hPa 0,0 l/m 6,4 km/h (2 Bft) O-NO 67 0 min 0,000 mm 0,0 UV-I 5 W/m -0,5 C -0,2 C 12,9 km/h (3 Bft) 95,65 %
27.12.2017 16:15 -0,2 C 4,4 C 98 % 987,9 hPa 0,0 l/m 1,6 km/h (1 Bft) O-NO 67 0 min 0,000 mm 0,0 UV-I 5 W/m -0,5 C -0,2 C 6,4 km/h (2 Bft) 100,00 %
27.12.2017 16:16 -0,2 C 4,4 C 98 % 987,9 hPa 0,0 l/m 8,0 km/h (2 Bft) O 90 0 min 0,000 mm 0,0 UV-I 5 W/m -0,5 C -1,9 C 11,3 km/h (2 Bft) 100,00 %
27.12.2017 16:17 -0,2 C 4,4 C 98 % 987,8 hPa 0,0 l/m 8,0 km/h (2 Bft) O-SO 112 0 min 0,000 mm 0,0 UV-I 5 W/m -0,5 C -1,9 C 11,3 km/h (2 Bft) 95,65 %
27.12.2017 16:18 -0,2 C 4,4 C 98 % 987,8 hPa 0,0 l/m 6,4 km/h (2 Bft) O-NO 67 0 min 0,000 mm 0,0 UV-I 5 W/m -0,5 C -0,2 C 8,0 km/h (2 Bft) 95,65 %
27.12.2017 16:19 -0,2 C 4,4 C 98 % 987,8 hPa 0,0 l/m 11,3 km/h (2 Bft) O-NO 67 0 min 0,000 mm 0,0 UV-I 5 W/m -0,5 C -4,7 C 16,1 km/h (3 Bft) 100,00 %
27.12.2017 16:20 -0,2 C 4,4 C 98 % 987,8 hPa 0,0 l/m 9,7 km/h (2 Bft) O 90 0 min 0,000 mm 0,0 UV-I 5 W/m -0,5 C -3,4 C 14,5 km/h (3 Bft) 100,00 %
27.12.2017 16:21 -0,2 C 4,4 C 98 % 987,9 hPa 0,0 l/m 8,0 km/h (2 Bft) O-NO 67 0 min 0,000 mm 0,0 UV-I 5 W/m -0,5 C -1,9 C 12,9 km/h (3 Bft) 100,00 %
27.12.2017 16:22 -0,2 C 4,4 C 98 % 987,8 hPa 0,0 l/m 6,4 km/h (2 Bft) O 90 0 min 0,000 mm 0,0 UV-I 5 W/m -0,5 C -0,2 C 9,7 km/h (2 Bft) 100,00 %
27.12.2017 16:23 -0,2 C 4,4 C 98 % 987,8 hPa 0,0 l/m 6,4 km/h (2 Bft) O-NO 67 0 min 0,000 mm 0,0 UV-I 0 W/m -0,5 C -0,2 C 14,5 km/h (3 Bft) 100,00 %
27.12.2017 16:24 -0,2 C 4,4 C 98 % 987,8 hPa 0,0 l/m 6,4 km/h (2 Bft) O-NO 67 0 min 0,000 mm 0,0 UV-I 0 W/m -0,5 C -0,2 C 11,3 km/h (2 Bft) 100,00 %
27.12.2017 16:25 -0,2 C 4,4 C 98 % 987,8 hPa 0,0 l/m 4,8 km/h (1 Bft) O-SO 112 0 min 0,000 mm 0,0 UV-I 0 W/m -0,5 C -0,2 C 8,0 km/h (2 Bft) 95,65 %
27.12.2017 16:26 -0,2 C 4,4 C 98 % 987,9 hPa 0,0 l/m 0,0 km/h (0 Bft) O-SO 112 0 min 0,000 mm 0,0 UV-I 0 W/m -0,5 C -0,2 C 1,6 km/h (1 Bft) 100,00 %
27.12.2017 16:27 -0,2 C 4,4 C 98 % 987,8 hPa 0,0 l/m 4,8 km/h (1 Bft) SO 135 0 min 0,000 mm 0,0 UV-I 0 W/m -0,5 C -0,2 C 8,0 km/h (2 Bft) 100,00 %
27.12.2017 16:28 -0,2 C 4,4 C 98 % 987,8 hPa 0,0 l/m 4,8 km/h (1 Bft) SO 135 0 min 0,000 mm 0,0 UV-I 0 W/m -0,5 C -0,2 C 6,4 km/h (2 Bft) 100,00 %
27.12.2017 16:29 -0,2 C 4,4 C 98 % 987,7 hPa 0,0 l/m 6,4 km/h (2 Bft) SO 135 0 min 0,000 mm 0,0 UV-I 0 W/m -0,5 C -0,2 C 8,0 km/h (2 Bft) 100,00 %
27.12.2017 16:30 -0,2 C 4,4 C 98 % 987,8 hPa 0,0 l/m 6,4 km/h (2 Bft) O-SO 112 0 min 0,000 mm 0,0 UV-I 0 W/m -0,5 C -0,2 C 9,7 km/h (2 Bft) 100,00 %
27.12.2017 16:31 -0,2 C 4,4 C 98 % 987,8 hPa 0,0 l/m 3,2 km/h (1 Bft) O 90 0 min 0,000 mm 0,0 UV-I 0 W/m -0,5 C -0,2 C 11,3 km/h (2 Bft) 100,00 %
27.12.2017 16:32 -0,2 C 4,4 C 98 % 987,8 hPa 0,0 l/m 1,6 km/h (1 Bft) O-SO 112 0 min 0,000 mm 0,0 UV-I 0 W/m -0,5 C -0,2 C 4,8 km/h (1 Bft) 95,65 %
27.12.2017 16:33 -0,2 C 4,4 C 98 % 987,8 hPa 0,0 l/m 1,6 km/h (1 Bft) O-SO 112 0 min 0,000 mm 0,0 UV-I 0 W/m -0,5 C -0,2 C 3,2 km/h (1 Bft) 100,00 %
27.12.2017 16:34 -0,2 C 4,4 C 98 % 987,9 hPa 0,0 l/m 0,0 km/h (0 Bft) O-SO 112 0 min 0,000 mm 0,0 UV-I 0 W/m -0,5 C -0,2 C 1,6 km/h (1 Bft) 100,00 %
27.12.2017 16:35 -0,2 C 4,4 C 98 % 987,8 hPa 0,0 l/m 1,6 km/h (1 Bft) O-SO 112 0 min 0,000 mm 0,0 UV-I 0 W/m -0,5 C -0,2 C 6,4 km/h (2 Bft) 100,00 %
27.12.2017 16:36 -0,2 C 4,4 C 98 % 987,8 hPa 0,0 l/m 8,0 km/h (2 Bft) O 90 0 min 0,000 mm 0,0 UV-I 0 W/m -0,5 C -1,9 C 12,9 km/h (3 Bft) 100,00 %
27.12.2017 16:37 -0,2 C 4,4 C 98 % 987,8 hPa 0,0 l/m 9,7 km/h (2 Bft) O 90 0 min 0,000 mm 0,0 UV-I 0 W/m -0,5 C -3,4 C 11,3 km/h (2 Bft) 100,00 %
27.12.2017 16:38 -0,2 C 4,4 C 98 % 987,8 hPa 0,0 l/m 8,0 km/h (2 Bft) O 90 0 min 0,000 mm 0,0 UV-I 0 W/m -0,5 C -1,9 C 12,9 km/h (3 Bft) 100,00 %
27.12.2017 16:39 -0,2 C 4,4 C 98 % 987,8 hPa 0,0 l/m 9,7 km/h (2 Bft) O-NO 67 0 min 0,000 mm 0,0 UV-I 0 W/m -0,5 C -3,4 C 11,3 km/h (2 Bft) 95,65 %
27.12.2017 16:40 -0,2 C 4,4 C 98 % 987,7 hPa 0,0 l/m 9,7 km/h (2 Bft) O 90 0 min 0,000 mm 0,0 UV-I 0 W/m -0,5 C -3,4 C 12,9 km/h (3 Bft) 100,00 %
27.12.2017 16:41 -0,2 C 4,4 C 98 % 987,7 hPa 0,0 l/m 9,7 km/h (2 Bft) O-SO 112 0 min 0,000 mm 0,0 UV-I 0 W/m -0,5 C -3,4 C 14,5 km/h (3 Bft) 95,65 %
27.12.2017 16:42 -0,2 C 4,4 C 98 % 987,8 hPa 0,0 l/m 11,3 km/h (2 Bft) O 90 0 min 0,000 mm 0,0 UV-I 0 W/m -0,5 C -4,7 C 14,5 km/h (3 Bft) 95,65 %
27.12.2017 16:43 -0,2 C 4,4 C 98 % 987,7 hPa 0,0 l/m 11,3 km/h (2 Bft) O 90 0 min 0,000 mm 0,0 UV-I 0 W/m -0,5 C -4,7 C 14,5 km/h (3 Bft) 100,00 %
27.12.2017 16:44 -0,2 C 4,4 C 98 % 987,7 hPa 0,0 l/m 12,9 km/h (3 Bft) O 90 0 min 0,000 mm 0,0 UV-I 0 W/m -0,5 C -5,9 C 14,5 km/h (3 Bft) 95,65 %
27.12.2017 16:45 -0,2 C 4,4 C 98 % 987,7 hPa 0,0 l/m 9,7 km/h (2 Bft) O 90 0 min 0,000 mm 0,0 UV-I 0 W/m -0,5 C -3,4 C 12,9 km/h (3 Bft) 100,00 %
27.12.2017 16:46 -0,2 C 4,4 C 98 % 987,7 hPa 0,0 l/m 8,0 km/h (2 Bft) O-SO 112 0 min 0,000 mm 0,0 UV-I 0 W/m -0,5 C -1,9 C 11,3 km/h (2 Bft) 91,30 %
27.12.2017 16:47 -0,2 C 4,4 C 98 % 987,7 hPa 0,0 l/m 6,4 km/h (2 Bft) O 90 0 min 0,000 mm 0,0 UV-I 0 W/m -0,5 C -0,2 C 9,7 km/h (2 Bft) 100,00 %
27.12.2017 16:48 -0,2 C 4,4 C 98 % 987,6 hPa 0,0 l/m 4,8 km/h (1 Bft) O 90 0 min 0,000 mm 0,0 UV-I 0 W/m -0,5 C -0,2 C 9,7 km/h (2 Bft) 95,65 %
27.12.2017 16:49 -0,2 C 4,4 C 98 % 987,5 hPa 0,0 l/m 6,4 km/h (2 Bft) O 90 0 min 0,000 mm 0,0 UV-I 0 W/m -0,5 C -0,2 C 11,3 km/h (2 Bft) 95,65 %
27.12.2017 16:50 -0,2 C 4,4 C 98 % 987,6 hPa 0,0 l/m 4,8 km/h (1 Bft) O 90 0 min 0,000 mm 0,0 UV-I 0 W/m -0,5 C -0,2 C 6,4 km/h (2 Bft) 95,65 %
27.12.2017 16:51 -0,2 C 4,4 C 98 % 987,5 hPa 0,0 l/m 6,4 km/h (2 Bft) O 90 0 min 0,000 mm 0,0 UV-I 0 W/m -0,5 C -0,2 C 9,7 km/h (2 Bft) 100,00 %
27.12.2017 16:52 -0,2 C 4,4 C 98 % 987,4 hPa 0,0 l/m 4,8 km/h (1 Bft) O-NO 67 0 min 0,000 mm 0,0 UV-I 0 W/m -0,5 C -0,2 C 6,4 km/h (2 Bft) 91,30 %
27.12.2017 16:53 -0,1 C 4,4 C 98 % 987,4 hPa 0,0 l/m 6,4 km/h (2 Bft) O 90 0 min 0,000 mm 0,0 UV-I 0 W/m -0,4 C -0,1 C 6,4 km/h (2 Bft) 95,65 %
27.12.2017 16:54 -0,1 C 4,4 C 98 % 987,4 hPa 0,0 l/m 6,4 km/h (2 Bft) O-SO 112 0 min 0,000 mm 0,0 UV-I 0 W/m -0,4 C -0,1 C 6,4 km/h (2 Bft) 91,30 %
27.12.2017 16:55 -0,1 C 4,4 C 98 % 987,4 hPa 0,0 l/m 3,2 km/h (1 Bft) O-SO 112 0 min 0,000 mm 0,0 UV-I 0 W/m -0,4 C -0,1 C 6,4 km/h (2 Bft) 100,00 %
27.12.2017 16:56 -0,1 C 4,4 C 98 % 987,4 hPa 0,0 l/m 3,2 km/h (1 Bft) SO 135 0 min 0,000 mm 0,0 UV-I 0 W/m -0,4 C -0,1 C 3,2 km/h (1 Bft) 95,65 %
27.12.2017 16:57 -0,2 C 4,4 C 98 % 987,3 hPa 0,0 l/m 4,8 km/h (1 Bft) SO 135 0 min 0,000 mm 0,0 UV-I 0 W/m -0,5 C -0,2 C 6,4 km/h (2 Bft) 95,65 %
27.12.2017 16:58 -0,1 C 4,4 C 98 % 987,3 hPa 0,0 l/m 1,6 km/h (1 Bft) SO 135 0 min 0,000 mm 0,0 UV-I 0 W/m -0,4 C -0,1 C 4,8 km/h (1 Bft) 100,00 %
27.12.2017 16:59 -0,1 C 4,4 C 98 % 987,3 hPa 0,0 l/m 3,2 km/h (1 Bft) SO 135 0 min 0,000 mm 0,0 UV-I 0 W/m -0,4 C -0,1 C 6,4 km/h (2 Bft) 95,65 %
27.12.2017 17:00 -0,1 C 4,4 C 98 % 987,3 hPa 0,0 l/m 4,8 km/h (1 Bft) SO 135 0 min 0,000 mm 0,0 UV-I 0 W/m -0,4 C -0,1 C 8,0 km/h (2 Bft) 95,65 %
27.12.2017 17:01 -0,1 C 4,4 C 98 % 987,3 hPa 0,0 l/m 6,4 km/h (2 Bft) SO 135 0 min 0,000 mm 0,0 UV-I 0 W/m -0,4 C -0,1 C 8,0 km/h (2 Bft) 95,65 %
27.12.2017 17:02 -0,1 C 4,4 C 98 % 987,2 hPa 0,0 l/m 6,4 km/h (2 Bft) SO 135 0 min 0,000 mm 0,0 UV-I 0 W/m -0,4 C -0,1 C 11,3 km/h (2 Bft) 100,00 %
27.12.2017 17:03 -0,1 C 4,4 C 98 % 987,2 hPa 0,0 l/m 6,4 km/h (2 Bft) SO 135 0 min 0,000 mm 0,0 UV-I 0 W/m -0,4 C -0,1 C 11,3 km/h (2 Bft) 100,00 %
27.12.2017 17:04 -0,1 C 4,4 C 98 % 987,2 hPa 0,0 l/m 8,0 km/h (2 Bft) SO 135 0 min 0,000 mm 0,0 UV-I 0 W/m -0,4 C -1,8 C 12,9 km/h (3 Bft) 100,00 %
27.12.2017 17:05 -0,1 C 4,4 C 98 % 987,2 hPa 0,0 l/m 6,4 km/h (2 Bft) SO 135 0 min 0,000 mm 0,0 UV-I 0 W/m -0,4 C -0,1 C 11,3 km/h (2 Bft) 100,00 %
27.12.2017 17:06 -0,1 C 4,4 C 98 % 987,2 hPa 0,0 l/m 6,4 km/h (2 Bft) SO 135 0 min 0,000 mm 0,0 UV-I 0 W/m -0,4 C -0,1 C 8,0 km/h (2 Bft) 100,00 %
27.12.2017 17:07 -0,1 C 4,4 C 98 % 987,1 hPa 0,0 l/m 6,4 km/h (2 Bft) SO 135 0 min 0,000 mm 0,0 UV-I 0 W/m -0,4 C -0,1 C 8,0 km/h (2 Bft) 95,65 %
27.12.2017 17:08 -0,1 C 4,4 C 98 % 987,1 hPa 0,0 l/m 6,4 km/h (2 Bft) SO 135 0 min 0,000 mm 0,0 UV-I 0 W/m -0,4 C -0,1 C 11,3 km/h (2 Bft) 95,65 %
27.12.2017 17:09 -0,1 C 4,4 C 98 % 987,1 hPa 0,0 l/m 6,4 km/h (2 Bft) SO 135 0 min 0,000 mm 0,0 UV-I 0 W/m -0,4 C -0,1 C 11,3 km/h (2 Bft) 100,00 %
27.12.2017 17:10 -0,1 C 4,4 C 98 % 987,1 hPa 0,0 l/m 6,4 km/h (2 Bft) SO 135 0 min 0,000 mm 0,0 UV-I 0 W/m -0,4 C -0,1 C 8,0 km/h (2 Bft) 100,00 %
27.12.2017 17:11 0,0 C 4,4 C 98 % 987,1 hPa 0,0 l/m 6,4 km/h (2 Bft) SO 135 0 min 0,000 mm 0,0 UV-I 0 W/m -0,3 C 0,0 C 11,3 km/h (2 Bft) 100,00 %
27.12.2017 17:12 -0,1 C 4,4 C 98 % 987,2 hPa 0,0 l/m 8,0 km/h (2 Bft) SO 135 0 min 0,000 mm 0,0 UV-I 0 W/m -0,4 C -1,8 C 11,3 km/h (2 Bft) 100,00 %
27.12.2017 17:13 0,0 C 4,4 C 98 % 987,1 hPa 0,0 l/m 8,0 km/h (2 Bft) SO 135 0 min 0,000 mm 0,0 UV-I 0 W/m -0,3 C -1,6 C 11,3 km/h (2 Bft) 100,00 %
27.12.2017 17:14 0,0 C 4,4 C 98 % 987,1 hPa 0,0 l/m 8,0 km/h (2 Bft) SO 135 0 min 0,000 mm 0,0 UV-I 0 W/m -0,3 C -1,6 C 11,3 km/h (2 Bft) 95,65 %
27.12.2017 17:15 0,0 C 4,4 C 98 % 987,1 hPa 0,0 l/m 8,0 km/h (2 Bft) SO 135 0 min 0,000 mm 0,0 UV-I 0 W/m -0,3 C -1,6 C 12,9 km/h (3 Bft) 100,00 %
27.12.2017 17:16 0,0 C 4,4 C 98 % 987,1 hPa 0,0 l/m 6,4 km/h (2 Bft) SO 135 0 min 0,000 mm 0,0 UV-I 0 W/m -0,3 C 0,0 C 8,0 km/h (2 Bft) 100,00 %
27.12.2017 17:17 0,0 C 4,4 C 98 % 987,1 hPa 0,0 l/m 6,4 km/h (2 Bft) SO 135 0 min 0,000 mm 0,0 UV-I 0 W/m -0,3 C 0,0 C 11,3 km/h (2 Bft) 95,65 %
27.12.2017 17:18 0,0 C 4,4 C 98 % 987,1 hPa 0,0 l/m 9,7 km/h (2 Bft) SO 135 0 min 0,000 mm 0,0 UV-I 0 W/m -0,3 C -3,2 C 12,9 km/h (3 Bft) 100,00 %
27.12.2017 17:19 0,0 C 4,4 C 98 % 987,1 hPa 0,0 l/m 9,7 km/h (2 Bft) SO 135 0 min 0,000 mm 0,0 UV-I 0 W/m -0,3 C -3,2 C 12,9 km/h (3 Bft) 100,00 %
27.12.2017 17:20 0,0 C 4,4 C 98 % 987,1 hPa 0,0 l/m 11,3 km/h (2 Bft) SO 135 0 min 0,000 mm 0,0 UV-I 0 W/m -0,3 C -4,5 C 12,9 km/h (3 Bft) 100,00 %
27.12.2017 17:21 0,1 C 4,4 C 98 % 987,1 hPa 0,0 l/m 9,7 km/h (2 Bft) SO 135 0 min 0,000 mm 0,0 UV-I 0 W/m -0,2 C -3,1 C 12,9 km/h (3 Bft) 95,65 %
27.12.2017 17:22 0,1 C 4,4 C 98 % 987,1 hPa 0,0 l/m 6,4 km/h (2 Bft) SO 135 0 min 0,000 mm 0,0 UV-I 0 W/m -0,2 C 0,1 C 8,0 km/h (2 Bft) 100,00 %
27.12.2017 17:23 0,1 C 4,4 C 98 % 987,1 hPa 0,0 l/m 8,0 km/h (2 Bft) SO 135 0 min 0,000 mm 0,0 UV-I 0 W/m -0,2 C -1,5 C 11,3 km/h (2 Bft) 100,00 %
27.12.2017 17:24 0,1 C 4,4 C 98 % 987,1 hPa 0,0 l/m 9,7 km/h (2 Bft) O-SO 112 0 min 0,000 mm 0,0 UV-I 0 W/m -0,2 C -3,1 C 12,9 km/h (3 Bft) 100,00 %
27.12.2017 17:25 0,1 C 4,4 C 98 % 987,2 hPa 0,0 l/m 11,3 km/h (2 Bft) O 90 0 min 0,000 mm 0,0 UV-I 0 W/m -0,2 C -4,4 C 12,9 km/h (3 Bft) 100,00 %
27.12.2017 17:26 0,1 C 4,4 C 98 % 987,1 hPa 0,0 l/m 11,3 km/h (2 Bft) O 90 0 min 0,000 mm 0,0 UV-I 0 W/m -0,2 C -4,4 C 12,9 km/h (3 Bft) 95,65 %
27.12.2017 17:27 0,2 C 4,4 C 98 % 987,1 hPa 0,0 l/m 6,4 km/h (2 Bft) O 90 0 min 0,000 mm 0,0 UV-I 0 W/m -0,1 C 0,2 C 9,7 km/h (2 Bft) 100,00 %
27.12.2017 17:28 0,2 C 4,4 C 98 % 987,1 hPa 0,0 l/m 9,7 km/h (2 Bft) O-SO 112 0 min 0,000 mm 0,0 UV-I 0 W/m -0,1 C -3,0 C 12,9 km/h (3 Bft) 91,30 %
27.12.2017 17:29 0,3 C 4,4 C 98 % 987,1 hPa 0,0 l/m 8,0 km/h (2 Bft) O-SO 112 0 min 0,000 mm 0,0 UV-I 0 W/m 0,0 C -1,3 C 11,3 km/h (2 Bft) 91,30 %
27.12.2017 17:30 0,3 C 4,4 C 98 % 987,2 hPa 0,0 l/m 4,8 km/h (1 Bft) O-SO 112 0 min 0,000 mm 0,0 UV-I 0 W/m 0,0 C 0,3 C 9,7 km/h (2 Bft) 100,00 %
27.12.2017 17:31 0,4 C 4,4 C 98 % 987,2 hPa 0,0 l/m 6,4 km/h (2 Bft) O-SO 112 0 min 0,000 mm 0,0 UV-I 0 W/m 0,1 C 0,4 C 9,7 km/h (2 Bft) 95,65 %
27.12.2017 17:32 0,4 C 4,4 C 98 % 987,1 hPa 0,0 l/m 8,0 km/h (2 Bft) O 90 0 min 0,000 mm 0,0 UV-I 0 W/m 0,1 C -1,2 C 11,3 km/h (2 Bft) 100,00 %
27.12.2017 17:33 0,4 C 4,4 C 98 % 987,2 hPa 0,0 l/m 11,3 km/h (2 Bft) O 90 0 min 0,000 mm 0,0 UV-I 0 W/m 0,1 C -4,0 C 12,9 km/h (3 Bft) 95,65 %
27.12.2017 17:34 0,4 C 4,4 C 98 % 987,2 hPa 0,0 l/m 8,0 km/h (2 Bft) O-SO 112 0 min 0,000 mm 0,0 UV-I 0 W/m 0,1 C -1,2 C 11,3 km/h (2 Bft) 100,00 %
27.12.2017 17:35 0,4 C 4,4 C 98 % 987,2 hPa 0,0 l/m 9,7 km/h (2 Bft) O 90 0 min 0,000 mm 0,0 UV-I 0 W/m 0,1 C -2,8 C 11,3 km/h (2 Bft) 86,96 %
27.12.2017 17:36 0,4 C 4,4 C 98 % 987,2 hPa 0,0 l/m 11,3 km/h (2 Bft) O 90 0 min 0,000 mm 0,0 UV-I 0 W/m 0,1 C -4,0 C 12,9 km/h (3 Bft) 100,00 %
27.12.2017 17:37 0,4 C 4,4 C 98 % 987,1 hPa 0,0 l/m 11,3 km/h (2 Bft) O 90 0 min 0,000 mm 0,0 UV-I 0 W/m 0,1 C -4,0 C 12,9 km/h (3 Bft) 95,65 %
27.12.2017 17:38 0,4 C 4,4 C 98 % 987,1 hPa 0,0 l/m 8,0 km/h (2 Bft) O-SO 112 0 min 0,000 mm 0,0 UV-I 0 W/m 0,1 C -1,2 C 11,3 km/h (2 Bft) 95,65 %
27.12.2017 17:39 0,5 C 4,4 C 98 % 987,1 hPa 0,0 l/m 9,7 km/h (2 Bft) O-SO 112 0 min 0,000 mm 0,0 UV-I 0 W/m 0,2 C -2,6 C 11,3 km/h (2 Bft) 100,00 %
27.12.2017 17:40 0,6 C 4,4 C 98 % 987,1 hPa 0,0 l/m 8,0 km/h (2 Bft) O-SO 112 0 min 0,000 mm 0,0 UV-I 0 W/m 0,3 C -1,0 C 11,3 km/h (2 Bft) 95,65 %
27.12.2017 17:41 0,6 C 4,4 C 98 % 987,1 hPa 0,0 l/m 9,7 km/h (2 Bft) O-SO 112 0 min 0,000 mm 0,0 UV-I 0 W/m 0,3 C -2,5 C 12,9 km/h (3 Bft) 100,00 %
27.12.2017 17:42 0,7 C 4,4 C 98 % 987,1 hPa 0,0 l/m 11,3 km/h (2 Bft) O 90 0 min 0,000 mm 0,0 UV-I 0 W/m 0,4 C -3,7 C 16,1 km/h (3 Bft) 91,30 %
27.12.2017 17:43 0,7 C 4,4 C 98 % 987,1 hPa 0,0 l/m 9,7 km/h (2 Bft) O 90 0 min 0,000 mm 0,0 UV-I 0 W/m 0,4 C -2,4 C 14,5 km/h (3 Bft) 100,00 %
27.12.2017 17:44 0,7 C 4,4 C 98 % 987,0 hPa 0,0 l/m 8,0 km/h (2 Bft) O 90 0 min 0,000 mm 0,0 UV-I 0 W/m 0,4 C -0,9 C 11,3 km/h (2 Bft) 91,30 %
27.12.2017 17:45 0,7 C 4,4 C 98 % 986,9 hPa 0,0 l/m 9,7 km/h (2 Bft) O 90 0 min 0,000 mm 0,0 UV-I 0 W/m 0,4 C -2,4 C 12,9 km/h (3 Bft) 100,00 %
27.12.2017 17:46 0,8 C 4,4 C 98 % 986,9 hPa 0,0 l/m 9,7 km/h (2 Bft) O 90 0 min 0,000 mm 0,0 UV-I 0 W/m 0,5 C -2,3 C 12,9 km/h (3 Bft) 95,65 %
27.12.2017 17:47 0,8 C 4,4 C 98 % 986,9 hPa 0,0 l/m 6,4 km/h (2 Bft) O-NO 67 0 min 0,000 mm 0,0 UV-I 0 W/m 0,5 C 0,8 C 9,7 km/h (2 Bft) 91,30 %
27.12.2017 17:48 0,8 C 4,4 C 98 % 986,9 hPa 0,0 l/m 6,4 km/h (2 Bft) O-SO 112 0 min 0,000 mm 0,0 UV-I 0 W/m 0,5 C 0,8 C 9,7 km/h (2 Bft) 100,00 %
27.12.2017 17:49 0,8 C 4,4 C 98 % 986,9 hPa 0,0 l/m 3,2 km/h (1 Bft) SO 135 0 min 0,000 mm 0,0 UV-I 0 W/m 0,5 C 0,8 C 4,8 km/h (1 Bft) 91,30 %
27.12.2017 17:50 0,8 C 4,4 C 98 % 986,9 hPa 0,0 l/m 8,0 km/h (2 Bft) O 90 0 min 0,000 mm 0,0 UV-I 0 W/m 0,5 C -0,8 C 11,3 km/h (2 Bft) 100,00 %
27.12.2017 17:51 0,7 C 4,4 C 98 % 986,9 hPa 0,0 l/m 11,3 km/h (2 Bft) O 90 0 min 0,000 mm 0,0 UV-I 0 W/m 0,4 C -3,7 C 14,5 km/h (3 Bft) 91,30 %
27.12.2017 17:52 0,7 C 4,4 C 98 % 986,9 hPa 0,0 l/m 9,7 km/h (2 Bft) O-SO 112 0 min 0,000 mm 0,0 UV-I 0 W/m 0,4 C -2,4 C 12,9 km/h (3 Bft) 100,00 %
27.12.2017 17:53 0,7 C 4,4 C 98 % 986,8 hPa 0,0 l/m 12,9 km/h (3 Bft) O-SO 112 0 min 0,000 mm 0,0 UV-I 0 W/m 0,4 C -4,8 C 14,5 km/h (3 Bft) 91,30 %
27.12.2017 17:54 0,7 C 4,4 C 98 % 986,8 hPa 0,0 l/m 11,3 km/h (2 Bft) O-SO 112 0 min 0,000 mm 0,0 UV-I 0 W/m 0,4 C -3,7 C 12,9 km/h (3 Bft) 100,00 %
27.12.2017 17:55 0,7 C 4,4 C 98 % 986,8 hPa 0,0 l/m 12,9 km/h (3 Bft) O 90 0 min 0,000 mm 0,0 UV-I 0 W/m 0,4 C -4,8 C 16,1 km/h (3 Bft) 91,30 %
27.12.2017 17:56 0,8 C 4,4 C 98 % 986,8 hPa 0,0 l/m 11,3 km/h (2 Bft) O 90 0 min 0,000 mm 0,0 UV-I 0 W/m 0,5 C -3,6 C 14,5 km/h (3 Bft) 91,30 %
27.12.2017 17:57 0,8 C 4,4 C 98 % 986,7 hPa 0,0 l/m 11,3 km/h (2 Bft) O 90 0 min 0,000 mm 0,0 UV-I 0 W/m 0,5 C -3,6 C 17,7 km/h (3 Bft) 95,65 %
27.12.2017 17:58 0,9 C 4,4 C 98 % 986,6 hPa 0,0 l/m 16,1 km/h (3 Bft) O 90 0 min 0,000 mm 0,0 UV-I 0 W/m 0,6 C -6,5 C 19,3 km/h (3 Bft) 95,65 %
27.12.2017 17:59 1,1 C 4,4 C 98 % 986,7 hPa 0,0 l/m 16,1 km/h (3 Bft) O 90 0 min 0,000 mm 0,0 UV-I 0 W/m 0,8 C -6,3 C 20,9 km/h (4 Bft) 100,00 %
27.12.2017 18:00 1,3 C 4,4 C 98 % 986,6 hPa 0,0 l/m 14,5 km/h (3 Bft) O-SO 112 0 min 0,000 mm 0,0 UV-I 0 W/m 1,0 C -5,1 C 17,7 km/h (3 Bft) 95,65 %
27.12.2017 18:01 1,4 C 4,4 C 98 % 986,7 hPa 0,0 l/m 12,9 km/h (3 Bft) O 90 0 min 0,000 mm 0,0 UV-I 0 W/m 1,1 C -4,0 C 17,7 km/h (3 Bft) 100,00 %
27.12.2017 18:02 1,4 C 4,4 C 98 % 986,6 hPa 0,0 l/m 12,9 km/h (3 Bft) O 90 0 min 0,000 mm 0,0 UV-I 0 W/m 1,1 C -4,0 C 16,1 km/h (3 Bft) 95,65 %
27.12.2017 18:03 1,6 C 4,4 C 98 % 986,6 hPa 0,0 l/m 14,5 km/h (3 Bft) O 90 0 min 0,000 mm 0,0 UV-I 0 W/m 1,3 C -4,8 C 20,9 km/h (4 Bft) 91,30 %
27.12.2017 18:04 1,7 C 4,4 C 98 % 986,6 hPa 0,0 l/m 12,9 km/h (3 Bft) O 90 0 min 0,000 mm 0,0 UV-I 0 W/m 1,4 C -3,6 C 16,1 km/h (3 Bft) 95,65 %
27.12.2017 18:05 1,8 C 4,4 C 98 % 986,6 hPa 0,0 l/m 16,1 km/h (3 Bft) O 90 0 min 0,000 mm 0,0 UV-I 0 W/m 1,5 C -5,4 C 22,5 km/h (4 Bft) 95,65 %
27.12.2017 18:06 1,9 C 4,4 C 98 % 986,5 hPa 0,0 l/m 12,9 km/h (3 Bft) O 90 0 min 0,000 mm 0,0 UV-I 0 W/m 1,6 C -3,4 C 19,3 km/h (3 Bft) 100,00 %
27.12.2017 18:07 1,9 C 4,4 C 98 % 986,5 hPa 0,0 l/m 12,9 km/h (3 Bft) O 90 0 min 0,000 mm 0,0 UV-I 0 W/m 1,6 C -3,4 C 17,7 km/h (3 Bft) 100,00 %
27.12.2017 18:08 2,0 C 4,4 C 98 % 986,5 hPa 0,0 l/m 16,1 km/h (3 Bft) O 90 0 min 0,000 mm 0,0 UV-I 0 W/m 1,7 C -5,2 C 22,5 km/h (4 Bft) 100,00 %
27.12.2017 18:09 2,0 C 4,4 C 98 % 986,5 hPa 0,0 l/m 12,9 km/h (3 Bft) O 90 0 min 0,000 mm 0,0 UV-I 0 W/m 1,7 C -3,3 C 16,1 km/h (3 Bft) 95,65 %
27.12.2017 18:10 2,1 C 4,4 C 98 % 986,5 hPa 0,0 l/m 14,5 km/h (3 Bft) O 90 0 min 0,000 mm 0,0 UV-I 0 W/m 1,8 C -4,2 C 24,1 km/h (4 Bft) 95,65 %
27.12.2017 18:11 2,2 C 4,4 C 98 % 986,6 hPa 0,0 l/m 16,1 km/h (3 Bft) O-SO 112 0 min 0,000 mm 0,0 UV-I 0 W/m 1,9 C -4,9 C 20,9 km/h (4 Bft) 95,65 %
27.12.2017 18:12 2,3 C 4,4 C 98 % 986,5 hPa 0,0 l/m 17,7 km/h (3 Bft) O 90 0 min 0,000 mm 0,0 UV-I 0 W/m 2,0 C -5,6 C 22,5 km/h (4 Bft) 100,00 %
27.12.2017 18:13 2,4 C 4,4 C 98 % 986,5 hPa 0,0 l/m 12,9 km/h (3 Bft) O 90 0 min 0,000 mm 0,0 UV-I 0 W/m 2,1 C -2,8 C 17,7 km/h (3 Bft) 95,65 %
27.12.2017 18:14 2,4 C 4,4 C 98 % 986,5 hPa 0,0 l/m 12,9 km/h (3 Bft) O-SO 112 0 min 0,000 mm 0,0 UV-I 0 W/m 2,1 C -2,8 C 17,7 km/h (3 Bft) 100,00 %
27.12.2017 18:15 2,4 C 4,4 C 98 % 986,5 hPa 0,0 l/m 16,1 km/h (3 Bft) O 90 0 min 0,000 mm 0,0 UV-I 0 W/m 2,1 C -4,7 C 22,5 km/h (4 Bft) 95,65 %
27.12.2017 18:16 2,6 C 4,4 C 98 % 986,5 hPa 0,0 l/m 19,3 km/h (3 Bft) O-SO 112 0 min 0,000 mm 0,0 UV-I 0 W/m 2,3 C -6,0 C 38,6 km/h (5 Bft) 95,65 %
27.12.2017 18:17 2,6 C 4,4 C 98 % 986,5 hPa 0,0 l/m 20,9 km/h (4 Bft) O 90 0 min 0,000 mm 0,0 UV-I 0 W/m 2,3 C -6,7 C 24,1 km/h (4 Bft) 95,65 %
27.12.2017 18:18 2,8 C 4,4 C 98 % 986,5 hPa 0,0 l/m 17,7 km/h (3 Bft) O 90 0 min 0,000 mm 0,0 UV-I 0 W/m 2,5 C -5,0 C 38,6 km/h (5 Bft) 95,65 %
27.12.2017 18:19 2,9 C 4,4 C 98 % 986,5 hPa 0,0 l/m 22,5 km/h (4 Bft) O 90 0 min 0,000 mm 0,0 UV-I 0 W/m 2,6 C -6,9 C 25,7 km/h (4 Bft) 100,00 %
27.12.2017 18:20 2,9 C 4,4 C 98 % 986,5 hPa 0,0 l/m 22,5 km/h (4 Bft) O 90 0 min 0,000 mm 0,0 UV-I 0 W/m 2,6 C -6,9 C 33,8 km/h (5 Bft) 95,65 %
27.12.2017 18:21 3,1 C 4,4 C 98 % 986,4 hPa 0,0 l/m 22,5 km/h (4 Bft) O 90 0 min 0,000 mm 0,0 UV-I 0 W/m 2,8 C -6,6 C 30,6 km/h (5 Bft) 100,00 %
27.12.2017 18:22 3,2 C 4,4 C 98 % 986,4 hPa 0,0 l/m 27,4 km/h (4 Bft) O 90 0 min 0,000 mm 0,0 UV-I 0 W/m 2,9 C -8,2 C 37,0 km/h (5 Bft) 95,65 %
27.12.2017 18:23 3,3 C 4,4 C 98 % 986,4 hPa 0,0 l/m 24,1 km/h (4 Bft) O 90 0 min 0,000 mm 0,0 UV-I 0 W/m 3,0 C -6,9 C 35,4 km/h (5 Bft) 100,00 %
27.12.2017 18:24 3,3 C 4,4 C 98 % 986,4 hPa 0,0 l/m 22,5 km/h (4 Bft) O-SO 112 0 min 0,000 mm 0,0 UV-I 0 W/m 3,0 C -6,4 C 32,2 km/h (5 Bft) 91,30 %
27.12.2017 18:25 3,4 C 4,4 C 98 % 986,4 hPa 0,0 l/m 19,3 km/h (3 Bft) O 90 0 min 0,000 mm 0,0 UV-I 0 W/m 3,1 C -4,9 C 29,0 km/h (5 Bft) 100,00 %
27.12.2017 18:26 3,5 C 4,4 C 98 % 986,5 hPa 0,0 l/m 24,1 km/h (4 Bft) O 90 0 min 0,000 mm 0,0 UV-I 0 W/m 3,2 C -6,7 C 27,4 km/h (4 Bft) 95,65 %
27.12.2017 18:27 3,6 C 4,4 C 98 % 986,4 hPa 0,0 l/m 24,1 km/h (4 Bft) O 90 0 min 0,000 mm 0,0 UV-I 0 W/m 3,3 C -6,5 C 38,6 km/h (5 Bft) 95,65 %
27.12.2017 18:28 3,7 C 4,4 C 98 % 986,4 hPa 0,0 l/m 19,3 km/h (3 Bft) O-SO 112 0 min 0,000 mm 0,0 UV-I 0 W/m 3,4 C -4,6 C 25,7 km/h (4 Bft) 95,65 %
27.12.2017 18:29 3,8 C 4,4 C 98 % 986,4 hPa 0,0 l/m 25,7 km/h (4 Bft) O 90 0 min 0,000 mm 0,0 UV-I 0 W/m 3,5 C -6,8 C 32,2 km/h (5 Bft) 100,00 %
27.12.2017 18:30 3,9 C 4,4 C 98 % 986,4 hPa 0,0 l/m 24,1 km/h (4 Bft) O 90 0 min 0,000 mm 0,0 UV-I 0 W/m 3,6 C -6,1 C 32,2 km/h (5 Bft) 95,65 %
27.12.2017 18:31 4,1 C 4,4 C 98 % 986,5 hPa 0,0 l/m 25,7 km/h (4 Bft) O 90 0 min 0,000 mm 0,0 UV-I 0 W/m 3,8 C -6,4 C 33,8 km/h (5 Bft) 91,30 %
27.12.2017 18:32 4,2 C 4,4 C 98 % 986,5 hPa 0,0 l/m 25,7 km/h (4 Bft) O 90 0 min 0,000 mm 0,0 UV-I 0 W/m 3,9 C -6,3 C 40,2 km/h (6 Bft) 95,65 %
27.12.2017 18:33 4,3 C 4,4 C 98 % 986,5 hPa 0,0 l/m 24,1 km/h (4 Bft) O 90 0 min 0,000 mm 0,0 UV-I 0 W/m 4,0 C -5,6 C 40,2 km/h (6 Bft) 95,65 %
27.12.2017 18:34 4,3 C 4,4 C 98 % 986,5 hPa 0,0 l/m 22,5 km/h (4 Bft) O 90 0 min 0,000 mm 0,0 UV-I 0 W/m 4,0 C -5,0 C 32,2 km/h (5 Bft) 100,00 %
27.12.2017 18:35 4,4 C 4,4 C 98 % 986,5 hPa 0,0 l/m 20,9 km/h (4 Bft) O 90 0 min 0,000 mm 0,0 UV-I 0 W/m 4,1 C -4,3 C 32,2 km/h (5 Bft) 100,00 %
27.12.2017 18:36 4,4 C 4,4 C 98 % 986,5 hPa 0,0 l/m 20,9 km/h (4 Bft) O 90 0 min 0,000 mm 0,0 UV-I 0 W/m 4,1 C -4,3 C 27,4 km/h (4 Bft) 100,00 %
27.12.2017 18:37 4,4 C 4,4 C 98 % 986,5 hPa 0,0 l/m 19,3 km/h (3 Bft) O-SO 112 0 min 0,000 mm 0,0 UV-I 0 W/m 4,1 C -3,7 C 24,1 km/h (4 Bft) 100,00 %
27.12.2017 18:38 4,4 C 4,4 C 97 % 986,4 hPa 0,0 l/m 19,3 km/h (3 Bft) O 90 0 min 0,000 mm 0,0 UV-I 0 W/m 4,0 C -3,7 C 24,1 km/h (4 Bft) 95,65 %
27.12.2017 18:39 4,4 C 4,4 C 97 % 986,4 hPa 0,0 l/m 16,1 km/h (3 Bft) O 90 0 min 0,000 mm 0,0 UV-I 0 W/m 4,0 C -2,2 C 20,9 km/h (4 Bft) 100,00 %
27.12.2017 18:40 4,5 C 4,4 C 97 % 986,3 hPa 0,0 l/m 19,3 km/h (3 Bft) O 90 0 min 0,000 mm 0,0 UV-I 0 W/m 4,1 C -3,5 C 25,7 km/h (4 Bft) 100,00 %
27.12.2017 18:41 4,6 C 4,4 C 97 % 986,4 hPa 0,0 l/m 17,7 km/h (3 Bft) O 90 0 min 0,000 mm 0,0 UV-I 0 W/m 4,2 C -2,7 C 25,7 km/h (4 Bft) 100,00 %
27.12.2017 18:42 4,6 C 4,4 C 97 % 986,3 hPa 0,0 l/m 17,7 km/h (3 Bft) O 90 0 min 0,000 mm 0,0 UV-I 0 W/m 4,2 C -2,7 C 27,4 km/h (4 Bft) 100,00 %
27.12.2017 18:43 4,6 C 4,4 C 97 % 986,2 hPa 0,0 l/m 17,7 km/h (3 Bft) O 90 0 min 0,000 mm 0,0 UV-I 0 W/m 4,2 C -2,7 C 20,9 km/h (4 Bft) 100,00 %
27.12.2017 18:44 4,6 C 4,4 C 97 % 986,2 hPa 0,0 l/m 19,3 km/h (3 Bft) O 90 0 min 0,000 mm 0,0 UV-I 0 W/m 4,2 C -3,4 C 22,5 km/h (4 Bft) 100,00 %
27.12.2017 18:45 4,7 C 4,4 C 97 % 986,2 hPa 0,0 l/m 20,9 km/h (4 Bft) O 90 0 min 0,000 mm 0,0 UV-I 0 W/m 4,3 C -3,9 C 25,7 km/h (4 Bft) 95,65 %
27.12.2017 18:46 4,7 C 4,4 C 97 % 986,2 hPa 0,0 l/m 17,7 km/h (3 Bft) O 90 0 min 0,000 mm 0,0 UV-I 0 W/m 4,3 C -2,6 C 25,7 km/h (4 Bft) 100,00 %
27.12.2017 18:47 4,7 C 4,4 C 97 % 986,1 hPa 0,0 l/m 17,7 km/h (3 Bft) O 90 0 min 0,000 mm 0,0 UV-I 0 W/m 4,3 C -2,6 C 22,5 km/h (4 Bft) 100,00 %
27.12.2017 18:48 4,8 C 4,4 C 96 % 986,1 hPa 0,0 l/m 20,9 km/h (4 Bft) O 90 0 min 0,000 mm 0,0 UV-I 0 W/m 4,2 C -3,8 C 27,4 km/h (4 Bft) 100,00 %
27.12.2017 18:49 4,8 C 4,4 C 96 % 986,1 hPa 0,0 l/m 17,7 km/h (3 Bft) O-SO 112 0 min 0,000 mm 0,0 UV-I 0 W/m 4,2 C -2,5 C 25,7 km/h (4 Bft) 100,00 %
27.12.2017 18:50 4,9 C 4,4 C 96 % 986,1 hPa 0,0 l/m 20,9 km/h (4 Bft) O 90 0 min 0,000 mm 0,0 UV-I 0 W/m 4,3 C -3,7 C 27,4 km/h (4 Bft) 100,00 %
27.12.2017 18:51 5,0 C 4,4 C 96 % 986,1 hPa 0,0 l/m 17,7 km/h (3 Bft) O 90 0 min 0,000 mm 0,0 UV-I 0 W/m 4,4 C -2,2 C 27,4 km/h (4 Bft) 100,00 %
27.12.2017 18:52 5,1 C 4,4 C 96 % 986,1 hPa 0,0 l/m 16,1 km/h (3 Bft) O 90 0 min 0,000 mm 0,0 UV-I 0 W/m 4,5 C -1,3 C 24,1 km/h (4 Bft) 91,30 %
27.12.2017 18:53 5,1 C 4,4 C 96 % 986,1 hPa 0,0 l/m 14,5 km/h (3 Bft) O 90 0 min 0,000 mm 0,0 UV-I 0 W/m 4,5 C -0,5 C 20,9 km/h (4 Bft) 100,00 %
27.12.2017 18:54 5,2 C 4,4 C 96 % 986,0 hPa 0,0 l/m 16,1 km/h (3 Bft) O 90 0 min 0,000 mm 0,0 UV-I 0 W/m 4,6 C -1,2 C 25,7 km/h (4 Bft) 91,30 %
27.12.2017 18:55 5,2 C 4,4 C 95 % 986,1 hPa 0,0 l/m 17,7 km/h (3 Bft) O 90 0 min 0,000 mm 0,0 UV-I 0 W/m 4,5 C -2,0 C 20,9 km/h (4 Bft) 100,00 %
27.12.2017 18:56 5,3 C 4,4 C 95 % 986,0 hPa 0,0 l/m 9,7 km/h (2 Bft) O 90 0 min 0,000 mm 0,0 UV-I 0 W/m 4,6 C 2,6 C 16,1 km/h (3 Bft) 100,00 %
27.12.2017 18:57 5,3 C 4,4 C 95 % 986,1 hPa 0,0 l/m 16,1 km/h (3 Bft) O 90 0 min 0,000 mm 0,0 UV-I 0 W/m 4,6 C -1,1 C 20,9 km/h (4 Bft) 95,65 %
27.12.2017 18:58 5,3 C 4,4 C 94 % 986,0 hPa 0,0 l/m 9,7 km/h (2 Bft) O-NO 67 0 min 0,000 mm 0,0 UV-I 0 W/m 4,4 C 2,6 C 12,9 km/h (3 Bft) 100,00 %
27.12.2017 18:59 5,3 C 4,4 C 94 % 986,0 hPa 0,0 l/m 14,5 km/h (3 Bft) O 90 0 min 0,000 mm 0,0 UV-I 0 W/m 4,4 C -0,3 C 19,3 km/h (3 Bft) 95,65 %
27.12.2017 19:00 5,3 C 4,4 C 94 % 986,0 hPa 0,0 l/m 12,9 km/h (3 Bft) O 90 0 min 0,000 mm 0,0 UV-I 0 W/m 4,4 C 0,6 C 17,7 km/h (3 Bft) 100,00 %
27.12.2017 19:01 5,3 C 4,4 C 93 % 986,0 hPa 0,0 l/m 14,5 km/h (3 Bft) O 90 0 min 0,000 mm 0,0 UV-I 0 W/m 4,3 C -0,3 C 20,9 km/h (4 Bft) 100,00 %
27.12.2017 19:02 5,4 C 4,4 C 93 % 986,0 hPa 0,0 l/m 14,5 km/h (3 Bft) O 90 0 min 0,000 mm 0,0 UV-I 0 W/m 4,4 C -0,2 C 20,9 km/h (4 Bft) 95,65 %
27.12.2017 19:03 5,4 C 4,4 C 92 % 986,0 hPa 0,0 l/m 12,9 km/h (3 Bft) O 90 0 min 0,000 mm 0,0 UV-I 0 W/m 4,2 C 0,7 C 16,1 km/h (3 Bft) 100,00 %
27.12.2017 19:04 5,5 C 4,4 C 91 % 986,0 hPa 0,0 l/m 14,5 km/h (3 Bft) O-SO 112 0 min 0,000 mm 0,0 UV-I 0 W/m 4,2 C -0,1 C 17,7 km/h (3 Bft) 100,00 %
27.12.2017 19:05 5,6 C 4,4 C 91 % 985,9 hPa 0,0 l/m 12,9 km/h (3 Bft) O 90 0 min 0,000 mm 0,0 UV-I 0 W/m 4,2 C 0,9 C 16,1 km/h (3 Bft) 100,00 %
27.12.2017 19:06 5,6 C 4,4 C 90 % 985,9 hPa 0,0 l/m 14,5 km/h (3 Bft) O-SO 112 0 min 0,000 mm 0,0 UV-I 0 W/m 4,1 C 0,1 C 19,3 km/h (3 Bft) 91,30 %
27.12.2017 19:07 5,7 C 4,4 C 89 % 985,9 hPa 0,0 l/m 14,5 km/h (3 Bft) O 90 0 min 0,000 mm 0,0 UV-I 0 W/m 4,0 C 0,2 C 20,9 km/h (4 Bft) 100,00 %
27.12.2017 19:08 5,8 C 4,4 C 89 % 985,9 hPa 0,0 l/m 14,5 km/h (3 Bft) O 90 0 min 0,000 mm 0,0 UV-I 0 W/m 4,1 C 0,3 C 20,9 km/h (4 Bft) 100,00 %
27.12.2017 19:09 5,9 C 4,4 C 88 % 985,9 hPa 0,0 l/m 14,5 km/h (3 Bft) O 90 0 min 0,000 mm 0,0 UV-I 0 W/m 4,1 C 0,4 C 22,5 km/h (4 Bft) 100,00 %
27.12.2017 19:10 5,9 C 4,4 C 88 % 985,8 hPa 0,0 l/m 16,1 km/h (3 Bft) O-SO 112 0 min 0,000 mm 0,0 UV-I 0 W/m 4,1 C -0,4 C 22,5 km/h (4 Bft) 100,00 %
27.12.2017 19:11 6,0 C 4,4 C 87 % 985,9 hPa 0,0 l/m 17,7 km/h (3 Bft) O 90 0 min 0,000 mm 0,0 UV-I 0 W/m 4,0 C -1,0 C 20,9 km/h (4 Bft) 100,00 %
27.12.2017 19:12 6,1 C 4,4 C 86 % 985,8 hPa 0,0 l/m 14,5 km/h (3 Bft) O 90 0 min 0,000 mm 0,0 UV-I 0 W/m 3,9 C 0,7 C 17,7 km/h (3 Bft) 100,00 %
27.12.2017 19:13 6,2 C 4,4 C 86 % 985,8 hPa 0,0 l/m 19,3 km/h (3 Bft) O 90 0 min 0,000 mm 0,0 UV-I 0 W/m 4,0 C -1,4 C 24,1 km/h (4 Bft) 91,30 %
27.12.2017 19:14 6,2 C 4,4 C 85 % 985,9 hPa 0,0 l/m 14,5 km/h (3 Bft) O-SO 112 0 min 0,000 mm 0,0 UV-I 0 W/m 3,9 C 0,8 C 19,3 km/h (3 Bft) 100,00 %
27.12.2017 19:15 6,3 C 4,4 C 85 % 985,8 hPa 0,0 l/m 12,9 km/h (3 Bft) O 90 0 min 0,000 mm 0,0 UV-I 0 W/m 4,0 C 1,7 C 16,1 km/h (3 Bft) 95,65 %
27.12.2017 19:16 6,3 C 4,4 C 85 % 985,8 hPa 0,0 l/m 17,7 km/h (3 Bft) O 90 0 min 0,000 mm 0,0 UV-I 0 W/m 4,0 C -0,6 C 24,1 km/h (4 Bft) 100,00 %
27.12.2017 19:17 6,4 C 4,4 C 84 % 985,8 hPa 0,0 l/m 19,3 km/h (3 Bft) O-SO 112 0 min 0,000 mm 0,0 UV-I 0 W/m 3,9 C -1,1 C 25,7 km/h (4 Bft) 100,00 %
27.12.2017 19:18 6,6 C 4,4 C 84 % 985,8 hPa 0,0 l/m 16,1 km/h (3 Bft) O 90 0 min 0,000 mm 0,0 UV-I 0 W/m 4,1 C 0,5 C 20,9 km/h (4 Bft) 100,00 %
27.12.2017 19:19 6,6 C 4,4 C 83 % 985,8 hPa 0,0 l/m 12,9 km/h (3 Bft) O 90 0 min 0,000 mm 0,0 UV-I 0 W/m 3,9 C 2,1 C 16,1 km/h (3 Bft) 95,65 %
27.12.2017 19:20 6,6 C 4,4 C 83 % 985,7 hPa 0,0 l/m 14,5 km/h (3 Bft) O 90 0 min 0,000 mm 0,0 UV-I 0 W/m 3,9 C 1,3 C 19,3 km/h (3 Bft) 95,65 %
27.12.2017 19:21 6,6 C 4,4 C 83 % 985,8 hPa 0,0 l/m 16,1 km/h (3 Bft) O 90 0 min 0,000 mm 0,0 UV-I 0 W/m 3,9 C 0,5 C 20,9 km/h (4 Bft) 95,65 %
27.12.2017 19:22 6,6 C 4,4 C 83 % 985,8 hPa 0,0 l/m 16,1 km/h (3 Bft) O 90 0 min 0,000 mm 0,0 UV-I 0 W/m 3,9 C 0,5 C 20,9 km/h (4 Bft) 100,00 %
27.12.2017 19:23 6,6 C 4,4 C 83 % 985,7 hPa 0,0 l/m 14,5 km/h (3 Bft) O 90 0 min 0,000 mm 0,0 UV-I 0 W/m 3,9 C 1,3 C 17,7 km/h (3 Bft) 100,00 %
27.12.2017 19:24 6,7 C 4,4 C 82 % 985,8 hPa 0,0 l/m 14,5 km/h (3 Bft) O 90 0 min 0,000 mm 0,0 UV-I 0 W/m 3,8 C 1,4 C 22,5 km/h (4 Bft) 100,00 %
27.12.2017 19:25 6,6 C 4,4 C 82 % 985,8 hPa 0,0 l/m 16,1 km/h (3 Bft) O 90 0 min 0,000 mm 0,0 UV-I 0 W/m 3,8 C 0,5 C 20,9 km/h (4 Bft) 95,65 %
27.12.2017 19:26 6,6 C 4,4 C 82 % 985,8 hPa 0,0 l/m 14,5 km/h (3 Bft) O 90 0 min 0,000 mm 0,0 UV-I 0 W/m 3,8 C 1,3 C 20,9 km/h (4 Bft) 100,00 %
27.12.2017 19:27 6,6 C 4,4 C 82 % 985,8 hPa 0,0 l/m 14,5 km/h (3 Bft) O-SO 112 0 min 0,000 mm 0,0 UV-I 0 W/m 3,8 C 1,3 C 22,5 km/h (4 Bft) 95,65 %
27.12.2017 19:28 6,6 C 4,4 C 82 % 985,8 hPa 0,0 l/m 12,9 km/h (3 Bft) O-SO 112 0 min 0,000 mm 0,0 UV-I 0 W/m 3,8 C 2,1 C 16,1 km/h (3 Bft) 100,00 %
27.12.2017 19:29 6,7 C 4,4 C 82 % 985,8 hPa 0,0 l/m 14,5 km/h (3 Bft) O 90 0 min 0,000 mm 0,0 UV-I 0 W/m 3,8 C 1,4 C 20,9 km/h (4 Bft) 100,00 %
27.12.2017 19:30 6,8 C 4,4 C 81 % 985,8 hPa 0,0 l/m 12,9 km/h (3 Bft) O 90 0 min 0,000 mm 0,0 UV-I 0 W/m 3,8 C 2,3 C 17,7 km/h (3 Bft) 100,00 %
27.12.2017 19:31 6,9 C 4,4 C 81 % 985,7 hPa 0,0 l/m 19,3 km/h (3 Bft) O 90 0 min 0,000 mm 0,0 UV-I 0 W/m 3,9 C -0,5 C 27,4 km/h (4 Bft) 100,00 %
27.12.2017 19:32 7,0 C 4,4 C 80 % 985,7 hPa 0,0 l/m 16,1 km/h (3 Bft) O 90 0 min 0,000 mm 0,0 UV-I 0 W/m 3,8 C 1,0 C 24,1 km/h (4 Bft) 100,00 %
27.12.2017 19:33 7,1 C 4,4 C 80 % 985,8 hPa 0,0 l/m 14,5 km/h (3 Bft) O 90 0 min 0,000 mm 0,0 UV-I 0 W/m 3,9 C 1,9 C 19,3 km/h (3 Bft) 100,00 %
27.12.2017 19:34 7,1 C 4,4 C 80 % 985,7 hPa 0,0 l/m 14,5 km/h (3 Bft) O 90 0 min 0,000 mm 0,0 UV-I 0 W/m 3,9 C 1,9 C 16,1 km/h (3 Bft) 91,30 %
27.12.2017 19:35 7,1 C 4,4 C 80 % 985,7 hPa 0,0 l/m 14,5 km/h (3 Bft) O-NO 67 0 min 0,000 mm 0,0 UV-I 0 W/m 3,9 C 1,9 C 20,9 km/h (4 Bft) 100,00 %
27.12.2017 19:36 7,1 C 4,4 C 80 % 985,7 hPa 0,0 l/m 14,5 km/h (3 Bft) O-SO 112 0 min 0,000 mm 0,0 UV-I 0 W/m 3,9 C 1,9 C 17,7 km/h (3 Bft) 100,00 %
27.12.2017 19:37 7,1 C 4,4 C 79 % 985,7 hPa 0,0 l/m 12,9 km/h (3 Bft) O 90 0 min 0,000 mm 0,0 UV-I 0 W/m 3,7 C 2,7 C 16,1 km/h (3 Bft) 100,00 %
27.12.2017 19:38 7,0 C 4,4 C 80 % 985,7 hPa 0,0 l/m 14,5 km/h (3 Bft) O 90 0 min 0,000 mm 0,0 UV-I 0 W/m 3,8 C 1,7 C 22,5 km/h (4 Bft) 95,65 %
27.12.2017 19:39 6,9 C 4,4 C 80 % 985,7 hPa 0,0 l/m 12,9 km/h (3 Bft) O 90 0 min 0,000 mm 0,0 UV-I 0 W/m 3,7 C 2,4 C 16,1 km/h (3 Bft) 95,65 %
27.12.2017 19:40 6,8 C 4,4 C 80 % 985,7 hPa 0,0 l/m 14,5 km/h (3 Bft) O 90 0 min 0,000 mm 0,0 UV-I 0 W/m 3,6 C 1,5 C 22,5 km/h (4 Bft) 91,30 %
27.12.2017 19:41 6,8 C 4,4 C 80 % 985,7 hPa 0,0 l/m 11,3 km/h (2 Bft) O 90 0 min 0,000 mm 0,0 UV-I 0 W/m 3,6 C 3,2 C 16,1 km/h (3 Bft) 95,65 %
27.12.2017 19:42 6,8 C 4,4 C 80 % 985,7 hPa 0,0 l/m 16,1 km/h (3 Bft) O 90 0 min 0,000 mm 0,0 UV-I 0 W/m 3,6 C 0,7 C 20,9 km/h (4 Bft) 95,65 %
27.12.2017 19:43 6,8 C 4,4 C 80 % 985,7 hPa 0,0 l/m 17,7 km/h (3 Bft) O 90 0 min 0,000 mm 0,0 UV-I 0 W/m 3,6 C 0,1 C 22,5 km/h (4 Bft) 100,00 %
27.12.2017 19:44 6,8 C 4,4 C 80 % 985,7 hPa 0,0 l/m 16,1 km/h (3 Bft) O 90 0 min 0,000 mm 0,0 UV-I 0 W/m 3,6 C 0,7 C 24,1 km/h (4 Bft) 95,65 %
27.12.2017 19:45 6,8 C 4,4 C 80 % 985,7 hPa 0,0 l/m 11,3 km/h (2 Bft) O 90 0 min 0,000 mm 0,0 UV-I 0 W/m 3,6 C 3,2 C 14,5 km/h (3 Bft) 100,00 %
27.12.2017 19:46 6,8 C 4,4 C 80 % 985,7 hPa 0,0 l/m 16,1 km/h (3 Bft) O-SO 112 0 min 0,000 mm 0,0 UV-I 0 W/m 3,6 C 0,7 C 22,5 km/h (4 Bft) 95,65 %
27.12.2017 19:47 6,8 C 4,4 C 80 % 985,7 hPa 0,0 l/m 14,5 km/h (3 Bft) O-NO 67 0 min 0,000 mm 0,0 UV-I 0 W/m 3,6 C 1,5 C 22,5 km/h (4 Bft) 95,65 %
27.12.2017 19:48 6,7 C 4,4 C 80 % 985,7 hPa 0,0 l/m 12,9 km/h (3 Bft) O-SO 112 0 min 0,000 mm 0,0 UV-I 0 W/m 3,5 C 2,2 C 16,1 km/h (3 Bft) 95,65 %
27.12.2017 19:49 6,8 C 4,4 C 79 % 985,7 hPa 0,0 l/m 16,1 km/h (3 Bft) O 90 0 min 0,000 mm 0,0 UV-I 0 W/m 3,4 C 0,7 C 22,5 km/h (4 Bft) 95,65 %
27.12.2017 19:50 6,8 C 4,4 C 79 % 985,6 hPa 0,0 l/m 12,9 km/h (3 Bft) O 90 0 min 0,000 mm 0,0 UV-I 0 W/m 3,4 C 2,3 C 17,7 km/h (3 Bft) 100,00 %
27.12.2017 19:51 6,9 C 4,4 C 79 % 985,7 hPa 0,0 l/m 16,1 km/h (3 Bft) O-SO 112 0 min 0,000 mm 0,0 UV-I 0 W/m 3,5 C 0,9 C 20,9 km/h (4 Bft) 91,30 %
27.12.2017 19:52 6,9 C 4,4 C 78 % 985,6 hPa 0,0 l/m 12,9 km/h (3 Bft) O 90 0 min 0,000 mm 0,0 UV-I 0 W/m 3,3 C 2,4 C 16,1 km/h (3 Bft) 95,65 %
27.12.2017 19:53 6,9 C 4,4 C 78 % 985,7 hPa 0,0 l/m 14,5 km/h (3 Bft) O 90 0 min 0,000 mm 0,0 UV-I 0 W/m 3,3 C 1,6 C 20,9 km/h (4 Bft) 95,65 %
27.12.2017 19:54 7,0 C 4,4 C 78 % 985,7 hPa 0,0 l/m 12,9 km/h (3 Bft) O 90 0 min 0,000 mm 0,0 UV-I 0 W/m 3,4 C 2,6 C 19,3 km/h (3 Bft) 91,30 %
27.12.2017 19:55 7,0 C 4,4 C 78 % 985,7 hPa 0,0 l/m 12,9 km/h (3 Bft) O-SO 112 0 min 0,000 mm 0,0 UV-I 0 W/m 3,4 C 2,6 C 20,9 km/h (4 Bft) 91,30 %
27.12.2017 19:56 7,0 C 4,4 C 78 % 985,7 hPa 0,0 l/m 16,1 km/h (3 Bft) O 90 0 min 0,000 mm 0,0 UV-I 0 W/m 3,4 C 1,0 C 20,9 km/h (4 Bft) 91,30 %
27.12.2017 19:57 7,0 C 4,4 C 78 % 985,7 hPa 0,0 l/m 16,1 km/h (3 Bft) O 90 0 min 0,000 mm 0,0 UV-I 0 W/m 3,4 C 1,0 C 24,1 km/h (4 Bft) 100,00 %
27.12.2017 19:58 7,0 C 4,4 C 77 % 985,7 hPa 0,0 l/m 12,9 km/h (3 Bft) O-SO 112 0 min 0,000 mm 0,0 UV-I 0 W/m 3,2 C 2,6 C 19,3 km/h (3 Bft) 91,30 %
27.12.2017 19:59 7,0 C 4,4 C 77 % 985,7 hPa 0,0 l/m 12,9 km/h (3 Bft) O 90 0 min 0,000 mm 0,0 UV-I 0 W/m 3,2 C 2,6 C 16,1 km/h (3 Bft) 100,00 %
27.12.2017 20:00 7,1 C 4,4 C 77 % 985,7 hPa 0,0 l/m 17,7 km/h (3 Bft) O-SO 112 0 min 0,025 mm 0,0 UV-I 0 W/m 3,3 C 0,4 C 29,0 km/h (5 Bft) 91,30 %
27.12.2017 20:01 7,1 C 4,4 C 77 % 985,7 hPa 0,0 l/m 16,1 km/h (3 Bft) O 90 0 min 0,000 mm 0,0 UV-I 0 W/m 3,3 C 1,1 C 20,9 km/h (4 Bft) 100,00 %
27.12.2017 20:02 7,1 C 4,4 C 77 % 985,6 hPa 0,0 l/m 12,9 km/h (3 Bft) O 90 0 min 0,000 mm 0,0 UV-I 0 W/m 3,3 C 2,7 C 19,3 km/h (3 Bft) 86,96 %
27.12.2017 20:03 7,0 C 4,4 C 77 % 985,6 hPa 0,0 l/m 9,7 km/h (2 Bft) O 90 0 min 0,000 mm 0,0 UV-I 0 W/m 3,2 C 4,5 C 14,5 km/h (3 Bft) 95,65 %
27.12.2017 20:04 6,9 C 4,4 C 77 % 985,6 hPa 0,0 l/m 14,5 km/h (3 Bft) O 90 0 min 0,000 mm 0,0 UV-I 0 W/m 3,2 C 1,6 C 20,9 km/h (4 Bft) 86,96 %
27.12.2017 20:05 6,9 C 4,4 C 77 % 985,7 hPa 0,0 l/m 17,7 km/h (3 Bft) O-SO 112 0 min 0,000 mm 0,0 UV-I 0 W/m 3,2 C 0,2 C 25,7 km/h (4 Bft) 95,65 %
27.12.2017 20:06 6,9 C 4,4 C 77 % 985,6 hPa 0,0 l/m 19,3 km/h (3 Bft) O 90 0 min 0,000 mm 0,0 UV-I 0 W/m 3,2 C -0,5 C 24,1 km/h (4 Bft) 95,65 %
27.12.2017 20:07 6,9 C 4,4 C 78 % 985,6 hPa 0,0 l/m 17,7 km/h (3 Bft) O 90 0 min 0,000 mm 0,0 UV-I 0 W/m 3,3 C 0,2 C 22,5 km/h (4 Bft) 95,65 %
27.12.2017 20:08 6,9 C 4,4 C 78 % 985,6 hPa 0,0 l/m 14,5 km/h (3 Bft) O 90 0 min 0,000 mm 0,0 UV-I 0 W/m 3,3 C 1,6 C 17,7 km/h (3 Bft) 95,65 %
27.12.2017 20:09 6,8 C 4,4 C 77 % 985,6 hPa 0,0 l/m 14,5 km/h (3 Bft) O-NO 67 0 min 0,000 mm 0,0 UV-I 0 W/m 3,1 C 1,5 C 19,3 km/h (3 Bft) 86,96 %
27.12.2017 20:10 6,8 C 4,4 C 77 % 985,6 hPa 0,0 l/m 17,7 km/h (3 Bft) O 90 0 min 0,000 mm 0,0 UV-I 0 W/m 3,1 C 0,1 C 24,1 km/h (4 Bft) 95,65 %
27.12.2017 20:11 6,8 C 4,4 C 77 % 985,6 hPa 0,0 l/m 14,5 km/h (3 Bft) O-NO 67 0 min 0,000 mm 0,0 UV-I 0 W/m 3,1 C 1,5 C 19,3 km/h (3 Bft) 86,96 %
27.12.2017 20:12 6,8 C 4,4 C 77 % 985,6 hPa 0,0 l/m 12,9 km/h (3 Bft) O 90 0 min 0,000 mm 0,0 UV-I 0 W/m 3,1 C 2,3 C 17,7 km/h (3 Bft) 100,00 %
27.12.2017 20:13 6,8 C 4,4 C 77 % 985,6 hPa 0,0 l/m 16,1 km/h (3 Bft) O-SO 112 0 min 0,000 mm 0,0 UV-I 0 W/m 3,1 C 0,7 C 20,9 km/h (4 Bft) 91,30 %
27.12.2017 20:14 6,8 C 4,4 C 77 % 985,6 hPa 0,0 l/m 16,1 km/h (3 Bft) O 90 0 min 0,000 mm 0,0 UV-I 0 W/m 3,1 C 0,7 C 24,1 km/h (4 Bft) 95,65 %
27.12.2017 20:15 6,8 C 4,4 C 77 % 985,6 hPa 0,0 l/m 16,1 km/h (3 Bft) O 90 0 min 0,000 mm 0,0 UV-I 0 W/m 3,1 C 0,7 C 17,7 km/h (3 Bft) 95,65 %
27.12.2017 20:16 6,8 C 4,4 C 77 % 985,6 hPa 0,0 l/m 12,9 km/h (3 Bft) O 90 0 min 0,000 mm 0,0 UV-I 0 W/m 3,1 C 2,3 C 17,7 km/h (3 Bft) 91,30 %
27.12.2017 20:17 6,8 C 4,4 C 77 % 985,6 hPa 0,0 l/m 12,9 km/h (3 Bft) O 90 0 min 0,000 mm 0,0 UV-I 0 W/m 3,1 C 2,3 C 17,7 km/h (3 Bft) 100,00 %
27.12.2017 20:18 6,8 C 4,4 C 77 % 985,6 hPa 0,0 l/m 16,1 km/h (3 Bft) O 90 0 min 0,000 mm 0,0 UV-I 0 W/m 3,1 C 0,7 C 20,9 km/h (4 Bft) 95,65 %
27.12.2017 20:19 6,8 C 4,4 C 77 % 985,6 hPa 0,0 l/m 16,1 km/h (3 Bft) O 90 0 min 0,000 mm 0,0 UV-I 0 W/m 3,1 C 0,7 C 22,5 km/h (4 Bft) 100,00 %
27.12.2017 20:20 6,8 C 4,4 C 77 % 985,6 hPa 0,0 l/m 14,5 km/h (3 Bft) O 90 0 min 0,000 mm 0,0 UV-I 0 W/m 3,1 C 1,5 C 22,5 km/h (4 Bft) 91,30 %
27.12.2017 20:21 6,8 C 4,4 C 77 % 985,6 hPa 0,0 l/m 14,5 km/h (3 Bft) O 90 0 min 0,000 mm 0,0 UV-I 0 W/m 3,1 C 1,5 C 17,7 km/h (3 Bft) 100,00 %
27.12.2017 20:22 6,8 C 4,4 C 77 % 985,5 hPa 0,0 l/m 14,5 km/h (3 Bft) O 90 0 min 0,000 mm 0,0 UV-I 0 W/m 3,1 C 1,5 C 20,9 km/h (4 Bft) 95,65 %
27.12.2017 20:23 6,8 C 4,4 C 77 % 985,5 hPa 0,0 l/m 14,5 km/h (3 Bft) O-SO 112 0 min 0,000 mm 0,0 UV-I 0 W/m 3,1 C 1,5 C 19,3 km/h (3 Bft) 86,96 %
27.12.2017 20:24 6,8 C 4,4 C 77 % 985,5 hPa 0,0 l/m 12,9 km/h (3 Bft) O 90 0 min 0,000 mm 0,0 UV-I 0 W/m 3,1 C 2,3 C 17,7 km/h (3 Bft) 100,00 %
27.12.2017 20:25 6,8 C 4,4 C 77 % 985,5 hPa 0,0 l/m 11,3 km/h (2 Bft) O 90 0 min 0,000 mm 0,0 UV-I 0 W/m 3,1 C 3,2 C 14,5 km/h (3 Bft) 100,00 %
27.12.2017 20:26 6,8 C 4,4 C 77 % 985,5 hPa 0,0 l/m 12,9 km/h (3 Bft) O 90 0 min 0,000 mm 0,0 UV-I 0 W/m 3,1 C 2,3 C 17,7 km/h (3 Bft) 95,65 %
27.12.2017 20:27 6,8 C 4,4 C 77 % 985,5 hPa 0,0 l/m 11,3 km/h (2 Bft) O 90 0 min 0,000 mm 0,0 UV-I 0 W/m 3,1 C 3,2 C 16,1 km/h (3 Bft) 100,00 %
27.12.2017 20:28 6,8 C 4,4 C 77 % 985,5 hPa 0,0 l/m 14,5 km/h (3 Bft) O-NO 67 0 min 0,000 mm 0,0 UV-I 0 W/m 3,1 C 1,5 C 17,7 km/h (3 Bft) 100,00 %
27.12.2017 20:29 6,8 C 4,4 C 78 % 985,4 hPa 0,0 l/m 16,1 km/h (3 Bft) O 90 0 min 0,000 mm 0,0 UV-I 0 W/m 3,2 C 0,7 C 20,9 km/h (4 Bft) 100,00 %
27.12.2017 20:30 6,8 C 4,4 C 78 % 985,5 hPa 0,0 l/m 16,1 km/h (3 Bft) O 90 0 min 0,000 mm 0,0 UV-I 0 W/m 3,2 C 0,7 C 20,9 km/h (4 Bft) 95,65 %
27.12.2017 20:31 6,8 C 4,4 C 78 % 985,4 hPa 0,0 l/m 14,5 km/h (3 Bft) O 90 0 min 0,000 mm 0,0 UV-I 0 W/m 3,2 C 1,5 C 17,7 km/h (3 Bft) 100,00 %
27.12.2017 20:32 6,8 C 4,4 C 78 % 985,4 hPa 0,0 l/m 14,5 km/h (3 Bft) O-SO 112 0 min 0,000 mm 0,0 UV-I 0 W/m 3,2 C 1,5 C 19,3 km/h (3 Bft) 100,00 %
27.12.2017 20:33 6,8 C 4,4 C 77 % 985,4 hPa 0,0 l/m 14,5 km/h (3 Bft) O 90 0 min 0,000 mm 0,0 UV-I 0 W/m 3,1 C 1,5 C 20,9 km/h (4 Bft) 100,00 %
27.12.2017 20:34 6,9 C 4,4 C 77 % 985,3 hPa 0,0 l/m 17,7 km/h (3 Bft) O 90 0 min 0,000 mm 0,0 UV-I 0 W/m 3,2 C 0,2 C 25,7 km/h (4 Bft) 100,00 %
27.12.2017 20:35 6,9 C 4,4 C 77 % 985,4 hPa 0,0 l/m 16,1 km/h (3 Bft) O 90 0 min 0,000 mm 0,0 UV-I 0 W/m 3,2 C 0,9 C 20,9 km/h (4 Bft) 95,65 %
27.12.2017 20:36 6,9 C 4,4 C 77 % 985,3 hPa 0,0 l/m 16,1 km/h (3 Bft) O-NO 67 0 min 0,000 mm 0,0 UV-I 0 W/m 3,2 C 0,9 C 19,3 km/h (3 Bft) 100,00 %
27.12.2017 20:37 7,0 C 4,4 C 77 % 985,3 hPa 0,0 l/m 12,9 km/h (3 Bft) O-NO 67 0 min 0,000 mm 0,0 UV-I 0 W/m 3,2 C 2,6 C 16,1 km/h (3 Bft) 95,65 %
27.12.2017 20:38 7,0 C 4,4 C 77 % 985,3 hPa 0,0 l/m 12,9 km/h (3 Bft) O 90 0 min 0,000 mm 0,0 UV-I 0 W/m 3,2 C 2,6 C 20,9 km/h (4 Bft) 100,00 %
27.12.2017 20:39 6,9 C 4,4 C 77 % 985,3 hPa 0,0 l/m 14,5 km/h (3 Bft) O 90 0 min 0,000 mm 0,0 UV-I 0 W/m 3,2 C 1,6 C 24,1 km/h (4 Bft) 100,00 %
27.12.2017 20:40 6,9 C 4,4 C 77 % 985,4 hPa 0,0 l/m 14,5 km/h (3 Bft) O-SO 112 0 min 0,000 mm 0,0 UV-I 0 W/m 3,2 C 1,6 C 17,7 km/h (3 Bft) 100,00 %
27.12.2017 20:41 6,9 C 4,4 C 77 % 985,3 hPa 0,0 l/m 11,3 km/h (2 Bft) O 90 0 min 0,000 mm 0,0 UV-I 0 W/m 3,2 C 3,4 C 16,1 km/h (3 Bft) 100,00 %
27.12.2017 20:42 6,9 C 4,4 C 77 % 985,3 hPa 0,0 l/m 14,5 km/h (3 Bft) O 90 0 min 0,000 mm 0,0 UV-I 0 W/m 3,2 C 1,6 C 20,9 km/h (4 Bft) 100,00 %
27.12.2017 20:43 6,9 C 4,4 C 77 % 985,3 hPa 0,0 l/m 12,9 km/h (3 Bft) O-NO 67 0 min 0,000 mm 0,0 UV-I 0 W/m 3,2 C 2,4 C 19,3 km/h (3 Bft) 95,65 %
27.12.2017 20:44 6,9 C 4,4 C 77 % 985,3 hPa 0,0 l/m 12,9 km/h (3 Bft) O 90 0 min 0,000 mm 0,0 UV-I 0 W/m 3,2 C 2,4 C 17,7 km/h (3 Bft) 95,65 %
27.12.2017 20:45 6,9 C 4,4 C 77 % 985,3 hPa 0,0 l/m 9,7 km/h (2 Bft) O 90 0 min 0,000 mm 0,0 UV-I 0 W/m 3,2 C 4,4 C 17,7 km/h (3 Bft) 100,00 %
27.12.2017 20:46 6,8 C 4,4 C 77 % 985,3 hPa 0,0 l/m 9,7 km/h (2 Bft) O 90 0 min 0,000 mm 0,0 UV-I 0 W/m 3,1 C 4,3 C 12,9 km/h (3 Bft) 100,00 %
27.12.2017 20:47 6,8 C 4,4 C 78 % 985,3 hPa 0,0 l/m 11,3 km/h (2 Bft) O 90 0 min 0,000 mm 0,0 UV-I 0 W/m 3,2 C 3,2 C 17,7 km/h (3 Bft) 100,00 %
27.12.2017 20:48 6,7 C 4,4 C 78 % 985,3 hPa 0,0 l/m 12,9 km/h (3 Bft) O 90 0 min 0,000 mm 0,0 UV-I 0 W/m 3,1 C 2,2 C 17,7 km/h (3 Bft) 100,00 %
27.12.2017 20:49 6,7 C 4,4 C 78 % 985,3 hPa 0,0 l/m 11,3 km/h (2 Bft) O 90 0 min 0,000 mm 0,0 UV-I 0 W/m 3,1 C 3,1 C 19,3 km/h (3 Bft) 100,00 %
27.12.2017 20:50 6,7 C 4,4 C 78 % 985,3 hPa 0,0 l/m 9,7 km/h (2 Bft) O 90 0 min 0,000 mm 0,0 UV-I 0 W/m 3,1 C 4,2 C 14,5 km/h (3 Bft) 95,65 %
27.12.2017 20:51 6,6 C 4,4 C 78 % 985,3 hPa 0,0 l/m 14,5 km/h (3 Bft) O 90 0 min 0,000 mm 0,0 UV-I 0 W/m 3,0 C 1,3 C 17,7 km/h (3 Bft) 95,65 %
27.12.2017 20:52 6,6 C 4,4 C 78 % 985,3 hPa 0,0 l/m 12,9 km/h (3 Bft) O 90 0 min 0,000 mm 0,0 UV-I 0 W/m 3,0 C 2,1 C 16,1 km/h (3 Bft) 100,00 %
27.12.2017 20:53 6,6 C 4,4 C 78 % 985,3 hPa 0,0 l/m 14,5 km/h (3 Bft) O 90 0 min 0,000 mm 0,0 UV-I 0 W/m 3,0 C 1,3 C 17,7 km/h (3 Bft) 100,00 %
27.12.2017 20:54 6,6 C 4,4 C 79 % 985,3 hPa 0,0 l/m 14,5 km/h (3 Bft) O 90 0 min 0,000 mm 0,0 UV-I 0 W/m 3,2 C 1,3 C 17,7 km/h (3 Bft) 100,00 %
27.12.2017 20:55 6,6 C 4,4 C 79 % 985,2 hPa 0,0 l/m 12,9 km/h (3 Bft) O 90 0 min 0,000 mm 0,0 UV-I 0 W/m 3,2 C 2,1 C 16,1 km/h (3 Bft) 100,00 %
27.12.2017 20:56 6,4 C 4,4 C 79 % 985,2 hPa 0,0 l/m 11,3 km/h (2 Bft) O 90 0 min 0,000 mm 0,0 UV-I 0 W/m 3,0 C 2,8 C 14,5 km/h (3 Bft) 100,00 %
27.12.2017 20:57 6,4 C 4,4 C 79 % 985,2 hPa 0,0 l/m 11,3 km/h (2 Bft) O 90 0 min 0,000 mm 0,0 UV-I 0 W/m 3,0 C 2,8 C 16,1 km/h (3 Bft) 100,00 %
27.12.2017 20:58 6,4 C 4,4 C 79 % 985,2 hPa 0,0 l/m 14,5 km/h (3 Bft) O-SO 112 0 min 0,000 mm 0,0 UV-I 0 W/m 3,0 C 1,0 C 20,9 km/h (4 Bft) 95,65 %
27.12.2017 20:59 6,4 C 4,4 C 79 % 985,3 hPa 0,0 l/m 12,9 km/h (3 Bft) O-SO 112 0 min 0,000 mm 0,0 UV-I 0 W/m 3,0 C 1,9 C 14,5 km/h (3 Bft) 100,00 %
27.12.2017 21:00 6,4 C 4,4 C 79 % 985,3 hPa 0,0 l/m 11,3 km/h (2 Bft) O 90 0 min 0,025 mm 0,0 UV-I 0 W/m 3,0 C 2,8 C 12,9 km/h (3 Bft) 95,65 %
27.12.2017 21:01 6,3 C 4,4 C 79 % 985,2 hPa 0,0 l/m 11,3 km/h (2 Bft) O-SO 112 0 min 0,000 mm 0,0 UV-I 0 W/m 2,9 C 2,7 C 12,9 km/h (3 Bft) 100,00 %
27.12.2017 21:02 6,3 C 4,4 C 79 % 985,2 hPa 0,0 l/m 9,7 km/h (2 Bft) O 90 0 min 0,000 mm 0,0 UV-I 0 W/m 2,9 C 3,7 C 14,5 km/h (3 Bft) 100,00 %
27.12.2017 21:03 6,4 C 4,4 C 79 % 985,2 hPa 0,0 l/m 12,9 km/h (3 Bft) O 90 0 min 0,000 mm 0,0 UV-I 0 W/m 3,0 C 1,9 C 16,1 km/h (3 Bft) 100,00 %
27.12.2017 21:04 6,4 C 4,4 C 79 % 985,2 hPa 0,0 l/m 11,3 km/h (2 Bft) O 90 0 min 0,000 mm 0,0 UV-I 0 W/m 3,0 C 2,8 C 12,9 km/h (3 Bft) 100,00 %
27.12.2017 21:05 6,4 C 4,4 C 79 % 985,2 hPa 0,0 l/m 16,1 km/h (3 Bft) O-NO 67 0 min 0,000 mm 0,0 UV-I 0 W/m 3,0 C 0,3 C 19,3 km/h (3 Bft) 95,65 %
27.12.2017 21:06 6,5 C 4,4 C 79 % 985,1 hPa 0,0 l/m 14,5 km/h (3 Bft) O 90 0 min 0,000 mm 0,0 UV-I 0 W/m 3,1 C 1,1 C 17,7 km/h (3 Bft) 100,00 %
27.12.2017 21:07 6,5 C 4,4 C 79 % 985,1 hPa 0,0 l/m 12,9 km/h (3 Bft) O 90 0 min 0,000 mm 0,0 UV-I 0 W/m 3,1 C 2,0 C 17,7 km/h (3 Bft) 100,00 %
27.12.2017 21:08 6,5 C 4,4 C 79 % 985,1 hPa 0,0 l/m 11,3 km/h (2 Bft) O 90 0 min 0,000 mm 0,0 UV-I 0 W/m 3,1 C 2,9 C 14,5 km/h (3 Bft) 100,00 %
27.12.2017 21:09 6,4 C 4,4 C 79 % 985,1 hPa 0,0 l/m 11,3 km/h (2 Bft) O 90 0 min 0,000 mm 0,0 UV-I 0 W/m 3,0 C 2,8 C 16,1 km/h (3 Bft) 100,00 %
27.12.2017 21:10 6,3 C 4,4 C 79 % 985,1 hPa 0,0 l/m 12,9 km/h (3 Bft) O 90 0 min 0,000 mm 0,0 UV-I 0 W/m 2,9 C 1,7 C 16,1 km/h (3 Bft) 100,00 %
27.12.2017 21:11 6,3 C 4,4 C 79 % 985,2 hPa 0,0 l/m 11,3 km/h (2 Bft) O 90 0 min 0,000 mm 0,0 UV-I 0 W/m 2,9 C 2,7 C 14,5 km/h (3 Bft) 100,00 %
27.12.2017 21:12 6,2 C 4,4 C 79 % 985,1 hPa 0,0 l/m 9,7 km/h (2 Bft) O 90 0 min 0,000 mm 0,0 UV-I 0 W/m 2,8 C 3,6 C 12,9 km/h (3 Bft) 95,65 %
27.12.2017 21:13 6,2 C 4,4 C 80 % 985,1 hPa 0,0 l/m 9,7 km/h (2 Bft) O-NO 67 0 min 0,000 mm 0,0 UV-I 0 W/m 3,0 C 3,6 C 16,1 km/h (3 Bft) 100,00 %
27.12.2017 21:14 6,2 C 4,4 C 80 % 985,1 hPa 0,0 l/m 12,9 km/h (3 Bft) O 90 0 min 0,000 mm 0,0 UV-I 0 W/m 3,0 C 1,6 C 16,1 km/h (3 Bft) 100,00 %
27.12.2017 21:15 6,2 C 4,4 C 80 % 985,1 hPa 0,0 l/m 14,5 km/h (3 Bft) O 90 0 min 0,000 mm 0,0 UV-I 0 W/m 3,0 C 0,8 C 17,7 km/h (3 Bft) 100,00 %
27.12.2017 21:16 6,3 C 4,4 C 80 % 985,1 hPa 0,0 l/m 11,3 km/h (2 Bft) O 90 0 min 0,000 mm 0,0 UV-I 0 W/m 3,1 C 2,7 C 16,1 km/h (3 Bft) 100,00 %
27.12.2017 21:17 6,3 C 3,9 C 79 % 985,1 hPa 0,0 l/m 9,7 km/h (2 Bft) O 90 0 min 0,000 mm 0,0 UV-I 0 W/m 2,9 C 3,7 C 14,5 km/h (3 Bft) 100,00 %
27.12.2017 21:18 6,3 C 3,9 C 79 % 985,1 hPa 0,0 l/m 11,3 km/h (2 Bft) O 90 0 min 0,000 mm 0,0 UV-I 0 W/m 2,9 C 2,7 C 16,1 km/h (3 Bft) 95,65 %
27.12.2017 21:19 6,3 C 3,9 C 79 % 985,1 hPa 0,0 l/m 9,7 km/h (2 Bft) O 90 0 min 0,000 mm 0,0 UV-I 0 W/m 2,9 C 3,7 C 12,9 km/h (3 Bft) 95,65 %
27.12.2017 21:20 6,3 C 3,9 C 79 % 985,1 hPa 0,0 l/m 11,3 km/h (2 Bft) O 90 0 min 0,000 mm 0,0 UV-I 0 W/m 2,9 C 2,7 C 14,5 km/h (3 Bft) 95,65 %
27.12.2017 21:21 6,3 C 3,9 C 79 % 985,1 hPa 0,0 l/m 11,3 km/h (2 Bft) O 90 0 min 0,000 mm 0,0 UV-I 0 W/m 2,9 C 2,7 C 14,5 km/h (3 Bft) 95,65 %
27.12.2017 21:22 6,3 C 3,9 C 79 % 985,1 hPa 0,0 l/m 11,3 km/h (2 Bft) O 90 0 min 0,000 mm 0,0 UV-I 0 W/m 2,9 C 2,7 C 14,5 km/h (3 Bft) 100,00 %
27.12.2017 21:23 6,3 C 3,9 C 79 % 985,1 hPa 0,0 l/m 11,3 km/h (2 Bft) O 90 0 min 0,000 mm 0,0 UV-I 0 W/m 2,9 C 2,7 C 14,5 km/h (3 Bft) 100,00 %
27.12.2017 21:24 6,3 C 3,9 C 79 % 985,1 hPa 0,0 l/m 11,3 km/h (2 Bft) O-NO 67 0 min 0,000 mm 0,0 UV-I 0 W/m 2,9 C 2,7 C 14,5 km/h (3 Bft) 100,00 %
27.12.2017 21:25 6,2 C 3,9 C 80 % 985,2 hPa 0,0 l/m 6,4 km/h (2 Bft) O 90 0 min 0,000 mm 0,0 UV-I 0 W/m 3,0 C 6,2 C 11,3 km/h (2 Bft) 100,00 %
27.12.2017 21:26 6,2 C 3,9 C 80 % 985,2 hPa 0,0 l/m 3,2 km/h (1 Bft) O 90 0 min 0,000 mm 0,0 UV-I 0 W/m 3,0 C 6,2 C 4,8 km/h (1 Bft) 95,65 %
27.12.2017 21:27 6,2 C 3,9 C 80 % 985,4 hPa 0,0 l/m 6,4 km/h (2 Bft) W-SW 247 0 min 0,000 mm 0,0 UV-I 0 W/m 3,0 C 6,2 C 12,9 km/h (3 Bft) 100,00 %
27.12.2017 21:28 6,1 C 3,9 C 80 % 985,6 hPa 0,0 l/m 11,3 km/h (2 Bft) W-SW 247 0 min 0,000 mm 0,0 UV-I 0 W/m 2,9 C 2,4 C 12,9 km/h (3 Bft) 95,65 %
27.12.2017 21:29 5,9 C 4,4 C 80 % 985,6 hPa 0,0 l/m 11,3 km/h (2 Bft) W-SW 247 0 min 0,000 mm 0,0 UV-I 0 W/m 2,7 C 2,2 C 17,7 km/h (3 Bft) 100,00 %
27.12.2017 21:30 5,7 C 4,4 C 80 % 985,6 hPa 0,0 l/m 8,0 km/h (2 Bft) W-SW 247 0 min 0,000 mm 0,0 UV-I 0 W/m 2,5 C 4,3 C 16,1 km/h (3 Bft) 91,30 %
27.12.2017 21:31 5,5 C 4,4 C 81 % 985,7 hPa 0,0 l/m 8,0 km/h (2 Bft) W 270 0 min 0,000 mm 0,0 UV-I 0 W/m 2,5 C 4,1 C 12,9 km/h (3 Bft) 100,00 %
27.12.2017 21:32 5,3 C 4,4 C 81 % 985,7 hPa 0,0 l/m 6,4 km/h (2 Bft) S-SW 202 0 min 0,000 mm 0,0 UV-I 0 W/m 2,3 C 5,3 C 11,3 km/h (2 Bft) 95,65 %
27.12.2017 21:33 5,1 C 4,4 C 83 % 985,7 hPa 0,0 l/m 6,4 km/h (2 Bft) W-SW 247 0 min 0,000 mm 0,0 UV-I 0 W/m 2,5 C 5,1 C 8,0 km/h (2 Bft) 95,65 %
27.12.2017 21:34 5,0 C 4,4 C 83 % 985,8 hPa 0,0 l/m 9,7 km/h (2 Bft) SW 225 0 min 0,000 mm 0,0 UV-I 0 W/m 2,4 C 2,3 C 14,5 km/h (3 Bft) 95,65 %
27.12.2017 21:35 4,9 C 4,4 C 83 % 985,8 hPa 0,0 l/m 9,7 km/h (2 Bft) SW 225 0 min 0,000 mm 0,0 UV-I 0 W/m 2,3 C 2,2 C 12,9 km/h (3 Bft) 95,65 %
27.12.2017 21:36 4,9 C 4,4 C 84 % 985,9 hPa 0,0 l/m 9,7 km/h (2 Bft) SW 225 0 min 0,000 mm 0,0 UV-I 0 W/m 2,4 C 2,2 C 12,9 km/h (3 Bft) 95,65 %
27.12.2017 21:37 4,9 C 4,4 C 84 % 985,9 hPa 0,0 l/m 11,3 km/h (2 Bft) W-SW 247 0 min 0,000 mm 0,0 UV-I 0 W/m 2,4 C 1,1 C 17,7 km/h (3 Bft) 100,00 %
27.12.2017 21:38 4,9 C 4,4 C 83 % 985,8 hPa 0,0 l/m 19,3 km/h (3 Bft) W-SW 247 0 min 0,000 mm 0,0 UV-I 0 W/m 2,3 C -3,0 C 24,1 km/h (4 Bft) 95,65 %
27.12.2017 21:39 4,8 C 4,4 C 82 % 985,9 hPa 0,0 l/m 16,1 km/h (3 Bft) SW 225 0 min 0,000 mm 0,0 UV-I 0 W/m 2,0 C -1,7 C 20,9 km/h (4 Bft) 100,00 %
27.12.2017 21:40 4,7 C 4,4 C 82 % 986,0 hPa 0,0 l/m 12,9 km/h (3 Bft) SW 225 0 min 0,000 mm 0,0 UV-I 0 W/m 1,9 C -0,1 C 16,1 km/h (3 Bft) 91,30 %
27.12.2017 21:41 4,3 C 4,4 C 82 % 985,9 hPa 0,0 l/m 12,9 km/h (3 Bft) SW 225 0 min 0,000 mm 0,0 UV-I 0 W/m 1,5 C -0,6 C 17,7 km/h (3 Bft) 100,00 %
27.12.2017 21:42 4,1 C 4,4 C 82 % 985,9 hPa 0,0 l/m 12,9 km/h (3 Bft) SW 225 0 min 0,000 mm 0,0 UV-I 0 W/m 1,3 C -0,8 C 19,3 km/h (3 Bft) 95,65 %
27.12.2017 21:43 3,8 C 4,4 C 83 % 985,9 hPa 0,0 l/m 12,9 km/h (3 Bft) SW 225 0 min 0,000 mm 0,0 UV-I 0 W/m 1,2 C -1,2 C 19,3 km/h (3 Bft) 95,65 %
27.12.2017 21:44 3,6 C 4,4 C 83 % 985,9 hPa 0,0 l/m 12,9 km/h (3 Bft) SW 225 0 min 0,000 mm 0,0 UV-I 0 W/m 1,0 C -1,4 C 22,5 km/h (4 Bft) 95,65 %
27.12.2017 21:45 3,4 C 4,4 C 85 % 985,9 hPa 0,0 l/m 12,9 km/h (3 Bft) SW 225 0 min 0,000 mm 0,0 UV-I 0 W/m 1,1 C -1,7 C 19,3 km/h (3 Bft) 95,65 %
27.12.2017 21:46 3,2 C 4,4 C 85 % 986,0 hPa 0,0 l/m 11,3 km/h (2 Bft) SW 225 0 min 0,000 mm 0,0 UV-I 0 W/m 0,9 C -0,8 C 17,7 km/h (3 Bft) 95,65 %
27.12.2017 21:47 3,1 C 4,4 C 86 % 986,0 hPa 0,0 l/m 11,3 km/h (2 Bft) SW 225 0 min 0,000 mm 0,0 UV-I 0 W/m 1,0 C -1,0 C 16,1 km/h (3 Bft) 91,30 %
27.12.2017 21:48 2,9 C 4,4 C 86 % 986,1 hPa 0,0 l/m 11,3 km/h (2 Bft) SW 225 0 min 0,000 mm 0,0 UV-I 0 W/m 0,8 C -1,2 C 16,1 km/h (3 Bft) 100,00 %
27.12.2017 21:49 2,8 C 4,4 C 86 % 986,1 hPa 0,0 l/m 6,4 km/h (2 Bft) SW 225 0 min 0,000 mm 0,0 UV-I 0 W/m 0,7 C 2,8 C 11,3 km/h (2 Bft) 95,65 %
27.12.2017 21:50 2,7 C 4,4 C 87 % 986,3 hPa 0,0 l/m 8,0 km/h (2 Bft) S-SW 202 0 min 0,000 mm 0,0 UV-I 0 W/m 0,8 C 1,2 C 9,7 km/h (2 Bft) 100,00 %
27.12.2017 21:51 2,6 C 4,4 C 87 % 986,3 hPa 0,0 l/m 9,7 km/h (2 Bft) S-SW 202 0 min 0,000 mm 0,0 UV-I 0 W/m 0,7 C -0,3 C 14,5 km/h (3 Bft) 91,30 %
27.12.2017 21:52 2,4 C 4,4 C 88 % 986,3 hPa 0,0 l/m 9,7 km/h (2 Bft) SW 225 0 min 0,000 mm 0,0 UV-I 0 W/m 0,6 C -0,6 C 12,9 km/h (3 Bft) 100,00 %
27.12.2017 21:53 2,3 C 4,4 C 88 % 986,3 hPa 0,0 l/m 11,3 km/h (2 Bft) SW 225 0 min 0,000 mm 0,0 UV-I 0 W/m 0,5 C -1,9 C 16,1 km/h (3 Bft) 91,30 %
27.12.2017 21:54 2,2 C 4,4 C 88 % 986,3 hPa 0,0 l/m 12,9 km/h (3 Bft) SW 225 0 min 0,000 mm 0,0 UV-I 0 W/m 0,4 C -3,1 C 17,7 km/h (3 Bft) 95,65 %
27.12.2017 21:55 2,2 C 4,4 C 88 % 986,3 hPa 0,0 l/m 9,7 km/h (2 Bft) SW 225 0 min 0,000 mm 0,0 UV-I 0 W/m 0,4 C -0,8 C 14,5 km/h (3 Bft) 95,65 %
27.12.2017 21:56 2,1 C 4,4 C 89 % 986,3 hPa 0,0 l/m 9,7 km/h (2 Bft) SW 225 0 min 0,000 mm 0,0 UV-I 0 W/m 0,5 C -0,9 C 14,5 km/h (3 Bft) 100,00 %
27.12.2017 21:57 2,1 C 4,4 C 89 % 986,3 hPa 0,0 l/m 8,0 km/h (2 Bft) SW 225 0 min 0,000 mm 0,0 UV-I 0 W/m 0,5 C 0,6 C 12,9 km/h (3 Bft) 91,30 %
27.12.2017 21:58 2,1 C 4,4 C 89 % 986,3 hPa 0,0 l/m 9,7 km/h (2 Bft) S-SW 202 0 min 0,000 mm 0,0 UV-I 0 W/m 0,5 C -0,9 C 12,9 km/h (3 Bft) 95,65 %
27.12.2017 21:59 2,0 C 4,4 C 89 % 986,4 hPa 0,0 l/m 8,0 km/h (2 Bft) SW 225 0 min 0,000 mm 0,0 UV-I 0 W/m 0,4 C 0,5 C 12,9 km/h (3 Bft) 100,00 %
27.12.2017 22:00 1,9 C 4,4 C 89 % 986,4 hPa 0,0 l/m 9,7 km/h (2 Bft) W-SW 247 0 min 0,025 mm 0,0 UV-I 0 W/m 0,3 C -1,1 C 14,5 km/h (3 Bft) 95,65 %
27.12.2017 22:01 1,9 C 4,4 C 89 % 986,5 hPa 0,0 l/m 8,0 km/h (2 Bft) SW 225 0 min 0,000 mm 0,0 UV-I 0 W/m 0,3 C 0,3 C 11,3 km/h (2 Bft) 91,30 %
27.12.2017 22:02 1,9 C 4,4 C 89 % 986,5 hPa 0,0 l/m 8,0 km/h (2 Bft) S-SW 202 0 min 0,000 mm 0,0 UV-I 0 W/m 0,3 C 0,3 C 14,5 km/h (3 Bft) 95,65 %
27.12.2017 22:03 1,8 C 4,4 C 89 % 986,6 hPa 0,0 l/m 9,7 km/h (2 Bft) S-SW 202 0 min 0,000 mm 0,0 UV-I 0 W/m 0,2 C -1,2 C 12,9 km/h (3 Bft) 100,00 %
27.12.2017 22:04 1,8 C 4,4 C 90 % 986,6 hPa 0,0 l/m 11,3 km/h (2 Bft) SW 225 0 min 0,000 mm 0,0 UV-I 0 W/m 0,3 C -2,4 C 14,5 km/h (3 Bft) 95,65 %
27.12.2017 22:05 1,8 C 4,4 C 90 % 986,6 hPa 0,0 l/m 8,0 km/h (2 Bft) SW 225 0 min 0,000 mm 0,0 UV-I 0 W/m 0,3 C 0,2 C 11,3 km/h (2 Bft) 100,00 %
27.12.2017 22:06 1,8 C 4,4 C 90 % 986,5 hPa 0,0 l/m 9,7 km/h (2 Bft) W-SW 247 0 min 0,000 mm 0,0 UV-I 0 W/m 0,3 C -1,2 C 14,5 km/h (3 Bft) 95,65 %
27.12.2017 22:07 1,7 C 4,4 C 90 % 986,6 hPa 0,0 l/m 6,4 km/h (2 Bft) W-SW 247 0 min 0,000 mm 0,0 UV-I 0 W/m 0,2 C 1,7 C 6,4 km/h (2 Bft) 95,65 %
27.12.2017 22:08 1,7 C 4,4 C 90 % 986,6 hPa 0,0 l/m 9,7 km/h (2 Bft) SW 225 0 min 0,000 mm 0,0 UV-I 0 W/m 0,2 C -1,3 C 11,3 km/h (2 Bft) 95,65 %
27.12.2017 22:09 1,7 C 4,4 C 90 % 986,6 hPa 0,0 l/m 8,0 km/h (2 Bft) W-SW 247 0 min 0,000 mm 0,0 UV-I 0 W/m 0,2 C 0,1 C 9,7 km/h (2 Bft) 95,65 %
27.12.2017 22:10 1,6 C 4,4 C 90 % 986,6 hPa 0,0 l/m 8,0 km/h (2 Bft) SW 225 0 min 0,000 mm 0,0 UV-I 0 W/m 0,1 C 0,0 C 9,7 km/h (2 Bft) 100,00 %
27.12.2017 22:11 1,6 C 4,4 C 90 % 986,6 hPa 0,0 l/m 8,0 km/h (2 Bft) SW 225 0 min 0,000 mm 0,0 UV-I 0 W/m 0,1 C 0,0 C 12,9 km/h (3 Bft) 91,30 %
27.12.2017 22:12 1,6 C 4,4 C 90 % 986,7 hPa 0,0 l/m 9,7 km/h (2 Bft) W-SW 247 0 min 0,000 mm 0,0 UV-I 0 W/m 0,1 C -1,4 C 17,7 km/h (3 Bft) 95,65 %
27.12.2017 22:13 1,6 C 4,4 C 90 % 986,7 hPa 0,0 l/m 11,3 km/h (2 Bft) W-SW 247 0 min 0,000 mm 0,0 UV-I 0 W/m 0,1 C -2,7 C 16,1 km/h (3 Bft) 95,65 %
27.12.2017 22:14 1,5 C 4,4 C 90 % 986,8 hPa 0,0 l/m 11,3 km/h (2 Bft) W-SW 247 0 min 0,000 mm 0,0 UV-I 0 W/m 0,0 C -2,8 C 16,1 km/h (3 Bft) 100,00 %
27.12.2017 22:15 1,5 C 4,4 C 91 % 986,8 hPa 0,0 l/m 9,7 km/h (2 Bft) SW 225 0 min 0,000 mm 0,0 UV-I 0 W/m 0,2 C -1,6 C 12,9 km/h (3 Bft) 91,30 %
27.12.2017 22:16 1,5 C 4,4 C 91 % 986,8 hPa 0,0 l/m 11,3 km/h (2 Bft) W-SW 247 0 min 0,000 mm 0,0 UV-I 0 W/m 0,2 C -2,8 C 12,9 km/h (3 Bft) 95,65 %
27.12.2017 22:17 1,4 C 4,4 C 91 % 986,8 hPa 0,0 l/m 9,7 km/h (2 Bft) W-SW 247 0 min 0,000 mm 0,0 UV-I 0 W/m 0,1 C -1,7 C 14,5 km/h (3 Bft) 100,00 %
27.12.2017 22:18 1,4 C 3,9 C 91 % 986,8 hPa 0,0 l/m 12,9 km/h (3 Bft) W-SW 247 0 min 0,000 mm 0,0 UV-I 0 W/m 0,1 C -4,0 C 17,7 km/h (3 Bft) 95,65 %
27.12.2017 22:19 1,4 C 3,9 C 91 % 986,8 hPa 0,0 l/m 9,7 km/h (2 Bft) W-SW 247 0 min 0,000 mm 0,0 UV-I 0 W/m 0,1 C -1,7 C 14,5 km/h (3 Bft) 100,00 %
27.12.2017 22:20 1,4 C 3,9 C 91 % 986,8 hPa 0,0 l/m 14,5 km/h (3 Bft) W-SW 247 0 min 0,000 mm 0,0 UV-I 0 W/m 0,1 C -5,0 C 17,7 km/h (3 Bft) 95,65 %
27.12.2017 22:21 1,4 C 3,9 C 91 % 986,7 hPa 0,0 l/m 11,3 km/h (2 Bft) W-SW 247 0 min 0,000 mm 0,0 UV-I 0 W/m 0,1 C -2,9 C 14,5 km/h (3 Bft) 100,00 %
27.12.2017 22:22 1,3 C 4,4 C 91 % 986,8 hPa 0,0 l/m 8,0 km/h (2 Bft) SW 225 0 min 0,000 mm 0,0 UV-I 0 W/m -0,0 C -0,3 C 11,3 km/h (2 Bft) 91,30 %
27.12.2017 22:23 1,3 C 4,4 C 91 % 986,8 hPa 0,0 l/m 11,3 km/h (2 Bft) W-SW 247 0 min 0,000 mm 0,0 UV-I 0 W/m -0,0 C -3,0 C 16,1 km/h (3 Bft) 100,00 %
27.12.2017 22:24 1,3 C 4,4 C 91 % 986,8 hPa 0,0 l/m 9,7 km/h (2 Bft) W-SW 247 0 min 0,000 mm 0,0 UV-I 0 W/m -0,0 C -1,8 C 12,9 km/h (3 Bft) 95,65 %
27.12.2017 22:25 1,2 C 4,4 C 91 % 986,9 hPa 0,0 l/m 9,7 km/h (2 Bft) W-SW 247 0 min 0,000 mm 0,0 UV-I 0 W/m -0,1 C -1,9 C 14,5 km/h (3 Bft) 95,65 %
27.12.2017 22:26 1,2 C 4,4 C 91 % 986,9 hPa 0,0 l/m 9,7 km/h (2 Bft) W-SW 247 0 min 0,000 mm 0,0 UV-I 0 W/m -0,1 C -1,9 C 14,5 km/h (3 Bft) 100,00 %
27.12.2017 22:27 1,2 C 4,4 C 92 % 986,9 hPa 0,0 l/m 9,7 km/h (2 Bft) W-SW 247 0 min 0,000 mm 0,0 UV-I 0 W/m 0,0 C -1,9 C 14,5 km/h (3 Bft) 95,65 %
27.12.2017 22:28 1,2 C 4,4 C 92 % 986,8 hPa 0,0 l/m 14,5 km/h (3 Bft) W-SW 247 0 min 0,000 mm 0,0 UV-I 0 W/m 0,0 C -5,2 C 17,7 km/h (3 Bft) 100,00 %
27.12.2017 22:29 1,2 C 4,4 C 92 % 986,9 hPa 0,0 l/m 14,5 km/h (3 Bft) W-SW 247 0 min 0,000 mm 0,0 UV-I 0 W/m 0,0 C -5,2 C 19,3 km/h (3 Bft) 91,30 %
27.12.2017 22:30 1,1 C 4,4 C 92 % 987,0 hPa 0,0 l/m 9,7 km/h (2 Bft) W-SW 247 0 min 0,000 mm 0,0 UV-I 0 W/m -0,1 C -2,0 C 12,9 km/h (3 Bft) 100,00 %
27.12.2017 22:31 1,1 C 4,4 C 92 % 987,0 hPa 0,0 l/m 9,7 km/h (2 Bft) W-SW 247 0 min 0,000 mm 0,0 UV-I 0 W/m -0,1 C -2,0 C 14,5 km/h (3 Bft) 100,00 %
27.12.2017 22:32 1,1 C 4,4 C 92 % 987,0 hPa 0,0 l/m 9,7 km/h (2 Bft) W-SW 247 0 min 0,000 mm 0,0 UV-I 0 W/m -0,1 C -2,0 C 12,9 km/h (3 Bft) 100,00 %
27.12.2017 22:33 1,1 C 4,4 C 92 % 987,1 hPa 0,0 l/m 11,3 km/h (2 Bft) W-SW 247 0 min 0,000 mm 0,0 UV-I 0 W/m -0,1 C -3,2 C 17,7 km/h (3 Bft) 100,00 %
27.12.2017 22:34 1,1 C 4,4 C 92 % 987,1 hPa 0,0 l/m 14,5 km/h (3 Bft) W 270 0 min 0,000 mm 0,0 UV-I 0 W/m -0,1 C -5,4 C 17,7 km/h (3 Bft) 100,00 %
27.12.2017 22:35 1,1 C 4,4 C 92 % 987,2 hPa 0,0 l/m 11,3 km/h (2 Bft) W 270 0 min 0,000 mm 0,0 UV-I 0 W/m -0,1 C -3,2 C 16,1 km/h (3 Bft) 100,00 %
27.12.2017 22:36 1,1 C 4,4 C 92 % 987,2 hPa 0,0 l/m 8,0 km/h (2 Bft) W 270 0 min 0,000 mm 0,0 UV-I 0 W/m -0,1 C -0,5 C 14,5 km/h (3 Bft) 91,30 %
27.12.2017 22:37 1,1 C 4,4 C 92 % 987,2 hPa 0,0 l/m 12,9 km/h (3 Bft) W 270 0 min 0,000 mm 0,0 UV-I 0 W/m -0,1 C -4,3 C 19,3 km/h (3 Bft) 95,65 %
27.12.2017 22:38 1,0 C 4,4 C 92 % 987,2 hPa 0,0 l/m 14,5 km/h (3 Bft) W 270 0 min 0,000 mm 0,0 UV-I 0 W/m -0,2 C -5,5 C 20,9 km/h (4 Bft) 100,00 %
27.12.2017 22:39 1,0 C 4,4 C 92 % 987,2 hPa 0,0 l/m 14,5 km/h (3 Bft) W-SW 247 0 min 0,000 mm 0,0 UV-I 0 W/m -0,2 C -5,5 C 16,1 km/h (3 Bft) 95,65 %
27.12.2017 22:40 1,1 C 4,4 C 92 % 987,4 hPa 0,0 l/m 9,7 km/h (2 Bft) W-SW 247 0 min 0,000 mm 0,0 UV-I 0 W/m -0,1 C -2,0 C 16,1 km/h (3 Bft) 100,00 %
27.12.2017 22:41 1,1 C 4,4 C 92 % 987,4 hPa 0,0 l/m 9,7 km/h (2 Bft) W 270 0 min 0,000 mm 0,0 UV-I 0 W/m -0,1 C -2,0 C 12,9 km/h (3 Bft) 100,00 %
27.12.2017 22:42 1,1 C 4,4 C 92 % 987,4 hPa 0,0 l/m 6,4 km/h (2 Bft) W-SW 247 0 min 0,000 mm 0,0 UV-I 0 W/m -0,1 C 1,1 C 11,3 km/h (2 Bft) 95,65 %
27.12.2017 22:43 1,1 C 4,4 C 92 % 987,4 hPa 0,0 l/m 9,7 km/h (2 Bft) W-SW 247 0 min 0,000 mm 0,0 UV-I 0 W/m -0,1 C -2,0 C 14,5 km/h (3 Bft) 95,65 %
27.12.2017 22:44 1,1 C 4,4 C 92 % 987,4 hPa 0,0 l/m 8,0 km/h (2 Bft) W-SW 247 0 min 0,000 mm 0,0 UV-I 0 W/m -0,1 C -0,5 C 12,9 km/h (3 Bft) 100,00 %
27.12.2017 22:45 1,1 C 4,4 C 92 % 987,4 hPa 0,0 l/m 9,7 km/h (2 Bft) W-SW 247 0 min 0,000 mm 0,0 UV-I 0 W/m -0,1 C -2,0 C 12,9 km/h (3 Bft) 100,00 %
27.12.2017 22:46 1,1 C 4,4 C 92 % 987,3 hPa 0,0 l/m 8,0 km/h (2 Bft) W-SW 247 0 min 0,000 mm 0,0 UV-I 0 W/m -0,1 C -0,5 C 11,3 km/h (2 Bft) 95,65 %
27.12.2017 22:47 1,1 C 4,4 C 92 % 987,3 hPa 0,0 l/m 6,4 km/h (2 Bft) W 270 0 min 0,000 mm 0,0 UV-I 0 W/m -0,1 C 1,1 C 9,7 km/h (2 Bft) 91,30 %
27.12.2017 22:48 1,1 C 4,4 C 92 % 987,3 hPa 0,0 l/m 6,4 km/h (2 Bft) W 270 0 min 0,000 mm 0,0 UV-I 0 W/m -0,1 C 1,1 C 9,7 km/h (2 Bft) 100,00 %
27.12.2017 22:49 1,0 C 4,4 C 92 % 987,3 hPa 0,0 l/m 8,0 km/h (2 Bft) W-SW 247 0 min 0,000 mm 0,0 UV-I 0 W/m -0,2 C -0,6 C 11,3 km/h (2 Bft) 100,00 %
27.12.2017 22:50 1,0 C 4,4 C 92 % 987,3 hPa 0,0 l/m 9,7 km/h (2 Bft) W-SW 247 0 min 0,000 mm 0,0 UV-I 0 W/m -0,2 C -2,1 C 12,9 km/h (3 Bft) 100,00 %
27.12.2017 22:51 1,0 C 4,4 C 92 % 987,3 hPa 0,0 l/m 9,7 km/h (2 Bft) W-SW 247 0 min 0,000 mm 0,0 UV-I 0 W/m -0,2 C -2,1 C 14,5 km/h (3 Bft) 95,65 %
27.12.2017 22:52 1,0 C 4,4 C 92 % 987,3 hPa 0,0 l/m 11,3 km/h (2 Bft) W-SW 247 0 min 0,000 mm 0,0 UV-I 0 W/m -0,2 C -3,3 C 16,1 km/h (3 Bft) 100,00 %
27.12.2017 22:53 1,0 C 4,4 C 92 % 987,4 hPa 0,0 l/m 11,3 km/h (2 Bft) W 270 0 min 0,000 mm 0,0 UV-I 0 W/m -0,2 C -3,3 C 14,5 km/h (3 Bft) 100,00 %
27.12.2017 22:54 1,0 C 4,4 C 92 % 987,4 hPa 0,0 l/m 12,9 km/h (3 Bft) W-SW 247 0 min 0,000 mm 0,0 UV-I 0 W/m -0,2 C -4,5 C 16,1 km/h (3 Bft) 100,00 %
27.12.2017 22:55 1,0 C 4,4 C 92 % 987,4 hPa 0,0 l/m 14,5 km/h (3 Bft) W 270 0 min 0,000 mm 0,0 UV-I 0 W/m -0,2 C -5,5 C 19,3 km/h (3 Bft) 100,00 %
27.12.2017 22:56 1,0 C 4,4 C 92 % 987,5 hPa 0,0 l/m 9,7 km/h (2 Bft) W 270 0 min 0,000 mm 0,0 UV-I 0 W/m -0,2 C -2,1 C 12,9 km/h (3 Bft) 100,00 %
27.12.2017 22:57 1,0 C 4,4 C 92 % 987,5 hPa 0,0 l/m 8,0 km/h (2 Bft) W-SW 247 0 min 0,000 mm 0,0 UV-I 0 W/m -0,2 C -0,6 C 14,5 km/h (3 Bft) 95,65 %
27.12.2017 22:58 1,0 C 4,4 C 92 % 987,4 hPa 0,0 l/m 11,3 km/h (2 Bft) W-SW 247 0 min 0,000 mm 0,0 UV-I 0 W/m -0,2 C -3,3 C 16,1 km/h (3 Bft) 95,65 %
27.12.2017 22:59 1,0 C 4,4 C 92 % 987,4 hPa 0,0 l/m 12,9 km/h (3 Bft) W-SW 247 0 min 0,000 mm 0,0 UV-I 0 W/m -0,2 C -4,5 C 16,1 km/h (3 Bft) 95,65 %
27.12.2017 23:00 1,0 C 4,4 C 92 % 987,4 hPa 0,0 l/m 11,3 km/h (2 Bft) W-SW 247 0 min 0,000 mm 0,0 UV-I 0 W/m -0,2 C -3,3 C 14,5 km/h (3 Bft) 100,00 %
27.12.2017 23:01 1,0 C 4,4 C 92 % 987,4 hPa 0,0 l/m 11,3 km/h (2 Bft) W-SW 247 0 min 0,000 mm 0,0 UV-I 0 W/m -0,2 C -3,3 C 17,7 km/h (3 Bft) 95,65 %
27.12.2017 23:02 1,0 C 4,4 C 92 % 987,4 hPa 0,0 l/m 9,7 km/h (2 Bft) W-SW 247 0 min 0,000 mm 0,0 UV-I 0 W/m -0,2 C -2,1 C 11,3 km/h (2 Bft) 100,00 %
27.12.2017 23:03 1,0 C 4,4 C 92 % 987,4 hPa 0,0 l/m 9,7 km/h (2 Bft) W-SW 247 0 min 0,000 mm 0,0 UV-I 0 W/m -0,2 C -2,1 C 12,9 km/h (3 Bft) 95,65 %
27.12.2017 23:04 0,9 C 4,4 C 92 % 987,4 hPa 0,0 l/m 11,3 km/h (2 Bft) W-SW 247 0 min 0,000 mm 0,0 UV-I 0 W/m -0,2 C -3,5 C 14,5 km/h (3 Bft) 91,30 %
27.12.2017 23:05 0,9 C 4,4 C 92 % 987,4 hPa 0,0 l/m 11,3 km/h (2 Bft) W 270 0 min 0,000 mm 0,0 UV-I 0 W/m -0,2 C -3,5 C 14,5 km/h (3 Bft) 95,65 %
27.12.2017 23:06 0,9 C 4,4 C 92 % 987,5 hPa 0,0 l/m 9,7 km/h (2 Bft) W-SW 247 0 min 0,000 mm 0,0 UV-I 0 W/m -0,2 C -2,2 C 12,9 km/h (3 Bft) 95,65 %
27.12.2017 23:07 0,9 C 4,4 C 92 % 987,5 hPa 0,0 l/m 9,7 km/h (2 Bft) W-SW 247 0 min 0,000 mm 0,0 UV-I 0 W/m -0,2 C -2,2 C 12,9 km/h (3 Bft) 100,00 %
27.12.2017 23:08 0,9 C 4,4 C 92 % 987,6 hPa 0,0 l/m 12,9 km/h (3 Bft) W-SW 247 0 min 0,000 mm 0,0 UV-I 0 W/m -0,2 C -4,6 C 17,7 km/h (3 Bft) 95,65 %
27.12.2017 23:09 0,9 C 4,4 C 92 % 987,6 hPa 0,0 l/m 11,3 km/h (2 Bft) W-SW 247 0 min 0,000 mm 0,0 UV-I 0 W/m -0,2 C -3,5 C 14,5 km/h (3 Bft) 100,00 %
27.12.2017 23:10 0,9 C 4,4 C 92 % 987,7 hPa 0,0 l/m 8,0 km/h (2 Bft) W-SW 247 0 min 0,000 mm 0,0 UV-I 0 W/m -0,2 C -0,7 C 11,3 km/h (2 Bft) 95,65 %
27.12.2017 23:11 0,9 C 4,4 C 92 % 987,7 hPa 0,0 l/m 6,4 km/h (2 Bft) W-SW 247 0 min 0,000 mm 0,0 UV-I 0 W/m -0,2 C 0,9 C 9,7 km/h (2 Bft) 100,00 %
27.12.2017 23:12 0,9 C 4,4 C 92 % 987,7 hPa 0,0 l/m 4,8 km/h (1 Bft) SW 225 0 min 0,000 mm 0,0 UV-I 0 W/m -0,2 C 0,9 C 8,0 km/h (2 Bft) 86,96 %
27.12.2017 23:13 0,9 C 3,9 C 92 % 987,8 hPa 0,0 l/m 8,0 km/h (2 Bft) SW 225 0 min 0,000 mm 0,0 UV-I 0 W/m -0,2 C -0,7 C 9,7 km/h (2 Bft) 100,00 %
27.12.2017 23:14 0,9 C 4,4 C 92 % 987,9 hPa 0,0 l/m 11,3 km/h (2 Bft) W-SW 247 0 min 0,000 mm 0,0 UV-I 0 W/m -0,2 C -3,5 C 14,5 km/h (3 Bft) 91,30 %
27.12.2017 23:15 0,9 C 4,4 C 92 % 987,8 hPa 0,0 l/m 12,9 km/h (3 Bft) W-SW 247 0 min 0,000 mm 0,0 UV-I 0 W/m -0,2 C -4,6 C 17,7 km/h (3 Bft) 95,65 %
27.12.2017 23:16 0,9 C 4,4 C 92 % 987,9 hPa 0,0 l/m 12,9 km/h (3 Bft) W-SW 247 0 min 0,000 mm 0,0 UV-I 0 W/m -0,2 C -4,6 C 19,3 km/h (3 Bft) 91,30 %
27.12.2017 23:17 0,9 C 4,4 C 92 % 987,9 hPa 0,0 l/m 9,7 km/h (2 Bft) W-SW 247 0 min 0,000 mm 0,0 UV-I 0 W/m -0,2 C -2,2 C 14,5 km/h (3 Bft) 100,00 %
27.12.2017 23:18 0,9 C 4,4 C 93 % 987,9 hPa 0,0 l/m 11,3 km/h (2 Bft) W-SW 247 0 min 0,000 mm 0,0 UV-I 0 W/m -0,1 C -3,5 C 14,5 km/h (3 Bft) 95,65 %
27.12.2017 23:19 0,9 C 4,4 C 93 % 987,9 hPa 0,0 l/m 9,7 km/h (2 Bft) W 270 0 min 0,000 mm 0,0 UV-I 0 W/m -0,1 C -2,2 C 14,5 km/h (3 Bft) 95,65 %
27.12.2017 23:20 0,9 C 4,4 C 93 % 988,0 hPa 0,0 l/m 12,9 km/h (3 Bft) W-SW 247 0 min 0,000 mm 0,0 UV-I 0 W/m -0,1 C -4,6 C 17,7 km/h (3 Bft) 95,65 %
27.12.2017 23:21 0,9 C 4,4 C 93 % 988,0 hPa 0,0 l/m 12,9 km/h (3 Bft) W-SW 247 0 min 0,000 mm 0,0 UV-I 0 W/m -0,1 C -4,6 C 17,7 km/h (3 Bft) 100,00 %
27.12.2017 23:22 0,9 C 4,4 C 93 % 988,1 hPa 0,0 l/m 11,3 km/h (2 Bft) W-SW 247 0 min 0,000 mm 0,0 UV-I 0 W/m -0,1 C -3,5 C 16,1 km/h (3 Bft) 95,65 %
27.12.2017 23:23 0,9 C 4,4 C 93 % 988,0 hPa 0,0 l/m 14,5 km/h (3 Bft) W-SW 247 0 min 0,000 mm 0,0 UV-I 0 W/m -0,1 C -5,6 C 19,3 km/h (3 Bft) 100,00 %
27.12.2017 23:24 0,9 C 4,4 C 93 % 988,1 hPa 0,0 l/m 11,3 km/h (2 Bft) W-SW 247 0 min 0,000 mm 0,0 UV-I 0 W/m -0,1 C -3,5 C 16,1 km/h (3 Bft) 100,00 %
27.12.2017 23:25 0,9 C 4,4 C 93 % 988,0 hPa 0,0 l/m 14,5 km/h (3 Bft) W-SW 247 0 min 0,000 mm 0,0 UV-I 0 W/m -0,1 C -5,6 C 16,1 km/h (3 Bft) 100,00 %
27.12.2017 23:26 0,9 C 4,4 C 93 % 988,0 hPa 0,0 l/m 14,5 km/h (3 Bft) W 270 0 min 0,000 mm 0,0 UV-I 0 W/m -0,1 C -5,6 C 17,7 km/h (3 Bft) 95,65 %
27.12.2017 23:27 0,9 C 4,4 C 93 % 988,0 hPa 0,0 l/m 14,5 km/h (3 Bft) W-SW 247 0 min 0,000 mm 0,0 UV-I 0 W/m -0,1 C -5,6 C 20,9 km/h (4 Bft) 100,00 %
27.12.2017 23:28 0,9 C 4,4 C 93 % 988,1 hPa 0,0 l/m 11,3 km/h (2 Bft) W 270 0 min 0,000 mm 0,0 UV-I 0 W/m -0,1 C -3,5 C 14,5 km/h (3 Bft) 100,00 %
27.12.2017 23:29 0,9 C 4,4 C 93 % 988,0 hPa 0,0 l/m 12,9 km/h (3 Bft) W-SW 247 0 min 0,000 mm 0,0 UV-I 0 W/m -0,1 C -4,6 C 17,7 km/h (3 Bft) 100,00 %
27.12.2017 23:30 0,9 C 4,4 C 93 % 988,1 hPa 0,0 l/m 11,3 km/h (2 Bft) W-SW 247 0 min 0,000 mm 0,0 UV-I 0 W/m -0,1 C -3,5 C 16,1 km/h (3 Bft) 100,00 %
27.12.2017 23:31 0,9 C 4,4 C 93 % 988,1 hPa 0,0 l/m 12,9 km/h (3 Bft) W-SW 247 0 min 0,000 mm 0,0 UV-I 0 W/m -0,1 C -4,6 C 16,1 km/h (3 Bft) 95,65 %
27.12.2017 23:32 0,9 C 4,4 C 93 % 988,1 hPa 0,0 l/m 12,9 km/h (3 Bft) W 270 0 min 0,000 mm 0,0 UV-I 0 W/m -0,1 C -4,6 C 16,1 km/h (3 Bft) 95,65 %
27.12.2017 23:33 0,9 C 4,4 C 93 % 988,1 hPa 0,0 l/m 11,3 km/h (2 Bft) W-SW 247 0 min 0,000 mm 0,0 UV-I 0 W/m -0,1 C -3,5 C 14,5 km/h (3 Bft) 95,65 %
27.12.2017 23:34 0,9 C 4,4 C 93 % 988,1 hPa 0,0 l/m 9,7 km/h (2 Bft) W-SW 247 0 min 0,000 mm 0,0 UV-I 0 W/m -0,1 C -2,2 C 12,9 km/h (3 Bft) 100,00 %
27.12.2017 23:35 0,9 C 4,4 C 93 % 988,1 hPa 0,0 l/m 12,9 km/h (3 Bft) W-SW 247 0 min 0,000 mm 0,0 UV-I 0 W/m -0,1 C -4,6 C 16,1 km/h (3 Bft) 100,00 %
27.12.2017 23:36 0,9 C 4,4 C 93 % 988,2 hPa 0,0 l/m 12,9 km/h (3 Bft) W-SW 247 0 min 0,000 mm 0,0 UV-I 0 W/m -0,1 C -4,6 C 16,1 km/h (3 Bft) 100,00 %
27.12.2017 23:37 0,9 C 4,4 C 93 % 988,2 hPa 0,0 l/m 9,7 km/h (2 Bft) W-SW 247 0 min 0,000 mm 0,0 UV-I 0 W/m -0,1 C -2,2 C 14,5 km/h (3 Bft) 95,65 %
27.12.2017 23:38 0,9 C 4,4 C 92 % 988,2 hPa 0,0 l/m 11,3 km/h (2 Bft) W-SW 247 0 min 0,000 mm 0,0 UV-I 0 W/m -0,2 C -3,5 C 14,5 km/h (3 Bft) 95,65 %
27.12.2017 23:39 0,9 C 3,9 C 92 % 988,3 hPa 0,0 l/m 9,7 km/h (2 Bft) W-SW 247 0 min 0,000 mm 0,0 UV-I 0 W/m -0,2 C -2,2 C 14,5 km/h (3 Bft) 100,00 %
27.12.2017 23:40 0,9 C 3,9 C 92 % 988,3 hPa 0,0 l/m 12,9 km/h (3 Bft) W 270 0 min 0,000 mm 0,0 UV-I 0 W/m -0,2 C -4,6 C 17,7 km/h (3 Bft) 95,65 %
27.12.2017 23:41 0,9 C 4,4 C 92 % 988,4 hPa 0,0 l/m 12,9 km/h (3 Bft) W-SW 247 0 min 0,000 mm 0,0 UV-I 0 W/m -0,2 C -4,6 C 17,7 km/h (3 Bft) 100,00 %
27.12.2017 23:42 0,9 C 4,4 C 92 % 988,4 hPa 0,0 l/m 12,9 km/h (3 Bft) W 270 0 min 0,000 mm 0,0 UV-I 0 W/m -0,2 C -4,6 C 16,1 km/h (3 Bft) 100,00 %
27.12.2017 23:43 0,9 C 4,4 C 92 % 988,3 hPa 0,0 l/m 12,9 km/h (3 Bft) W-SW 247 0 min 0,000 mm 0,0 UV-I 0 W/m -0,2 C -4,6 C 17,7 km/h (3 Bft) 100,00 %
27.12.2017 23:44 0,9 C 4,4 C 92 % 988,4 hPa 0,0 l/m 9,7 km/h (2 Bft) W-SW 247 0 min 0,000 mm 0,0 UV-I 0 W/m -0,2 C -2,2 C 12,9 km/h (3 Bft) 100,00 %
27.12.2017 23:45 1,0 C 4,4 C 92 % 988,4 hPa 0,0 l/m 9,7 km/h (2 Bft) W-SW 247 0 min 0,000 mm 0,0 UV-I 0 W/m -0,2 C -2,1 C 14,5 km/h (3 Bft) 95,65 %
27.12.2017 23:46 0,9 C 4,4 C 92 % 988,4 hPa 0,0 l/m 12,9 km/h (3 Bft) W-SW 247 0 min 0,000 mm 0,0 UV-I 0 W/m -0,2 C -4,6 C 16,1 km/h (3 Bft) 100,00 %
27.12.2017 23:47 0,9 C 4,4 C 92 % 988,4 hPa 0,0 l/m 14,5 km/h (3 Bft) W-SW 247 0 min 0,000 mm 0,0 UV-I 0 W/m -0,2 C -5,6 C 17,7 km/h (3 Bft) 95,65 %
27.12.2017 23:48 0,9 C 4,4 C 92 % 988,4 hPa 0,0 l/m 11,3 km/h (2 Bft) W-SW 247 0 min 0,000 mm 0,0 UV-I 0 W/m -0,2 C -3,5 C 16,1 km/h (3 Bft) 100,00 %
27.12.2017 23:49 1,0 C 4,4 C 92 % 988,4 hPa 0,0 l/m 12,9 km/h (3 Bft) W-SW 247 0 min 0,000 mm 0,0 UV-I 0 W/m -0,2 C -4,5 C 16,1 km/h (3 Bft) 100,00 %
27.12.2017 23:50 1,0 C 4,4 C 92 % 988,4 hPa 0,0 l/m 11,3 km/h (2 Bft) W-SW 247 0 min 0,000 mm 0,0 UV-I 0 W/m -0,2 C -3,3 C 16,1 km/h (3 Bft) 100,00 %
27.12.2017 23:51 1,0 C 4,4 C 91 % 988,4 hPa 0,0 l/m 9,7 km/h (2 Bft) W-SW 247 0 min 0,000 mm 0,0 UV-I 0 W/m -0,3 C -2,1 C 16,1 km/h (3 Bft) 100,00 %
27.12.2017 23:52 1,0 C 4,4 C 91 % 988,4 hPa 0,0 l/m 8,0 km/h (2 Bft) W-SW 247 0 min 0,000 mm 0,0 UV-I 0 W/m -0,3 C -0,6 C 12,9 km/h (3 Bft) 100,00 %
27.12.2017 23:53 1,0 C 4,4 C 91 % 988,4 hPa 0,0 l/m 9,7 km/h (2 Bft) W-SW 247 0 min 0,000 mm 0,0 UV-I 0 W/m -0,3 C -2,1 C 14,5 km/h (3 Bft) 100,00 %
27.12.2017 23:54 1,0 C 4,4 C 91 % 988,4 hPa 0,0 l/m 11,3 km/h (2 Bft) W-SW 247 0 min 0,000 mm 0,0 UV-I 0 W/m -0,3 C -3,3 C 16,1 km/h (3 Bft) 95,65 %
27.12.2017 23:55 1,0 C 4,4 C 91 % 988,4 hPa 0,0 l/m 9,7 km/h (2 Bft) SW 225 0 min 0,000 mm 0,0 UV-I 0 W/m -0,3 C -2,1 C 12,9 km/h (3 Bft) 100,00 %
27.12.2017 23:56 1,0 C 4,4 C 91 % 988,5 hPa 0,0 l/m 11,3 km/h (2 Bft) SW 225 0 min 0,000 mm 0,0 UV-I 0 W/m -0,3 C -3,3 C 16,1 km/h (3 Bft) 95,65 %
27.12.2017 23:57 1,1 C 4,4 C 91 % 988,5 hPa 0,0 l/m 11,3 km/h (2 Bft) SW 225 0 min 0,000 mm 0,0 UV-I 0 W/m -0,2 C -3,2 C 16,1 km/h (3 Bft) 100,00 %
27.12.2017 23:58 1,1 C 4,4 C 91 % 988,5 hPa 0,0 l/m 9,7 km/h (2 Bft) SW 225 0 min 0,000 mm 0,0 UV-I 0 W/m -0,2 C -2,0 C 14,5 km/h (3 Bft) 100,00 %
27.12.2017 23:59 1,1 C 4,4 C 91 % 988,6 hPa 0,0 l/m 12,9 km/h (3 Bft) SW 225 0 min 0,000 mm 0,0 UV-I 0 W/m -0,2 C -4,3 C 16,1 km/h (3 Bft) 100,00 %
_ Min-Zeit 00:32 06:32 19:58 21:06 - 00:00 - - - - - - 00:32 08:02 00:13 11:53
Minimum _ -2,4 C 3,9 C 77 % 985,1 hPa - 0,0 km/h (0 Bft) - - - - - - -2,8 C -12,7 C 0,0 km/h (0 Bft) 21,74 %
_ Max-Zeit 19:33 00:00 08:52 00:00 00:00 18:22 - - 08:06 10:00 00:00 10:07 18:54 21:25 18:32 00:00
Maximum _ 7,1 C 4,4 C 98 % 1005,9 hPa 0,0 l/m 27,4 km/h
O (4 Bft)
- - 1 min 0,025 mm 0,0 UV-I 100 W/m 4,6 C 6,2 C 40,2 km/h
O-SO (6 Bft)
100,00 %
Durchschnitt _ -0,0 C 4,4 C 95 % 992,9 hPa #0,0 l/m 9,1 km/h (2 Bft) O-NO - #2 min. #0,225 mm 0,0 UV-I 45 W/m -0,8 C -2,9 C 12,7 km/h (3 Bft) 97,28 %